<?xml version="1.0" encoding="UTF-8" standalone="no" ?>
<gpx xmlns="http://www.topografix.com/GPX/1/1" xmlns:xsi="http://www.w3.org/2001/XMLSchema-instance" xsi:schemaLocation="http://www.topografix.com/GPX/1/1 http://www.topografix.com/GPX/1/1/gpx.xsd" version="1.1" creator="VisuGPX - https://www.visugpx.com">
  <metadata>
    <name>RoadTrip Moto Ecosse Juin 2021 - V2</name>
  </metadata>
  <trk>
    <name><![CDATA[J08b - Hartfield Cave, Applecross - Ullapool Youth Hostel, Ullapool]]></name>
    <trkseg>
      <trkpt lat="57.45234" lon="-5.79898">
        <ele>19.18</ele>
        <time>2021-03-20T20:45:27Z</time>
      </trkpt>
      <trkpt lat="57.45219" lon="-5.79895">
        <ele>18.99</ele>
        <time>2021-03-20T20:45:41Z</time>
      </trkpt>
      <trkpt lat="57.45155" lon="-5.79869">
        <ele>15.58</ele>
        <time>2021-03-20T20:45:56Z</time>
      </trkpt>
      <trkpt lat="57.45067" lon="-5.79843">
        <ele>13.8</ele>
        <time>2021-03-20T20:46:10Z</time>
      </trkpt>
      <trkpt lat="57.45035" lon="-5.79848">
        <ele>14.23</ele>
        <time>2021-03-20T20:46:24Z</time>
      </trkpt>
      <trkpt lat="57.44965" lon="-5.7991">
        <ele>14.23</ele>
        <time>2021-03-20T20:46:39Z</time>
      </trkpt>
      <trkpt lat="57.44828" lon="-5.80062">
        <ele>10.59</ele>
        <time>2021-03-20T20:46:53Z</time>
      </trkpt>
      <trkpt lat="57.44806" lon="-5.80088">
        <ele>9.03</ele>
        <time>2021-03-20T20:47:08Z</time>
      </trkpt>
      <trkpt lat="57.4479" lon="-5.80113">
        <ele>10.11</ele>
        <time>2021-03-20T20:47:22Z</time>
      </trkpt>
      <trkpt lat="57.44767" lon="-5.80153">
        <ele>10.25</ele>
        <time>2021-03-20T20:47:37Z</time>
      </trkpt>
      <trkpt lat="57.44717" lon="-5.80274">
        <ele>11.61</ele>
        <time>2021-03-20T20:47:51Z</time>
      </trkpt>
      <trkpt lat="57.44699" lon="-5.80346">
        <ele>11.23</ele>
        <time>2021-03-20T20:48:05Z</time>
      </trkpt>
      <trkpt lat="57.44691" lon="-5.80403">
        <ele>9.63</ele>
        <time>2021-03-20T20:48:20Z</time>
      </trkpt>
      <trkpt lat="57.44681" lon="-5.80499">
        <ele>7.02</ele>
        <time>2021-03-20T20:48:34Z</time>
      </trkpt>
      <trkpt lat="57.44664" lon="-5.80559">
        <ele>8.1</ele>
        <time>2021-03-20T20:48:49Z</time>
      </trkpt>
      <trkpt lat="57.44646" lon="-5.80596">
        <ele>8.76</ele>
        <time>2021-03-20T20:49:03Z</time>
      </trkpt>
      <trkpt lat="57.44574" lon="-5.80715">
        <ele>8.98</ele>
        <time>2021-03-20T20:49:17Z</time>
      </trkpt>
      <trkpt lat="57.4451" lon="-5.80813">
        <ele>6.74</ele>
        <time>2021-03-20T20:49:32Z</time>
      </trkpt>
      <trkpt lat="57.44363" lon="-5.81001">
        <ele>4.96</ele>
        <time>2021-03-20T20:49:46Z</time>
      </trkpt>
      <trkpt lat="57.4433" lon="-5.81047">
        <ele>3</ele>
        <time>2021-03-20T20:50:01Z</time>
      </trkpt>
      <trkpt lat="57.44352" lon="-5.81111">
        <ele>3.68</ele>
        <time>2021-03-20T20:50:04Z</time>
      </trkpt>
      <trkpt lat="57.44362" lon="-5.81147">
        <ele>4</ele>
        <time>2021-03-20T20:50:08Z</time>
      </trkpt>
      <trkpt lat="57.44374" lon="-5.81207">
        <ele>4.46</ele>
        <time>2021-03-20T20:50:11Z</time>
      </trkpt>
      <trkpt lat="57.44382" lon="-5.81258">
        <ele>4.77</ele>
        <time>2021-03-20T20:50:15Z</time>
      </trkpt>
      <trkpt lat="57.44386" lon="-5.81295">
        <ele>4.96</ele>
        <time>2021-03-20T20:50:19Z</time>
      </trkpt>
      <trkpt lat="57.44392" lon="-5.8139">
        <ele>4.13</ele>
        <time>2021-03-20T20:50:22Z</time>
      </trkpt>
      <trkpt lat="57.44412" lon="-5.8177">
        <ele>12.77</ele>
        <time>2021-03-20T20:50:26Z</time>
      </trkpt>
      <trkpt lat="57.4442" lon="-5.81869">
        <ele>15.06</ele>
        <time>2021-03-20T20:50:30Z</time>
      </trkpt>
      <trkpt lat="57.44423" lon="-5.81926">
        <ele>16.37</ele>
        <time>2021-03-20T20:50:33Z</time>
      </trkpt>
      <trkpt lat="57.44423" lon="-5.82009">
        <ele>17.82</ele>
        <time>2021-03-20T20:50:37Z</time>
      </trkpt>
      <trkpt lat="57.44418" lon="-5.82081">
        <ele>22.03</ele>
        <time>2021-03-20T20:50:41Z</time>
      </trkpt>
      <trkpt lat="57.44409" lon="-5.8217">
        <ele>25.24</ele>
        <time>2021-03-20T20:50:44Z</time>
      </trkpt>
      <trkpt lat="57.44396" lon="-5.82236">
        <ele>23.4</ele>
        <time>2021-03-20T20:50:48Z</time>
      </trkpt>
      <trkpt lat="57.44331" lon="-5.82488">
        <ele>24.53</ele>
        <time>2021-03-20T20:50:51Z</time>
      </trkpt>
      <trkpt lat="57.44318" lon="-5.82544">
        <ele>26.76</ele>
        <time>2021-03-20T20:50:55Z</time>
      </trkpt>
      <trkpt lat="57.44307" lon="-5.82599">
        <ele>31.06</ele>
        <time>2021-03-20T20:50:59Z</time>
      </trkpt>
      <trkpt lat="57.44224" lon="-5.83083">
        <ele>30.75</ele>
        <time>2021-03-20T20:51:02Z</time>
      </trkpt>
      <trkpt lat="57.44215" lon="-5.83163">
        <ele>30.98</ele>
        <time>2021-03-20T20:51:06Z</time>
      </trkpt>
      <trkpt lat="57.44212" lon="-5.83197">
        <ele>31.17</ele>
        <time>2021-03-20T20:51:10Z</time>
      </trkpt>
      <trkpt lat="57.44211" lon="-5.83236">
        <ele>32.07</ele>
        <time>2021-03-20T20:51:13Z</time>
      </trkpt>
      <trkpt lat="57.44215" lon="-5.83384">
        <ele>37.61</ele>
        <time>2021-03-20T20:51:17Z</time>
      </trkpt>
      <trkpt lat="57.44214" lon="-5.83437">
        <ele>36.25</ele>
        <time>2021-03-20T20:51:21Z</time>
      </trkpt>
      <trkpt lat="57.4421" lon="-5.83477">
        <ele>34.04</ele>
        <time>2021-03-20T20:51:24Z</time>
      </trkpt>
      <trkpt lat="57.44204" lon="-5.83513">
        <ele>32.75</ele>
        <time>2021-03-20T20:51:28Z</time>
      </trkpt>
      <trkpt lat="57.44174" lon="-5.83632">
        <ele>29.63</ele>
        <time>2021-03-20T20:51:32Z</time>
      </trkpt>
      <trkpt lat="57.44163" lon="-5.83686">
        <ele>30.36</ele>
        <time>2021-03-20T20:51:35Z</time>
      </trkpt>
      <trkpt lat="57.44156" lon="-5.83737">
        <ele>31.27</ele>
        <time>2021-03-20T20:51:39Z</time>
      </trkpt>
      <trkpt lat="57.44155" lon="-5.83783">
        <ele>32.49</ele>
        <time>2021-03-20T20:51:42Z</time>
      </trkpt>
      <trkpt lat="57.44156" lon="-5.83942">
        <ele>33.47</ele>
        <time>2021-03-20T20:51:46Z</time>
      </trkpt>
      <trkpt lat="57.44155" lon="-5.84001">
        <ele>31.81</ele>
        <time>2021-03-20T20:51:50Z</time>
      </trkpt>
      <trkpt lat="57.4415" lon="-5.84063">
        <ele>27.79</ele>
        <time>2021-03-20T20:51:53Z</time>
      </trkpt>
      <trkpt lat="57.44133" lon="-5.84191">
        <ele>25.42</ele>
        <time>2021-03-20T20:51:57Z</time>
      </trkpt>
      <trkpt lat="57.44131" lon="-5.84235">
        <ele>24.1</ele>
        <time>2021-03-20T20:52:01Z</time>
      </trkpt>
      <trkpt lat="57.44131" lon="-5.84273">
        <ele>23.06</ele>
        <time>2021-03-20T20:52:04Z</time>
      </trkpt>
      <trkpt lat="57.44135" lon="-5.84315">
        <ele>24.45</ele>
        <time>2021-03-20T20:52:08Z</time>
      </trkpt>
      <trkpt lat="57.44145" lon="-5.84378">
        <ele>28.76</ele>
        <time>2021-03-20T20:52:12Z</time>
      </trkpt>
      <trkpt lat="57.4419" lon="-5.84596">
        <ele>29.47</ele>
        <time>2021-03-20T20:52:15Z</time>
      </trkpt>
      <trkpt lat="57.44199" lon="-5.84655">
        <ele>24.52</ele>
        <time>2021-03-20T20:52:19Z</time>
      </trkpt>
      <trkpt lat="57.44205" lon="-5.8472">
        <ele>21.91</ele>
        <time>2021-03-20T20:52:23Z</time>
      </trkpt>
      <trkpt lat="57.44208" lon="-5.84779">
        <ele>20.28</ele>
        <time>2021-03-20T20:52:26Z</time>
      </trkpt>
      <trkpt lat="57.44212" lon="-5.84959">
        <ele>26.08</ele>
        <time>2021-03-20T20:52:30Z</time>
      </trkpt>
      <trkpt lat="57.44216" lon="-5.85031">
        <ele>27.59</ele>
        <time>2021-03-20T20:52:33Z</time>
      </trkpt>
      <trkpt lat="57.44221" lon="-5.85076">
        <ele>27.24</ele>
        <time>2021-03-20T20:52:37Z</time>
      </trkpt>
      <trkpt lat="57.44229" lon="-5.85126">
        <ele>25.83</ele>
        <time>2021-03-20T20:52:41Z</time>
      </trkpt>
      <trkpt lat="57.44242" lon="-5.85182">
        <ele>25.25</ele>
        <time>2021-03-20T20:52:44Z</time>
      </trkpt>
      <trkpt lat="57.44262" lon="-5.85242">
        <ele>26.45</ele>
        <time>2021-03-20T20:52:48Z</time>
      </trkpt>
      <trkpt lat="57.44309" lon="-5.85362">
        <ele>25.94</ele>
        <time>2021-03-20T20:52:52Z</time>
      </trkpt>
      <trkpt lat="57.44333" lon="-5.85415">
        <ele>24.15</ele>
        <time>2021-03-20T20:52:55Z</time>
      </trkpt>
      <trkpt lat="57.44353" lon="-5.85448">
        <ele>23.48</ele>
        <time>2021-03-20T20:52:59Z</time>
      </trkpt>
      <trkpt lat="57.44388" lon="-5.85495">
        <ele>23.75</ele>
        <time>2021-03-20T20:53:03Z</time>
      </trkpt>
      <trkpt lat="57.44512" lon="-5.8563">
        <ele>21.17</ele>
        <time>2021-03-20T20:53:06Z</time>
      </trkpt>
      <trkpt lat="57.44557" lon="-5.85667">
        <ele>20.25</ele>
        <time>2021-03-20T20:53:10Z</time>
      </trkpt>
      <trkpt lat="57.44591" lon="-5.8569">
        <ele>21.23</ele>
        <time>2021-03-20T20:53:13Z</time>
      </trkpt>
      <trkpt lat="57.44714" lon="-5.85742">
        <ele>28.46</ele>
        <time>2021-03-20T20:53:17Z</time>
      </trkpt>
      <trkpt lat="57.44744" lon="-5.8576">
        <ele>27.16</ele>
        <time>2021-03-20T20:53:21Z</time>
      </trkpt>
      <trkpt lat="57.44773" lon="-5.85783">
        <ele>26.36</ele>
        <time>2021-03-20T20:53:24Z</time>
      </trkpt>
      <trkpt lat="57.44856" lon="-5.85875">
        <ele>25.76</ele>
        <time>2021-03-20T20:53:28Z</time>
      </trkpt>
      <trkpt lat="57.44894" lon="-5.85909">
        <ele>24.14</ele>
        <time>2021-03-20T20:53:32Z</time>
      </trkpt>
      <trkpt lat="57.4493" lon="-5.85937">
        <ele>23.55</ele>
        <time>2021-03-20T20:53:35Z</time>
      </trkpt>
      <trkpt lat="57.44958" lon="-5.8595">
        <ele>24.24</ele>
        <time>2021-03-20T20:53:39Z</time>
      </trkpt>
      <trkpt lat="57.45265" lon="-5.86032">
        <ele>27.85</ele>
        <time>2021-03-20T20:53:43Z</time>
      </trkpt>
      <trkpt lat="57.45331" lon="-5.86056">
        <ele>29.69</ele>
        <time>2021-03-20T20:53:46Z</time>
      </trkpt>
      <trkpt lat="57.45514" lon="-5.86129">
        <ele>24.81</ele>
        <time>2021-03-20T20:53:50Z</time>
      </trkpt>
      <trkpt lat="57.45554" lon="-5.86139">
        <ele>22.92</ele>
        <time>2021-03-20T20:53:54Z</time>
      </trkpt>
      <trkpt lat="57.45592" lon="-5.8614">
        <ele>23.48</ele>
        <time>2021-03-20T20:53:57Z</time>
      </trkpt>
      <trkpt lat="57.45665" lon="-5.86127">
        <ele>27</ele>
        <time>2021-03-20T20:54:01Z</time>
      </trkpt>
      <trkpt lat="57.45823" lon="-5.8608">
        <ele>26.35</ele>
        <time>2021-03-20T20:54:04Z</time>
      </trkpt>
      <trkpt lat="57.45866" lon="-5.86071">
        <ele>27.12</ele>
        <time>2021-03-20T20:54:08Z</time>
      </trkpt>
      <trkpt lat="57.45909" lon="-5.86066">
        <ele>28.68</ele>
        <time>2021-03-20T20:54:12Z</time>
      </trkpt>
      <trkpt lat="57.45958" lon="-5.86067">
        <ele>29.31</ele>
        <time>2021-03-20T20:54:15Z</time>
      </trkpt>
      <trkpt lat="57.46014" lon="-5.86072">
        <ele>28.33</ele>
        <time>2021-03-20T20:54:19Z</time>
      </trkpt>
      <trkpt lat="57.46081" lon="-5.86082">
        <ele>27.24</ele>
        <time>2021-03-20T20:54:23Z</time>
      </trkpt>
      <trkpt lat="57.46136" lon="-5.86098">
        <ele>25.82</ele>
        <time>2021-03-20T20:54:26Z</time>
      </trkpt>
      <trkpt lat="57.46363" lon="-5.86198">
        <ele>14.89</ele>
        <time>2021-03-20T20:54:30Z</time>
      </trkpt>
      <trkpt lat="57.46411" lon="-5.8621">
        <ele>18.29</ele>
        <time>2021-03-20T20:54:34Z</time>
      </trkpt>
      <trkpt lat="57.46463" lon="-5.86215">
        <ele>21.14</ele>
        <time>2021-03-20T20:54:37Z</time>
      </trkpt>
      <trkpt lat="57.46534" lon="-5.86206">
        <ele>26.32</ele>
        <time>2021-03-20T20:54:41Z</time>
      </trkpt>
      <trkpt lat="57.46711" lon="-5.86158">
        <ele>47.24</ele>
        <time>2021-03-20T20:54:45Z</time>
      </trkpt>
      <trkpt lat="57.46759" lon="-5.86139">
        <ele>55.9</ele>
        <time>2021-03-20T20:54:48Z</time>
      </trkpt>
      <trkpt lat="57.46837" lon="-5.86103">
        <ele>65.3</ele>
        <time>2021-03-20T20:54:52Z</time>
      </trkpt>
      <trkpt lat="57.4694" lon="-5.86069">
        <ele>70.98</ele>
        <time>2021-03-20T20:54:55Z</time>
      </trkpt>
      <trkpt lat="57.47047" lon="-5.86023">
        <ele>60.31</ele>
        <time>2021-03-20T20:54:59Z</time>
      </trkpt>
      <trkpt lat="57.47079" lon="-5.86016">
        <ele>56.07</ele>
        <time>2021-03-20T20:55:03Z</time>
      </trkpt>
      <trkpt lat="57.47116" lon="-5.86024">
        <ele>54.44</ele>
        <time>2021-03-20T20:55:06Z</time>
      </trkpt>
      <trkpt lat="57.47138" lon="-5.86039">
        <ele>54.33</ele>
        <time>2021-03-20T20:55:10Z</time>
      </trkpt>
      <trkpt lat="57.47174" lon="-5.86076">
        <ele>53.73</ele>
        <time>2021-03-20T20:55:14Z</time>
      </trkpt>
      <trkpt lat="57.47254" lon="-5.86194">
        <ele>45.76</ele>
        <time>2021-03-20T20:55:17Z</time>
      </trkpt>
      <trkpt lat="57.47333" lon="-5.86296">
        <ele>38.57</ele>
        <time>2021-03-20T20:55:21Z</time>
      </trkpt>
      <trkpt lat="57.47368" lon="-5.86318">
        <ele>36.99</ele>
        <time>2021-03-20T20:55:25Z</time>
      </trkpt>
      <trkpt lat="57.47614" lon="-5.86402">
        <ele>28.03</ele>
        <time>2021-03-20T20:55:28Z</time>
      </trkpt>
      <trkpt lat="57.47654" lon="-5.86412">
        <ele>29.27</ele>
        <time>2021-03-20T20:55:32Z</time>
      </trkpt>
      <trkpt lat="57.47688" lon="-5.86409">
        <ele>29.66</ele>
        <time>2021-03-20T20:55:35Z</time>
      </trkpt>
      <trkpt lat="57.47875" lon="-5.86348">
        <ele>42.79</ele>
        <time>2021-03-20T20:55:39Z</time>
      </trkpt>
      <trkpt lat="57.47954" lon="-5.86328">
        <ele>48.52</ele>
        <time>2021-03-20T20:55:43Z</time>
      </trkpt>
      <trkpt lat="57.48009" lon="-5.86321">
        <ele>51.08</ele>
        <time>2021-03-20T20:55:46Z</time>
      </trkpt>
      <trkpt lat="57.48063" lon="-5.86318">
        <ele>53.29</ele>
        <time>2021-03-20T20:55:50Z</time>
      </trkpt>
      <trkpt lat="57.48132" lon="-5.86329">
        <ele>52.89</ele>
        <time>2021-03-20T20:55:54Z</time>
      </trkpt>
      <trkpt lat="57.48265" lon="-5.86377">
        <ele>54.55</ele>
        <time>2021-03-20T20:55:57Z</time>
      </trkpt>
      <trkpt lat="57.48298" lon="-5.86382">
        <ele>55.72</ele>
        <time>2021-03-20T20:56:01Z</time>
      </trkpt>
      <trkpt lat="57.48337" lon="-5.86381">
        <ele>57.72</ele>
        <time>2021-03-20T20:56:05Z</time>
      </trkpt>
      <trkpt lat="57.48377" lon="-5.86373">
        <ele>57.99</ele>
        <time>2021-03-20T20:56:08Z</time>
      </trkpt>
      <trkpt lat="57.48409" lon="-5.86363">
        <ele>58.76</ele>
        <time>2021-03-20T20:56:12Z</time>
      </trkpt>
      <trkpt lat="57.48443" lon="-5.86348">
        <ele>59.01</ele>
        <time>2021-03-20T20:56:16Z</time>
      </trkpt>
      <trkpt lat="57.48514" lon="-5.86306">
        <ele>56.98</ele>
        <time>2021-03-20T20:56:19Z</time>
      </trkpt>
      <trkpt lat="57.48908" lon="-5.86098">
        <ele>68.75</ele>
        <time>2021-03-20T20:56:23Z</time>
      </trkpt>
      <trkpt lat="57.48954" lon="-5.86084">
        <ele>66.63</ele>
        <time>2021-03-20T20:56:26Z</time>
      </trkpt>
      <trkpt lat="57.48982" lon="-5.86082">
        <ele>66.24</ele>
        <time>2021-03-20T20:56:30Z</time>
      </trkpt>
      <trkpt lat="57.49309" lon="-5.86118">
        <ele>55.53</ele>
        <time>2021-03-20T20:56:34Z</time>
      </trkpt>
      <trkpt lat="57.49367" lon="-5.86117">
        <ele>55.79</ele>
        <time>2021-03-20T20:56:37Z</time>
      </trkpt>
      <trkpt lat="57.49938" lon="-5.85983">
        <ele>51.08</ele>
        <time>2021-03-20T20:56:41Z</time>
      </trkpt>
      <trkpt lat="57.49975" lon="-5.85977">
        <ele>52.57</ele>
        <time>2021-03-20T20:56:45Z</time>
      </trkpt>
      <trkpt lat="57.5002" lon="-5.85979">
        <ele>53.08</ele>
        <time>2021-03-20T20:56:48Z</time>
      </trkpt>
      <trkpt lat="57.50118" lon="-5.85992">
        <ele>51.05</ele>
        <time>2021-03-20T20:56:52Z</time>
      </trkpt>
      <trkpt lat="57.50206" lon="-5.85997">
        <ele>52.69</ele>
        <time>2021-03-20T20:56:56Z</time>
      </trkpt>
      <trkpt lat="57.50401" lon="-5.85989">
        <ele>57.22</ele>
        <time>2021-03-20T20:56:59Z</time>
      </trkpt>
      <trkpt lat="57.50859" lon="-5.85955">
        <ele>50.31</ele>
        <time>2021-03-20T20:57:03Z</time>
      </trkpt>
      <trkpt lat="57.50962" lon="-5.85938">
        <ele>47.83</ele>
        <time>2021-03-20T20:57:07Z</time>
      </trkpt>
      <trkpt lat="57.51419" lon="-5.85809">
        <ele>39.68</ele>
        <time>2021-03-20T20:57:10Z</time>
      </trkpt>
      <trkpt lat="57.51592" lon="-5.85764">
        <ele>36.19</ele>
        <time>2021-03-20T20:57:14Z</time>
      </trkpt>
      <trkpt lat="57.51614" lon="-5.85754">
        <ele>35.67</ele>
        <time>2021-03-20T20:57:17Z</time>
      </trkpt>
      <trkpt lat="57.51647" lon="-5.85734">
        <ele>34.58</ele>
        <time>2021-03-20T20:57:21Z</time>
      </trkpt>
      <trkpt lat="57.51681" lon="-5.85705">
        <ele>32.94</ele>
        <time>2021-03-20T20:57:25Z</time>
      </trkpt>
      <trkpt lat="57.51728" lon="-5.8566">
        <ele>30.59</ele>
        <time>2021-03-20T20:57:28Z</time>
      </trkpt>
      <trkpt lat="57.51768" lon="-5.85615">
        <ele>28.58</ele>
        <time>2021-03-20T20:57:32Z</time>
      </trkpt>
      <trkpt lat="57.51813" lon="-5.85573">
        <ele>25.8</ele>
        <time>2021-03-20T20:57:36Z</time>
      </trkpt>
      <trkpt lat="57.51854" lon="-5.85549">
        <ele>24.27</ele>
        <time>2021-03-20T20:57:39Z</time>
      </trkpt>
      <trkpt lat="57.51864" lon="-5.85539">
        <ele>24</ele>
        <time>2021-03-20T20:57:43Z</time>
      </trkpt>
      <trkpt lat="57.51885" lon="-5.85499">
        <ele>24.86</ele>
        <time>2021-03-20T20:57:47Z</time>
      </trkpt>
      <trkpt lat="57.51897" lon="-5.85466">
        <ele>25.24</ele>
        <time>2021-03-20T20:57:50Z</time>
      </trkpt>
      <trkpt lat="57.51918" lon="-5.85387">
        <ele>27.02</ele>
        <time>2021-03-20T20:57:54Z</time>
      </trkpt>
      <trkpt lat="57.51935" lon="-5.85344">
        <ele>27.96</ele>
        <time>2021-03-20T20:57:57Z</time>
      </trkpt>
      <trkpt lat="57.51957" lon="-5.8531">
        <ele>29.94</ele>
        <time>2021-03-20T20:58:01Z</time>
      </trkpt>
      <trkpt lat="57.52028" lon="-5.85236">
        <ele>35.03</ele>
        <time>2021-03-20T20:58:05Z</time>
      </trkpt>
      <trkpt lat="57.52058" lon="-5.85211">
        <ele>36.13</ele>
        <time>2021-03-20T20:58:08Z</time>
      </trkpt>
      <trkpt lat="57.52088" lon="-5.85195">
        <ele>36.97</ele>
        <time>2021-03-20T20:58:12Z</time>
      </trkpt>
      <trkpt lat="57.52149" lon="-5.85171">
        <ele>40.34</ele>
        <time>2021-03-20T20:58:16Z</time>
      </trkpt>
      <trkpt lat="57.52173" lon="-5.85165">
        <ele>41.2</ele>
        <time>2021-03-20T20:58:19Z</time>
      </trkpt>
      <trkpt lat="57.52224" lon="-5.85177">
        <ele>40.09</ele>
        <time>2021-03-20T20:58:23Z</time>
      </trkpt>
      <trkpt lat="57.52255" lon="-5.85169">
        <ele>41.26</ele>
        <time>2021-03-20T20:58:27Z</time>
      </trkpt>
      <trkpt lat="57.52286" lon="-5.85149">
        <ele>42.26</ele>
        <time>2021-03-20T20:58:30Z</time>
      </trkpt>
      <trkpt lat="57.52316" lon="-5.85136">
        <ele>41.95</ele>
        <time>2021-03-20T20:58:34Z</time>
      </trkpt>
      <trkpt lat="57.52417" lon="-5.85112">
        <ele>43.73</ele>
        <time>2021-03-20T20:58:38Z</time>
      </trkpt>
      <trkpt lat="57.52444" lon="-5.8511">
        <ele>45.18</ele>
        <time>2021-03-20T20:58:41Z</time>
      </trkpt>
      <trkpt lat="57.52462" lon="-5.85112">
        <ele>44.85</ele>
        <time>2021-03-20T20:58:45Z</time>
      </trkpt>
      <trkpt lat="57.52517" lon="-5.85127">
        <ele>43.44</ele>
        <time>2021-03-20T20:58:48Z</time>
      </trkpt>
      <trkpt lat="57.52549" lon="-5.85126">
        <ele>43.79</ele>
        <time>2021-03-20T20:58:52Z</time>
      </trkpt>
      <trkpt lat="57.5259" lon="-5.85119">
        <ele>45.01</ele>
        <time>2021-03-20T20:58:56Z</time>
      </trkpt>
      <trkpt lat="57.52627" lon="-5.85121">
        <ele>43.39</ele>
        <time>2021-03-20T20:58:59Z</time>
      </trkpt>
      <trkpt lat="57.52661" lon="-5.85118">
        <ele>43.59</ele>
        <time>2021-03-20T20:59:03Z</time>
      </trkpt>
      <trkpt lat="57.52722" lon="-5.85134">
        <ele>42.05</ele>
        <time>2021-03-20T20:59:07Z</time>
      </trkpt>
      <trkpt lat="57.52788" lon="-5.85169">
        <ele>40.27</ele>
        <time>2021-03-20T20:59:10Z</time>
      </trkpt>
      <trkpt lat="57.52831" lon="-5.85181">
        <ele>38.47</ele>
        <time>2021-03-20T20:59:14Z</time>
      </trkpt>
      <trkpt lat="57.5292" lon="-5.85174">
        <ele>40</ele>
        <time>2021-03-20T20:59:18Z</time>
      </trkpt>
      <trkpt lat="57.53017" lon="-5.85188">
        <ele>40.49</ele>
        <time>2021-03-20T20:59:21Z</time>
      </trkpt>
      <trkpt lat="57.53078" lon="-5.85176">
        <ele>41.56</ele>
        <time>2021-03-20T20:59:25Z</time>
      </trkpt>
      <trkpt lat="57.53111" lon="-5.85165">
        <ele>42.19</ele>
        <time>2021-03-20T20:59:29Z</time>
      </trkpt>
      <trkpt lat="57.53178" lon="-5.85135">
        <ele>45.19</ele>
        <time>2021-03-20T20:59:32Z</time>
      </trkpt>
      <trkpt lat="57.53223" lon="-5.85104">
        <ele>47.76</ele>
        <time>2021-03-20T20:59:36Z</time>
      </trkpt>
      <trkpt lat="57.53253" lon="-5.85088">
        <ele>48.27</ele>
        <time>2021-03-20T20:59:39Z</time>
      </trkpt>
      <trkpt lat="57.53278" lon="-5.8508">
        <ele>47.51</ele>
        <time>2021-03-20T20:59:43Z</time>
      </trkpt>
      <trkpt lat="57.53358" lon="-5.85084">
        <ele>46.82</ele>
        <time>2021-03-20T20:59:47Z</time>
      </trkpt>
      <trkpt lat="57.53473" lon="-5.85104">
        <ele>45.53</ele>
        <time>2021-03-20T20:59:50Z</time>
      </trkpt>
      <trkpt lat="57.53508" lon="-5.85106">
        <ele>46.37</ele>
        <time>2021-03-20T20:59:54Z</time>
      </trkpt>
      <trkpt lat="57.53557" lon="-5.85102">
        <ele>46.28</ele>
        <time>2021-03-20T20:59:58Z</time>
      </trkpt>
      <trkpt lat="57.53672" lon="-5.85074">
        <ele>43.05</ele>
        <time>2021-03-20T21:00:01Z</time>
      </trkpt>
      <trkpt lat="57.53703" lon="-5.85061">
        <ele>41.68</ele>
        <time>2021-03-20T21:00:05Z</time>
      </trkpt>
      <trkpt lat="57.53876" lon="-5.84955">
        <ele>42.57</ele>
        <time>2021-03-20T21:00:09Z</time>
      </trkpt>
      <trkpt lat="57.53895" lon="-5.8494">
        <ele>42.59</ele>
        <time>2021-03-20T21:00:12Z</time>
      </trkpt>
      <trkpt lat="57.53976" lon="-5.84889">
        <ele>53.79</ele>
        <time>2021-03-20T21:00:16Z</time>
      </trkpt>
      <trkpt lat="57.54023" lon="-5.84835">
        <ele>55.22</ele>
        <time>2021-03-20T21:00:19Z</time>
      </trkpt>
      <trkpt lat="57.54049" lon="-5.8482">
        <ele>57.08</ele>
        <time>2021-03-20T21:00:23Z</time>
      </trkpt>
      <trkpt lat="57.54065" lon="-5.84818">
        <ele>58.67</ele>
        <time>2021-03-20T21:00:27Z</time>
      </trkpt>
      <trkpt lat="57.54115" lon="-5.84828">
        <ele>63.07</ele>
        <time>2021-03-20T21:00:30Z</time>
      </trkpt>
      <trkpt lat="57.54158" lon="-5.84823">
        <ele>66.14</ele>
        <time>2021-03-20T21:00:34Z</time>
      </trkpt>
      <trkpt lat="57.54184" lon="-5.84812">
        <ele>66.71</ele>
        <time>2021-03-20T21:00:38Z</time>
      </trkpt>
      <trkpt lat="57.54194" lon="-5.84804">
        <ele>67.23</ele>
        <time>2021-03-20T21:00:41Z</time>
      </trkpt>
      <trkpt lat="57.54221" lon="-5.84753">
        <ele>72.9</ele>
        <time>2021-03-20T21:00:45Z</time>
      </trkpt>
      <trkpt lat="57.54243" lon="-5.84696">
        <ele>73.47</ele>
        <time>2021-03-20T21:00:49Z</time>
      </trkpt>
      <trkpt lat="57.54263" lon="-5.84632">
        <ele>74.23</ele>
        <time>2021-03-20T21:00:52Z</time>
      </trkpt>
      <trkpt lat="57.54353" lon="-5.84261">
        <ele>70.3</ele>
        <time>2021-03-20T21:00:56Z</time>
      </trkpt>
      <trkpt lat="57.54366" lon="-5.84226">
        <ele>69.53</ele>
        <time>2021-03-20T21:01:00Z</time>
      </trkpt>
      <trkpt lat="57.54381" lon="-5.84209">
        <ele>67.9</ele>
        <time>2021-03-20T21:01:03Z</time>
      </trkpt>
      <trkpt lat="57.5443" lon="-5.84172">
        <ele>62.04</ele>
        <time>2021-03-20T21:01:07Z</time>
      </trkpt>
      <trkpt lat="57.54493" lon="-5.84131">
        <ele>55.08</ele>
        <time>2021-03-20T21:01:10Z</time>
      </trkpt>
      <trkpt lat="57.54558" lon="-5.84099">
        <ele>49.92</ele>
        <time>2021-03-20T21:01:14Z</time>
      </trkpt>
      <trkpt lat="57.54673" lon="-5.8405">
        <ele>43</ele>
        <time>2021-03-20T21:01:18Z</time>
      </trkpt>
      <trkpt lat="57.54703" lon="-5.84041">
        <ele>43</ele>
        <time>2021-03-20T21:01:21Z</time>
      </trkpt>
      <trkpt lat="57.54769" lon="-5.84049">
        <ele>43.07</ele>
        <time>2021-03-20T21:01:25Z</time>
      </trkpt>
      <trkpt lat="57.54895" lon="-5.8408">
        <ele>39.13</ele>
        <time>2021-03-20T21:01:29Z</time>
      </trkpt>
      <trkpt lat="57.5497" lon="-5.84112">
        <ele>38.06</ele>
        <time>2021-03-20T21:01:32Z</time>
      </trkpt>
      <trkpt lat="57.55087" lon="-5.84191">
        <ele>30.4</ele>
        <time>2021-03-20T21:01:36Z</time>
      </trkpt>
      <trkpt lat="57.55111" lon="-5.84202">
        <ele>27</ele>
        <time>2021-03-20T21:01:40Z</time>
      </trkpt>
      <trkpt lat="57.55126" lon="-5.84199">
        <ele>25.95</ele>
        <time>2021-03-20T21:01:43Z</time>
      </trkpt>
      <trkpt lat="57.55142" lon="-5.84181">
        <ele>24.38</ele>
        <time>2021-03-20T21:01:47Z</time>
      </trkpt>
      <trkpt lat="57.552" lon="-5.8399">
        <ele>19.42</ele>
        <time>2021-03-20T21:01:51Z</time>
      </trkpt>
      <trkpt lat="57.55209" lon="-5.83958">
        <ele>17.96</ele>
        <time>2021-03-20T21:01:54Z</time>
      </trkpt>
      <trkpt lat="57.55225" lon="-5.83869">
        <ele>13.91</ele>
        <time>2021-03-20T21:01:58Z</time>
      </trkpt>
      <trkpt lat="57.55225" lon="-5.83803">
        <ele>14.99</ele>
        <time>2021-03-20T21:02:01Z</time>
      </trkpt>
      <trkpt lat="57.5521" lon="-5.8364">
        <ele>19.42</ele>
        <time>2021-03-20T21:02:05Z</time>
      </trkpt>
      <trkpt lat="57.55217" lon="-5.83586">
        <ele>20.93</ele>
        <time>2021-03-20T21:02:09Z</time>
      </trkpt>
      <trkpt lat="57.55228" lon="-5.83547">
        <ele>21.78</ele>
        <time>2021-03-20T21:02:12Z</time>
      </trkpt>
      <trkpt lat="57.55245" lon="-5.83518">
        <ele>21.53</ele>
        <time>2021-03-20T21:02:16Z</time>
      </trkpt>
      <trkpt lat="57.5526" lon="-5.835">
        <ele>22.72</ele>
        <time>2021-03-20T21:02:20Z</time>
      </trkpt>
      <trkpt lat="57.55284" lon="-5.83477">
        <ele>25.5</ele>
        <time>2021-03-20T21:02:23Z</time>
      </trkpt>
      <trkpt lat="57.55332" lon="-5.83436">
        <ele>32.91</ele>
        <time>2021-03-20T21:02:27Z</time>
      </trkpt>
      <trkpt lat="57.55391" lon="-5.83402">
        <ele>33.84</ele>
        <time>2021-03-20T21:02:31Z</time>
      </trkpt>
      <trkpt lat="57.55424" lon="-5.83377">
        <ele>31.89</ele>
        <time>2021-03-20T21:02:34Z</time>
      </trkpt>
      <trkpt lat="57.55459" lon="-5.83342">
        <ele>29.97</ele>
        <time>2021-03-20T21:02:38Z</time>
      </trkpt>
      <trkpt lat="57.55482" lon="-5.83304">
        <ele>28.9</ele>
        <time>2021-03-20T21:02:41Z</time>
      </trkpt>
      <trkpt lat="57.55495" lon="-5.83278">
        <ele>27.01</ele>
        <time>2021-03-20T21:02:45Z</time>
      </trkpt>
      <trkpt lat="57.55509" lon="-5.83235">
        <ele>26.12</ele>
        <time>2021-03-20T21:02:49Z</time>
      </trkpt>
      <trkpt lat="57.55529" lon="-5.83196">
        <ele>24.96</ele>
        <time>2021-03-20T21:02:52Z</time>
      </trkpt>
      <trkpt lat="57.55542" lon="-5.83185">
        <ele>24.49</ele>
        <time>2021-03-20T21:02:56Z</time>
      </trkpt>
      <trkpt lat="57.55586" lon="-5.83165">
        <ele>23</ele>
        <time>2021-03-20T21:03:00Z</time>
      </trkpt>
      <trkpt lat="57.55647" lon="-5.83123">
        <ele>22.59</ele>
        <time>2021-03-20T21:03:03Z</time>
      </trkpt>
      <trkpt lat="57.55711" lon="-5.83049">
        <ele>26.07</ele>
        <time>2021-03-20T21:03:07Z</time>
      </trkpt>
      <trkpt lat="57.55854" lon="-5.82934">
        <ele>41.5</ele>
        <time>2021-03-20T21:03:11Z</time>
      </trkpt>
      <trkpt lat="57.55906" lon="-5.82885">
        <ele>41.94</ele>
        <time>2021-03-20T21:03:14Z</time>
      </trkpt>
      <trkpt lat="57.56051" lon="-5.82779">
        <ele>44.28</ele>
        <time>2021-03-20T21:03:18Z</time>
      </trkpt>
      <trkpt lat="57.56153" lon="-5.82722">
        <ele>50</ele>
        <time>2021-03-20T21:03:22Z</time>
      </trkpt>
      <trkpt lat="57.56176" lon="-5.82706">
        <ele>52.04</ele>
        <time>2021-03-20T21:03:25Z</time>
      </trkpt>
      <trkpt lat="57.56188" lon="-5.82689">
        <ele>53.48</ele>
        <time>2021-03-20T21:03:29Z</time>
      </trkpt>
      <trkpt lat="57.56195" lon="-5.82664">
        <ele>55</ele>
        <time>2021-03-20T21:03:32Z</time>
      </trkpt>
      <trkpt lat="57.56201" lon="-5.82611">
        <ele>55.55</ele>
        <time>2021-03-20T21:03:36Z</time>
      </trkpt>
      <trkpt lat="57.56202" lon="-5.82556">
        <ele>54.44</ele>
        <time>2021-03-20T21:03:40Z</time>
      </trkpt>
      <trkpt lat="57.56202" lon="-5.82484">
        <ele>51.78</ele>
        <time>2021-03-20T21:03:43Z</time>
      </trkpt>
      <trkpt lat="57.56207" lon="-5.82459">
        <ele>50.39</ele>
        <time>2021-03-20T21:03:47Z</time>
      </trkpt>
      <trkpt lat="57.56214" lon="-5.82437">
        <ele>49.21</ele>
        <time>2021-03-20T21:03:51Z</time>
      </trkpt>
      <trkpt lat="57.56226" lon="-5.82425">
        <ele>48.86</ele>
        <time>2021-03-20T21:03:54Z</time>
      </trkpt>
      <trkpt lat="57.56309" lon="-5.82403">
        <ele>46.62</ele>
        <time>2021-03-20T21:03:58Z</time>
      </trkpt>
      <trkpt lat="57.5635" lon="-5.82384">
        <ele>48.2</ele>
        <time>2021-03-20T21:04:02Z</time>
      </trkpt>
      <trkpt lat="57.56394" lon="-5.82358">
        <ele>49</ele>
        <time>2021-03-20T21:04:05Z</time>
      </trkpt>
      <trkpt lat="57.56446" lon="-5.82304">
        <ele>47.97</ele>
        <time>2021-03-20T21:04:09Z</time>
      </trkpt>
      <trkpt lat="57.56461" lon="-5.8228">
        <ele>46.79</ele>
        <time>2021-03-20T21:04:13Z</time>
      </trkpt>
      <trkpt lat="57.56485" lon="-5.82237">
        <ele>47.2</ele>
        <time>2021-03-20T21:04:16Z</time>
      </trkpt>
      <trkpt lat="57.56499" lon="-5.82219">
        <ele>48.09</ele>
        <time>2021-03-20T21:04:20Z</time>
      </trkpt>
      <trkpt lat="57.56525" lon="-5.82208">
        <ele>49.01</ele>
        <time>2021-03-20T21:04:23Z</time>
      </trkpt>
      <trkpt lat="57.56608" lon="-5.82182">
        <ele>47.94</ele>
        <time>2021-03-20T21:04:27Z</time>
      </trkpt>
      <trkpt lat="57.5665" lon="-5.82179">
        <ele>47.91</ele>
        <time>2021-03-20T21:04:31Z</time>
      </trkpt>
      <trkpt lat="57.56732" lon="-5.8218">
        <ele>44.15</ele>
        <time>2021-03-20T21:04:34Z</time>
      </trkpt>
      <trkpt lat="57.56761" lon="-5.82178">
        <ele>43.17</ele>
        <time>2021-03-20T21:04:38Z</time>
      </trkpt>
      <trkpt lat="57.56812" lon="-5.82167">
        <ele>42</ele>
        <time>2021-03-20T21:04:42Z</time>
      </trkpt>
      <trkpt lat="57.56867" lon="-5.82163">
        <ele>41</ele>
        <time>2021-03-20T21:04:45Z</time>
      </trkpt>
      <trkpt lat="57.56877" lon="-5.82158">
        <ele>41</ele>
        <time>2021-03-20T21:04:49Z</time>
      </trkpt>
      <trkpt lat="57.56888" lon="-5.82145">
        <ele>41</ele>
        <time>2021-03-20T21:04:53Z</time>
      </trkpt>
      <trkpt lat="57.56935" lon="-5.82056">
        <ele>41.26</ele>
        <time>2021-03-20T21:04:56Z</time>
      </trkpt>
      <trkpt lat="57.56961" lon="-5.82029">
        <ele>42.6</ele>
        <time>2021-03-20T21:05:00Z</time>
      </trkpt>
      <trkpt lat="57.56998" lon="-5.82">
        <ele>42.99</ele>
        <time>2021-03-20T21:05:03Z</time>
      </trkpt>
      <trkpt lat="57.57128" lon="-5.81937">
        <ele>37.74</ele>
        <time>2021-03-20T21:05:07Z</time>
      </trkpt>
      <trkpt lat="57.57185" lon="-5.81893">
        <ele>37.48</ele>
        <time>2021-03-20T21:05:11Z</time>
      </trkpt>
      <trkpt lat="57.57214" lon="-5.81875">
        <ele>37.48</ele>
        <time>2021-03-20T21:05:14Z</time>
      </trkpt>
      <trkpt lat="57.57259" lon="-5.81854">
        <ele>35.8</ele>
        <time>2021-03-20T21:05:18Z</time>
      </trkpt>
      <trkpt lat="57.57293" lon="-5.81828">
        <ele>31.31</ele>
        <time>2021-03-20T21:05:22Z</time>
      </trkpt>
      <trkpt lat="57.57376" lon="-5.8172">
        <ele>25.46</ele>
        <time>2021-03-20T21:05:25Z</time>
      </trkpt>
      <trkpt lat="57.57399" lon="-5.81703">
        <ele>23.66</ele>
        <time>2021-03-20T21:05:29Z</time>
      </trkpt>
      <trkpt lat="57.57462" lon="-5.81669">
        <ele>19.58</ele>
        <time>2021-03-20T21:05:33Z</time>
      </trkpt>
      <trkpt lat="57.5748" lon="-5.81652">
        <ele>19.94</ele>
        <time>2021-03-20T21:05:36Z</time>
      </trkpt>
      <trkpt lat="57.57505" lon="-5.8162">
        <ele>20.78</ele>
        <time>2021-03-20T21:05:40Z</time>
      </trkpt>
      <trkpt lat="57.57589" lon="-5.81501">
        <ele>25.75</ele>
        <time>2021-03-20T21:05:44Z</time>
      </trkpt>
      <trkpt lat="57.57629" lon="-5.8146">
        <ele>29.23</ele>
        <time>2021-03-20T21:05:47Z</time>
      </trkpt>
      <trkpt lat="57.57647" lon="-5.81436">
        <ele>31.67</ele>
        <time>2021-03-20T21:05:51Z</time>
      </trkpt>
      <trkpt lat="57.5766" lon="-5.81411">
        <ele>35.11</ele>
        <time>2021-03-20T21:05:54Z</time>
      </trkpt>
      <trkpt lat="57.57671" lon="-5.81375">
        <ele>39.79</ele>
        <time>2021-03-20T21:05:58Z</time>
      </trkpt>
      <trkpt lat="57.577" lon="-5.81298">
        <ele>43.08</ele>
        <time>2021-03-20T21:06:02Z</time>
      </trkpt>
      <trkpt lat="57.577" lon="-5.81298">
        <ele>43.08</ele>
        <time>2021-03-20T21:06:02Z</time>
      </trkpt>
      <trkpt lat="57.57716" lon="-5.81258">
        <ele>43</ele>
        <time>2021-03-20T21:06:04Z</time>
      </trkpt>
      <trkpt lat="57.57751" lon="-5.8113">
        <ele>38.97</ele>
        <time>2021-03-20T21:06:07Z</time>
      </trkpt>
      <trkpt lat="57.5778" lon="-5.80986">
        <ele>37.84</ele>
        <time>2021-03-20T21:06:09Z</time>
      </trkpt>
      <trkpt lat="57.57784" lon="-5.80944">
        <ele>37.28</ele>
        <time>2021-03-20T21:06:12Z</time>
      </trkpt>
      <trkpt lat="57.57783" lon="-5.80875">
        <ele>37.9</ele>
        <time>2021-03-20T21:06:14Z</time>
      </trkpt>
      <trkpt lat="57.57771" lon="-5.80795">
        <ele>41.07</ele>
        <time>2021-03-20T21:06:17Z</time>
      </trkpt>
      <trkpt lat="57.57761" lon="-5.8076">
        <ele>42.67</ele>
        <time>2021-03-20T21:06:19Z</time>
      </trkpt>
      <trkpt lat="57.57739" lon="-5.80735">
        <ele>43.23</ele>
        <time>2021-03-20T21:06:22Z</time>
      </trkpt>
      <trkpt lat="57.57713" lon="-5.8071">
        <ele>40.97</ele>
        <time>2021-03-20T21:06:24Z</time>
      </trkpt>
      <trkpt lat="57.57655" lon="-5.80665">
        <ele>38.2</ele>
        <time>2021-03-20T21:06:27Z</time>
      </trkpt>
      <trkpt lat="57.57636" lon="-5.80644">
        <ele>38.47</ele>
        <time>2021-03-20T21:06:29Z</time>
      </trkpt>
      <trkpt lat="57.57618" lon="-5.80607">
        <ele>35.63</ele>
        <time>2021-03-20T21:06:32Z</time>
      </trkpt>
      <trkpt lat="57.57472" lon="-5.80179">
        <ele>40.01</ele>
        <time>2021-03-20T21:06:34Z</time>
      </trkpt>
      <trkpt lat="57.57461" lon="-5.80155">
        <ele>41.49</ele>
        <time>2021-03-20T21:06:37Z</time>
      </trkpt>
      <trkpt lat="57.57445" lon="-5.80133">
        <ele>42.71</ele>
        <time>2021-03-20T21:06:39Z</time>
      </trkpt>
      <trkpt lat="57.57397" lon="-5.80085">
        <ele>43.55</ele>
        <time>2021-03-20T21:06:42Z</time>
      </trkpt>
      <trkpt lat="57.57337" lon="-5.80037">
        <ele>45.48</ele>
        <time>2021-03-20T21:06:44Z</time>
      </trkpt>
      <trkpt lat="57.57276" lon="-5.79976">
        <ele>40.74</ele>
        <time>2021-03-20T21:06:47Z</time>
      </trkpt>
      <trkpt lat="57.57238" lon="-5.7995">
        <ele>39.49</ele>
        <time>2021-03-20T21:06:49Z</time>
      </trkpt>
      <trkpt lat="57.57218" lon="-5.79927">
        <ele>37.82</ele>
        <time>2021-03-20T21:06:52Z</time>
      </trkpt>
      <trkpt lat="57.57201" lon="-5.79894">
        <ele>36.11</ele>
        <time>2021-03-20T21:06:54Z</time>
      </trkpt>
      <trkpt lat="57.57193" lon="-5.79859">
        <ele>37.25</ele>
        <time>2021-03-20T21:06:57Z</time>
      </trkpt>
      <trkpt lat="57.57191" lon="-5.79812">
        <ele>41.6</ele>
        <time>2021-03-20T21:06:59Z</time>
      </trkpt>
      <trkpt lat="57.57195" lon="-5.79781">
        <ele>44.53</ele>
        <time>2021-03-20T21:07:02Z</time>
      </trkpt>
      <trkpt lat="57.57204" lon="-5.79752">
        <ele>45.53</ele>
        <time>2021-03-20T21:07:04Z</time>
      </trkpt>
      <trkpt lat="57.57215" lon="-5.79731">
        <ele>44.92</ele>
        <time>2021-03-20T21:07:07Z</time>
      </trkpt>
      <trkpt lat="57.57231" lon="-5.79713">
        <ele>43.25</ele>
        <time>2021-03-20T21:07:09Z</time>
      </trkpt>
      <trkpt lat="57.57268" lon="-5.79701">
        <ele>38.21</ele>
        <time>2021-03-20T21:07:12Z</time>
      </trkpt>
      <trkpt lat="57.57294" lon="-5.7969">
        <ele>35.4</ele>
        <time>2021-03-20T21:07:14Z</time>
      </trkpt>
      <trkpt lat="57.57309" lon="-5.79677">
        <ele>34.5</ele>
        <time>2021-03-20T21:07:17Z</time>
      </trkpt>
      <trkpt lat="57.57321" lon="-5.79657">
        <ele>34.77</ele>
        <time>2021-03-20T21:07:19Z</time>
      </trkpt>
      <trkpt lat="57.57331" lon="-5.7963">
        <ele>35.4</ele>
        <time>2021-03-20T21:07:22Z</time>
      </trkpt>
      <trkpt lat="57.57337" lon="-5.79598">
        <ele>35.74</ele>
        <time>2021-03-20T21:07:24Z</time>
      </trkpt>
      <trkpt lat="57.5734" lon="-5.79567">
        <ele>36.11</ele>
        <time>2021-03-20T21:07:27Z</time>
      </trkpt>
      <trkpt lat="57.57339" lon="-5.79537">
        <ele>35.92</ele>
        <time>2021-03-20T21:07:29Z</time>
      </trkpt>
      <trkpt lat="57.57329" lon="-5.79505">
        <ele>34.62</ele>
        <time>2021-03-20T21:07:32Z</time>
      </trkpt>
      <trkpt lat="57.57311" lon="-5.79463">
        <ele>31.85</ele>
        <time>2021-03-20T21:07:34Z</time>
      </trkpt>
      <trkpt lat="57.57283" lon="-5.79413">
        <ele>27.14</ele>
        <time>2021-03-20T21:07:37Z</time>
      </trkpt>
      <trkpt lat="57.57202" lon="-5.79284">
        <ele>17.23</ele>
        <time>2021-03-20T21:07:39Z</time>
      </trkpt>
      <trkpt lat="57.5717" lon="-5.79219">
        <ele>18.1</ele>
        <time>2021-03-20T21:07:42Z</time>
      </trkpt>
      <trkpt lat="57.57141" lon="-5.79148">
        <ele>22.98</ele>
        <time>2021-03-20T21:07:44Z</time>
      </trkpt>
      <trkpt lat="57.57126" lon="-5.791">
        <ele>24.95</ele>
        <time>2021-03-20T21:07:47Z</time>
      </trkpt>
      <trkpt lat="57.57069" lon="-5.78951">
        <ele>26.76</ele>
        <time>2021-03-20T21:07:49Z</time>
      </trkpt>
      <trkpt lat="57.57046" lon="-5.78906">
        <ele>27.53</ele>
        <time>2021-03-20T21:07:52Z</time>
      </trkpt>
      <trkpt lat="57.5702" lon="-5.78875">
        <ele>28.43</ele>
        <time>2021-03-20T21:07:54Z</time>
      </trkpt>
      <trkpt lat="57.56989" lon="-5.78848">
        <ele>30.57</ele>
        <time>2021-03-20T21:07:57Z</time>
      </trkpt>
      <trkpt lat="57.56958" lon="-5.78832">
        <ele>34.92</ele>
        <time>2021-03-20T21:07:59Z</time>
      </trkpt>
      <trkpt lat="57.56907" lon="-5.78824">
        <ele>39.92</ele>
        <time>2021-03-20T21:08:02Z</time>
      </trkpt>
      <trkpt lat="57.56886" lon="-5.78831">
        <ele>40.57</ele>
        <time>2021-03-20T21:08:04Z</time>
      </trkpt>
      <trkpt lat="57.56843" lon="-5.78861">
        <ele>45.62</ele>
        <time>2021-03-20T21:08:07Z</time>
      </trkpt>
      <trkpt lat="57.5681" lon="-5.7887">
        <ele>47.61</ele>
        <time>2021-03-20T21:08:09Z</time>
      </trkpt>
      <trkpt lat="57.56751" lon="-5.78864">
        <ele>45.34</ele>
        <time>2021-03-20T21:08:12Z</time>
      </trkpt>
      <trkpt lat="57.56727" lon="-5.78855">
        <ele>46.03</ele>
        <time>2021-03-20T21:08:14Z</time>
      </trkpt>
      <trkpt lat="57.56705" lon="-5.78844">
        <ele>45.72</ele>
        <time>2021-03-20T21:08:17Z</time>
      </trkpt>
      <trkpt lat="57.56681" lon="-5.7882">
        <ele>46.63</ele>
        <time>2021-03-20T21:08:19Z</time>
      </trkpt>
      <trkpt lat="57.56654" lon="-5.78782">
        <ele>49.17</ele>
        <time>2021-03-20T21:08:22Z</time>
      </trkpt>
      <trkpt lat="57.5663" lon="-5.78742">
        <ele>50.85</ele>
        <time>2021-03-20T21:08:24Z</time>
      </trkpt>
      <trkpt lat="57.56573" lon="-5.7864">
        <ele>51.41</ele>
        <time>2021-03-20T21:08:26Z</time>
      </trkpt>
      <trkpt lat="57.5655" lon="-5.78608">
        <ele>50.28</ele>
        <time>2021-03-20T21:08:29Z</time>
      </trkpt>
      <trkpt lat="57.56483" lon="-5.78546">
        <ele>47.71</ele>
        <time>2021-03-20T21:08:31Z</time>
      </trkpt>
      <trkpt lat="57.56457" lon="-5.78513">
        <ele>45.17</ele>
        <time>2021-03-20T21:08:34Z</time>
      </trkpt>
      <trkpt lat="57.56372" lon="-5.78373">
        <ele>38.65</ele>
        <time>2021-03-20T21:08:36Z</time>
      </trkpt>
      <trkpt lat="57.562" lon="-5.78085">
        <ele>40.99</ele>
        <time>2021-03-20T21:08:39Z</time>
      </trkpt>
      <trkpt lat="57.55972" lon="-5.77653">
        <ele>33.51</ele>
        <time>2021-03-20T21:08:41Z</time>
      </trkpt>
      <trkpt lat="57.55866" lon="-5.77433">
        <ele>31.98</ele>
        <time>2021-03-20T21:08:44Z</time>
      </trkpt>
      <trkpt lat="57.55847" lon="-5.774">
        <ele>32.29</ele>
        <time>2021-03-20T21:08:46Z</time>
      </trkpt>
      <trkpt lat="57.55733" lon="-5.7722">
        <ele>30.62</ele>
        <time>2021-03-20T21:08:49Z</time>
      </trkpt>
      <trkpt lat="57.55694" lon="-5.77132">
        <ele>30.98</ele>
        <time>2021-03-20T21:08:51Z</time>
      </trkpt>
      <trkpt lat="57.55679" lon="-5.77074">
        <ele>31.34</ele>
        <time>2021-03-20T21:08:54Z</time>
      </trkpt>
      <trkpt lat="57.55674" lon="-5.77044">
        <ele>32.74</ele>
        <time>2021-03-20T21:08:56Z</time>
      </trkpt>
      <trkpt lat="57.55672" lon="-5.77013">
        <ele>34.81</ele>
        <time>2021-03-20T21:08:59Z</time>
      </trkpt>
      <trkpt lat="57.55673" lon="-5.76955">
        <ele>39.22</ele>
        <time>2021-03-20T21:09:01Z</time>
      </trkpt>
      <trkpt lat="57.55677" lon="-5.76909">
        <ele>42.58</ele>
        <time>2021-03-20T21:09:04Z</time>
      </trkpt>
      <trkpt lat="57.55688" lon="-5.76869">
        <ele>46.18</ele>
        <time>2021-03-20T21:09:06Z</time>
      </trkpt>
      <trkpt lat="57.55702" lon="-5.76837">
        <ele>48.38</ele>
        <time>2021-03-20T21:09:09Z</time>
      </trkpt>
      <trkpt lat="57.55719" lon="-5.76809">
        <ele>50.13</ele>
        <time>2021-03-20T21:09:11Z</time>
      </trkpt>
      <trkpt lat="57.55904" lon="-5.76537">
        <ele>31.11</ele>
        <time>2021-03-20T21:09:14Z</time>
      </trkpt>
      <trkpt lat="57.5592" lon="-5.76505">
        <ele>29.23</ele>
        <time>2021-03-20T21:09:16Z</time>
      </trkpt>
      <trkpt lat="57.55932" lon="-5.76454">
        <ele>28.85</ele>
        <time>2021-03-20T21:09:19Z</time>
      </trkpt>
      <trkpt lat="57.55942" lon="-5.76402">
        <ele>26.08</ele>
        <time>2021-03-20T21:09:21Z</time>
      </trkpt>
      <trkpt lat="57.55941" lon="-5.76348">
        <ele>24.28</ele>
        <time>2021-03-20T21:09:24Z</time>
      </trkpt>
      <trkpt lat="57.55938" lon="-5.76318">
        <ele>23.7</ele>
        <time>2021-03-20T21:09:26Z</time>
      </trkpt>
      <trkpt lat="57.5593" lon="-5.76282">
        <ele>21.9</ele>
        <time>2021-03-20T21:09:29Z</time>
      </trkpt>
      <trkpt lat="57.55918" lon="-5.76252">
        <ele>20.08</ele>
        <time>2021-03-20T21:09:31Z</time>
      </trkpt>
      <trkpt lat="57.55892" lon="-5.76197">
        <ele>16.2</ele>
        <time>2021-03-20T21:09:34Z</time>
      </trkpt>
      <trkpt lat="57.55821" lon="-5.76082">
        <ele>13.18</ele>
        <time>2021-03-20T21:09:36Z</time>
      </trkpt>
      <trkpt lat="57.55804" lon="-5.76061">
        <ele>11.98</ele>
        <time>2021-03-20T21:09:39Z</time>
      </trkpt>
      <trkpt lat="57.55777" lon="-5.76037">
        <ele>13.11</ele>
        <time>2021-03-20T21:09:41Z</time>
      </trkpt>
      <trkpt lat="57.55717" lon="-5.76005">
        <ele>17.58</ele>
        <time>2021-03-20T21:09:44Z</time>
      </trkpt>
      <trkpt lat="57.55659" lon="-5.75979">
        <ele>27.05</ele>
        <time>2021-03-20T21:09:46Z</time>
      </trkpt>
      <trkpt lat="57.55644" lon="-5.75967">
        <ele>29.69</ele>
        <time>2021-03-20T21:09:49Z</time>
      </trkpt>
      <trkpt lat="57.55632" lon="-5.7595">
        <ele>32.34</ele>
        <time>2021-03-20T21:09:51Z</time>
      </trkpt>
      <trkpt lat="57.55619" lon="-5.75911">
        <ele>36.4</ele>
        <time>2021-03-20T21:09:54Z</time>
      </trkpt>
      <trkpt lat="57.55613" lon="-5.75876">
        <ele>37.51</ele>
        <time>2021-03-20T21:09:56Z</time>
      </trkpt>
      <trkpt lat="57.55607" lon="-5.75818">
        <ele>39.49</ele>
        <time>2021-03-20T21:09:59Z</time>
      </trkpt>
      <trkpt lat="57.55579" lon="-5.75706">
        <ele>47.03</ele>
        <time>2021-03-20T21:10:01Z</time>
      </trkpt>
      <trkpt lat="57.55558" lon="-5.75638">
        <ele>49.19</ele>
        <time>2021-03-20T21:10:04Z</time>
      </trkpt>
      <trkpt lat="57.55534" lon="-5.75591">
        <ele>52.68</ele>
        <time>2021-03-20T21:10:06Z</time>
      </trkpt>
      <trkpt lat="57.55512" lon="-5.75564">
        <ele>53.73</ele>
        <time>2021-03-20T21:10:09Z</time>
      </trkpt>
      <trkpt lat="57.55486" lon="-5.75545">
        <ele>53.13</ele>
        <time>2021-03-20T21:10:11Z</time>
      </trkpt>
      <trkpt lat="57.5546" lon="-5.75535">
        <ele>52.07</ele>
        <time>2021-03-20T21:10:14Z</time>
      </trkpt>
      <trkpt lat="57.55436" lon="-5.75532">
        <ele>51.55</ele>
        <time>2021-03-20T21:10:16Z</time>
      </trkpt>
      <trkpt lat="57.55416" lon="-5.75533">
        <ele>51.73</ele>
        <time>2021-03-20T21:10:19Z</time>
      </trkpt>
      <trkpt lat="57.55376" lon="-5.75546">
        <ele>51.63</ele>
        <time>2021-03-20T21:10:21Z</time>
      </trkpt>
      <trkpt lat="57.55291" lon="-5.75585">
        <ele>48.01</ele>
        <time>2021-03-20T21:10:24Z</time>
      </trkpt>
      <trkpt lat="57.55267" lon="-5.75598">
        <ele>46.09</ele>
        <time>2021-03-20T21:10:26Z</time>
      </trkpt>
      <trkpt lat="57.55192" lon="-5.7565">
        <ele>37.78</ele>
        <time>2021-03-20T21:10:29Z</time>
      </trkpt>
      <trkpt lat="57.55154" lon="-5.75671">
        <ele>35.19</ele>
        <time>2021-03-20T21:10:31Z</time>
      </trkpt>
      <trkpt lat="57.55132" lon="-5.75675">
        <ele>33.54</ele>
        <time>2021-03-20T21:10:34Z</time>
      </trkpt>
      <trkpt lat="57.55111" lon="-5.75676">
        <ele>31.27</ele>
        <time>2021-03-20T21:10:36Z</time>
      </trkpt>
      <trkpt lat="57.55089" lon="-5.75673">
        <ele>29.06</ele>
        <time>2021-03-20T21:10:39Z</time>
      </trkpt>
      <trkpt lat="57.55066" lon="-5.75663">
        <ele>26.43</ele>
        <time>2021-03-20T21:10:41Z</time>
      </trkpt>
      <trkpt lat="57.55044" lon="-5.75644">
        <ele>24.39</ele>
        <time>2021-03-20T21:10:44Z</time>
      </trkpt>
      <trkpt lat="57.55007" lon="-5.75589">
        <ele>20.26</ele>
        <time>2021-03-20T21:10:46Z</time>
      </trkpt>
      <trkpt lat="57.54978" lon="-5.75532">
        <ele>18.81</ele>
        <time>2021-03-20T21:10:49Z</time>
      </trkpt>
      <trkpt lat="57.54945" lon="-5.75456">
        <ele>19.38</ele>
        <time>2021-03-20T21:10:51Z</time>
      </trkpt>
      <trkpt lat="57.54895" lon="-5.75312">
        <ele>25.32</ele>
        <time>2021-03-20T21:10:54Z</time>
      </trkpt>
      <trkpt lat="57.54856" lon="-5.75232">
        <ele>26.9</ele>
        <time>2021-03-20T21:10:56Z</time>
      </trkpt>
      <trkpt lat="57.54836" lon="-5.75196">
        <ele>26.92</ele>
        <time>2021-03-20T21:10:59Z</time>
      </trkpt>
      <trkpt lat="57.54818" lon="-5.7517">
        <ele>26.97</ele>
        <time>2021-03-20T21:11:01Z</time>
      </trkpt>
      <trkpt lat="57.54794" lon="-5.75143">
        <ele>27.66</ele>
        <time>2021-03-20T21:11:03Z</time>
      </trkpt>
      <trkpt lat="57.54768" lon="-5.7512">
        <ele>27.26</ele>
        <time>2021-03-20T21:11:06Z</time>
      </trkpt>
      <trkpt lat="57.54704" lon="-5.7507">
        <ele>29.61</ele>
        <time>2021-03-20T21:11:08Z</time>
      </trkpt>
      <trkpt lat="57.54672" lon="-5.75038">
        <ele>30.19</ele>
        <time>2021-03-20T21:11:11Z</time>
      </trkpt>
      <trkpt lat="57.54634" lon="-5.7499">
        <ele>29.7</ele>
        <time>2021-03-20T21:11:13Z</time>
      </trkpt>
      <trkpt lat="57.54611" lon="-5.74954">
        <ele>30.35</ele>
        <time>2021-03-20T21:11:16Z</time>
      </trkpt>
      <trkpt lat="57.54597" lon="-5.74923">
        <ele>31.1</ele>
        <time>2021-03-20T21:11:18Z</time>
      </trkpt>
      <trkpt lat="57.54591" lon="-5.74893">
        <ele>31.59</ele>
        <time>2021-03-20T21:11:21Z</time>
      </trkpt>
      <trkpt lat="57.54586" lon="-5.74838">
        <ele>30.75</ele>
        <time>2021-03-20T21:11:23Z</time>
      </trkpt>
      <trkpt lat="57.54582" lon="-5.74773">
        <ele>30.14</ele>
        <time>2021-03-20T21:11:26Z</time>
      </trkpt>
      <trkpt lat="57.54577" lon="-5.74721">
        <ele>31.09</ele>
        <time>2021-03-20T21:11:28Z</time>
      </trkpt>
      <trkpt lat="57.54565" lon="-5.7468">
        <ele>31.58</ele>
        <time>2021-03-20T21:11:31Z</time>
      </trkpt>
      <trkpt lat="57.54553" lon="-5.74657">
        <ele>31.96</ele>
        <time>2021-03-20T21:11:33Z</time>
      </trkpt>
      <trkpt lat="57.54537" lon="-5.74636">
        <ele>31.88</ele>
        <time>2021-03-20T21:11:36Z</time>
      </trkpt>
      <trkpt lat="57.54486" lon="-5.74542">
        <ele>27.11</ele>
        <time>2021-03-20T21:11:38Z</time>
      </trkpt>
      <trkpt lat="57.54463" lon="-5.74514">
        <ele>28.17</ele>
        <time>2021-03-20T21:11:41Z</time>
      </trkpt>
      <trkpt lat="57.54454" lon="-5.74494">
        <ele>27.54</ele>
        <time>2021-03-20T21:11:43Z</time>
      </trkpt>
      <trkpt lat="57.5444" lon="-5.74452">
        <ele>23.69</ele>
        <time>2021-03-20T21:11:46Z</time>
      </trkpt>
      <trkpt lat="57.54423" lon="-5.74406">
        <ele>21.62</ele>
        <time>2021-03-20T21:11:48Z</time>
      </trkpt>
      <trkpt lat="57.54386" lon="-5.74349">
        <ele>25.96</ele>
        <time>2021-03-20T21:11:51Z</time>
      </trkpt>
      <trkpt lat="57.5435" lon="-5.74297">
        <ele>27.58</ele>
        <time>2021-03-20T21:11:53Z</time>
      </trkpt>
      <trkpt lat="57.54334" lon="-5.7429">
        <ele>28.73</ele>
        <time>2021-03-20T21:11:56Z</time>
      </trkpt>
      <trkpt lat="57.54284" lon="-5.7428">
        <ele>37.14</ele>
        <time>2021-03-20T21:11:58Z</time>
      </trkpt>
      <trkpt lat="57.54198" lon="-5.74237">
        <ele>41.66</ele>
        <time>2021-03-20T21:12:01Z</time>
      </trkpt>
      <trkpt lat="57.54102" lon="-5.74193">
        <ele>50.85</ele>
        <time>2021-03-20T21:12:03Z</time>
      </trkpt>
      <trkpt lat="57.54045" lon="-5.74175">
        <ele>54.42</ele>
        <time>2021-03-20T21:12:06Z</time>
      </trkpt>
      <trkpt lat="57.54014" lon="-5.74177">
        <ele>56.98</ele>
        <time>2021-03-20T21:12:08Z</time>
      </trkpt>
      <trkpt lat="57.53982" lon="-5.74189">
        <ele>59.85</ele>
        <time>2021-03-20T21:12:11Z</time>
      </trkpt>
      <trkpt lat="57.53951" lon="-5.74209">
        <ele>62.94</ele>
        <time>2021-03-20T21:12:13Z</time>
      </trkpt>
      <trkpt lat="57.53931" lon="-5.74229">
        <ele>64.71</ele>
        <time>2021-03-20T21:12:16Z</time>
      </trkpt>
      <trkpt lat="57.53903" lon="-5.74247">
        <ele>66.24</ele>
        <time>2021-03-20T21:12:18Z</time>
      </trkpt>
      <trkpt lat="57.5388" lon="-5.74249">
        <ele>66.28</ele>
        <time>2021-03-20T21:12:21Z</time>
      </trkpt>
      <trkpt lat="57.53863" lon="-5.74238">
        <ele>66.06</ele>
        <time>2021-03-20T21:12:23Z</time>
      </trkpt>
      <trkpt lat="57.53835" lon="-5.74206">
        <ele>65</ele>
        <time>2021-03-20T21:12:26Z</time>
      </trkpt>
      <trkpt lat="57.53701" lon="-5.74127">
        <ele>69.57</ele>
        <time>2021-03-20T21:12:28Z</time>
      </trkpt>
      <trkpt lat="57.53683" lon="-5.74111">
        <ele>70.84</ele>
        <time>2021-03-20T21:12:31Z</time>
      </trkpt>
      <trkpt lat="57.5366" lon="-5.74081">
        <ele>73.58</ele>
        <time>2021-03-20T21:12:33Z</time>
      </trkpt>
      <trkpt lat="57.53617" lon="-5.74006">
        <ele>79.72</ele>
        <time>2021-03-20T21:12:36Z</time>
      </trkpt>
      <trkpt lat="57.5356" lon="-5.73938">
        <ele>83.72</ele>
        <time>2021-03-20T21:12:38Z</time>
      </trkpt>
      <trkpt lat="57.53545" lon="-5.73916">
        <ele>84.73</ele>
        <time>2021-03-20T21:12:41Z</time>
      </trkpt>
      <trkpt lat="57.53538" lon="-5.73899">
        <ele>85.88</ele>
        <time>2021-03-20T21:12:43Z</time>
      </trkpt>
      <trkpt lat="57.53525" lon="-5.73831">
        <ele>86.89</ele>
        <time>2021-03-20T21:12:46Z</time>
      </trkpt>
      <trkpt lat="57.53513" lon="-5.73803">
        <ele>86.37</ele>
        <time>2021-03-20T21:12:48Z</time>
      </trkpt>
      <trkpt lat="57.53499" lon="-5.73786">
        <ele>85.28</ele>
        <time>2021-03-20T21:12:51Z</time>
      </trkpt>
      <trkpt lat="57.5348" lon="-5.73776">
        <ele>85</ele>
        <time>2021-03-20T21:12:53Z</time>
      </trkpt>
      <trkpt lat="57.5346" lon="-5.73773">
        <ele>85.43</ele>
        <time>2021-03-20T21:12:56Z</time>
      </trkpt>
      <trkpt lat="57.53428" lon="-5.73761">
        <ele>86.6</ele>
        <time>2021-03-20T21:12:58Z</time>
      </trkpt>
      <trkpt lat="57.53414" lon="-5.73751">
        <ele>87.1</ele>
        <time>2021-03-20T21:13:01Z</time>
      </trkpt>
      <trkpt lat="57.53403" lon="-5.73735">
        <ele>86.94</ele>
        <time>2021-03-20T21:13:03Z</time>
      </trkpt>
      <trkpt lat="57.53389" lon="-5.73703">
        <ele>87</ele>
        <time>2021-03-20T21:13:06Z</time>
      </trkpt>
      <trkpt lat="57.53364" lon="-5.73639">
        <ele>89.22</ele>
        <time>2021-03-20T21:13:08Z</time>
      </trkpt>
      <trkpt lat="57.53339" lon="-5.73585">
        <ele>90.69</ele>
        <time>2021-03-20T21:13:11Z</time>
      </trkpt>
      <trkpt lat="57.5333" lon="-5.73562">
        <ele>90.97</ele>
        <time>2021-03-20T21:13:13Z</time>
      </trkpt>
      <trkpt lat="57.53309" lon="-5.73481">
        <ele>92.44</ele>
        <time>2021-03-20T21:13:16Z</time>
      </trkpt>
      <trkpt lat="57.53302" lon="-5.73412">
        <ele>93.32</ele>
        <time>2021-03-20T21:13:18Z</time>
      </trkpt>
      <trkpt lat="57.53303" lon="-5.73342">
        <ele>92.03</ele>
        <time>2021-03-20T21:13:21Z</time>
      </trkpt>
      <trkpt lat="57.53306" lon="-5.73313">
        <ele>92.13</ele>
        <time>2021-03-20T21:13:23Z</time>
      </trkpt>
      <trkpt lat="57.53313" lon="-5.73288">
        <ele>92.8</ele>
        <time>2021-03-20T21:13:26Z</time>
      </trkpt>
      <trkpt lat="57.53328" lon="-5.73244">
        <ele>93.86</ele>
        <time>2021-03-20T21:13:28Z</time>
      </trkpt>
      <trkpt lat="57.53344" lon="-5.7321">
        <ele>95.72</ele>
        <time>2021-03-20T21:13:31Z</time>
      </trkpt>
      <trkpt lat="57.53363" lon="-5.73179">
        <ele>97.17</ele>
        <time>2021-03-20T21:13:33Z</time>
      </trkpt>
      <trkpt lat="57.53383" lon="-5.73154">
        <ele>98.83</ele>
        <time>2021-03-20T21:13:36Z</time>
      </trkpt>
      <trkpt lat="57.53439" lon="-5.73096">
        <ele>101.98</ele>
        <time>2021-03-20T21:13:38Z</time>
      </trkpt>
      <trkpt lat="57.53475" lon="-5.73077">
        <ele>102.65</ele>
        <time>2021-03-20T21:13:40Z</time>
      </trkpt>
      <trkpt lat="57.53515" lon="-5.73067">
        <ele>103</ele>
        <time>2021-03-20T21:13:43Z</time>
      </trkpt>
      <trkpt lat="57.53555" lon="-5.73064">
        <ele>102.92</ele>
        <time>2021-03-20T21:13:45Z</time>
      </trkpt>
      <trkpt lat="57.5359" lon="-5.73074">
        <ele>104.91</ele>
        <time>2021-03-20T21:13:48Z</time>
      </trkpt>
      <trkpt lat="57.53621" lon="-5.7307">
        <ele>105.08</ele>
        <time>2021-03-20T21:13:50Z</time>
      </trkpt>
      <trkpt lat="57.53645" lon="-5.73055">
        <ele>103.43</ele>
        <time>2021-03-20T21:13:53Z</time>
      </trkpt>
      <trkpt lat="57.53667" lon="-5.73034">
        <ele>104.24</ele>
        <time>2021-03-20T21:13:55Z</time>
      </trkpt>
      <trkpt lat="57.53687" lon="-5.73005">
        <ele>104.65</ele>
        <time>2021-03-20T21:13:58Z</time>
      </trkpt>
      <trkpt lat="57.53695" lon="-5.72984">
        <ele>104.49</ele>
        <time>2021-03-20T21:14:00Z</time>
      </trkpt>
      <trkpt lat="57.53708" lon="-5.72934">
        <ele>103.1</ele>
        <time>2021-03-20T21:14:03Z</time>
      </trkpt>
      <trkpt lat="57.53722" lon="-5.72838">
        <ele>102.02</ele>
        <time>2021-03-20T21:14:05Z</time>
      </trkpt>
      <trkpt lat="57.53731" lon="-5.72804">
        <ele>105.9</ele>
        <time>2021-03-20T21:14:08Z</time>
      </trkpt>
      <trkpt lat="57.53741" lon="-5.72786">
        <ele>107.67</ele>
        <time>2021-03-20T21:14:10Z</time>
      </trkpt>
      <trkpt lat="57.53833" lon="-5.72686">
        <ele>122.93</ele>
        <time>2021-03-20T21:14:13Z</time>
      </trkpt>
      <trkpt lat="57.53861" lon="-5.72642">
        <ele>127.71</ele>
        <time>2021-03-20T21:14:15Z</time>
      </trkpt>
      <trkpt lat="57.53875" lon="-5.72623">
        <ele>129.46</ele>
        <time>2021-03-20T21:14:18Z</time>
      </trkpt>
      <trkpt lat="57.53891" lon="-5.72611">
        <ele>130.16</ele>
        <time>2021-03-20T21:14:20Z</time>
      </trkpt>
      <trkpt lat="57.5397" lon="-5.72575">
        <ele>135.63</ele>
        <time>2021-03-20T21:14:23Z</time>
      </trkpt>
      <trkpt lat="57.54018" lon="-5.72541">
        <ele>138.17</ele>
        <time>2021-03-20T21:14:25Z</time>
      </trkpt>
      <trkpt lat="57.54038" lon="-5.72538">
        <ele>137.44</ele>
        <time>2021-03-20T21:14:28Z</time>
      </trkpt>
      <trkpt lat="57.54058" lon="-5.72543">
        <ele>135.73</ele>
        <time>2021-03-20T21:14:30Z</time>
      </trkpt>
      <trkpt lat="57.54092" lon="-5.72532">
        <ele>132.3</ele>
        <time>2021-03-20T21:14:33Z</time>
      </trkpt>
      <trkpt lat="57.54102" lon="-5.72525">
        <ele>129.89</ele>
        <time>2021-03-20T21:14:35Z</time>
      </trkpt>
      <trkpt lat="57.54123" lon="-5.72475">
        <ele>122.17</ele>
        <time>2021-03-20T21:14:38Z</time>
      </trkpt>
      <trkpt lat="57.54143" lon="-5.72419">
        <ele>113.62</ele>
        <time>2021-03-20T21:14:40Z</time>
      </trkpt>
      <trkpt lat="57.54149" lon="-5.72396">
        <ele>111.04</ele>
        <time>2021-03-20T21:14:43Z</time>
      </trkpt>
      <trkpt lat="57.54152" lon="-5.72346">
        <ele>109.6</ele>
        <time>2021-03-20T21:14:45Z</time>
      </trkpt>
      <trkpt lat="57.54154" lon="-5.72329">
        <ele>108.24</ele>
        <time>2021-03-20T21:14:48Z</time>
      </trkpt>
      <trkpt lat="57.54169" lon="-5.72267">
        <ele>102.2</ele>
        <time>2021-03-20T21:14:50Z</time>
      </trkpt>
      <trkpt lat="57.54175" lon="-5.72222">
        <ele>101.73</ele>
        <time>2021-03-20T21:14:53Z</time>
      </trkpt>
      <trkpt lat="57.54179" lon="-5.72158">
        <ele>97.71</ele>
        <time>2021-03-20T21:14:55Z</time>
      </trkpt>
      <trkpt lat="57.54177" lon="-5.72088">
        <ele>92.89</ele>
        <time>2021-03-20T21:14:58Z</time>
      </trkpt>
      <trkpt lat="57.54172" lon="-5.72055">
        <ele>91.79</ele>
        <time>2021-03-20T21:15:00Z</time>
      </trkpt>
      <trkpt lat="57.54158" lon="-5.72025">
        <ele>90.56</ele>
        <time>2021-03-20T21:15:03Z</time>
      </trkpt>
      <trkpt lat="57.54141" lon="-5.71995">
        <ele>87.76</ele>
        <time>2021-03-20T21:15:05Z</time>
      </trkpt>
      <trkpt lat="57.54119" lon="-5.71975">
        <ele>87.52</ele>
        <time>2021-03-20T21:15:08Z</time>
      </trkpt>
      <trkpt lat="57.54058" lon="-5.71945">
        <ele>88.69</ele>
        <time>2021-03-20T21:15:10Z</time>
      </trkpt>
      <trkpt lat="57.54039" lon="-5.71927">
        <ele>86.74</ele>
        <time>2021-03-20T21:15:13Z</time>
      </trkpt>
      <trkpt lat="57.54023" lon="-5.719">
        <ele>82.97</ele>
        <time>2021-03-20T21:15:15Z</time>
      </trkpt>
      <trkpt lat="57.54004" lon="-5.71881">
        <ele>81.5</ele>
        <time>2021-03-20T21:15:18Z</time>
      </trkpt>
      <trkpt lat="57.5395" lon="-5.71857">
        <ele>84.52</ele>
        <time>2021-03-20T21:15:20Z</time>
      </trkpt>
      <trkpt lat="57.53922" lon="-5.71822">
        <ele>82.03</ele>
        <time>2021-03-20T21:15:23Z</time>
      </trkpt>
      <trkpt lat="57.53897" lon="-5.71782">
        <ele>79.78</ele>
        <time>2021-03-20T21:15:25Z</time>
      </trkpt>
      <trkpt lat="57.53867" lon="-5.71698">
        <ele>73.14</ele>
        <time>2021-03-20T21:15:28Z</time>
      </trkpt>
      <trkpt lat="57.53847" lon="-5.71656">
        <ele>67.27</ele>
        <time>2021-03-20T21:15:30Z</time>
      </trkpt>
      <trkpt lat="57.53829" lon="-5.71629">
        <ele>63.34</ele>
        <time>2021-03-20T21:15:33Z</time>
      </trkpt>
      <trkpt lat="57.53785" lon="-5.7159">
        <ele>63.46</ele>
        <time>2021-03-20T21:15:35Z</time>
      </trkpt>
      <trkpt lat="57.53714" lon="-5.7152">
        <ele>55.28</ele>
        <time>2021-03-20T21:15:38Z</time>
      </trkpt>
      <trkpt lat="57.53666" lon="-5.71457">
        <ele>48.83</ele>
        <time>2021-03-20T21:15:40Z</time>
      </trkpt>
      <trkpt lat="57.53643" lon="-5.71421">
        <ele>46.23</ele>
        <time>2021-03-20T21:15:43Z</time>
      </trkpt>
      <trkpt lat="57.53593" lon="-5.71323">
        <ele>39.94</ele>
        <time>2021-03-20T21:15:45Z</time>
      </trkpt>
      <trkpt lat="57.53595" lon="-5.71287">
        <ele>39.1</ele>
        <time>2021-03-20T21:15:48Z</time>
      </trkpt>
      <trkpt lat="57.53603" lon="-5.7127">
        <ele>38.42</ele>
        <time>2021-03-20T21:15:50Z</time>
      </trkpt>
      <trkpt lat="57.53614" lon="-5.71262">
        <ele>37.91</ele>
        <time>2021-03-20T21:15:53Z</time>
      </trkpt>
      <trkpt lat="57.53667" lon="-5.71246">
        <ele>35.42</ele>
        <time>2021-03-20T21:15:55Z</time>
      </trkpt>
      <trkpt lat="57.53697" lon="-5.71228">
        <ele>34.38</ele>
        <time>2021-03-20T21:15:58Z</time>
      </trkpt>
      <trkpt lat="57.53714" lon="-5.71221">
        <ele>33.02</ele>
        <time>2021-03-20T21:16:00Z</time>
      </trkpt>
      <trkpt lat="57.53772" lon="-5.71221">
        <ele>26.61</ele>
        <time>2021-03-20T21:16:03Z</time>
      </trkpt>
      <trkpt lat="57.5379" lon="-5.71217">
        <ele>25.28</ele>
        <time>2021-03-20T21:16:05Z</time>
      </trkpt>
      <trkpt lat="57.53807" lon="-5.71205">
        <ele>24.52</ele>
        <time>2021-03-20T21:16:08Z</time>
      </trkpt>
      <trkpt lat="57.53838" lon="-5.71165">
        <ele>23.9</ele>
        <time>2021-03-20T21:16:10Z</time>
      </trkpt>
      <trkpt lat="57.5389" lon="-5.71112">
        <ele>21.96</ele>
        <time>2021-03-20T21:16:13Z</time>
      </trkpt>
      <trkpt lat="57.5393" lon="-5.71083">
        <ele>21.54</ele>
        <time>2021-03-20T21:16:15Z</time>
      </trkpt>
      <trkpt lat="57.5397" lon="-5.71058">
        <ele>19.25</ele>
        <time>2021-03-20T21:16:17Z</time>
      </trkpt>
      <trkpt lat="57.53996" lon="-5.71031">
        <ele>18.14</ele>
        <time>2021-03-20T21:16:20Z</time>
      </trkpt>
      <trkpt lat="57.54001" lon="-5.71014">
        <ele>17.4</ele>
        <time>2021-03-20T21:16:22Z</time>
      </trkpt>
      <trkpt lat="57.54002" lon="-5.7099">
        <ele>16.39</ele>
        <time>2021-03-20T21:16:25Z</time>
      </trkpt>
      <trkpt lat="57.54" lon="-5.70977">
        <ele>16.19</ele>
        <time>2021-03-20T21:16:27Z</time>
      </trkpt>
      <trkpt lat="57.53982" lon="-5.70935">
        <ele>15.93</ele>
        <time>2021-03-20T21:16:30Z</time>
      </trkpt>
      <trkpt lat="57.53941" lon="-5.70763">
        <ele>13.71</ele>
        <time>2021-03-20T21:16:32Z</time>
      </trkpt>
      <trkpt lat="57.5393" lon="-5.70737">
        <ele>14.55</ele>
        <time>2021-03-20T21:16:35Z</time>
      </trkpt>
      <trkpt lat="57.53912" lon="-5.70711">
        <ele>15.95</ele>
        <time>2021-03-20T21:16:37Z</time>
      </trkpt>
      <trkpt lat="57.53835" lon="-5.70631">
        <ele>23.26</ele>
        <time>2021-03-20T21:16:40Z</time>
      </trkpt>
      <trkpt lat="57.53697" lon="-5.70447">
        <ele>23.29</ele>
        <time>2021-03-20T21:16:42Z</time>
      </trkpt>
      <trkpt lat="57.53686" lon="-5.70426">
        <ele>24.07</ele>
        <time>2021-03-20T21:16:45Z</time>
      </trkpt>
      <trkpt lat="57.53657" lon="-5.70314">
        <ele>25.8</ele>
        <time>2021-03-20T21:16:47Z</time>
      </trkpt>
      <trkpt lat="57.5364" lon="-5.70265">
        <ele>26.04</ele>
        <time>2021-03-20T21:16:50Z</time>
      </trkpt>
      <trkpt lat="57.53616" lon="-5.70213">
        <ele>25.54</ele>
        <time>2021-03-20T21:16:52Z</time>
      </trkpt>
      <trkpt lat="57.53579" lon="-5.70142">
        <ele>24.01</ele>
        <time>2021-03-20T21:16:55Z</time>
      </trkpt>
      <trkpt lat="57.53549" lon="-5.70098">
        <ele>19.34</ele>
        <time>2021-03-20T21:16:57Z</time>
      </trkpt>
      <trkpt lat="57.53528" lon="-5.70083">
        <ele>18</ele>
        <time>2021-03-20T21:17:00Z</time>
      </trkpt>
      <trkpt lat="57.53505" lon="-5.70072">
        <ele>16.27</ele>
        <time>2021-03-20T21:17:02Z</time>
      </trkpt>
      <trkpt lat="57.53474" lon="-5.70071">
        <ele>16.82</ele>
        <time>2021-03-20T21:17:05Z</time>
      </trkpt>
      <trkpt lat="57.53449" lon="-5.7008">
        <ele>18.56</ele>
        <time>2021-03-20T21:17:07Z</time>
      </trkpt>
      <trkpt lat="57.53407" lon="-5.70117">
        <ele>20.08</ele>
        <time>2021-03-20T21:17:10Z</time>
      </trkpt>
      <trkpt lat="57.53387" lon="-5.70126">
        <ele>20.08</ele>
        <time>2021-03-20T21:17:12Z</time>
      </trkpt>
      <trkpt lat="57.53362" lon="-5.70125">
        <ele>20.51</ele>
        <time>2021-03-20T21:17:15Z</time>
      </trkpt>
      <trkpt lat="57.53336" lon="-5.7012">
        <ele>20.33</ele>
        <time>2021-03-20T21:17:17Z</time>
      </trkpt>
      <trkpt lat="57.53231" lon="-5.70064">
        <ele>25.32</ele>
        <time>2021-03-20T21:17:20Z</time>
      </trkpt>
      <trkpt lat="57.53213" lon="-5.70048">
        <ele>26.47</ele>
        <time>2021-03-20T21:17:22Z</time>
      </trkpt>
      <trkpt lat="57.53193" lon="-5.70018">
        <ele>25.9</ele>
        <time>2021-03-20T21:17:25Z</time>
      </trkpt>
      <trkpt lat="57.53176" lon="-5.69984">
        <ele>23.03</ele>
        <time>2021-03-20T21:17:27Z</time>
      </trkpt>
      <trkpt lat="57.53159" lon="-5.69962">
        <ele>20.65</ele>
        <time>2021-03-20T21:17:30Z</time>
      </trkpt>
      <trkpt lat="57.53134" lon="-5.69941">
        <ele>18.78</ele>
        <time>2021-03-20T21:17:32Z</time>
      </trkpt>
      <trkpt lat="57.53107" lon="-5.69929">
        <ele>19.16</ele>
        <time>2021-03-20T21:17:35Z</time>
      </trkpt>
      <trkpt lat="57.53079" lon="-5.69906">
        <ele>18.17</ele>
        <time>2021-03-20T21:17:37Z</time>
      </trkpt>
      <trkpt lat="57.53056" lon="-5.69877">
        <ele>16.33</ele>
        <time>2021-03-20T21:17:40Z</time>
      </trkpt>
      <trkpt lat="57.53024" lon="-5.69843">
        <ele>14.08</ele>
        <time>2021-03-20T21:17:42Z</time>
      </trkpt>
      <trkpt lat="57.52982" lon="-5.69821">
        <ele>14.03</ele>
        <time>2021-03-20T21:17:45Z</time>
      </trkpt>
      <trkpt lat="57.5296" lon="-5.69778">
        <ele>16.62</ele>
        <time>2021-03-20T21:17:47Z</time>
      </trkpt>
      <trkpt lat="57.5296" lon="-5.69763">
        <ele>18.98</ele>
        <time>2021-03-20T21:17:50Z</time>
      </trkpt>
      <trkpt lat="57.52966" lon="-5.69737">
        <ele>21.16</ele>
        <time>2021-03-20T21:17:52Z</time>
      </trkpt>
      <trkpt lat="57.52979" lon="-5.69705">
        <ele>21.05</ele>
        <time>2021-03-20T21:17:55Z</time>
      </trkpt>
      <trkpt lat="57.53004" lon="-5.6967">
        <ele>16.47</ele>
        <time>2021-03-20T21:17:57Z</time>
      </trkpt>
      <trkpt lat="57.53011" lon="-5.69648">
        <ele>17</ele>
        <time>2021-03-20T21:18:00Z</time>
      </trkpt>
      <trkpt lat="57.53011" lon="-5.69627">
        <ele>19.78</ele>
        <time>2021-03-20T21:18:02Z</time>
      </trkpt>
      <trkpt lat="57.53005" lon="-5.69561">
        <ele>28.31</ele>
        <time>2021-03-20T21:18:05Z</time>
      </trkpt>
      <trkpt lat="57.52991" lon="-5.6948">
        <ele>37.02</ele>
        <time>2021-03-20T21:18:07Z</time>
      </trkpt>
      <trkpt lat="57.52985" lon="-5.69435">
        <ele>39.96</ele>
        <time>2021-03-20T21:18:10Z</time>
      </trkpt>
      <trkpt lat="57.52984" lon="-5.694">
        <ele>41.5</ele>
        <time>2021-03-20T21:18:12Z</time>
      </trkpt>
      <trkpt lat="57.52986" lon="-5.69357">
        <ele>41.64</ele>
        <time>2021-03-20T21:18:15Z</time>
      </trkpt>
      <trkpt lat="57.52983" lon="-5.69327">
        <ele>42.43</ele>
        <time>2021-03-20T21:18:17Z</time>
      </trkpt>
      <trkpt lat="57.52977" lon="-5.69298">
        <ele>44.03</ele>
        <time>2021-03-20T21:18:20Z</time>
      </trkpt>
      <trkpt lat="57.52954" lon="-5.69243">
        <ele>47.54</ele>
        <time>2021-03-20T21:18:22Z</time>
      </trkpt>
      <trkpt lat="57.52929" lon="-5.6919">
        <ele>47.57</ele>
        <time>2021-03-20T21:18:25Z</time>
      </trkpt>
      <trkpt lat="57.52911" lon="-5.69163">
        <ele>47.47</ele>
        <time>2021-03-20T21:18:27Z</time>
      </trkpt>
      <trkpt lat="57.52897" lon="-5.69149">
        <ele>48.19</ele>
        <time>2021-03-20T21:18:30Z</time>
      </trkpt>
      <trkpt lat="57.52873" lon="-5.69138">
        <ele>52.37</ele>
        <time>2021-03-20T21:18:32Z</time>
      </trkpt>
      <trkpt lat="57.52807" lon="-5.69122">
        <ele>60.48</ele>
        <time>2021-03-20T21:18:35Z</time>
      </trkpt>
      <trkpt lat="57.52778" lon="-5.69124">
        <ele>63.14</ele>
        <time>2021-03-20T21:18:37Z</time>
      </trkpt>
      <trkpt lat="57.52732" lon="-5.69151">
        <ele>67.91</ele>
        <time>2021-03-20T21:18:40Z</time>
      </trkpt>
      <trkpt lat="57.52711" lon="-5.69161">
        <ele>68.44</ele>
        <time>2021-03-20T21:18:42Z</time>
      </trkpt>
      <trkpt lat="57.52696" lon="-5.69162">
        <ele>67.64</ele>
        <time>2021-03-20T21:18:45Z</time>
      </trkpt>
      <trkpt lat="57.52682" lon="-5.6915">
        <ele>65.58</ele>
        <time>2021-03-20T21:18:47Z</time>
      </trkpt>
      <trkpt lat="57.52675" lon="-5.69136">
        <ele>63.98</ele>
        <time>2021-03-20T21:18:49Z</time>
      </trkpt>
      <trkpt lat="57.52673" lon="-5.69115">
        <ele>61.44</ele>
        <time>2021-03-20T21:18:52Z</time>
      </trkpt>
      <trkpt lat="57.52675" lon="-5.69091">
        <ele>61.5</ele>
        <time>2021-03-20T21:18:54Z</time>
      </trkpt>
      <trkpt lat="57.52688" lon="-5.69061">
        <ele>60.77</ele>
        <time>2021-03-20T21:18:57Z</time>
      </trkpt>
      <trkpt lat="57.52709" lon="-5.68998">
        <ele>58.35</ele>
        <time>2021-03-20T21:18:59Z</time>
      </trkpt>
      <trkpt lat="57.52712" lon="-5.68977">
        <ele>56.49</ele>
        <time>2021-03-20T21:19:02Z</time>
      </trkpt>
      <trkpt lat="57.52711" lon="-5.68954">
        <ele>55.39</ele>
        <time>2021-03-20T21:19:04Z</time>
      </trkpt>
      <trkpt lat="57.52704" lon="-5.68934">
        <ele>55.19</ele>
        <time>2021-03-20T21:19:07Z</time>
      </trkpt>
      <trkpt lat="57.52695" lon="-5.68926">
        <ele>56.95</ele>
        <time>2021-03-20T21:19:09Z</time>
      </trkpt>
      <trkpt lat="57.52658" lon="-5.68912">
        <ele>59.54</ele>
        <time>2021-03-20T21:19:12Z</time>
      </trkpt>
      <trkpt lat="57.52645" lon="-5.68904">
        <ele>58.6</ele>
        <time>2021-03-20T21:19:14Z</time>
      </trkpt>
      <trkpt lat="57.52633" lon="-5.68887">
        <ele>56.93</ele>
        <time>2021-03-20T21:19:17Z</time>
      </trkpt>
      <trkpt lat="57.52615" lon="-5.68828">
        <ele>53.97</ele>
        <time>2021-03-20T21:19:19Z</time>
      </trkpt>
      <trkpt lat="57.52611" lon="-5.6877">
        <ele>53.79</ele>
        <time>2021-03-20T21:19:22Z</time>
      </trkpt>
      <trkpt lat="57.52598" lon="-5.68716">
        <ele>52.58</ele>
        <time>2021-03-20T21:19:24Z</time>
      </trkpt>
      <trkpt lat="57.52567" lon="-5.68642">
        <ele>47.25</ele>
        <time>2021-03-20T21:19:27Z</time>
      </trkpt>
      <trkpt lat="57.5253" lon="-5.68574">
        <ele>46.74</ele>
        <time>2021-03-20T21:19:29Z</time>
      </trkpt>
      <trkpt lat="57.52523" lon="-5.68541">
        <ele>43.28</ele>
        <time>2021-03-20T21:19:32Z</time>
      </trkpt>
      <trkpt lat="57.52519" lon="-5.68496">
        <ele>37.76</ele>
        <time>2021-03-20T21:19:34Z</time>
      </trkpt>
      <trkpt lat="57.52519" lon="-5.68389">
        <ele>30.33</ele>
        <time>2021-03-20T21:19:37Z</time>
      </trkpt>
      <trkpt lat="57.52512" lon="-5.68309">
        <ele>31.72</ele>
        <time>2021-03-20T21:19:39Z</time>
      </trkpt>
      <trkpt lat="57.52467" lon="-5.68069">
        <ele>38.18</ele>
        <time>2021-03-20T21:19:42Z</time>
      </trkpt>
      <trkpt lat="57.52455" lon="-5.68037">
        <ele>37.8</ele>
        <time>2021-03-20T21:19:44Z</time>
      </trkpt>
      <trkpt lat="57.52445" lon="-5.68022">
        <ele>38.52</ele>
        <time>2021-03-20T21:19:47Z</time>
      </trkpt>
      <trkpt lat="57.52405" lon="-5.68">
        <ele>38.4</ele>
        <time>2021-03-20T21:19:49Z</time>
      </trkpt>
      <trkpt lat="57.5239" lon="-5.67986">
        <ele>37.95</ele>
        <time>2021-03-20T21:19:52Z</time>
      </trkpt>
      <trkpt lat="57.52373" lon="-5.67954">
        <ele>37.5</ele>
        <time>2021-03-20T21:19:54Z</time>
      </trkpt>
      <trkpt lat="57.52318" lon="-5.67831">
        <ele>35.62</ele>
        <time>2021-03-20T21:19:57Z</time>
      </trkpt>
      <trkpt lat="57.52284" lon="-5.67772">
        <ele>33.74</ele>
        <time>2021-03-20T21:19:59Z</time>
      </trkpt>
      <trkpt lat="57.52243" lon="-5.67678">
        <ele>35.61</ele>
        <time>2021-03-20T21:20:02Z</time>
      </trkpt>
      <trkpt lat="57.52212" lon="-5.67572">
        <ele>37.09</ele>
        <time>2021-03-20T21:20:04Z</time>
      </trkpt>
      <trkpt lat="57.52167" lon="-5.67452">
        <ele>35.88</ele>
        <time>2021-03-20T21:20:07Z</time>
      </trkpt>
      <trkpt lat="57.52123" lon="-5.67352">
        <ele>38.48</ele>
        <time>2021-03-20T21:20:09Z</time>
      </trkpt>
      <trkpt lat="57.52087" lon="-5.67279">
        <ele>41.18</ele>
        <time>2021-03-20T21:20:12Z</time>
      </trkpt>
      <trkpt lat="57.52038" lon="-5.6717">
        <ele>50.65</ele>
        <time>2021-03-20T21:20:14Z</time>
      </trkpt>
      <trkpt lat="57.5202" lon="-5.67142">
        <ele>53.12</ele>
        <time>2021-03-20T21:20:17Z</time>
      </trkpt>
      <trkpt lat="57.51995" lon="-5.67118">
        <ele>55.89</ele>
        <time>2021-03-20T21:20:19Z</time>
      </trkpt>
      <trkpt lat="57.51969" lon="-5.67106">
        <ele>58.1</ele>
        <time>2021-03-20T21:20:22Z</time>
      </trkpt>
      <trkpt lat="57.51954" lon="-5.67106">
        <ele>58.65</ele>
        <time>2021-03-20T21:20:24Z</time>
      </trkpt>
      <trkpt lat="57.51932" lon="-5.67114">
        <ele>59.19</ele>
        <time>2021-03-20T21:20:27Z</time>
      </trkpt>
      <trkpt lat="57.51908" lon="-5.67116">
        <ele>59.17</ele>
        <time>2021-03-20T21:20:29Z</time>
      </trkpt>
      <trkpt lat="57.5184" lon="-5.671">
        <ele>59.44</ele>
        <time>2021-03-20T21:20:32Z</time>
      </trkpt>
      <trkpt lat="57.51809" lon="-5.67077">
        <ele>57.71</ele>
        <time>2021-03-20T21:20:34Z</time>
      </trkpt>
      <trkpt lat="57.51779" lon="-5.67041">
        <ele>52.56</ele>
        <time>2021-03-20T21:20:37Z</time>
      </trkpt>
      <trkpt lat="57.51751" lon="-5.67022">
        <ele>48.57</ele>
        <time>2021-03-20T21:20:39Z</time>
      </trkpt>
      <trkpt lat="57.51653" lon="-5.66965">
        <ele>36.62</ele>
        <time>2021-03-20T21:20:42Z</time>
      </trkpt>
      <trkpt lat="57.51629" lon="-5.66934">
        <ele>34.54</ele>
        <time>2021-03-20T21:20:44Z</time>
      </trkpt>
      <trkpt lat="57.51596" lon="-5.66864">
        <ele>32.75</ele>
        <time>2021-03-20T21:20:47Z</time>
      </trkpt>
      <trkpt lat="57.5157" lon="-5.66757">
        <ele>34.41</ele>
        <time>2021-03-20T21:20:49Z</time>
      </trkpt>
      <trkpt lat="57.51561" lon="-5.66692">
        <ele>34.86</ele>
        <time>2021-03-20T21:20:52Z</time>
      </trkpt>
      <trkpt lat="57.51539" lon="-5.66645">
        <ele>36.18</ele>
        <time>2021-03-20T21:20:54Z</time>
      </trkpt>
      <trkpt lat="57.51418" lon="-5.66422">
        <ele>36.36</ele>
        <time>2021-03-20T21:20:57Z</time>
      </trkpt>
      <trkpt lat="57.51404" lon="-5.66401">
        <ele>34.87</ele>
        <time>2021-03-20T21:20:59Z</time>
      </trkpt>
      <trkpt lat="57.51393" lon="-5.66399">
        <ele>34.72</ele>
        <time>2021-03-20T21:21:02Z</time>
      </trkpt>
      <trkpt lat="57.51361" lon="-5.664">
        <ele>33.8</ele>
        <time>2021-03-20T21:21:04Z</time>
      </trkpt>
      <trkpt lat="57.51348" lon="-5.66391">
        <ele>34.05</ele>
        <time>2021-03-20T21:21:07Z</time>
      </trkpt>
      <trkpt lat="57.5134" lon="-5.66375">
        <ele>34.53</ele>
        <time>2021-03-20T21:21:09Z</time>
      </trkpt>
      <trkpt lat="57.51334" lon="-5.66349">
        <ele>34.95</ele>
        <time>2021-03-20T21:21:12Z</time>
      </trkpt>
      <trkpt lat="57.51333" lon="-5.66284">
        <ele>38.67</ele>
        <time>2021-03-20T21:21:14Z</time>
      </trkpt>
      <trkpt lat="57.51335" lon="-5.66198">
        <ele>39.76</ele>
        <time>2021-03-20T21:21:17Z</time>
      </trkpt>
      <trkpt lat="57.51346" lon="-5.66068">
        <ele>42.33</ele>
        <time>2021-03-20T21:21:19Z</time>
      </trkpt>
      <trkpt lat="57.51352" lon="-5.65949">
        <ele>47.64</ele>
        <time>2021-03-20T21:21:22Z</time>
      </trkpt>
      <trkpt lat="57.51351" lon="-5.65904">
        <ele>48.55</ele>
        <time>2021-03-20T21:21:24Z</time>
      </trkpt>
      <trkpt lat="57.51343" lon="-5.65855">
        <ele>49.28</ele>
        <time>2021-03-20T21:21:26Z</time>
      </trkpt>
      <trkpt lat="57.51333" lon="-5.65824">
        <ele>49.4</ele>
        <time>2021-03-20T21:21:29Z</time>
      </trkpt>
      <trkpt lat="57.51298" lon="-5.65738">
        <ele>48.28</ele>
        <time>2021-03-20T21:21:31Z</time>
      </trkpt>
      <trkpt lat="57.51277" lon="-5.65668">
        <ele>48.41</ele>
        <time>2021-03-20T21:21:34Z</time>
      </trkpt>
      <trkpt lat="57.51255" lon="-5.65616">
        <ele>48.46</ele>
        <time>2021-03-20T21:21:36Z</time>
      </trkpt>
      <trkpt lat="57.51218" lon="-5.65555">
        <ele>46.71</ele>
        <time>2021-03-20T21:21:39Z</time>
      </trkpt>
      <trkpt lat="57.51197" lon="-5.6553">
        <ele>46.17</ele>
        <time>2021-03-20T21:21:41Z</time>
      </trkpt>
      <trkpt lat="57.51139" lon="-5.65475">
        <ele>45.37</ele>
        <time>2021-03-20T21:21:44Z</time>
      </trkpt>
      <trkpt lat="57.51121" lon="-5.65449">
        <ele>44.6</ele>
        <time>2021-03-20T21:21:46Z</time>
      </trkpt>
      <trkpt lat="57.51114" lon="-5.65436">
        <ele>44.63</ele>
        <time>2021-03-20T21:21:49Z</time>
      </trkpt>
      <trkpt lat="57.51077" lon="-5.65339">
        <ele>42.18</ele>
        <time>2021-03-20T21:21:51Z</time>
      </trkpt>
      <trkpt lat="57.51029" lon="-5.65259">
        <ele>50.78</ele>
        <time>2021-03-20T21:21:54Z</time>
      </trkpt>
      <trkpt lat="57.50985" lon="-5.65212">
        <ele>51.84</ele>
        <time>2021-03-20T21:21:56Z</time>
      </trkpt>
      <trkpt lat="57.50966" lon="-5.65181">
        <ele>50.63</ele>
        <time>2021-03-20T21:21:59Z</time>
      </trkpt>
      <trkpt lat="57.50932" lon="-5.651">
        <ele>43.3</ele>
        <time>2021-03-20T21:22:01Z</time>
      </trkpt>
      <trkpt lat="57.50923" lon="-5.65085">
        <ele>40.89</ele>
        <time>2021-03-20T21:22:04Z</time>
      </trkpt>
      <trkpt lat="57.50903" lon="-5.65063">
        <ele>38.63</ele>
        <time>2021-03-20T21:22:06Z</time>
      </trkpt>
      <trkpt lat="57.50844" lon="-5.65041">
        <ele>37.86</ele>
        <time>2021-03-20T21:22:09Z</time>
      </trkpt>
      <trkpt lat="57.50835" lon="-5.65032">
        <ele>37.49</ele>
        <time>2021-03-20T21:22:11Z</time>
      </trkpt>
      <trkpt lat="57.50828" lon="-5.65017">
        <ele>35.79</ele>
        <time>2021-03-20T21:22:14Z</time>
      </trkpt>
      <trkpt lat="57.50824" lon="-5.6499">
        <ele>32.33</ele>
        <time>2021-03-20T21:22:16Z</time>
      </trkpt>
      <trkpt lat="57.50825" lon="-5.64954">
        <ele>27.79</ele>
        <time>2021-03-20T21:22:19Z</time>
      </trkpt>
      <trkpt lat="57.50817" lon="-5.6491">
        <ele>23.56</ele>
        <time>2021-03-20T21:22:21Z</time>
      </trkpt>
      <trkpt lat="57.50784" lon="-5.64815">
        <ele>22.36</ele>
        <time>2021-03-20T21:22:24Z</time>
      </trkpt>
      <trkpt lat="57.50786" lon="-5.64788">
        <ele>21.7</ele>
        <time>2021-03-20T21:22:26Z</time>
      </trkpt>
      <trkpt lat="57.50796" lon="-5.64764">
        <ele>20.73</ele>
        <time>2021-03-20T21:22:29Z</time>
      </trkpt>
      <trkpt lat="57.50805" lon="-5.64755">
        <ele>20.07</ele>
        <time>2021-03-20T21:22:31Z</time>
      </trkpt>
      <trkpt lat="57.50838" lon="-5.64739">
        <ele>19.27</ele>
        <time>2021-03-20T21:22:34Z</time>
      </trkpt>
      <trkpt lat="57.50885" lon="-5.64676">
        <ele>21.55</ele>
        <time>2021-03-20T21:22:36Z</time>
      </trkpt>
      <trkpt lat="57.50899" lon="-5.64643">
        <ele>21.62</ele>
        <time>2021-03-20T21:22:39Z</time>
      </trkpt>
      <trkpt lat="57.5093" lon="-5.64547">
        <ele>20.52</ele>
        <time>2021-03-20T21:22:41Z</time>
      </trkpt>
      <trkpt lat="57.50961" lon="-5.64433">
        <ele>19.8</ele>
        <time>2021-03-20T21:22:44Z</time>
      </trkpt>
      <trkpt lat="57.50964" lon="-5.64412">
        <ele>19.47</ele>
        <time>2021-03-20T21:22:46Z</time>
      </trkpt>
      <trkpt lat="57.50962" lon="-5.64396">
        <ele>19</ele>
        <time>2021-03-20T21:22:49Z</time>
      </trkpt>
      <trkpt lat="57.50927" lon="-5.64287">
        <ele>17.96</ele>
        <time>2021-03-20T21:22:51Z</time>
      </trkpt>
      <trkpt lat="57.50922" lon="-5.64252">
        <ele>17.22</ele>
        <time>2021-03-20T21:22:54Z</time>
      </trkpt>
      <trkpt lat="57.50927" lon="-5.64213">
        <ele>14.52</ele>
        <time>2021-03-20T21:22:56Z</time>
      </trkpt>
      <trkpt lat="57.50938" lon="-5.64195">
        <ele>12.91</ele>
        <time>2021-03-20T21:22:59Z</time>
      </trkpt>
      <trkpt lat="57.50952" lon="-5.64192">
        <ele>11.1</ele>
        <time>2021-03-20T21:23:01Z</time>
      </trkpt>
      <trkpt lat="57.50963" lon="-5.64199">
        <ele>10.03</ele>
        <time>2021-03-20T21:23:04Z</time>
      </trkpt>
      <trkpt lat="57.50972" lon="-5.6421">
        <ele>9</ele>
        <time>2021-03-20T21:23:06Z</time>
      </trkpt>
      <trkpt lat="57.50984" lon="-5.64242">
        <ele>10.13</ele>
        <time>2021-03-20T21:23:09Z</time>
      </trkpt>
      <trkpt lat="57.50989" lon="-5.64274">
        <ele>10.94</ele>
        <time>2021-03-20T21:23:11Z</time>
      </trkpt>
      <trkpt lat="57.50994" lon="-5.64301">
        <ele>12.66</ele>
        <time>2021-03-20T21:23:14Z</time>
      </trkpt>
      <trkpt lat="57.51006" lon="-5.64332">
        <ele>14.36</ele>
        <time>2021-03-20T21:23:16Z</time>
      </trkpt>
      <trkpt lat="57.51023" lon="-5.64355">
        <ele>15.79</ele>
        <time>2021-03-20T21:23:19Z</time>
      </trkpt>
      <trkpt lat="57.51046" lon="-5.64376">
        <ele>17.92</ele>
        <time>2021-03-20T21:23:21Z</time>
      </trkpt>
      <trkpt lat="57.5106" lon="-5.64371">
        <ele>19.4</ele>
        <time>2021-03-20T21:23:24Z</time>
      </trkpt>
      <trkpt lat="57.51071" lon="-5.64359">
        <ele>20.78</ele>
        <time>2021-03-20T21:23:26Z</time>
      </trkpt>
      <trkpt lat="57.5108" lon="-5.64328">
        <ele>22.65</ele>
        <time>2021-03-20T21:23:29Z</time>
      </trkpt>
      <trkpt lat="57.51088" lon="-5.64258">
        <ele>23.55</ele>
        <time>2021-03-20T21:23:31Z</time>
      </trkpt>
      <trkpt lat="57.51105" lon="-5.64332">
        <ele>24.57</ele>
        <time>2021-03-20T21:23:35Z</time>
      </trkpt>
      <trkpt lat="57.51123" lon="-5.64375">
        <ele>24.36</ele>
        <time>2021-03-20T21:23:38Z</time>
      </trkpt>
      <trkpt lat="57.51146" lon="-5.64401">
        <ele>24.25</ele>
        <time>2021-03-20T21:23:42Z</time>
      </trkpt>
      <trkpt lat="57.51176" lon="-5.64421">
        <ele>22.99</ele>
        <time>2021-03-20T21:23:45Z</time>
      </trkpt>
      <trkpt lat="57.51409" lon="-5.64518">
        <ele>18.6</ele>
        <time>2021-03-20T21:23:49Z</time>
      </trkpt>
      <trkpt lat="57.51438" lon="-5.64546">
        <ele>16.18</ele>
        <time>2021-03-20T21:23:52Z</time>
      </trkpt>
      <trkpt lat="57.51507" lon="-5.64651">
        <ele>13.4</ele>
        <time>2021-03-20T21:23:56Z</time>
      </trkpt>
      <trkpt lat="57.51542" lon="-5.64687">
        <ele>15.35</ele>
        <time>2021-03-20T21:23:59Z</time>
      </trkpt>
      <trkpt lat="57.51621" lon="-5.64735">
        <ele>16.35</ele>
        <time>2021-03-20T21:24:03Z</time>
      </trkpt>
      <trkpt lat="57.51704" lon="-5.64803">
        <ele>10.5</ele>
        <time>2021-03-20T21:24:06Z</time>
      </trkpt>
      <trkpt lat="57.51778" lon="-5.64833">
        <ele>10.02</ele>
        <time>2021-03-20T21:24:10Z</time>
      </trkpt>
      <trkpt lat="57.51882" lon="-5.64857">
        <ele>10.98</ele>
        <time>2021-03-20T21:24:13Z</time>
      </trkpt>
      <trkpt lat="57.51905" lon="-5.64858">
        <ele>13.43</ele>
        <time>2021-03-20T21:24:17Z</time>
      </trkpt>
      <trkpt lat="57.5193" lon="-5.64854">
        <ele>16.93</ele>
        <time>2021-03-20T21:24:20Z</time>
      </trkpt>
      <trkpt lat="57.51952" lon="-5.64838">
        <ele>21.6</ele>
        <time>2021-03-20T21:24:24Z</time>
      </trkpt>
      <trkpt lat="57.5198" lon="-5.64808">
        <ele>24.27</ele>
        <time>2021-03-20T21:24:27Z</time>
      </trkpt>
      <trkpt lat="57.52004" lon="-5.64764">
        <ele>24.6</ele>
        <time>2021-03-20T21:24:31Z</time>
      </trkpt>
      <trkpt lat="57.52029" lon="-5.64702">
        <ele>25.62</ele>
        <time>2021-03-20T21:24:34Z</time>
      </trkpt>
      <trkpt lat="57.52062" lon="-5.64614">
        <ele>26.44</ele>
        <time>2021-03-20T21:24:38Z</time>
      </trkpt>
      <trkpt lat="57.52081" lon="-5.64578">
        <ele>25.42</ele>
        <time>2021-03-20T21:24:41Z</time>
      </trkpt>
      <trkpt lat="57.52099" lon="-5.64554">
        <ele>25.56</ele>
        <time>2021-03-20T21:24:45Z</time>
      </trkpt>
      <trkpt lat="57.52122" lon="-5.64534">
        <ele>26.98</ele>
        <time>2021-03-20T21:24:48Z</time>
      </trkpt>
      <trkpt lat="57.52145" lon="-5.64525">
        <ele>28.03</ele>
        <time>2021-03-20T21:24:51Z</time>
      </trkpt>
      <trkpt lat="57.52163" lon="-5.64523">
        <ele>27.6</ele>
        <time>2021-03-20T21:24:55Z</time>
      </trkpt>
      <trkpt lat="57.52185" lon="-5.64529">
        <ele>27.53</ele>
        <time>2021-03-20T21:24:58Z</time>
      </trkpt>
      <trkpt lat="57.52225" lon="-5.64549">
        <ele>25.85</ele>
        <time>2021-03-20T21:25:02Z</time>
      </trkpt>
      <trkpt lat="57.52298" lon="-5.64592">
        <ele>23.61</ele>
        <time>2021-03-20T21:25:05Z</time>
      </trkpt>
      <trkpt lat="57.52324" lon="-5.64598">
        <ele>22.93</ele>
        <time>2021-03-20T21:25:09Z</time>
      </trkpt>
      <trkpt lat="57.52346" lon="-5.64597">
        <ele>22.75</ele>
        <time>2021-03-20T21:25:12Z</time>
      </trkpt>
      <trkpt lat="57.52374" lon="-5.6459">
        <ele>21.94</ele>
        <time>2021-03-20T21:25:16Z</time>
      </trkpt>
      <trkpt lat="57.52397" lon="-5.64575">
        <ele>21.28</ele>
        <time>2021-03-20T21:25:19Z</time>
      </trkpt>
      <trkpt lat="57.52427" lon="-5.64542">
        <ele>22</ele>
        <time>2021-03-20T21:25:23Z</time>
      </trkpt>
      <trkpt lat="57.52534" lon="-5.64382">
        <ele>28.67</ele>
        <time>2021-03-20T21:25:26Z</time>
      </trkpt>
      <trkpt lat="57.52556" lon="-5.64325">
        <ele>30.01</ele>
        <time>2021-03-20T21:25:30Z</time>
      </trkpt>
      <trkpt lat="57.52578" lon="-5.64225">
        <ele>31.55</ele>
        <time>2021-03-20T21:25:33Z</time>
      </trkpt>
      <trkpt lat="57.52604" lon="-5.64002">
        <ele>35.26</ele>
        <time>2021-03-20T21:25:37Z</time>
      </trkpt>
      <trkpt lat="57.52606" lon="-5.63936">
        <ele>34.61</ele>
        <time>2021-03-20T21:25:40Z</time>
      </trkpt>
      <trkpt lat="57.52597" lon="-5.63849">
        <ele>33.78</ele>
        <time>2021-03-20T21:25:44Z</time>
      </trkpt>
      <trkpt lat="57.52578" lon="-5.63783">
        <ele>32.87</ele>
        <time>2021-03-20T21:25:47Z</time>
      </trkpt>
      <trkpt lat="57.52547" lon="-5.63684">
        <ele>26.93</ele>
        <time>2021-03-20T21:25:51Z</time>
      </trkpt>
      <trkpt lat="57.52457" lon="-5.63457">
        <ele>24.25</ele>
        <time>2021-03-20T21:25:54Z</time>
      </trkpt>
      <trkpt lat="57.52435" lon="-5.6342">
        <ele>23.16</ele>
        <time>2021-03-20T21:25:58Z</time>
      </trkpt>
      <trkpt lat="57.52412" lon="-5.634">
        <ele>21.26</ele>
        <time>2021-03-20T21:26:01Z</time>
      </trkpt>
      <trkpt lat="57.52355" lon="-5.6339">
        <ele>20.91</ele>
        <time>2021-03-20T21:26:05Z</time>
      </trkpt>
      <trkpt lat="57.523" lon="-5.63393">
        <ele>16.98</ele>
        <time>2021-03-20T21:26:08Z</time>
      </trkpt>
      <trkpt lat="57.5227" lon="-5.63381">
        <ele>15.27</ele>
        <time>2021-03-20T21:26:12Z</time>
      </trkpt>
      <trkpt lat="57.52243" lon="-5.63354">
        <ele>17.82</ele>
        <time>2021-03-20T21:26:15Z</time>
      </trkpt>
      <trkpt lat="57.52215" lon="-5.63294">
        <ele>24.11</ele>
        <time>2021-03-20T21:26:19Z</time>
      </trkpt>
      <trkpt lat="57.52195" lon="-5.63201">
        <ele>25.26</ele>
        <time>2021-03-20T21:26:22Z</time>
      </trkpt>
      <trkpt lat="57.52181" lon="-5.63084">
        <ele>25.99</ele>
        <time>2021-03-20T21:26:26Z</time>
      </trkpt>
      <trkpt lat="57.5218" lon="-5.62982">
        <ele>24.24</ele>
        <time>2021-03-20T21:26:29Z</time>
      </trkpt>
      <trkpt lat="57.52184" lon="-5.62738">
        <ele>17.26</ele>
        <time>2021-03-20T21:26:33Z</time>
      </trkpt>
      <trkpt lat="57.52175" lon="-5.62646">
        <ele>16.36</ele>
        <time>2021-03-20T21:26:36Z</time>
      </trkpt>
      <trkpt lat="57.52166" lon="-5.62564">
        <ele>14.73</ele>
        <time>2021-03-20T21:26:40Z</time>
      </trkpt>
      <trkpt lat="57.52149" lon="-5.62444">
        <ele>13.75</ele>
        <time>2021-03-20T21:26:43Z</time>
      </trkpt>
      <trkpt lat="57.52134" lon="-5.62375">
        <ele>14.89</ele>
        <time>2021-03-20T21:26:46Z</time>
      </trkpt>
      <trkpt lat="57.52082" lon="-5.62211">
        <ele>18.99</ele>
        <time>2021-03-20T21:26:50Z</time>
      </trkpt>
      <trkpt lat="57.52067" lon="-5.62132">
        <ele>18.43</ele>
        <time>2021-03-20T21:26:53Z</time>
      </trkpt>
      <trkpt lat="57.52063" lon="-5.62091">
        <ele>17.27</ele>
        <time>2021-03-20T21:26:57Z</time>
      </trkpt>
      <trkpt lat="57.52066" lon="-5.6204">
        <ele>13.75</ele>
        <time>2021-03-20T21:27:00Z</time>
      </trkpt>
      <trkpt lat="57.52076" lon="-5.61986">
        <ele>11.72</ele>
        <time>2021-03-20T21:27:04Z</time>
      </trkpt>
      <trkpt lat="57.52089" lon="-5.61953">
        <ele>12.24</ele>
        <time>2021-03-20T21:27:07Z</time>
      </trkpt>
      <trkpt lat="57.52122" lon="-5.61896">
        <ele>14.76</ele>
        <time>2021-03-20T21:27:11Z</time>
      </trkpt>
      <trkpt lat="57.52155" lon="-5.61843">
        <ele>14.92</ele>
        <time>2021-03-20T21:27:14Z</time>
      </trkpt>
      <trkpt lat="57.522" lon="-5.6179">
        <ele>15.86</ele>
        <time>2021-03-20T21:27:18Z</time>
      </trkpt>
      <trkpt lat="57.52316" lon="-5.61715">
        <ele>22.57</ele>
        <time>2021-03-20T21:27:21Z</time>
      </trkpt>
      <trkpt lat="57.52427" lon="-5.61605">
        <ele>29.5</ele>
        <time>2021-03-20T21:27:25Z</time>
      </trkpt>
      <trkpt lat="57.52541" lon="-5.61525">
        <ele>30.37</ele>
        <time>2021-03-20T21:27:28Z</time>
      </trkpt>
      <trkpt lat="57.52678" lon="-5.6137">
        <ele>31.89</ele>
        <time>2021-03-20T21:27:32Z</time>
      </trkpt>
      <trkpt lat="57.52849" lon="-5.61231">
        <ele>36.47</ele>
        <time>2021-03-20T21:27:35Z</time>
      </trkpt>
      <trkpt lat="57.52885" lon="-5.61185">
        <ele>37.45</ele>
        <time>2021-03-20T21:27:39Z</time>
      </trkpt>
      <trkpt lat="57.52965" lon="-5.61038">
        <ele>39.1</ele>
        <time>2021-03-20T21:27:42Z</time>
      </trkpt>
      <trkpt lat="57.52992" lon="-5.61">
        <ele>39.2</ele>
        <time>2021-03-20T21:27:46Z</time>
      </trkpt>
      <trkpt lat="57.53045" lon="-5.60952">
        <ele>37.96</ele>
        <time>2021-03-20T21:27:49Z</time>
      </trkpt>
      <trkpt lat="57.53102" lon="-5.60905">
        <ele>38.03</ele>
        <time>2021-03-20T21:27:53Z</time>
      </trkpt>
      <trkpt lat="57.53126" lon="-5.60873">
        <ele>38.76</ele>
        <time>2021-03-20T21:27:56Z</time>
      </trkpt>
      <trkpt lat="57.53149" lon="-5.60811">
        <ele>39.77</ele>
        <time>2021-03-20T21:28:00Z</time>
      </trkpt>
      <trkpt lat="57.53156" lon="-5.6076">
        <ele>39.7</ele>
        <time>2021-03-20T21:28:03Z</time>
      </trkpt>
      <trkpt lat="57.53156" lon="-5.60689">
        <ele>38.06</ele>
        <time>2021-03-20T21:28:07Z</time>
      </trkpt>
      <trkpt lat="57.53147" lon="-5.60645">
        <ele>37.94</ele>
        <time>2021-03-20T21:28:10Z</time>
      </trkpt>
      <trkpt lat="57.53123" lon="-5.60586">
        <ele>39.33</ele>
        <time>2021-03-20T21:28:14Z</time>
      </trkpt>
      <trkpt lat="57.53101" lon="-5.60553">
        <ele>39.06</ele>
        <time>2021-03-20T21:28:17Z</time>
      </trkpt>
      <trkpt lat="57.53031" lon="-5.60468">
        <ele>35.5</ele>
        <time>2021-03-20T21:28:21Z</time>
      </trkpt>
      <trkpt lat="57.52963" lon="-5.60313">
        <ele>30.31</ele>
        <time>2021-03-20T21:28:24Z</time>
      </trkpt>
      <trkpt lat="57.52938" lon="-5.60268">
        <ele>28.78</ele>
        <time>2021-03-20T21:28:28Z</time>
      </trkpt>
      <trkpt lat="57.52813" lon="-5.60112">
        <ele>20.04</ele>
        <time>2021-03-20T21:28:31Z</time>
      </trkpt>
      <trkpt lat="57.52788" lon="-5.6007">
        <ele>17.74</ele>
        <time>2021-03-20T21:28:35Z</time>
      </trkpt>
      <trkpt lat="57.52775" lon="-5.60035">
        <ele>15.14</ele>
        <time>2021-03-20T21:28:38Z</time>
      </trkpt>
      <trkpt lat="57.52763" lon="-5.59982">
        <ele>11.83</ele>
        <time>2021-03-20T21:28:41Z</time>
      </trkpt>
      <trkpt lat="57.52758" lon="-5.59908">
        <ele>9.7</ele>
        <time>2021-03-20T21:28:45Z</time>
      </trkpt>
      <trkpt lat="57.52759" lon="-5.59651">
        <ele>11.31</ele>
        <time>2021-03-20T21:28:48Z</time>
      </trkpt>
      <trkpt lat="57.52754" lon="-5.59573">
        <ele>12.67</ele>
        <time>2021-03-20T21:28:52Z</time>
      </trkpt>
      <trkpt lat="57.52743" lon="-5.59512">
        <ele>15.5</ele>
        <time>2021-03-20T21:28:55Z</time>
      </trkpt>
      <trkpt lat="57.52731" lon="-5.59464">
        <ele>16.79</ele>
        <time>2021-03-20T21:28:59Z</time>
      </trkpt>
      <trkpt lat="57.52633" lon="-5.59158">
        <ele>18.79</ele>
        <time>2021-03-20T21:29:02Z</time>
      </trkpt>
      <trkpt lat="57.52608" lon="-5.59067">
        <ele>20.02</ele>
        <time>2021-03-20T21:29:06Z</time>
      </trkpt>
      <trkpt lat="57.52599" lon="-5.59001">
        <ele>22.57</ele>
        <time>2021-03-20T21:29:09Z</time>
      </trkpt>
      <trkpt lat="57.526" lon="-5.5893">
        <ele>25.92</ele>
        <time>2021-03-20T21:29:13Z</time>
      </trkpt>
      <trkpt lat="57.52638" lon="-5.58665">
        <ele>37</ele>
        <time>2021-03-20T21:29:16Z</time>
      </trkpt>
      <trkpt lat="57.52634" lon="-5.58409">
        <ele>45.29</ele>
        <time>2021-03-20T21:29:20Z</time>
      </trkpt>
      <trkpt lat="57.52635" lon="-5.58326">
        <ele>46.62</ele>
        <time>2021-03-20T21:29:23Z</time>
      </trkpt>
      <trkpt lat="57.52647" lon="-5.58255">
        <ele>47</ele>
        <time>2021-03-20T21:29:27Z</time>
      </trkpt>
      <trkpt lat="57.52683" lon="-5.58079">
        <ele>48.02</ele>
        <time>2021-03-20T21:29:30Z</time>
      </trkpt>
      <trkpt lat="57.5269" lon="-5.58026">
        <ele>48.56</ele>
        <time>2021-03-20T21:29:34Z</time>
      </trkpt>
      <trkpt lat="57.52709" lon="-5.5769">
        <ele>59.93</ele>
        <time>2021-03-20T21:29:37Z</time>
      </trkpt>
      <trkpt lat="57.52705" lon="-5.57558">
        <ele>65.03</ele>
        <time>2021-03-20T21:29:41Z</time>
      </trkpt>
      <trkpt lat="57.52691" lon="-5.5741">
        <ele>67.25</ele>
        <time>2021-03-20T21:29:44Z</time>
      </trkpt>
      <trkpt lat="57.5269" lon="-5.57267">
        <ele>69.51</ele>
        <time>2021-03-20T21:29:48Z</time>
      </trkpt>
      <trkpt lat="57.52684" lon="-5.57128">
        <ele>80.9</ele>
        <time>2021-03-20T21:29:51Z</time>
      </trkpt>
      <trkpt lat="57.52673" lon="-5.56995">
        <ele>87.75</ele>
        <time>2021-03-20T21:29:55Z</time>
      </trkpt>
      <trkpt lat="57.52677" lon="-5.56927">
        <ele>90.71</ele>
        <time>2021-03-20T21:29:58Z</time>
      </trkpt>
      <trkpt lat="57.52699" lon="-5.56833">
        <ele>97.03</ele>
        <time>2021-03-20T21:30:02Z</time>
      </trkpt>
      <trkpt lat="57.5275" lon="-5.56679">
        <ele>103.56</ele>
        <time>2021-03-20T21:30:05Z</time>
      </trkpt>
      <trkpt lat="57.52762" lon="-5.56622">
        <ele>101.6</ele>
        <time>2021-03-20T21:30:09Z</time>
      </trkpt>
      <trkpt lat="57.52766" lon="-5.56565">
        <ele>100.65</ele>
        <time>2021-03-20T21:30:12Z</time>
      </trkpt>
      <trkpt lat="57.52765" lon="-5.56516">
        <ele>101.67</ele>
        <time>2021-03-20T21:30:16Z</time>
      </trkpt>
      <trkpt lat="57.52761" lon="-5.56464">
        <ele>102.96</ele>
        <time>2021-03-20T21:30:19Z</time>
      </trkpt>
      <trkpt lat="57.5274" lon="-5.56306">
        <ele>104.73</ele>
        <time>2021-03-20T21:30:23Z</time>
      </trkpt>
      <trkpt lat="57.52725" lon="-5.56165">
        <ele>105.66</ele>
        <time>2021-03-20T21:30:26Z</time>
      </trkpt>
      <trkpt lat="57.52723" lon="-5.56088">
        <ele>105.79</ele>
        <time>2021-03-20T21:30:30Z</time>
      </trkpt>
      <trkpt lat="57.52725" lon="-5.56054">
        <ele>104.63</ele>
        <time>2021-03-20T21:30:33Z</time>
      </trkpt>
      <trkpt lat="57.52729" lon="-5.56011">
        <ele>104.64</ele>
        <time>2021-03-20T21:30:36Z</time>
      </trkpt>
      <trkpt lat="57.52735" lon="-5.5597">
        <ele>106.35</ele>
        <time>2021-03-20T21:30:40Z</time>
      </trkpt>
      <trkpt lat="57.52745" lon="-5.55921">
        <ele>108.89</ele>
        <time>2021-03-20T21:30:43Z</time>
      </trkpt>
      <trkpt lat="57.52774" lon="-5.55793">
        <ele>114.29</ele>
        <time>2021-03-20T21:30:47Z</time>
      </trkpt>
      <trkpt lat="57.52782" lon="-5.55752">
        <ele>115.5</ele>
        <time>2021-03-20T21:30:50Z</time>
      </trkpt>
      <trkpt lat="57.52791" lon="-5.55669">
        <ele>116.58</ele>
        <time>2021-03-20T21:30:54Z</time>
      </trkpt>
      <trkpt lat="57.52799" lon="-5.55488">
        <ele>116.56</ele>
        <time>2021-03-20T21:30:57Z</time>
      </trkpt>
      <trkpt lat="57.52806" lon="-5.55432">
        <ele>114.03</ele>
        <time>2021-03-20T21:31:01Z</time>
      </trkpt>
      <trkpt lat="57.5281" lon="-5.55406">
        <ele>113.75</ele>
        <time>2021-03-20T21:31:04Z</time>
      </trkpt>
      <trkpt lat="57.52818" lon="-5.55376">
        <ele>112.99</ele>
        <time>2021-03-20T21:31:08Z</time>
      </trkpt>
      <trkpt lat="57.52859" lon="-5.55252">
        <ele>105.54</ele>
        <time>2021-03-20T21:31:11Z</time>
      </trkpt>
      <trkpt lat="57.52873" lon="-5.55191">
        <ele>104.83</ele>
        <time>2021-03-20T21:31:15Z</time>
      </trkpt>
      <trkpt lat="57.52881" lon="-5.55125">
        <ele>106.8</ele>
        <time>2021-03-20T21:31:18Z</time>
      </trkpt>
      <trkpt lat="57.52883" lon="-5.55076">
        <ele>108.47</ele>
        <time>2021-03-20T21:31:22Z</time>
      </trkpt>
      <trkpt lat="57.52877" lon="-5.55022">
        <ele>109</ele>
        <time>2021-03-20T21:31:25Z</time>
      </trkpt>
      <trkpt lat="57.52872" lon="-5.54992">
        <ele>108.92</ele>
        <time>2021-03-20T21:31:29Z</time>
      </trkpt>
      <trkpt lat="57.52864" lon="-5.54958">
        <ele>108.63</ele>
        <time>2021-03-20T21:31:32Z</time>
      </trkpt>
      <trkpt lat="57.52848" lon="-5.54907">
        <ele>107.5</ele>
        <time>2021-03-20T21:31:36Z</time>
      </trkpt>
      <trkpt lat="57.52775" lon="-5.54711">
        <ele>102.58</ele>
        <time>2021-03-20T21:31:39Z</time>
      </trkpt>
      <trkpt lat="57.52765" lon="-5.54648">
        <ele>99.58</ele>
        <time>2021-03-20T21:31:43Z</time>
      </trkpt>
      <trkpt lat="57.52761" lon="-5.54587">
        <ele>95.68</ele>
        <time>2021-03-20T21:31:46Z</time>
      </trkpt>
      <trkpt lat="57.52764" lon="-5.54526">
        <ele>91.38</ele>
        <time>2021-03-20T21:31:50Z</time>
      </trkpt>
      <trkpt lat="57.52781" lon="-5.54397">
        <ele>84.13</ele>
        <time>2021-03-20T21:31:53Z</time>
      </trkpt>
      <trkpt lat="57.52784" lon="-5.5435">
        <ele>81.58</ele>
        <time>2021-03-20T21:31:57Z</time>
      </trkpt>
      <trkpt lat="57.52784" lon="-5.54301">
        <ele>79.51</ele>
        <time>2021-03-20T21:32:00Z</time>
      </trkpt>
      <trkpt lat="57.52762" lon="-5.54049">
        <ele>73.71</ele>
        <time>2021-03-20T21:32:04Z</time>
      </trkpt>
      <trkpt lat="57.5276" lon="-5.54002">
        <ele>70.9</ele>
        <time>2021-03-20T21:32:07Z</time>
      </trkpt>
      <trkpt lat="57.52769" lon="-5.53656">
        <ele>55.46</ele>
        <time>2021-03-20T21:32:11Z</time>
      </trkpt>
      <trkpt lat="57.52774" lon="-5.53499">
        <ele>54.72</ele>
        <time>2021-03-20T21:32:14Z</time>
      </trkpt>
      <trkpt lat="57.52787" lon="-5.53366">
        <ele>51.99</ele>
        <time>2021-03-20T21:32:18Z</time>
      </trkpt>
      <trkpt lat="57.52806" lon="-5.53232">
        <ele>45.26</ele>
        <time>2021-03-20T21:32:21Z</time>
      </trkpt>
      <trkpt lat="57.52807" lon="-5.5318">
        <ele>42.62</ele>
        <time>2021-03-20T21:32:25Z</time>
      </trkpt>
      <trkpt lat="57.52803" lon="-5.5313">
        <ele>42.28</ele>
        <time>2021-03-20T21:32:28Z</time>
      </trkpt>
      <trkpt lat="57.5279" lon="-5.53083">
        <ele>43.89</ele>
        <time>2021-03-20T21:32:31Z</time>
      </trkpt>
      <trkpt lat="57.52732" lon="-5.52966">
        <ele>39.21</ele>
        <time>2021-03-20T21:32:35Z</time>
      </trkpt>
      <trkpt lat="57.52714" lon="-5.52905">
        <ele>31.45</ele>
        <time>2021-03-20T21:32:38Z</time>
      </trkpt>
      <trkpt lat="57.52706" lon="-5.52855">
        <ele>28.94</ele>
        <time>2021-03-20T21:32:42Z</time>
      </trkpt>
      <trkpt lat="57.52706" lon="-5.52797">
        <ele>28.36</ele>
        <time>2021-03-20T21:32:45Z</time>
      </trkpt>
      <trkpt lat="57.52713" lon="-5.52737">
        <ele>28.12</ele>
        <time>2021-03-20T21:32:49Z</time>
      </trkpt>
      <trkpt lat="57.52732" lon="-5.52685">
        <ele>25.63</ele>
        <time>2021-03-20T21:32:52Z</time>
      </trkpt>
      <trkpt lat="57.52757" lon="-5.52643">
        <ele>22.64</ele>
        <time>2021-03-20T21:32:56Z</time>
      </trkpt>
      <trkpt lat="57.52808" lon="-5.52584">
        <ele>16.68</ele>
        <time>2021-03-20T21:32:59Z</time>
      </trkpt>
      <trkpt lat="57.52885" lon="-5.5252">
        <ele>12.73</ele>
        <time>2021-03-20T21:33:03Z</time>
      </trkpt>
      <trkpt lat="57.52919" lon="-5.52486">
        <ele>14.95</ele>
        <time>2021-03-20T21:33:06Z</time>
      </trkpt>
      <trkpt lat="57.5294" lon="-5.52455">
        <ele>17.26</ele>
        <time>2021-03-20T21:33:10Z</time>
      </trkpt>
      <trkpt lat="57.52967" lon="-5.52397">
        <ele>16.37</ele>
        <time>2021-03-20T21:33:13Z</time>
      </trkpt>
      <trkpt lat="57.53071" lon="-5.52046">
        <ele>21.32</ele>
        <time>2021-03-20T21:33:17Z</time>
      </trkpt>
      <trkpt lat="57.53099" lon="-5.5196">
        <ele>15.13</ele>
        <time>2021-03-20T21:33:20Z</time>
      </trkpt>
      <trkpt lat="57.53122" lon="-5.51911">
        <ele>6.84</ele>
        <time>2021-03-20T21:33:24Z</time>
      </trkpt>
      <trkpt lat="57.53187" lon="-5.51797">
        <ele>4.87</ele>
        <time>2021-03-20T21:33:27Z</time>
      </trkpt>
      <trkpt lat="57.53205" lon="-5.51752">
        <ele>5.22</ele>
        <time>2021-03-20T21:33:31Z</time>
      </trkpt>
      <trkpt lat="57.53219" lon="-5.517">
        <ele>5.1</ele>
        <time>2021-03-20T21:33:34Z</time>
      </trkpt>
      <trkpt lat="57.53256" lon="-5.51527">
        <ele>3.81</ele>
        <time>2021-03-20T21:33:38Z</time>
      </trkpt>
      <trkpt lat="57.5327" lon="-5.51491">
        <ele>4.61</ele>
        <time>2021-03-20T21:33:41Z</time>
      </trkpt>
      <trkpt lat="57.53315" lon="-5.51393">
        <ele>6.16</ele>
        <time>2021-03-20T21:33:45Z</time>
      </trkpt>
      <trkpt lat="57.53349" lon="-5.51315">
        <ele>5.16</ele>
        <time>2021-03-20T21:33:48Z</time>
      </trkpt>
      <trkpt lat="57.53364" lon="-5.51263">
        <ele>5</ele>
        <time>2021-03-20T21:33:52Z</time>
      </trkpt>
      <trkpt lat="57.53371" lon="-5.51201">
        <ele>5.66</ele>
        <time>2021-03-20T21:33:55Z</time>
      </trkpt>
      <trkpt lat="57.53372" lon="-5.5116">
        <ele>6.24</ele>
        <time>2021-03-20T21:33:59Z</time>
      </trkpt>
      <trkpt lat="57.53363" lon="-5.51049">
        <ele>9.02</ele>
        <time>2021-03-20T21:34:02Z</time>
      </trkpt>
      <trkpt lat="57.53352" lon="-5.50939">
        <ele>15.04</ele>
        <time>2021-03-20T21:34:06Z</time>
      </trkpt>
      <trkpt lat="57.5335" lon="-5.50884">
        <ele>15.19</ele>
        <time>2021-03-20T21:34:09Z</time>
      </trkpt>
      <trkpt lat="57.53354" lon="-5.50839">
        <ele>14.79</ele>
        <time>2021-03-20T21:34:13Z</time>
      </trkpt>
      <trkpt lat="57.53364" lon="-5.50783">
        <ele>13.6</ele>
        <time>2021-03-20T21:34:16Z</time>
      </trkpt>
      <trkpt lat="57.53383" lon="-5.5074">
        <ele>10.59</ele>
        <time>2021-03-20T21:34:20Z</time>
      </trkpt>
      <trkpt lat="57.53403" lon="-5.50708">
        <ele>9.23</ele>
        <time>2021-03-20T21:34:23Z</time>
      </trkpt>
      <trkpt lat="57.53415" lon="-5.50694">
        <ele>9.07</ele>
        <time>2021-03-20T21:34:27Z</time>
      </trkpt>
      <trkpt lat="57.53446" lon="-5.50673">
        <ele>10.52</ele>
        <time>2021-03-20T21:34:30Z</time>
      </trkpt>
      <trkpt lat="57.53537" lon="-5.50649">
        <ele>10.41</ele>
        <time>2021-03-20T21:34:33Z</time>
      </trkpt>
      <trkpt lat="57.53558" lon="-5.50637">
        <ele>11.04</ele>
        <time>2021-03-20T21:34:37Z</time>
      </trkpt>
      <trkpt lat="57.53661" lon="-5.50541">
        <ele>7.2</ele>
        <time>2021-03-20T21:34:40Z</time>
      </trkpt>
      <trkpt lat="57.53695" lon="-5.50524">
        <ele>8</ele>
        <time>2021-03-20T21:34:44Z</time>
      </trkpt>
      <trkpt lat="57.53835" lon="-5.50482">
        <ele>9.04</ele>
        <time>2021-03-20T21:34:47Z</time>
      </trkpt>
      <trkpt lat="57.54156" lon="-5.5035">
        <ele>9.63</ele>
        <time>2021-03-20T21:34:51Z</time>
      </trkpt>
      <trkpt lat="57.54195" lon="-5.50331">
        <ele>10</ele>
        <time>2021-03-20T21:34:54Z</time>
      </trkpt>
      <trkpt lat="57.54218" lon="-5.50315">
        <ele>10</ele>
        <time>2021-03-20T21:34:58Z</time>
      </trkpt>
      <trkpt lat="57.54235" lon="-5.50295">
        <ele>10.37</ele>
        <time>2021-03-20T21:35:01Z</time>
      </trkpt>
      <trkpt lat="57.54253" lon="-5.50266">
        <ele>11.18</ele>
        <time>2021-03-20T21:35:05Z</time>
      </trkpt>
      <trkpt lat="57.54262" lon="-5.5024">
        <ele>12.09</ele>
        <time>2021-03-20T21:35:08Z</time>
      </trkpt>
      <trkpt lat="57.54271" lon="-5.50211">
        <ele>12.74</ele>
        <time>2021-03-20T21:35:12Z</time>
      </trkpt>
      <trkpt lat="57.54276" lon="-5.50174">
        <ele>12.93</ele>
        <time>2021-03-20T21:35:15Z</time>
      </trkpt>
      <trkpt lat="57.54279" lon="-5.50124">
        <ele>13</ele>
        <time>2021-03-20T21:35:19Z</time>
      </trkpt>
      <trkpt lat="57.54278" lon="-5.50106">
        <ele>13</ele>
        <time>2021-03-20T21:35:22Z</time>
      </trkpt>
      <trkpt lat="57.54263" lon="-5.50024">
        <ele>13.58</ele>
        <time>2021-03-20T21:35:26Z</time>
      </trkpt>
      <trkpt lat="57.5419" lon="-5.49804">
        <ele>13.06</ele>
        <time>2021-03-20T21:35:29Z</time>
      </trkpt>
      <trkpt lat="57.5417" lon="-5.49722">
        <ele>15</ele>
        <time>2021-03-20T21:35:33Z</time>
      </trkpt>
      <trkpt lat="57.54149" lon="-5.49609">
        <ele>15.03</ele>
        <time>2021-03-20T21:35:36Z</time>
      </trkpt>
      <trkpt lat="57.54146" lon="-5.49587">
        <ele>15.21</ele>
        <time>2021-03-20T21:35:40Z</time>
      </trkpt>
      <trkpt lat="57.54114" lon="-5.49239">
        <ele>19.25</ele>
        <time>2021-03-20T21:35:43Z</time>
      </trkpt>
      <trkpt lat="57.54105" lon="-5.49187">
        <ele>20</ele>
        <time>2021-03-20T21:35:47Z</time>
      </trkpt>
      <trkpt lat="57.54076" lon="-5.49052">
        <ele>19.53</ele>
        <time>2021-03-20T21:35:50Z</time>
      </trkpt>
      <trkpt lat="57.54053" lon="-5.48904">
        <ele>22.65</ele>
        <time>2021-03-20T21:35:54Z</time>
      </trkpt>
      <trkpt lat="57.54043" lon="-5.48799">
        <ele>21</ele>
        <time>2021-03-20T21:35:57Z</time>
      </trkpt>
      <trkpt lat="57.54048" lon="-5.48663">
        <ele>23.49</ele>
        <time>2021-03-20T21:36:01Z</time>
      </trkpt>
      <trkpt lat="57.54052" lon="-5.48629">
        <ele>23.75</ele>
        <time>2021-03-20T21:36:04Z</time>
      </trkpt>
      <trkpt lat="57.54065" lon="-5.48543">
        <ele>23.94</ele>
        <time>2021-03-20T21:36:08Z</time>
      </trkpt>
      <trkpt lat="57.54095" lon="-5.48394">
        <ele>28.15</ele>
        <time>2021-03-20T21:36:11Z</time>
      </trkpt>
      <trkpt lat="57.54148" lon="-5.4819">
        <ele>27.42</ele>
        <time>2021-03-20T21:36:15Z</time>
      </trkpt>
      <trkpt lat="57.54282" lon="-5.47859">
        <ele>31.07</ele>
        <time>2021-03-20T21:36:18Z</time>
      </trkpt>
      <trkpt lat="57.54304" lon="-5.4779">
        <ele>30.92</ele>
        <time>2021-03-20T21:36:22Z</time>
      </trkpt>
      <trkpt lat="57.54314" lon="-5.4771">
        <ele>32.58</ele>
        <time>2021-03-20T21:36:25Z</time>
      </trkpt>
      <trkpt lat="57.54318" lon="-5.47618">
        <ele>32.47</ele>
        <time>2021-03-20T21:36:28Z</time>
      </trkpt>
      <trkpt lat="57.54343" lon="-5.47554">
        <ele>34.66</ele>
        <time>2021-03-20T21:36:32Z</time>
      </trkpt>
      <trkpt lat="57.54385" lon="-5.47503">
        <ele>35.1</ele>
        <time>2021-03-20T21:36:35Z</time>
      </trkpt>
      <trkpt lat="57.54436" lon="-5.47455">
        <ele>35.73</ele>
        <time>2021-03-20T21:36:39Z</time>
      </trkpt>
      <trkpt lat="57.54471" lon="-5.47428">
        <ele>36.92</ele>
        <time>2021-03-20T21:36:42Z</time>
      </trkpt>
      <trkpt lat="57.54501" lon="-5.47387">
        <ele>38.06</ele>
        <time>2021-03-20T21:36:46Z</time>
      </trkpt>
      <trkpt lat="57.54545" lon="-5.47297">
        <ele>40.92</ele>
        <time>2021-03-20T21:36:49Z</time>
      </trkpt>
      <trkpt lat="57.54612" lon="-5.47142">
        <ele>43.21</ele>
        <time>2021-03-20T21:36:53Z</time>
      </trkpt>
      <trkpt lat="57.5468" lon="-5.46965">
        <ele>44.71</ele>
        <time>2021-03-20T21:36:56Z</time>
      </trkpt>
      <trkpt lat="57.5479" lon="-5.46611">
        <ele>51.85</ele>
        <time>2021-03-20T21:37:00Z</time>
      </trkpt>
      <trkpt lat="57.54851" lon="-5.46424">
        <ele>54.64</ele>
        <time>2021-03-20T21:37:03Z</time>
      </trkpt>
      <trkpt lat="57.54912" lon="-5.46271">
        <ele>56.85</ele>
        <time>2021-03-20T21:37:07Z</time>
      </trkpt>
      <trkpt lat="57.55011" lon="-5.46076">
        <ele>63.42</ele>
        <time>2021-03-20T21:37:10Z</time>
      </trkpt>
      <trkpt lat="57.55047" lon="-5.46014">
        <ele>61.63</ele>
        <time>2021-03-20T21:37:14Z</time>
      </trkpt>
      <trkpt lat="57.55066" lon="-5.45991">
        <ele>61.71</ele>
        <time>2021-03-20T21:37:17Z</time>
      </trkpt>
      <trkpt lat="57.55183" lon="-5.45896">
        <ele>62.88</ele>
        <time>2021-03-20T21:37:21Z</time>
      </trkpt>
      <trkpt lat="57.55206" lon="-5.45873">
        <ele>61.45</ele>
        <time>2021-03-20T21:37:24Z</time>
      </trkpt>
      <trkpt lat="57.55229" lon="-5.45832">
        <ele>58.14</ele>
        <time>2021-03-20T21:37:28Z</time>
      </trkpt>
      <trkpt lat="57.55242" lon="-5.45776">
        <ele>57.4</ele>
        <time>2021-03-20T21:37:31Z</time>
      </trkpt>
      <trkpt lat="57.55262" lon="-5.45623">
        <ele>57.28</ele>
        <time>2021-03-20T21:37:35Z</time>
      </trkpt>
      <trkpt lat="57.55297" lon="-5.4544">
        <ele>58.79</ele>
        <time>2021-03-20T21:37:38Z</time>
      </trkpt>
      <trkpt lat="57.55298" lon="-5.45405">
        <ele>58.44</ele>
        <time>2021-03-20T21:37:42Z</time>
      </trkpt>
      <trkpt lat="57.55293" lon="-5.45379">
        <ele>57.14</ele>
        <time>2021-03-20T21:37:45Z</time>
      </trkpt>
      <trkpt lat="57.55274" lon="-5.45318">
        <ele>55.69</ele>
        <time>2021-03-20T21:37:49Z</time>
      </trkpt>
      <trkpt lat="57.55268" lon="-5.45291">
        <ele>55.51</ele>
        <time>2021-03-20T21:37:52Z</time>
      </trkpt>
      <trkpt lat="57.55267" lon="-5.45259">
        <ele>55.99</ele>
        <time>2021-03-20T21:37:56Z</time>
      </trkpt>
      <trkpt lat="57.55267" lon="-5.44983">
        <ele>59.87</ele>
        <time>2021-03-20T21:37:59Z</time>
      </trkpt>
      <trkpt lat="57.55266" lon="-5.44846">
        <ele>60.24</ele>
        <time>2021-03-20T21:38:03Z</time>
      </trkpt>
      <trkpt lat="57.55259" lon="-5.44698">
        <ele>62.97</ele>
        <time>2021-03-20T21:38:06Z</time>
      </trkpt>
      <trkpt lat="57.55259" lon="-5.44612">
        <ele>64.31</ele>
        <time>2021-03-20T21:38:10Z</time>
      </trkpt>
      <trkpt lat="57.55271" lon="-5.44355">
        <ele>63.67</ele>
        <time>2021-03-20T21:38:13Z</time>
      </trkpt>
      <trkpt lat="57.55274" lon="-5.44229">
        <ele>65.51</ele>
        <time>2021-03-20T21:38:17Z</time>
      </trkpt>
      <trkpt lat="57.55283" lon="-5.44155">
        <ele>65.03</ele>
        <time>2021-03-20T21:38:20Z</time>
      </trkpt>
      <trkpt lat="57.55302" lon="-5.44056">
        <ele>67.34</ele>
        <time>2021-03-20T21:38:23Z</time>
      </trkpt>
      <trkpt lat="57.55319" lon="-5.43949">
        <ele>67.21</ele>
        <time>2021-03-20T21:38:27Z</time>
      </trkpt>
      <trkpt lat="57.55333" lon="-5.43877">
        <ele>67.99</ele>
        <time>2021-03-20T21:38:30Z</time>
      </trkpt>
      <trkpt lat="57.55335" lon="-5.4384">
        <ele>68.22</ele>
        <time>2021-03-20T21:38:34Z</time>
      </trkpt>
      <trkpt lat="57.55335" lon="-5.4381">
        <ele>68.16</ele>
        <time>2021-03-20T21:38:37Z</time>
      </trkpt>
      <trkpt lat="57.55317" lon="-5.43724">
        <ele>68.79</ele>
        <time>2021-03-20T21:38:41Z</time>
      </trkpt>
      <trkpt lat="57.55315" lon="-5.43672">
        <ele>69.48</ele>
        <time>2021-03-20T21:38:44Z</time>
      </trkpt>
      <trkpt lat="57.55329" lon="-5.43591">
        <ele>70.68</ele>
        <time>2021-03-20T21:38:48Z</time>
      </trkpt>
      <trkpt lat="57.55347" lon="-5.43513">
        <ele>71.42</ele>
        <time>2021-03-20T21:38:51Z</time>
      </trkpt>
      <trkpt lat="57.55355" lon="-5.43448">
        <ele>72.37</ele>
        <time>2021-03-20T21:38:55Z</time>
      </trkpt>
      <trkpt lat="57.55358" lon="-5.43389">
        <ele>73.74</ele>
        <time>2021-03-20T21:38:58Z</time>
      </trkpt>
      <trkpt lat="57.55356" lon="-5.43302">
        <ele>73.47</ele>
        <time>2021-03-20T21:39:02Z</time>
      </trkpt>
      <trkpt lat="57.55325" lon="-5.43109">
        <ele>69.37</ele>
        <time>2021-03-20T21:39:05Z</time>
      </trkpt>
      <trkpt lat="57.55314" lon="-5.43015">
        <ele>70.08</ele>
        <time>2021-03-20T21:39:09Z</time>
      </trkpt>
      <trkpt lat="57.55307" lon="-5.42848">
        <ele>72.64</ele>
        <time>2021-03-20T21:39:12Z</time>
      </trkpt>
      <trkpt lat="57.55307" lon="-5.4278">
        <ele>74.15</ele>
        <time>2021-03-20T21:39:16Z</time>
      </trkpt>
      <trkpt lat="57.55311" lon="-5.42727">
        <ele>76.02</ele>
        <time>2021-03-20T21:39:19Z</time>
      </trkpt>
      <trkpt lat="57.55327" lon="-5.42656">
        <ele>78.5</ele>
        <time>2021-03-20T21:39:23Z</time>
      </trkpt>
      <trkpt lat="57.55351" lon="-5.42433">
        <ele>78.62</ele>
        <time>2021-03-20T21:39:26Z</time>
      </trkpt>
      <trkpt lat="57.55349" lon="-5.42372">
        <ele>78.57</ele>
        <time>2021-03-20T21:39:30Z</time>
      </trkpt>
      <trkpt lat="57.55344" lon="-5.42323">
        <ele>78</ele>
        <time>2021-03-20T21:39:33Z</time>
      </trkpt>
      <trkpt lat="57.55327" lon="-5.42242">
        <ele>79.87</ele>
        <time>2021-03-20T21:39:37Z</time>
      </trkpt>
      <trkpt lat="57.55304" lon="-5.42162">
        <ele>80.86</ele>
        <time>2021-03-20T21:39:40Z</time>
      </trkpt>
      <trkpt lat="57.55304" lon="-5.42129">
        <ele>80.89</ele>
        <time>2021-03-20T21:39:44Z</time>
      </trkpt>
      <trkpt lat="57.55333" lon="-5.42025">
        <ele>82.1</ele>
        <time>2021-03-20T21:39:47Z</time>
      </trkpt>
      <trkpt lat="57.55344" lon="-5.41967">
        <ele>84.01</ele>
        <time>2021-03-20T21:39:51Z</time>
      </trkpt>
      <trkpt lat="57.55344" lon="-5.4194">
        <ele>83.27</ele>
        <time>2021-03-20T21:39:54Z</time>
      </trkpt>
      <trkpt lat="57.5536" lon="-5.41886">
        <ele>83.83</ele>
        <time>2021-03-20T21:39:58Z</time>
      </trkpt>
      <trkpt lat="57.55393" lon="-5.41801">
        <ele>85.93</ele>
        <time>2021-03-20T21:40:01Z</time>
      </trkpt>
      <trkpt lat="57.55427" lon="-5.41675">
        <ele>85</ele>
        <time>2021-03-20T21:40:05Z</time>
      </trkpt>
      <trkpt lat="57.55456" lon="-5.41536">
        <ele>85</ele>
        <time>2021-03-20T21:40:08Z</time>
      </trkpt>
      <trkpt lat="57.5547" lon="-5.41518">
        <ele>84.97</ele>
        <time>2021-03-20T21:40:12Z</time>
      </trkpt>
      <trkpt lat="57.55512" lon="-5.41449">
        <ele>85.62</ele>
        <time>2021-03-20T21:40:15Z</time>
      </trkpt>
      <trkpt lat="57.55522" lon="-5.41426">
        <ele>85.26</ele>
        <time>2021-03-20T21:40:18Z</time>
      </trkpt>
      <trkpt lat="57.55564" lon="-5.41285">
        <ele>85.54</ele>
        <time>2021-03-20T21:40:22Z</time>
      </trkpt>
      <trkpt lat="57.55622" lon="-5.40963">
        <ele>87.38</ele>
        <time>2021-03-20T21:40:25Z</time>
      </trkpt>
      <trkpt lat="57.55652" lon="-5.40835">
        <ele>88.46</ele>
        <time>2021-03-20T21:40:29Z</time>
      </trkpt>
      <trkpt lat="57.55666" lon="-5.40762">
        <ele>88</ele>
        <time>2021-03-20T21:40:32Z</time>
      </trkpt>
      <trkpt lat="57.55672" lon="-5.4071">
        <ele>89</ele>
        <time>2021-03-20T21:40:36Z</time>
      </trkpt>
      <trkpt lat="57.55672" lon="-5.40667">
        <ele>89</ele>
        <time>2021-03-20T21:40:39Z</time>
      </trkpt>
      <trkpt lat="57.5567" lon="-5.40616">
        <ele>89</ele>
        <time>2021-03-20T21:40:43Z</time>
      </trkpt>
      <trkpt lat="57.55653" lon="-5.40567">
        <ele>88.8</ele>
        <time>2021-03-20T21:40:46Z</time>
      </trkpt>
      <trkpt lat="57.55648" lon="-5.40514">
        <ele>89.16</ele>
        <time>2021-03-20T21:40:50Z</time>
      </trkpt>
      <trkpt lat="57.55655" lon="-5.4044">
        <ele>89.67</ele>
        <time>2021-03-20T21:40:53Z</time>
      </trkpt>
      <trkpt lat="57.55667" lon="-5.40373">
        <ele>92.01</ele>
        <time>2021-03-20T21:40:57Z</time>
      </trkpt>
      <trkpt lat="57.55675" lon="-5.40315">
        <ele>92.97</ele>
        <time>2021-03-20T21:41:00Z</time>
      </trkpt>
      <trkpt lat="57.55686" lon="-5.40247">
        <ele>93</ele>
        <time>2021-03-20T21:41:04Z</time>
      </trkpt>
      <trkpt lat="57.557" lon="-5.40195">
        <ele>92.84</ele>
        <time>2021-03-20T21:41:07Z</time>
      </trkpt>
      <trkpt lat="57.55725" lon="-5.4014">
        <ele>93.36</ele>
        <time>2021-03-20T21:41:11Z</time>
      </trkpt>
      <trkpt lat="57.55742" lon="-5.40084">
        <ele>94.08</ele>
        <time>2021-03-20T21:41:14Z</time>
      </trkpt>
      <trkpt lat="57.55762" lon="-5.40037">
        <ele>94.19</ele>
        <time>2021-03-20T21:41:18Z</time>
      </trkpt>
      <trkpt lat="57.55801" lon="-5.39989">
        <ele>94.37</ele>
        <time>2021-03-20T21:41:21Z</time>
      </trkpt>
      <trkpt lat="57.55836" lon="-5.39942">
        <ele>95.19</ele>
        <time>2021-03-20T21:41:25Z</time>
      </trkpt>
      <trkpt lat="57.5587" lon="-5.39886">
        <ele>95.91</ele>
        <time>2021-03-20T21:41:28Z</time>
      </trkpt>
      <trkpt lat="57.55905" lon="-5.39809">
        <ele>96.3</ele>
        <time>2021-03-20T21:41:32Z</time>
      </trkpt>
      <trkpt lat="57.55971" lon="-5.3962">
        <ele>97.29</ele>
        <time>2021-03-20T21:41:35Z</time>
      </trkpt>
      <trkpt lat="57.55991" lon="-5.39555">
        <ele>96.35</ele>
        <time>2021-03-20T21:41:39Z</time>
      </trkpt>
      <trkpt lat="57.56012" lon="-5.39501">
        <ele>96.44</ele>
        <time>2021-03-20T21:41:42Z</time>
      </trkpt>
      <trkpt lat="57.56023" lon="-5.39484">
        <ele>96.83</ele>
        <time>2021-03-20T21:41:46Z</time>
      </trkpt>
      <trkpt lat="57.56041" lon="-5.39477">
        <ele>98.01</ele>
        <time>2021-03-20T21:41:49Z</time>
      </trkpt>
      <trkpt lat="57.56082" lon="-5.39449">
        <ele>99.22</ele>
        <time>2021-03-20T21:41:53Z</time>
      </trkpt>
      <trkpt lat="57.5611" lon="-5.39406">
        <ele>99.11</ele>
        <time>2021-03-20T21:41:56Z</time>
      </trkpt>
      <trkpt lat="57.56147" lon="-5.39333">
        <ele>97.83</ele>
        <time>2021-03-20T21:42:00Z</time>
      </trkpt>
      <trkpt lat="57.56216" lon="-5.39174">
        <ele>101.76</ele>
        <time>2021-03-20T21:42:03Z</time>
      </trkpt>
      <trkpt lat="57.5626" lon="-5.39054">
        <ele>101.34</ele>
        <time>2021-03-20T21:42:07Z</time>
      </trkpt>
      <trkpt lat="57.56288" lon="-5.38967">
        <ele>101.72</ele>
        <time>2021-03-20T21:42:10Z</time>
      </trkpt>
      <trkpt lat="57.56377" lon="-5.38732">
        <ele>101.57</ele>
        <time>2021-03-20T21:42:13Z</time>
      </trkpt>
      <trkpt lat="57.56451" lon="-5.38529">
        <ele>106.23</ele>
        <time>2021-03-20T21:42:17Z</time>
      </trkpt>
      <trkpt lat="57.56469" lon="-5.38453">
        <ele>107.18</ele>
        <time>2021-03-20T21:42:20Z</time>
      </trkpt>
      <trkpt lat="57.56483" lon="-5.38376">
        <ele>106.28</ele>
        <time>2021-03-20T21:42:24Z</time>
      </trkpt>
      <trkpt lat="57.5649" lon="-5.38319">
        <ele>105.27</ele>
        <time>2021-03-20T21:42:27Z</time>
      </trkpt>
      <trkpt lat="57.56501" lon="-5.38024">
        <ele>108.28</ele>
        <time>2021-03-20T21:42:31Z</time>
      </trkpt>
      <trkpt lat="57.56504" lon="-5.37864">
        <ele>112.49</ele>
        <time>2021-03-20T21:42:34Z</time>
      </trkpt>
      <trkpt lat="57.56514" lon="-5.37809">
        <ele>115.06</ele>
        <time>2021-03-20T21:42:38Z</time>
      </trkpt>
      <trkpt lat="57.56532" lon="-5.37703">
        <ele>113.85</ele>
        <time>2021-03-20T21:42:41Z</time>
      </trkpt>
      <trkpt lat="57.56543" lon="-5.37612">
        <ele>110.69</ele>
        <time>2021-03-20T21:42:45Z</time>
      </trkpt>
      <trkpt lat="57.56533" lon="-5.37477">
        <ele>108.43</ele>
        <time>2021-03-20T21:42:48Z</time>
      </trkpt>
      <trkpt lat="57.56517" lon="-5.37423">
        <ele>108.64</ele>
        <time>2021-03-20T21:42:52Z</time>
      </trkpt>
      <trkpt lat="57.5649" lon="-5.37384">
        <ele>108.04</ele>
        <time>2021-03-20T21:42:55Z</time>
      </trkpt>
      <trkpt lat="57.56416" lon="-5.37269">
        <ele>102.24</ele>
        <time>2021-03-20T21:42:59Z</time>
      </trkpt>
      <trkpt lat="57.56379" lon="-5.37191">
        <ele>100.79</ele>
        <time>2021-03-20T21:43:02Z</time>
      </trkpt>
      <trkpt lat="57.56363" lon="-5.37144">
        <ele>100.11</ele>
        <time>2021-03-20T21:43:06Z</time>
      </trkpt>
      <trkpt lat="57.56349" lon="-5.37063">
        <ele>100.18</ele>
        <time>2021-03-20T21:43:09Z</time>
      </trkpt>
      <trkpt lat="57.56352" lon="-5.36934">
        <ele>99.37</ele>
        <time>2021-03-20T21:43:13Z</time>
      </trkpt>
      <trkpt lat="57.56356" lon="-5.36796">
        <ele>98.27</ele>
        <time>2021-03-20T21:43:16Z</time>
      </trkpt>
      <trkpt lat="57.56363" lon="-5.36719">
        <ele>101.21</ele>
        <time>2021-03-20T21:43:20Z</time>
      </trkpt>
      <trkpt lat="57.56377" lon="-5.36655">
        <ele>102.7</ele>
        <time>2021-03-20T21:43:23Z</time>
      </trkpt>
      <trkpt lat="57.56411" lon="-5.36578">
        <ele>102.56</ele>
        <time>2021-03-20T21:43:27Z</time>
      </trkpt>
      <trkpt lat="57.56455" lon="-5.36496">
        <ele>104.01</ele>
        <time>2021-03-20T21:43:30Z</time>
      </trkpt>
      <trkpt lat="57.56487" lon="-5.36427">
        <ele>104.44</ele>
        <time>2021-03-20T21:43:34Z</time>
      </trkpt>
      <trkpt lat="57.56501" lon="-5.36372">
        <ele>103.49</ele>
        <time>2021-03-20T21:43:37Z</time>
      </trkpt>
      <trkpt lat="57.56517" lon="-5.36286">
        <ele>103.86</ele>
        <time>2021-03-20T21:43:41Z</time>
      </trkpt>
      <trkpt lat="57.56531" lon="-5.362">
        <ele>105.36</ele>
        <time>2021-03-20T21:43:44Z</time>
      </trkpt>
      <trkpt lat="57.56547" lon="-5.36118">
        <ele>105.36</ele>
        <time>2021-03-20T21:43:48Z</time>
      </trkpt>
      <trkpt lat="57.56568" lon="-5.36041">
        <ele>106.1</ele>
        <time>2021-03-20T21:43:51Z</time>
      </trkpt>
      <trkpt lat="57.56598" lon="-5.35955">
        <ele>108.47</ele>
        <time>2021-03-20T21:43:55Z</time>
      </trkpt>
      <trkpt lat="57.56625" lon="-5.35861">
        <ele>108.04</ele>
        <time>2021-03-20T21:43:58Z</time>
      </trkpt>
      <trkpt lat="57.56644" lon="-5.35771">
        <ele>105.67</ele>
        <time>2021-03-20T21:44:02Z</time>
      </trkpt>
      <trkpt lat="57.56659" lon="-5.35668">
        <ele>107.15</ele>
        <time>2021-03-20T21:44:05Z</time>
      </trkpt>
      <trkpt lat="57.56676" lon="-5.3553">
        <ele>108.36</ele>
        <time>2021-03-20T21:44:08Z</time>
      </trkpt>
      <trkpt lat="57.56688" lon="-5.35462">
        <ele>107.88</ele>
        <time>2021-03-20T21:44:12Z</time>
      </trkpt>
      <trkpt lat="57.56729" lon="-5.35367">
        <ele>111.28</ele>
        <time>2021-03-20T21:44:15Z</time>
      </trkpt>
      <trkpt lat="57.56738" lon="-5.3532">
        <ele>111.88</ele>
        <time>2021-03-20T21:44:19Z</time>
      </trkpt>
      <trkpt lat="57.56738" lon="-5.35273">
        <ele>113.06</ele>
        <time>2021-03-20T21:44:22Z</time>
      </trkpt>
      <trkpt lat="57.56722" lon="-5.35226">
        <ele>111.86</ele>
        <time>2021-03-20T21:44:26Z</time>
      </trkpt>
      <trkpt lat="57.56693" lon="-5.35162">
        <ele>110.79</ele>
        <time>2021-03-20T21:44:29Z</time>
      </trkpt>
      <trkpt lat="57.56676" lon="-5.3509">
        <ele>109.82</ele>
        <time>2021-03-20T21:44:33Z</time>
      </trkpt>
      <trkpt lat="57.56661" lon="-5.34992">
        <ele>110.39</ele>
        <time>2021-03-20T21:44:36Z</time>
      </trkpt>
      <trkpt lat="57.5666" lon="-5.349">
        <ele>110.13</ele>
        <time>2021-03-20T21:44:40Z</time>
      </trkpt>
      <trkpt lat="57.56674" lon="-5.34788">
        <ele>108.62</ele>
        <time>2021-03-20T21:44:43Z</time>
      </trkpt>
      <trkpt lat="57.567" lon="-5.34689">
        <ele>108.55</ele>
        <time>2021-03-20T21:44:47Z</time>
      </trkpt>
      <trkpt lat="57.56732" lon="-5.34619">
        <ele>109.07</ele>
        <time>2021-03-20T21:44:50Z</time>
      </trkpt>
      <trkpt lat="57.56766" lon="-5.34565">
        <ele>109.09</ele>
        <time>2021-03-20T21:44:54Z</time>
      </trkpt>
      <trkpt lat="57.56796" lon="-5.34509">
        <ele>107.94</ele>
        <time>2021-03-20T21:44:57Z</time>
      </trkpt>
      <trkpt lat="57.56865" lon="-5.34309">
        <ele>106.64</ele>
        <time>2021-03-20T21:45:01Z</time>
      </trkpt>
      <trkpt lat="57.56911" lon="-5.34188">
        <ele>104.66</ele>
        <time>2021-03-20T21:45:04Z</time>
      </trkpt>
      <trkpt lat="57.56957" lon="-5.34071">
        <ele>106.26</ele>
        <time>2021-03-20T21:45:08Z</time>
      </trkpt>
      <trkpt lat="57.57012" lon="-5.33943">
        <ele>104.37</ele>
        <time>2021-03-20T21:45:11Z</time>
      </trkpt>
      <trkpt lat="57.57061" lon="-5.33842">
        <ele>103.9</ele>
        <time>2021-03-20T21:45:15Z</time>
      </trkpt>
      <trkpt lat="57.57105" lon="-5.33727">
        <ele>104.44</ele>
        <time>2021-03-20T21:45:18Z</time>
      </trkpt>
      <trkpt lat="57.5714" lon="-5.33611">
        <ele>102.06</ele>
        <time>2021-03-20T21:45:22Z</time>
      </trkpt>
      <trkpt lat="57.57175" lon="-5.33459">
        <ele>99.42</ele>
        <time>2021-03-20T21:45:25Z</time>
      </trkpt>
      <trkpt lat="57.57191" lon="-5.33383">
        <ele>99.41</ele>
        <time>2021-03-20T21:45:29Z</time>
      </trkpt>
      <trkpt lat="57.572" lon="-5.33323">
        <ele>98.18</ele>
        <time>2021-03-20T21:45:32Z</time>
      </trkpt>
      <trkpt lat="57.57215" lon="-5.33264">
        <ele>96.21</ele>
        <time>2021-03-20T21:45:36Z</time>
      </trkpt>
      <trkpt lat="57.57246" lon="-5.33171">
        <ele>94.38</ele>
        <time>2021-03-20T21:45:39Z</time>
      </trkpt>
      <trkpt lat="57.57265" lon="-5.3308">
        <ele>95.57</ele>
        <time>2021-03-20T21:45:43Z</time>
      </trkpt>
      <trkpt lat="57.57275" lon="-5.33011">
        <ele>93.21</ele>
        <time>2021-03-20T21:45:46Z</time>
      </trkpt>
      <trkpt lat="57.57282" lon="-5.32927">
        <ele>91.05</ele>
        <time>2021-03-20T21:45:50Z</time>
      </trkpt>
      <trkpt lat="57.57285" lon="-5.32908">
        <ele>90.83</ele>
        <time>2021-03-20T21:45:53Z</time>
      </trkpt>
      <trkpt lat="57.57302" lon="-5.32856">
        <ele>90.12</ele>
        <time>2021-03-20T21:45:57Z</time>
      </trkpt>
      <trkpt lat="57.57314" lon="-5.32835">
        <ele>90.33</ele>
        <time>2021-03-20T21:46:00Z</time>
      </trkpt>
      <trkpt lat="57.57436" lon="-5.32681">
        <ele>90.6</ele>
        <time>2021-03-20T21:46:04Z</time>
      </trkpt>
      <trkpt lat="57.57478" lon="-5.32613">
        <ele>88.85</ele>
        <time>2021-03-20T21:46:07Z</time>
      </trkpt>
      <trkpt lat="57.57502" lon="-5.32562">
        <ele>87.81</ele>
        <time>2021-03-20T21:46:10Z</time>
      </trkpt>
      <trkpt lat="57.5752" lon="-5.32512">
        <ele>88.34</ele>
        <time>2021-03-20T21:46:14Z</time>
      </trkpt>
      <trkpt lat="57.57563" lon="-5.32366">
        <ele>83.43</ele>
        <time>2021-03-20T21:46:17Z</time>
      </trkpt>
      <trkpt lat="57.5759" lon="-5.32329">
        <ele>82.07</ele>
        <time>2021-03-20T21:46:21Z</time>
      </trkpt>
      <trkpt lat="57.57636" lon="-5.32252">
        <ele>81.89</ele>
        <time>2021-03-20T21:46:24Z</time>
      </trkpt>
      <trkpt lat="57.57686" lon="-5.32157">
        <ele>80.08</ele>
        <time>2021-03-20T21:46:28Z</time>
      </trkpt>
      <trkpt lat="57.57783" lon="-5.31949">
        <ele>81.36</ele>
        <time>2021-03-20T21:46:31Z</time>
      </trkpt>
      <trkpt lat="57.5786" lon="-5.31772">
        <ele>79.48</ele>
        <time>2021-03-20T21:46:35Z</time>
      </trkpt>
      <trkpt lat="57.57876" lon="-5.31742">
        <ele>77.96</ele>
        <time>2021-03-20T21:46:38Z</time>
      </trkpt>
      <trkpt lat="57.57951" lon="-5.31648">
        <ele>77.09</ele>
        <time>2021-03-20T21:46:42Z</time>
      </trkpt>
      <trkpt lat="57.58227" lon="-5.31325">
        <ele>72.72</ele>
        <time>2021-03-20T21:46:45Z</time>
      </trkpt>
      <trkpt lat="57.58341" lon="-5.31212">
        <ele>70.27</ele>
        <time>2021-03-20T21:46:49Z</time>
      </trkpt>
      <trkpt lat="57.58368" lon="-5.31192">
        <ele>69.07</ele>
        <time>2021-03-20T21:46:52Z</time>
      </trkpt>
      <trkpt lat="57.58604" lon="-5.31089">
        <ele>68.53</ele>
        <time>2021-03-20T21:46:56Z</time>
      </trkpt>
      <trkpt lat="57.58761" lon="-5.31026">
        <ele>66.43</ele>
        <time>2021-03-20T21:46:59Z</time>
      </trkpt>
      <trkpt lat="57.59115" lon="-5.30908">
        <ele>60.31</ele>
        <time>2021-03-20T21:47:03Z</time>
      </trkpt>
      <trkpt lat="57.59245" lon="-5.30849">
        <ele>55.55</ele>
        <time>2021-03-20T21:47:06Z</time>
      </trkpt>
      <trkpt lat="57.5936" lon="-5.30774">
        <ele>50.84</ele>
        <time>2021-03-20T21:47:10Z</time>
      </trkpt>
      <trkpt lat="57.59485" lon="-5.30715">
        <ele>45.28</ele>
        <time>2021-03-20T21:47:13Z</time>
      </trkpt>
      <trkpt lat="57.59529" lon="-5.30691">
        <ele>43.71</ele>
        <time>2021-03-20T21:47:17Z</time>
      </trkpt>
      <trkpt lat="57.59608" lon="-5.30614">
        <ele>41.86</ele>
        <time>2021-03-20T21:47:20Z</time>
      </trkpt>
      <trkpt lat="57.59637" lon="-5.306">
        <ele>42.54</ele>
        <time>2021-03-20T21:47:24Z</time>
      </trkpt>
      <trkpt lat="57.60139" lon="-5.30548">
        <ele>35</ele>
        <time>2021-03-20T21:47:27Z</time>
      </trkpt>
      <trkpt lat="57.6017" lon="-5.30545">
        <ele>35</ele>
        <time>2021-03-20T21:47:31Z</time>
      </trkpt>
      <trkpt lat="57.60202" lon="-5.30537">
        <ele>34.74</ele>
        <time>2021-03-20T21:47:34Z</time>
      </trkpt>
      <trkpt lat="57.6022" lon="-5.30528">
        <ele>34.09</ele>
        <time>2021-03-20T21:47:38Z</time>
      </trkpt>
      <trkpt lat="57.6033" lon="-5.30438">
        <ele>32.13</ele>
        <time>2021-03-20T21:47:41Z</time>
      </trkpt>
      <trkpt lat="57.60404" lon="-5.30383">
        <ele>33</ele>
        <time>2021-03-20T21:47:45Z</time>
      </trkpt>
      <trkpt lat="57.60452" lon="-5.30336">
        <ele>31.76</ele>
        <time>2021-03-20T21:47:48Z</time>
      </trkpt>
      <trkpt lat="57.60443" lon="-5.3029">
        <ele>31.47</ele>
        <time>2021-03-20T21:47:54Z</time>
      </trkpt>
      <trkpt lat="57.60429" lon="-5.30184">
        <ele>30.89</ele>
        <time>2021-03-20T21:48:00Z</time>
      </trkpt>
      <trkpt lat="57.60401" lon="-5.29893">
        <ele>30.12</ele>
        <time>2021-03-20T21:48:06Z</time>
      </trkpt>
      <trkpt lat="57.60385" lon="-5.29773">
        <ele>36.87</ele>
        <time>2021-03-20T21:48:11Z</time>
      </trkpt>
      <trkpt lat="57.60361" lon="-5.29583">
        <ele>41.03</ele>
        <time>2021-03-20T21:48:17Z</time>
      </trkpt>
      <trkpt lat="57.60355" lon="-5.29463">
        <ele>49.83</ele>
        <time>2021-03-20T21:48:23Z</time>
      </trkpt>
      <trkpt lat="57.60357" lon="-5.29384">
        <ele>52.91</ele>
        <time>2021-03-20T21:48:29Z</time>
      </trkpt>
      <trkpt lat="57.60372" lon="-5.29172">
        <ele>47.14</ele>
        <time>2021-03-20T21:48:35Z</time>
      </trkpt>
      <trkpt lat="57.60377" lon="-5.29106">
        <ele>42.69</ele>
        <time>2021-03-20T21:48:41Z</time>
      </trkpt>
      <trkpt lat="57.60375" lon="-5.28973">
        <ele>42.08</ele>
        <time>2021-03-20T21:48:46Z</time>
      </trkpt>
      <trkpt lat="57.60357" lon="-5.28479">
        <ele>50.19</ele>
        <time>2021-03-20T21:48:52Z</time>
      </trkpt>
      <trkpt lat="57.6035" lon="-5.28336">
        <ele>51.39</ele>
        <time>2021-03-20T21:48:58Z</time>
      </trkpt>
      <trkpt lat="57.60341" lon="-5.28219">
        <ele>54.52</ele>
        <time>2021-03-20T21:49:04Z</time>
      </trkpt>
      <trkpt lat="57.60329" lon="-5.28089">
        <ele>52.44</ele>
        <time>2021-03-20T21:49:10Z</time>
      </trkpt>
      <trkpt lat="57.60311" lon="-5.27956">
        <ele>53.54</ele>
        <time>2021-03-20T21:49:15Z</time>
      </trkpt>
      <trkpt lat="57.60277" lon="-5.27687">
        <ele>50.38</ele>
        <time>2021-03-20T21:49:21Z</time>
      </trkpt>
      <trkpt lat="57.60256" lon="-5.27533">
        <ele>57.16</ele>
        <time>2021-03-20T21:49:27Z</time>
      </trkpt>
      <trkpt lat="57.60209" lon="-5.27318">
        <ele>57.44</ele>
        <time>2021-03-20T21:49:33Z</time>
      </trkpt>
      <trkpt lat="57.60182" lon="-5.27219">
        <ele>59.48</ele>
        <time>2021-03-20T21:49:39Z</time>
      </trkpt>
      <trkpt lat="57.60173" lon="-5.27191">
        <ele>58.69</ele>
        <time>2021-03-20T21:49:45Z</time>
      </trkpt>
      <trkpt lat="57.60129" lon="-5.27078">
        <ele>53.6</ele>
        <time>2021-03-20T21:49:50Z</time>
      </trkpt>
      <trkpt lat="57.60052" lon="-5.26922">
        <ele>55.09</ele>
        <time>2021-03-20T21:49:56Z</time>
      </trkpt>
      <trkpt lat="57.59912" lon="-5.267">
        <ele>67.46</ele>
        <time>2021-03-20T21:50:02Z</time>
      </trkpt>
      <trkpt lat="57.59757" lon="-5.26438">
        <ele>72.29</ele>
        <time>2021-03-20T21:50:08Z</time>
      </trkpt>
      <trkpt lat="57.59601" lon="-5.26159">
        <ele>80.02</ele>
        <time>2021-03-20T21:50:14Z</time>
      </trkpt>
      <trkpt lat="57.59551" lon="-5.26059">
        <ele>79.12</ele>
        <time>2021-03-20T21:50:20Z</time>
      </trkpt>
      <trkpt lat="57.59489" lon="-5.25926">
        <ele>80.76</ele>
        <time>2021-03-20T21:50:25Z</time>
      </trkpt>
      <trkpt lat="57.59414" lon="-5.25806">
        <ele>84.89</ele>
        <time>2021-03-20T21:50:31Z</time>
      </trkpt>
      <trkpt lat="57.5937" lon="-5.25721">
        <ele>86.68</ele>
        <time>2021-03-20T21:50:37Z</time>
      </trkpt>
      <trkpt lat="57.59308" lon="-5.2558">
        <ele>89.44</ele>
        <time>2021-03-20T21:50:43Z</time>
      </trkpt>
      <trkpt lat="57.59273" lon="-5.25486">
        <ele>92.69</ele>
        <time>2021-03-20T21:50:49Z</time>
      </trkpt>
      <trkpt lat="57.59246" lon="-5.25421">
        <ele>92.57</ele>
        <time>2021-03-20T21:50:55Z</time>
      </trkpt>
      <trkpt lat="57.59214" lon="-5.25359">
        <ele>94.52</ele>
        <time>2021-03-20T21:51:00Z</time>
      </trkpt>
      <trkpt lat="57.59178" lon="-5.25301">
        <ele>95.66</ele>
        <time>2021-03-20T21:51:06Z</time>
      </trkpt>
      <trkpt lat="57.59129" lon="-5.25228">
        <ele>96.15</ele>
        <time>2021-03-20T21:51:12Z</time>
      </trkpt>
      <trkpt lat="57.58955" lon="-5.25018">
        <ele>104.75</ele>
        <time>2021-03-20T21:51:18Z</time>
      </trkpt>
      <trkpt lat="57.58901" lon="-5.24921">
        <ele>108.44</ele>
        <time>2021-03-20T21:51:24Z</time>
      </trkpt>
      <trkpt lat="57.58882" lon="-5.24872">
        <ele>109.45</ele>
        <time>2021-03-20T21:51:29Z</time>
      </trkpt>
      <trkpt lat="57.58858" lon="-5.24797">
        <ele>111.56</ele>
        <time>2021-03-20T21:51:35Z</time>
      </trkpt>
      <trkpt lat="57.58841" lon="-5.2474">
        <ele>113.61</ele>
        <time>2021-03-20T21:51:41Z</time>
      </trkpt>
      <trkpt lat="57.5881" lon="-5.24627">
        <ele>117.58</ele>
        <time>2021-03-20T21:51:47Z</time>
      </trkpt>
      <trkpt lat="57.5877" lon="-5.2449">
        <ele>124.44</ele>
        <time>2021-03-20T21:51:53Z</time>
      </trkpt>
      <trkpt lat="57.58748" lon="-5.24421">
        <ele>128.69</ele>
        <time>2021-03-20T21:51:59Z</time>
      </trkpt>
      <trkpt lat="57.58714" lon="-5.24332">
        <ele>137.1</ele>
        <time>2021-03-20T21:52:04Z</time>
      </trkpt>
      <trkpt lat="57.58677" lon="-5.24255">
        <ele>141.36</ele>
        <time>2021-03-20T21:52:10Z</time>
      </trkpt>
      <trkpt lat="57.58631" lon="-5.24172">
        <ele>145.55</ele>
        <time>2021-03-20T21:52:16Z</time>
      </trkpt>
      <trkpt lat="57.58598" lon="-5.24125">
        <ele>146.65</ele>
        <time>2021-03-20T21:52:22Z</time>
      </trkpt>
      <trkpt lat="57.58514" lon="-5.24014">
        <ele>149.95</ele>
        <time>2021-03-20T21:52:28Z</time>
      </trkpt>
      <trkpt lat="57.58423" lon="-5.2389">
        <ele>159.27</ele>
        <time>2021-03-20T21:52:34Z</time>
      </trkpt>
      <trkpt lat="57.58285" lon="-5.23709">
        <ele>171.31</ele>
        <time>2021-03-20T21:52:39Z</time>
      </trkpt>
      <trkpt lat="57.58231" lon="-5.23633">
        <ele>181.91</ele>
        <time>2021-03-20T21:52:45Z</time>
      </trkpt>
      <trkpt lat="57.58199" lon="-5.23582">
        <ele>188.3</ele>
        <time>2021-03-20T21:52:51Z</time>
      </trkpt>
      <trkpt lat="57.58155" lon="-5.23502">
        <ele>190.64</ele>
        <time>2021-03-20T21:52:57Z</time>
      </trkpt>
      <trkpt lat="57.5811" lon="-5.2341">
        <ele>192.76</ele>
        <time>2021-03-20T21:53:03Z</time>
      </trkpt>
      <trkpt lat="57.58078" lon="-5.23339">
        <ele>196.26</ele>
        <time>2021-03-20T21:53:08Z</time>
      </trkpt>
      <trkpt lat="57.58052" lon="-5.23262">
        <ele>197.96</ele>
        <time>2021-03-20T21:53:14Z</time>
      </trkpt>
      <trkpt lat="57.58016" lon="-5.23127">
        <ele>205.63</ele>
        <time>2021-03-20T21:53:20Z</time>
      </trkpt>
      <trkpt lat="57.57995" lon="-5.2306">
        <ele>206.25</ele>
        <time>2021-03-20T21:53:26Z</time>
      </trkpt>
      <trkpt lat="57.57949" lon="-5.22955">
        <ele>210.7</ele>
        <time>2021-03-20T21:53:32Z</time>
      </trkpt>
      <trkpt lat="57.57898" lon="-5.22854">
        <ele>218.93</ele>
        <time>2021-03-20T21:53:38Z</time>
      </trkpt>
      <trkpt lat="57.57856" lon="-5.22746">
        <ele>225.11</ele>
        <time>2021-03-20T21:53:43Z</time>
      </trkpt>
      <trkpt lat="57.57699" lon="-5.22304">
        <ele>237.19</ele>
        <time>2021-03-20T21:53:49Z</time>
      </trkpt>
      <trkpt lat="57.57634" lon="-5.22069">
        <ele>233.92</ele>
        <time>2021-03-20T21:53:55Z</time>
      </trkpt>
      <trkpt lat="57.57608" lon="-5.21993">
        <ele>232.8</ele>
        <time>2021-03-20T21:54:01Z</time>
      </trkpt>
      <trkpt lat="57.57453" lon="-5.21618">
        <ele>236.38</ele>
        <time>2021-03-20T21:54:07Z</time>
      </trkpt>
      <trkpt lat="57.57433" lon="-5.21565">
        <ele>235.43</ele>
        <time>2021-03-20T21:54:13Z</time>
      </trkpt>
      <trkpt lat="57.57419" lon="-5.21515">
        <ele>236.24</ele>
        <time>2021-03-20T21:54:18Z</time>
      </trkpt>
      <trkpt lat="57.57401" lon="-5.21435">
        <ele>235.22</ele>
        <time>2021-03-20T21:54:24Z</time>
      </trkpt>
      <trkpt lat="57.57394" lon="-5.2139">
        <ele>233.78</ele>
        <time>2021-03-20T21:54:30Z</time>
      </trkpt>
      <trkpt lat="57.57375" lon="-5.21197">
        <ele>226.93</ele>
        <time>2021-03-20T21:54:36Z</time>
      </trkpt>
      <trkpt lat="57.57352" lon="-5.21054">
        <ele>221.8</ele>
        <time>2021-03-20T21:54:42Z</time>
      </trkpt>
      <trkpt lat="57.57278" lon="-5.20746">
        <ele>210.13</ele>
        <time>2021-03-20T21:54:48Z</time>
      </trkpt>
      <trkpt lat="57.57257" lon="-5.20611">
        <ele>204.77</ele>
        <time>2021-03-20T21:54:53Z</time>
      </trkpt>
      <trkpt lat="57.57242" lon="-5.20458">
        <ele>196.01</ele>
        <time>2021-03-20T21:54:59Z</time>
      </trkpt>
      <trkpt lat="57.57239" lon="-5.20297">
        <ele>195.67</ele>
        <time>2021-03-20T21:55:05Z</time>
      </trkpt>
      <trkpt lat="57.57245" lon="-5.20151">
        <ele>193.47</ele>
        <time>2021-03-20T21:55:11Z</time>
      </trkpt>
      <trkpt lat="57.57261" lon="-5.20015">
        <ele>189.98</ele>
        <time>2021-03-20T21:55:17Z</time>
      </trkpt>
      <trkpt lat="57.5727" lon="-5.19962">
        <ele>188.13</ele>
        <time>2021-03-20T21:55:22Z</time>
      </trkpt>
      <trkpt lat="57.57343" lon="-5.19626">
        <ele>188.87</ele>
        <time>2021-03-20T21:55:28Z</time>
      </trkpt>
      <trkpt lat="57.57476" lon="-5.19086">
        <ele>181.35</ele>
        <time>2021-03-20T21:55:34Z</time>
      </trkpt>
      <trkpt lat="57.57544" lon="-5.18826">
        <ele>176.57</ele>
        <time>2021-03-20T21:55:40Z</time>
      </trkpt>
      <trkpt lat="57.57578" lon="-5.18704">
        <ele>174.98</ele>
        <time>2021-03-20T21:55:46Z</time>
      </trkpt>
      <trkpt lat="57.57615" lon="-5.18583">
        <ele>173.28</ele>
        <time>2021-03-20T21:55:52Z</time>
      </trkpt>
      <trkpt lat="57.57649" lon="-5.18483">
        <ele>172.07</ele>
        <time>2021-03-20T21:55:57Z</time>
      </trkpt>
      <trkpt lat="57.5767" lon="-5.18384">
        <ele>170.05</ele>
        <time>2021-03-20T21:56:03Z</time>
      </trkpt>
      <trkpt lat="57.57689" lon="-5.18284">
        <ele>168.78</ele>
        <time>2021-03-20T21:56:09Z</time>
      </trkpt>
      <trkpt lat="57.57694" lon="-5.18128">
        <ele>168.61</ele>
        <time>2021-03-20T21:56:15Z</time>
      </trkpt>
      <trkpt lat="57.57696" lon="-5.17995">
        <ele>164.87</ele>
        <time>2021-03-20T21:56:21Z</time>
      </trkpt>
      <trkpt lat="57.57703" lon="-5.17879">
        <ele>161.87</ele>
        <time>2021-03-20T21:56:27Z</time>
      </trkpt>
      <trkpt lat="57.57734" lon="-5.17628">
        <ele>160.24</ele>
        <time>2021-03-20T21:56:32Z</time>
      </trkpt>
      <trkpt lat="57.57745" lon="-5.17513">
        <ele>159.53</ele>
        <time>2021-03-20T21:56:38Z</time>
      </trkpt>
      <trkpt lat="57.57754" lon="-5.17353">
        <ele>159.86</ele>
        <time>2021-03-20T21:56:44Z</time>
      </trkpt>
      <trkpt lat="57.57762" lon="-5.17264">
        <ele>160.42</ele>
        <time>2021-03-20T21:56:50Z</time>
      </trkpt>
      <trkpt lat="57.57788" lon="-5.17097">
        <ele>159.36</ele>
        <time>2021-03-20T21:56:56Z</time>
      </trkpt>
      <trkpt lat="57.57841" lon="-5.16875">
        <ele>164.03</ele>
        <time>2021-03-20T21:57:01Z</time>
      </trkpt>
      <trkpt lat="57.57858" lon="-5.16732">
        <ele>165.55</ele>
        <time>2021-03-20T21:57:07Z</time>
      </trkpt>
      <trkpt lat="57.57861" lon="-5.16588">
        <ele>165.87</ele>
        <time>2021-03-20T21:57:13Z</time>
      </trkpt>
      <trkpt lat="57.57858" lon="-5.16319">
        <ele>165.54</ele>
        <time>2021-03-20T21:57:19Z</time>
      </trkpt>
      <trkpt lat="57.57859" lon="-5.16177">
        <ele>165.29</ele>
        <time>2021-03-20T21:57:25Z</time>
      </trkpt>
      <trkpt lat="57.57864" lon="-5.16064">
        <ele>164.1</ele>
        <time>2021-03-20T21:57:31Z</time>
      </trkpt>
      <trkpt lat="57.57896" lon="-5.15855">
        <ele>168.06</ele>
        <time>2021-03-20T21:57:36Z</time>
      </trkpt>
      <trkpt lat="57.57914" lon="-5.15699">
        <ele>170.61</ele>
        <time>2021-03-20T21:57:42Z</time>
      </trkpt>
      <trkpt lat="57.57921" lon="-5.15536">
        <ele>169.18</ele>
        <time>2021-03-20T21:57:48Z</time>
      </trkpt>
      <trkpt lat="57.57933" lon="-5.14446">
        <ele>167.7</ele>
        <time>2021-03-20T21:57:54Z</time>
      </trkpt>
      <trkpt lat="57.57936" lon="-5.14356">
        <ele>168.54</ele>
        <time>2021-03-20T21:58:00Z</time>
      </trkpt>
      <trkpt lat="57.57943" lon="-5.14223">
        <ele>168.79</ele>
        <time>2021-03-20T21:58:06Z</time>
      </trkpt>
      <trkpt lat="57.57962" lon="-5.14075">
        <ele>164.66</ele>
        <time>2021-03-20T21:58:11Z</time>
      </trkpt>
      <trkpt lat="57.57997" lon="-5.13838">
        <ele>162.35</ele>
        <time>2021-03-20T21:58:17Z</time>
      </trkpt>
      <trkpt lat="57.58005" lon="-5.13769">
        <ele>163</ele>
        <time>2021-03-20T21:58:23Z</time>
      </trkpt>
      <trkpt lat="57.58008" lon="-5.1362">
        <ele>166.13</ele>
        <time>2021-03-20T21:58:29Z</time>
      </trkpt>
      <trkpt lat="57.58001" lon="-5.13513">
        <ele>166.75</ele>
        <time>2021-03-20T21:58:35Z</time>
      </trkpt>
      <trkpt lat="57.57902" lon="-5.12578">
        <ele>165.56</ele>
        <time>2021-03-20T21:58:41Z</time>
      </trkpt>
      <trkpt lat="57.57881" lon="-5.12372">
        <ele>164.51</ele>
        <time>2021-03-20T21:58:46Z</time>
      </trkpt>
      <trkpt lat="57.57864" lon="-5.12176">
        <ele>163.38</ele>
        <time>2021-03-20T21:58:52Z</time>
      </trkpt>
      <trkpt lat="57.5786" lon="-5.12076">
        <ele>162.88</ele>
        <time>2021-03-20T21:58:58Z</time>
      </trkpt>
      <trkpt lat="57.57877" lon="-5.11335">
        <ele>162.78</ele>
        <time>2021-03-20T21:59:04Z</time>
      </trkpt>
      <trkpt lat="57.57886" lon="-5.11089">
        <ele>161.9</ele>
        <time>2021-03-20T21:59:10Z</time>
      </trkpt>
      <trkpt lat="57.57892" lon="-5.10863">
        <ele>162.49</ele>
        <time>2021-03-20T21:59:15Z</time>
      </trkpt>
      <trkpt lat="57.57891" lon="-5.10672">
        <ele>161.56</ele>
        <time>2021-03-20T21:59:21Z</time>
      </trkpt>
      <trkpt lat="57.57876" lon="-5.10459">
        <ele>168.05</ele>
        <time>2021-03-20T21:59:27Z</time>
      </trkpt>
      <trkpt lat="57.57855" lon="-5.09867">
        <ele>170.26</ele>
        <time>2021-03-20T21:59:33Z</time>
      </trkpt>
      <trkpt lat="57.5787" lon="-5.09628">
        <ele>173.37</ele>
        <time>2021-03-20T21:59:39Z</time>
      </trkpt>
      <trkpt lat="57.5787" lon="-5.09489">
        <ele>175.53</ele>
        <time>2021-03-20T21:59:45Z</time>
      </trkpt>
      <trkpt lat="57.57866" lon="-5.09386">
        <ele>177.19</ele>
        <time>2021-03-20T21:59:50Z</time>
      </trkpt>
      <trkpt lat="57.5785" lon="-5.09139">
        <ele>169.93</ele>
        <time>2021-03-20T21:59:56Z</time>
      </trkpt>
      <trkpt lat="57.57815" lon="-5.08692">
        <ele>159.79</ele>
        <time>2021-03-20T22:00:02Z</time>
      </trkpt>
      <trkpt lat="57.578" lon="-5.0848">
        <ele>157.18</ele>
        <time>2021-03-20T22:00:08Z</time>
      </trkpt>
      <trkpt lat="57.57798" lon="-5.08336">
        <ele>158.46</ele>
        <time>2021-03-20T22:00:14Z</time>
      </trkpt>
      <trkpt lat="57.57805" lon="-5.08213">
        <ele>155.99</ele>
        <time>2021-03-20T22:00:20Z</time>
      </trkpt>
      <trkpt lat="57.57812" lon="-5.08148">
        <ele>156.74</ele>
        <time>2021-03-20T22:00:25Z</time>
      </trkpt>
      <trkpt lat="57.57839" lon="-5.07944">
        <ele>156.19</ele>
        <time>2021-03-20T22:00:31Z</time>
      </trkpt>
      <trkpt lat="57.57847" lon="-5.07945">
        <ele>156.51</ele>
        <time>2021-03-20T22:00:37Z</time>
      </trkpt>
      <trkpt lat="57.57853" lon="-5.07937">
        <ele>156.7</ele>
        <time>2021-03-20T22:00:42Z</time>
      </trkpt>
      <trkpt lat="57.57855" lon="-5.0792">
        <ele>156.78</ele>
        <time>2021-03-20T22:00:48Z</time>
      </trkpt>
      <trkpt lat="57.57852" lon="-5.07909">
        <ele>156.41</ele>
        <time>2021-03-20T22:00:54Z</time>
      </trkpt>
      <trkpt lat="57.57877" lon="-5.07833">
        <ele>154.58</ele>
        <time>2021-03-20T22:00:59Z</time>
      </trkpt>
      <trkpt lat="57.5791" lon="-5.07726">
        <ele>152.87</ele>
        <time>2021-03-20T22:01:05Z</time>
      </trkpt>
      <trkpt lat="57.57928" lon="-5.07631">
        <ele>152.95</ele>
        <time>2021-03-20T22:01:10Z</time>
      </trkpt>
      <trkpt lat="57.57949" lon="-5.07535">
        <ele>155.36</ele>
        <time>2021-03-20T22:01:16Z</time>
      </trkpt>
      <trkpt lat="57.57977" lon="-5.07442">
        <ele>154.17</ele>
        <time>2021-03-20T22:01:21Z</time>
      </trkpt>
      <trkpt lat="57.58089" lon="-5.0712">
        <ele>153.54</ele>
        <time>2021-03-20T22:01:27Z</time>
      </trkpt>
      <trkpt lat="57.58107" lon="-5.07059">
        <ele>153.72</ele>
        <time>2021-03-20T22:01:32Z</time>
      </trkpt>
      <trkpt lat="57.58133" lon="-5.06952">
        <ele>152.84</ele>
        <time>2021-03-20T22:01:38Z</time>
      </trkpt>
      <trkpt lat="57.58156" lon="-5.06823">
        <ele>154.6</ele>
        <time>2021-03-20T22:01:44Z</time>
      </trkpt>
      <trkpt lat="57.58231" lon="-5.06173">
        <ele>154.15</ele>
        <time>2021-03-20T22:01:49Z</time>
      </trkpt>
      <trkpt lat="57.58259" lon="-5.0594">
        <ele>151.52</ele>
        <time>2021-03-20T22:01:55Z</time>
      </trkpt>
      <trkpt lat="57.58291" lon="-5.05704">
        <ele>154.99</ele>
        <time>2021-03-20T22:02:00Z</time>
      </trkpt>
      <trkpt lat="57.58374" lon="-5.05142">
        <ele>157.43</ele>
        <time>2021-03-20T22:02:06Z</time>
      </trkpt>
      <trkpt lat="57.5842" lon="-5.04903">
        <ele>157.03</ele>
        <time>2021-03-20T22:02:11Z</time>
      </trkpt>
      <trkpt lat="57.58498" lon="-5.04421">
        <ele>159.6</ele>
        <time>2021-03-20T22:02:17Z</time>
      </trkpt>
      <trkpt lat="57.58572" lon="-5.03906">
        <ele>162.79</ele>
        <time>2021-03-20T22:02:23Z</time>
      </trkpt>
      <trkpt lat="57.58637" lon="-5.03361">
        <ele>164.66</ele>
        <time>2021-03-20T22:02:28Z</time>
      </trkpt>
      <trkpt lat="57.5866" lon="-5.03129">
        <ele>159.37</ele>
        <time>2021-03-20T22:02:34Z</time>
      </trkpt>
      <trkpt lat="57.58685" lon="-5.02928">
        <ele>160.93</ele>
        <time>2021-03-20T22:02:39Z</time>
      </trkpt>
      <trkpt lat="57.58708" lon="-5.02795">
        <ele>164.78</ele>
        <time>2021-03-20T22:02:45Z</time>
      </trkpt>
      <trkpt lat="57.58738" lon="-5.02657">
        <ele>163.16</ele>
        <time>2021-03-20T22:02:50Z</time>
      </trkpt>
      <trkpt lat="57.58779" lon="-5.02524">
        <ele>157.88</ele>
        <time>2021-03-20T22:02:56Z</time>
      </trkpt>
      <trkpt lat="57.58837" lon="-5.02383">
        <ele>156.51</ele>
        <time>2021-03-20T22:03:02Z</time>
      </trkpt>
      <trkpt lat="57.58922" lon="-5.02194">
        <ele>160.37</ele>
        <time>2021-03-20T22:03:07Z</time>
      </trkpt>
      <trkpt lat="57.59021" lon="-5.02005">
        <ele>162.92</ele>
        <time>2021-03-20T22:03:13Z</time>
      </trkpt>
      <trkpt lat="57.5912" lon="-5.01829">
        <ele>156.26</ele>
        <time>2021-03-20T22:03:18Z</time>
      </trkpt>
      <trkpt lat="57.59345" lon="-5.01457">
        <ele>146.18</ele>
        <time>2021-03-20T22:03:24Z</time>
      </trkpt>
      <trkpt lat="57.59386" lon="-5.01391">
        <ele>148.88</ele>
        <time>2021-03-20T22:03:29Z</time>
      </trkpt>
      <trkpt lat="57.5946" lon="-5.01254">
        <ele>142.6</ele>
        <time>2021-03-20T22:03:35Z</time>
      </trkpt>
      <trkpt lat="57.59513" lon="-5.01125">
        <ele>137.94</ele>
        <time>2021-03-20T22:03:40Z</time>
      </trkpt>
      <trkpt lat="57.59564" lon="-5.00966">
        <ele>136.15</ele>
        <time>2021-03-20T22:03:46Z</time>
      </trkpt>
      <trkpt lat="57.59621" lon="-5.00799">
        <ele>138.1</ele>
        <time>2021-03-20T22:03:52Z</time>
      </trkpt>
      <trkpt lat="57.59676" lon="-5.00619">
        <ele>137.22</ele>
        <time>2021-03-20T22:03:57Z</time>
      </trkpt>
      <trkpt lat="57.59734" lon="-5.00443">
        <ele>134.15</ele>
        <time>2021-03-20T22:04:03Z</time>
      </trkpt>
      <trkpt lat="57.59844" lon="-5.00151">
        <ele>133.82</ele>
        <time>2021-03-20T22:04:08Z</time>
      </trkpt>
      <trkpt lat="57.599" lon="-5.0003">
        <ele>138.88</ele>
        <time>2021-03-20T22:04:14Z</time>
      </trkpt>
      <trkpt lat="57.59974" lon="-4.99888">
        <ele>139.35</ele>
        <time>2021-03-20T22:04:19Z</time>
      </trkpt>
      <trkpt lat="57.60007" lon="-4.99821">
        <ele>138.41</ele>
        <time>2021-03-20T22:04:25Z</time>
      </trkpt>
      <trkpt lat="57.60042" lon="-4.99735">
        <ele>134.92</ele>
        <time>2021-03-20T22:04:31Z</time>
      </trkpt>
      <trkpt lat="57.60069" lon="-4.9964">
        <ele>137.51</ele>
        <time>2021-03-20T22:04:36Z</time>
      </trkpt>
      <trkpt lat="57.60095" lon="-4.99507">
        <ele>136.87</ele>
        <time>2021-03-20T22:04:42Z</time>
      </trkpt>
      <trkpt lat="57.60118" lon="-4.99361">
        <ele>135.43</ele>
        <time>2021-03-20T22:04:47Z</time>
      </trkpt>
      <trkpt lat="57.60183" lon="-4.98783">
        <ele>127.18</ele>
        <time>2021-03-20T22:04:53Z</time>
      </trkpt>
      <trkpt lat="57.60222" lon="-4.98424">
        <ele>122.98</ele>
        <time>2021-03-20T22:04:58Z</time>
      </trkpt>
      <trkpt lat="57.60292" lon="-4.9781">
        <ele>125.36</ele>
        <time>2021-03-20T22:05:04Z</time>
      </trkpt>
      <trkpt lat="57.60318" lon="-4.9761">
        <ele>123.19</ele>
        <time>2021-03-20T22:05:10Z</time>
      </trkpt>
      <trkpt lat="57.60361" lon="-4.97304">
        <ele>121.91</ele>
        <time>2021-03-20T22:05:15Z</time>
      </trkpt>
      <trkpt lat="57.60402" lon="-4.97031">
        <ele>124.81</ele>
        <time>2021-03-20T22:05:21Z</time>
      </trkpt>
      <trkpt lat="57.60443" lon="-4.96786">
        <ele>126.01</ele>
        <time>2021-03-20T22:05:26Z</time>
      </trkpt>
      <trkpt lat="57.60518" lon="-4.9646">
        <ele>123.28</ele>
        <time>2021-03-20T22:05:32Z</time>
      </trkpt>
      <trkpt lat="57.60531" lon="-4.96376">
        <ele>124.61</ele>
        <time>2021-03-20T22:05:37Z</time>
      </trkpt>
      <trkpt lat="57.60539" lon="-4.96302">
        <ele>126.33</ele>
        <time>2021-03-20T22:05:43Z</time>
      </trkpt>
      <trkpt lat="57.60559" lon="-4.95993">
        <ele>126.9</ele>
        <time>2021-03-20T22:05:49Z</time>
      </trkpt>
      <trkpt lat="57.60563" lon="-4.95953">
        <ele>127.01</ele>
        <time>2021-03-20T22:05:54Z</time>
      </trkpt>
      <trkpt lat="57.60578" lon="-4.95849">
        <ele>125</ele>
        <time>2021-03-20T22:06:00Z</time>
      </trkpt>
      <trkpt lat="57.60745" lon="-4.94864">
        <ele>125.81</ele>
        <time>2021-03-20T22:06:05Z</time>
      </trkpt>
      <trkpt lat="57.60874" lon="-4.9404">
        <ele>128.98</ele>
        <time>2021-03-20T22:06:11Z</time>
      </trkpt>
      <trkpt lat="57.60973" lon="-4.93349">
        <ele>123.7</ele>
        <time>2021-03-20T22:06:16Z</time>
      </trkpt>
      <trkpt lat="57.61003" lon="-4.93109">
        <ele>126.72</ele>
        <time>2021-03-20T22:06:22Z</time>
      </trkpt>
      <trkpt lat="57.61017" lon="-4.92907">
        <ele>124.24</ele>
        <time>2021-03-20T22:06:27Z</time>
      </trkpt>
      <trkpt lat="57.6102" lon="-4.92718">
        <ele>120.67</ele>
        <time>2021-03-20T22:06:33Z</time>
      </trkpt>
      <trkpt lat="57.61024" lon="-4.9222">
        <ele>122.4</ele>
        <time>2021-03-20T22:06:39Z</time>
      </trkpt>
      <trkpt lat="57.6103" lon="-4.91783">
        <ele>124.55</ele>
        <time>2021-03-20T22:06:44Z</time>
      </trkpt>
      <trkpt lat="57.61039" lon="-4.91419">
        <ele>128.23</ele>
        <time>2021-03-20T22:06:50Z</time>
      </trkpt>
      <trkpt lat="57.61051" lon="-4.91122">
        <ele>129.61</ele>
        <time>2021-03-20T22:06:55Z</time>
      </trkpt>
      <trkpt lat="57.61076" lon="-4.90748">
        <ele>127.88</ele>
        <time>2021-03-20T22:07:01Z</time>
      </trkpt>
      <trkpt lat="57.61095" lon="-4.90298">
        <ele>120.19</ele>
        <time>2021-03-20T22:07:06Z</time>
      </trkpt>
      <trkpt lat="57.61102" lon="-4.89929">
        <ele>118.04</ele>
        <time>2021-03-20T22:07:12Z</time>
      </trkpt>
      <trkpt lat="57.61102" lon="-4.89602">
        <ele>118.98</ele>
        <time>2021-03-20T22:07:18Z</time>
      </trkpt>
      <trkpt lat="57.61104" lon="-4.891">
        <ele>129</ele>
        <time>2021-03-20T22:07:23Z</time>
      </trkpt>
      <trkpt lat="57.61088" lon="-4.88493">
        <ele>131.13</ele>
        <time>2021-03-20T22:07:29Z</time>
      </trkpt>
      <trkpt lat="57.61079" lon="-4.8828">
        <ele>131.11</ele>
        <time>2021-03-20T22:07:34Z</time>
      </trkpt>
      <trkpt lat="57.61077" lon="-4.88157">
        <ele>132.72</ele>
        <time>2021-03-20T22:07:40Z</time>
      </trkpt>
      <trkpt lat="57.61081" lon="-4.88026">
        <ele>131.75</ele>
        <time>2021-03-20T22:07:45Z</time>
      </trkpt>
      <trkpt lat="57.61093" lon="-4.87894">
        <ele>128.32</ele>
        <time>2021-03-20T22:07:51Z</time>
      </trkpt>
      <trkpt lat="57.61118" lon="-4.8771">
        <ele>126.41</ele>
        <time>2021-03-20T22:07:57Z</time>
      </trkpt>
      <trkpt lat="57.61197" lon="-4.87393">
        <ele>119.77</ele>
        <time>2021-03-20T22:08:02Z</time>
      </trkpt>
      <trkpt lat="57.61205" lon="-4.87351">
        <ele>118.24</ele>
        <time>2021-03-20T22:08:08Z</time>
      </trkpt>
      <trkpt lat="57.61212" lon="-4.8731">
        <ele>117.61</ele>
        <time>2021-03-20T22:08:13Z</time>
      </trkpt>
      <trkpt lat="57.6122" lon="-4.87211">
        <ele>115.85</ele>
        <time>2021-03-20T22:08:19Z</time>
      </trkpt>
      <trkpt lat="57.6122" lon="-4.87168">
        <ele>115.11</ele>
        <time>2021-03-20T22:08:24Z</time>
      </trkpt>
      <trkpt lat="57.61218" lon="-4.87106">
        <ele>117.31</ele>
        <time>2021-03-20T22:08:30Z</time>
      </trkpt>
      <trkpt lat="57.61215" lon="-4.87058">
        <ele>119.33</ele>
        <time>2021-03-20T22:08:35Z</time>
      </trkpt>
      <trkpt lat="57.61198" lon="-4.86946">
        <ele>119.63</ele>
        <time>2021-03-20T22:08:41Z</time>
      </trkpt>
      <trkpt lat="57.61159" lon="-4.8674">
        <ele>117.63</ele>
        <time>2021-03-20T22:08:47Z</time>
      </trkpt>
      <trkpt lat="57.61136" lon="-4.86564">
        <ele>117.4</ele>
        <time>2021-03-20T22:08:52Z</time>
      </trkpt>
      <trkpt lat="57.61127" lon="-4.86431">
        <ele>118.2</ele>
        <time>2021-03-20T22:08:58Z</time>
      </trkpt>
      <trkpt lat="57.61129" lon="-4.86272">
        <ele>121.76</ele>
        <time>2021-03-20T22:09:03Z</time>
      </trkpt>
      <trkpt lat="57.61136" lon="-4.86053">
        <ele>120.52</ele>
        <time>2021-03-20T22:09:09Z</time>
      </trkpt>
      <trkpt lat="57.61134" lon="-4.85907">
        <ele>121.4</ele>
        <time>2021-03-20T22:09:14Z</time>
      </trkpt>
      <trkpt lat="57.61128" lon="-4.85757">
        <ele>121.56</ele>
        <time>2021-03-20T22:09:20Z</time>
      </trkpt>
      <trkpt lat="57.61125" lon="-4.85611">
        <ele>117.96</ele>
        <time>2021-03-20T22:09:26Z</time>
      </trkpt>
      <trkpt lat="57.61132" lon="-4.85483">
        <ele>117.95</ele>
        <time>2021-03-20T22:09:31Z</time>
      </trkpt>
      <trkpt lat="57.61148" lon="-4.85319">
        <ele>118.43</ele>
        <time>2021-03-20T22:09:37Z</time>
      </trkpt>
      <trkpt lat="57.61185" lon="-4.84976">
        <ele>115.28</ele>
        <time>2021-03-20T22:09:42Z</time>
      </trkpt>
      <trkpt lat="57.61224" lon="-4.8468">
        <ele>116.07</ele>
        <time>2021-03-20T22:09:48Z</time>
      </trkpt>
      <trkpt lat="57.6126" lon="-4.84427">
        <ele>115.25</ele>
        <time>2021-03-20T22:09:53Z</time>
      </trkpt>
      <trkpt lat="57.61288" lon="-4.84259">
        <ele>116.64</ele>
        <time>2021-03-20T22:09:59Z</time>
      </trkpt>
      <trkpt lat="57.61312" lon="-4.84097">
        <ele>115.65</ele>
        <time>2021-03-20T22:10:05Z</time>
      </trkpt>
      <trkpt lat="57.61336" lon="-4.83959">
        <ele>114.93</ele>
        <time>2021-03-20T22:10:10Z</time>
      </trkpt>
      <trkpt lat="57.61371" lon="-4.83843">
        <ele>115.43</ele>
        <time>2021-03-20T22:10:16Z</time>
      </trkpt>
      <trkpt lat="57.61398" lon="-4.83762">
        <ele>115.44</ele>
        <time>2021-03-20T22:10:21Z</time>
      </trkpt>
      <trkpt lat="57.61435" lon="-4.8368">
        <ele>116.27</ele>
        <time>2021-03-20T22:10:27Z</time>
      </trkpt>
      <trkpt lat="57.61497" lon="-4.83573">
        <ele>117.31</ele>
        <time>2021-03-20T22:10:32Z</time>
      </trkpt>
      <trkpt lat="57.61578" lon="-4.83444">
        <ele>116.61</ele>
        <time>2021-03-20T22:10:38Z</time>
      </trkpt>
      <trkpt lat="57.61768" lon="-4.83182">
        <ele>100.22</ele>
        <time>2021-03-20T22:10:44Z</time>
      </trkpt>
      <trkpt lat="57.61831" lon="-4.83109">
        <ele>101.73</ele>
        <time>2021-03-20T22:10:49Z</time>
      </trkpt>
      <trkpt lat="57.61902" lon="-4.83051">
        <ele>97.82</ele>
        <time>2021-03-20T22:10:55Z</time>
      </trkpt>
      <trkpt lat="57.6204" lon="-4.82944">
        <ele>94.33</ele>
        <time>2021-03-20T22:11:00Z</time>
      </trkpt>
      <trkpt lat="57.62072" lon="-4.82912">
        <ele>97.54</ele>
        <time>2021-03-20T22:11:06Z</time>
      </trkpt>
      <trkpt lat="57.62118" lon="-4.82828">
        <ele>102.72</ele>
        <time>2021-03-20T22:11:11Z</time>
      </trkpt>
      <trkpt lat="57.62142" lon="-4.82743">
        <ele>104.11</ele>
        <time>2021-03-20T22:11:17Z</time>
      </trkpt>
      <trkpt lat="57.62157" lon="-4.82657">
        <ele>104.91</ele>
        <time>2021-03-20T22:11:22Z</time>
      </trkpt>
      <trkpt lat="57.62176" lon="-4.82515">
        <ele>104.9</ele>
        <time>2021-03-20T22:11:28Z</time>
      </trkpt>
      <trkpt lat="57.62194" lon="-4.8241">
        <ele>103.67</ele>
        <time>2021-03-20T22:11:34Z</time>
      </trkpt>
      <trkpt lat="57.6222" lon="-4.823">
        <ele>104.25</ele>
        <time>2021-03-20T22:11:39Z</time>
      </trkpt>
      <trkpt lat="57.62269" lon="-4.82126">
        <ele>106.9</ele>
        <time>2021-03-20T22:11:45Z</time>
      </trkpt>
      <trkpt lat="57.62282" lon="-4.82066">
        <ele>108.01</ele>
        <time>2021-03-20T22:11:50Z</time>
      </trkpt>
      <trkpt lat="57.62293" lon="-4.81988">
        <ele>107.24</ele>
        <time>2021-03-20T22:11:56Z</time>
      </trkpt>
      <trkpt lat="57.62297" lon="-4.81939">
        <ele>105.61</ele>
        <time>2021-03-20T22:12:01Z</time>
      </trkpt>
      <trkpt lat="57.623" lon="-4.81837">
        <ele>104.36</ele>
        <time>2021-03-20T22:12:07Z</time>
      </trkpt>
      <trkpt lat="57.62295" lon="-4.81729">
        <ele>104.95</ele>
        <time>2021-03-20T22:12:13Z</time>
      </trkpt>
      <trkpt lat="57.62267" lon="-4.81517">
        <ele>106.22</ele>
        <time>2021-03-20T22:12:18Z</time>
      </trkpt>
      <trkpt lat="57.62258" lon="-4.81393">
        <ele>104.6</ele>
        <time>2021-03-20T22:12:24Z</time>
      </trkpt>
      <trkpt lat="57.62256" lon="-4.81288">
        <ele>105.14</ele>
        <time>2021-03-20T22:12:29Z</time>
      </trkpt>
      <trkpt lat="57.6226" lon="-4.81178">
        <ele>105.89</ele>
        <time>2021-03-20T22:12:35Z</time>
      </trkpt>
      <trkpt lat="57.62268" lon="-4.811">
        <ele>105.29</ele>
        <time>2021-03-20T22:12:40Z</time>
      </trkpt>
      <trkpt lat="57.62279" lon="-4.81024">
        <ele>106.08</ele>
        <time>2021-03-20T22:12:46Z</time>
      </trkpt>
      <trkpt lat="57.62293" lon="-4.80896">
        <ele>106.23</ele>
        <time>2021-03-20T22:12:52Z</time>
      </trkpt>
      <trkpt lat="57.62299" lon="-4.80819">
        <ele>105.14</ele>
        <time>2021-03-20T22:12:57Z</time>
      </trkpt>
      <trkpt lat="57.62303" lon="-4.80734">
        <ele>104.07</ele>
        <time>2021-03-20T22:13:03Z</time>
      </trkpt>
      <trkpt lat="57.62299" lon="-4.80631">
        <ele>104.08</ele>
        <time>2021-03-20T22:13:08Z</time>
      </trkpt>
      <trkpt lat="57.6229" lon="-4.80502">
        <ele>104.67</ele>
        <time>2021-03-20T22:13:14Z</time>
      </trkpt>
      <trkpt lat="57.62298" lon="-4.80422">
        <ele>105.38</ele>
        <time>2021-03-20T22:13:19Z</time>
      </trkpt>
      <trkpt lat="57.62313" lon="-4.80348">
        <ele>104.32</ele>
        <time>2021-03-20T22:13:25Z</time>
      </trkpt>
      <trkpt lat="57.62341" lon="-4.80294">
        <ele>105.78</ele>
        <time>2021-03-20T22:13:30Z</time>
      </trkpt>
      <trkpt lat="57.6237" lon="-4.80247">
        <ele>105.96</ele>
        <time>2021-03-20T22:13:36Z</time>
      </trkpt>
      <trkpt lat="57.62414" lon="-4.80213">
        <ele>107.23</ele>
        <time>2021-03-20T22:13:42Z</time>
      </trkpt>
      <trkpt lat="57.62516" lon="-4.80161">
        <ele>110.76</ele>
        <time>2021-03-20T22:13:47Z</time>
      </trkpt>
      <trkpt lat="57.62547" lon="-4.80122">
        <ele>107.74</ele>
        <time>2021-03-20T22:13:53Z</time>
      </trkpt>
      <trkpt lat="57.6258" lon="-4.80059">
        <ele>106.72</ele>
        <time>2021-03-20T22:13:58Z</time>
      </trkpt>
      <trkpt lat="57.62601" lon="-4.79994">
        <ele>102.37</ele>
        <time>2021-03-20T22:14:04Z</time>
      </trkpt>
      <trkpt lat="57.62628" lon="-4.79956">
        <ele>101.62</ele>
        <time>2021-03-20T22:14:09Z</time>
      </trkpt>
      <trkpt lat="57.62661" lon="-4.79933">
        <ele>102.35</ele>
        <time>2021-03-20T22:14:15Z</time>
      </trkpt>
      <trkpt lat="57.62692" lon="-4.79926">
        <ele>102.24</ele>
        <time>2021-03-20T22:14:21Z</time>
      </trkpt>
      <trkpt lat="57.62752" lon="-4.79934">
        <ele>107.69</ele>
        <time>2021-03-20T22:14:26Z</time>
      </trkpt>
      <trkpt lat="57.62768" lon="-4.79934">
        <ele>109.38</ele>
        <time>2021-03-20T22:14:32Z</time>
      </trkpt>
      <trkpt lat="57.62791" lon="-4.79929">
        <ele>111.24</ele>
        <time>2021-03-20T22:14:37Z</time>
      </trkpt>
      <trkpt lat="57.62824" lon="-4.79908">
        <ele>110.99</ele>
        <time>2021-03-20T22:14:43Z</time>
      </trkpt>
      <trkpt lat="57.62845" lon="-4.79888">
        <ele>110.13</ele>
        <time>2021-03-20T22:14:48Z</time>
      </trkpt>
      <trkpt lat="57.62892" lon="-4.79818">
        <ele>107.83</ele>
        <time>2021-03-20T22:14:54Z</time>
      </trkpt>
      <trkpt lat="57.62974" lon="-4.79713">
        <ele>112.44</ele>
        <time>2021-03-20T22:15:00Z</time>
      </trkpt>
      <trkpt lat="57.62996" lon="-4.79683">
        <ele>111.79</ele>
        <time>2021-03-20T22:15:05Z</time>
      </trkpt>
      <trkpt lat="57.63003" lon="-4.79669">
        <ele>111.5</ele>
        <time>2021-03-20T22:15:11Z</time>
      </trkpt>
      <trkpt lat="57.6303" lon="-4.79599">
        <ele>113.75</ele>
        <time>2021-03-20T22:15:16Z</time>
      </trkpt>
      <trkpt lat="57.63044" lon="-4.79547">
        <ele>117.59</ele>
        <time>2021-03-20T22:15:22Z</time>
      </trkpt>
      <trkpt lat="57.63053" lon="-4.79484">
        <ele>120.71</ele>
        <time>2021-03-20T22:15:27Z</time>
      </trkpt>
      <trkpt lat="57.63056" lon="-4.7943">
        <ele>122.12</ele>
        <time>2021-03-20T22:15:33Z</time>
      </trkpt>
      <trkpt lat="57.63058" lon="-4.79361">
        <ele>123.27</ele>
        <time>2021-03-20T22:15:39Z</time>
      </trkpt>
      <trkpt lat="57.63068" lon="-4.79246">
        <ele>124.83</ele>
        <time>2021-03-20T22:15:44Z</time>
      </trkpt>
      <trkpt lat="57.63079" lon="-4.79153">
        <ele>127.28</ele>
        <time>2021-03-20T22:15:50Z</time>
      </trkpt>
      <trkpt lat="57.63081" lon="-4.79096">
        <ele>126.72</ele>
        <time>2021-03-20T22:15:55Z</time>
      </trkpt>
      <trkpt lat="57.63079" lon="-4.79067">
        <ele>126.62</ele>
        <time>2021-03-20T22:16:01Z</time>
      </trkpt>
      <trkpt lat="57.63073" lon="-4.7901">
        <ele>126.47</ele>
        <time>2021-03-20T22:16:06Z</time>
      </trkpt>
      <trkpt lat="57.63066" lon="-4.78964">
        <ele>126.75</ele>
        <time>2021-03-20T22:16:12Z</time>
      </trkpt>
      <trkpt lat="57.6304" lon="-4.78844">
        <ele>126.21</ele>
        <time>2021-03-20T22:16:17Z</time>
      </trkpt>
      <trkpt lat="57.63029" lon="-4.78788">
        <ele>126.68</ele>
        <time>2021-03-20T22:16:23Z</time>
      </trkpt>
      <trkpt lat="57.63016" lon="-4.78676">
        <ele>129.42</ele>
        <time>2021-03-20T22:16:29Z</time>
      </trkpt>
      <trkpt lat="57.63008" lon="-4.78509">
        <ele>133.91</ele>
        <time>2021-03-20T22:16:34Z</time>
      </trkpt>
      <trkpt lat="57.63004" lon="-4.78383">
        <ele>132.32</ele>
        <time>2021-03-20T22:16:40Z</time>
      </trkpt>
      <trkpt lat="57.63" lon="-4.78059">
        <ele>136.1</ele>
        <time>2021-03-20T22:16:45Z</time>
      </trkpt>
      <trkpt lat="57.63001" lon="-4.77921">
        <ele>135.07</ele>
        <time>2021-03-20T22:16:51Z</time>
      </trkpt>
      <trkpt lat="57.63007" lon="-4.77818">
        <ele>132.19</ele>
        <time>2021-03-20T22:16:56Z</time>
      </trkpt>
      <trkpt lat="57.6303" lon="-4.77685">
        <ele>131.2</ele>
        <time>2021-03-20T22:17:02Z</time>
      </trkpt>
      <trkpt lat="57.63062" lon="-4.77552">
        <ele>135.23</ele>
        <time>2021-03-20T22:17:08Z</time>
      </trkpt>
      <trkpt lat="57.63126" lon="-4.77324">
        <ele>134.1</ele>
        <time>2021-03-20T22:17:13Z</time>
      </trkpt>
      <trkpt lat="57.63166" lon="-4.7717">
        <ele>134.94</ele>
        <time>2021-03-20T22:17:19Z</time>
      </trkpt>
      <trkpt lat="57.63177" lon="-4.77084">
        <ele>133.5</ele>
        <time>2021-03-20T22:17:24Z</time>
      </trkpt>
      <trkpt lat="57.63182" lon="-4.77007">
        <ele>134.08</ele>
        <time>2021-03-20T22:17:30Z</time>
      </trkpt>
      <trkpt lat="57.63184" lon="-4.76917">
        <ele>134.33</ele>
        <time>2021-03-20T22:17:35Z</time>
      </trkpt>
      <trkpt lat="57.63184" lon="-4.76831">
        <ele>132.27</ele>
        <time>2021-03-20T22:17:41Z</time>
      </trkpt>
      <trkpt lat="57.63193" lon="-4.76728">
        <ele>132.03</ele>
        <time>2021-03-20T22:17:47Z</time>
      </trkpt>
      <trkpt lat="57.63209" lon="-4.76651">
        <ele>130.48</ele>
        <time>2021-03-20T22:17:52Z</time>
      </trkpt>
      <trkpt lat="57.6329" lon="-4.76367">
        <ele>126</ele>
        <time>2021-03-20T22:17:58Z</time>
      </trkpt>
      <trkpt lat="57.63299" lon="-4.76312">
        <ele>126.25</ele>
        <time>2021-03-20T22:18:03Z</time>
      </trkpt>
      <trkpt lat="57.63301" lon="-4.76226">
        <ele>125.14</ele>
        <time>2021-03-20T22:18:09Z</time>
      </trkpt>
      <trkpt lat="57.63301" lon="-4.7617">
        <ele>122.97</ele>
        <time>2021-03-20T22:18:14Z</time>
      </trkpt>
      <trkpt lat="57.6329" lon="-4.76028">
        <ele>120.42</ele>
        <time>2021-03-20T22:18:20Z</time>
      </trkpt>
      <trkpt lat="57.63244" lon="-4.75612">
        <ele>118.77</ele>
        <time>2021-03-20T22:18:25Z</time>
      </trkpt>
      <trkpt lat="57.63224" lon="-4.75306">
        <ele>121.18</ele>
        <time>2021-03-20T22:18:31Z</time>
      </trkpt>
      <trkpt lat="57.63162" lon="-4.747">
        <ele>132.23</ele>
        <time>2021-03-20T22:18:37Z</time>
      </trkpt>
      <trkpt lat="57.63154" lon="-4.74353">
        <ele>133.79</ele>
        <time>2021-03-20T22:18:42Z</time>
      </trkpt>
      <trkpt lat="57.63143" lon="-4.74236">
        <ele>134.87</ele>
        <time>2021-03-20T22:18:48Z</time>
      </trkpt>
      <trkpt lat="57.63114" lon="-4.74091">
        <ele>135.16</ele>
        <time>2021-03-20T22:18:53Z</time>
      </trkpt>
      <trkpt lat="57.62983" lon="-4.73717">
        <ele>131.31</ele>
        <time>2021-03-20T22:18:59Z</time>
      </trkpt>
      <trkpt lat="57.62944" lon="-4.7354">
        <ele>130.1</ele>
        <time>2021-03-20T22:19:04Z</time>
      </trkpt>
      <trkpt lat="57.62934" lon="-4.73464">
        <ele>130.58</ele>
        <time>2021-03-20T22:19:10Z</time>
      </trkpt>
      <trkpt lat="57.62933" lon="-4.73355">
        <ele>130.18</ele>
        <time>2021-03-20T22:19:16Z</time>
      </trkpt>
      <trkpt lat="57.62923" lon="-4.72981">
        <ele>127.02</ele>
        <time>2021-03-20T22:19:21Z</time>
      </trkpt>
      <trkpt lat="57.62909" lon="-4.72747">
        <ele>123.25</ele>
        <time>2021-03-20T22:19:27Z</time>
      </trkpt>
      <trkpt lat="57.62883" lon="-4.72503">
        <ele>121.11</ele>
        <time>2021-03-20T22:19:32Z</time>
      </trkpt>
      <trkpt lat="57.62844" lon="-4.72214">
        <ele>120.86</ele>
        <time>2021-03-20T22:19:38Z</time>
      </trkpt>
      <trkpt lat="57.62796" lon="-4.71969">
        <ele>117.07</ele>
        <time>2021-03-20T22:19:43Z</time>
      </trkpt>
      <trkpt lat="57.62768" lon="-4.71762">
        <ele>115.32</ele>
        <time>2021-03-20T22:19:49Z</time>
      </trkpt>
      <trkpt lat="57.62752" lon="-4.71456">
        <ele>111.68</ele>
        <time>2021-03-20T22:19:55Z</time>
      </trkpt>
      <trkpt lat="57.62731" lon="-4.71265">
        <ele>109.71</ele>
        <time>2021-03-20T22:20:00Z</time>
      </trkpt>
      <trkpt lat="57.62709" lon="-4.71131">
        <ele>107.85</ele>
        <time>2021-03-20T22:20:06Z</time>
      </trkpt>
      <trkpt lat="57.62693" lon="-4.71047">
        <ele>106.92</ele>
        <time>2021-03-20T22:20:11Z</time>
      </trkpt>
      <trkpt lat="57.62664" lon="-4.70954">
        <ele>107.14</ele>
        <time>2021-03-20T22:20:17Z</time>
      </trkpt>
      <trkpt lat="57.62626" lon="-4.70879">
        <ele>108.5</ele>
        <time>2021-03-20T22:20:22Z</time>
      </trkpt>
      <trkpt lat="57.62556" lon="-4.70746">
        <ele>105.58</ele>
        <time>2021-03-20T22:20:28Z</time>
      </trkpt>
      <trkpt lat="57.62486" lon="-4.70625">
        <ele>106.04</ele>
        <time>2021-03-20T22:20:34Z</time>
      </trkpt>
      <trkpt lat="57.62429" lon="-4.70471">
        <ele>102.68</ele>
        <time>2021-03-20T22:20:39Z</time>
      </trkpt>
      <trkpt lat="57.62399" lon="-4.70399">
        <ele>98.58</ele>
        <time>2021-03-20T22:20:45Z</time>
      </trkpt>
      <trkpt lat="57.62374" lon="-4.70329">
        <ele>94.27</ele>
        <time>2021-03-20T22:20:50Z</time>
      </trkpt>
      <trkpt lat="57.62355" lon="-4.70261">
        <ele>91.21</ele>
        <time>2021-03-20T22:20:56Z</time>
      </trkpt>
      <trkpt lat="57.62326" lon="-4.70133">
        <ele>85.14</ele>
        <time>2021-03-20T22:21:01Z</time>
      </trkpt>
      <trkpt lat="57.62302" lon="-4.70008">
        <ele>81.3</ele>
        <time>2021-03-20T22:21:07Z</time>
      </trkpt>
      <trkpt lat="57.62299" lon="-4.69972">
        <ele>79.91</ele>
        <time>2021-03-20T22:21:12Z</time>
      </trkpt>
      <trkpt lat="57.62301" lon="-4.69944">
        <ele>77.44</ele>
        <time>2021-03-20T22:21:18Z</time>
      </trkpt>
      <trkpt lat="57.62384" lon="-4.69997">
        <ele>75.9</ele>
        <time>2021-03-20T22:21:20Z</time>
      </trkpt>
      <trkpt lat="57.62407" lon="-4.70005">
        <ele>75.14</ele>
        <time>2021-03-20T22:21:23Z</time>
      </trkpt>
      <trkpt lat="57.62433" lon="-4.7001">
        <ele>74.25</ele>
        <time>2021-03-20T22:21:25Z</time>
      </trkpt>
      <trkpt lat="57.62502" lon="-4.70007">
        <ele>74.75</ele>
        <time>2021-03-20T22:21:27Z</time>
      </trkpt>
      <trkpt lat="57.6253" lon="-4.69998">
        <ele>75</ele>
        <time>2021-03-20T22:21:29Z</time>
      </trkpt>
      <trkpt lat="57.62581" lon="-4.69972">
        <ele>75.91</ele>
        <time>2021-03-20T22:21:31Z</time>
      </trkpt>
      <trkpt lat="57.62602" lon="-4.69958">
        <ele>76.16</ele>
        <time>2021-03-20T22:21:34Z</time>
      </trkpt>
      <trkpt lat="57.62624" lon="-4.69938">
        <ele>76.94</ele>
        <time>2021-03-20T22:21:36Z</time>
      </trkpt>
      <trkpt lat="57.62655" lon="-4.69906">
        <ele>78.23</ele>
        <time>2021-03-20T22:21:38Z</time>
      </trkpt>
      <trkpt lat="57.62637" lon="-4.69824">
        <ele>76.89</ele>
        <time>2021-03-20T22:21:42Z</time>
      </trkpt>
      <trkpt lat="57.62617" lon="-4.69663">
        <ele>77.2</ele>
        <time>2021-03-20T22:21:45Z</time>
      </trkpt>
      <trkpt lat="57.62598" lon="-4.69401">
        <ele>78.34</ele>
        <time>2021-03-20T22:21:48Z</time>
      </trkpt>
      <trkpt lat="57.62598" lon="-4.69371">
        <ele>78.51</ele>
        <time>2021-03-20T22:21:52Z</time>
      </trkpt>
      <trkpt lat="57.62603" lon="-4.69334">
        <ele>78.71</ele>
        <time>2021-03-20T22:21:55Z</time>
      </trkpt>
      <trkpt lat="57.62611" lon="-4.69313">
        <ele>79.01</ele>
        <time>2021-03-20T22:22:00Z</time>
      </trkpt>
      <trkpt lat="57.62625" lon="-4.69283">
        <ele>80.93</ele>
        <time>2021-03-20T22:22:05Z</time>
      </trkpt>
      <trkpt lat="57.6265" lon="-4.69255">
        <ele>83.67</ele>
        <time>2021-03-20T22:22:09Z</time>
      </trkpt>
      <trkpt lat="57.62748" lon="-4.69104">
        <ele>88.68</ele>
        <time>2021-03-20T22:22:14Z</time>
      </trkpt>
      <trkpt lat="57.62823" lon="-4.68972">
        <ele>92.87</ele>
        <time>2021-03-20T22:22:19Z</time>
      </trkpt>
      <trkpt lat="57.6287" lon="-4.68896">
        <ele>97.14</ele>
        <time>2021-03-20T22:22:23Z</time>
      </trkpt>
      <trkpt lat="57.63023" lon="-4.68656">
        <ele>101.26</ele>
        <time>2021-03-20T22:22:28Z</time>
      </trkpt>
      <trkpt lat="57.63224" lon="-4.68356">
        <ele>100.05</ele>
        <time>2021-03-20T22:22:33Z</time>
      </trkpt>
      <trkpt lat="57.63281" lon="-4.68286">
        <ele>101.03</ele>
        <time>2021-03-20T22:22:37Z</time>
      </trkpt>
      <trkpt lat="57.63328" lon="-4.68241">
        <ele>101.49</ele>
        <time>2021-03-20T22:22:42Z</time>
      </trkpt>
      <trkpt lat="57.63344" lon="-4.68238">
        <ele>102.31</ele>
        <time>2021-03-20T22:22:47Z</time>
      </trkpt>
      <trkpt lat="57.6339" lon="-4.68133">
        <ele>100.83</ele>
        <time>2021-03-20T22:22:54Z</time>
      </trkpt>
      <trkpt lat="57.63462" lon="-4.68001">
        <ele>103.3</ele>
        <time>2021-03-20T22:23:02Z</time>
      </trkpt>
      <trkpt lat="57.63608" lon="-4.67787">
        <ele>110.08</ele>
        <time>2021-03-20T22:23:10Z</time>
      </trkpt>
      <trkpt lat="57.63633" lon="-4.67755">
        <ele>109.2</ele>
        <time>2021-03-20T22:23:18Z</time>
      </trkpt>
      <trkpt lat="57.63667" lon="-4.67719">
        <ele>107.24</ele>
        <time>2021-03-20T22:23:26Z</time>
      </trkpt>
      <trkpt lat="57.63695" lon="-4.67696">
        <ele>110.97</ele>
        <time>2021-03-20T22:23:33Z</time>
      </trkpt>
      <trkpt lat="57.63713" lon="-4.67685">
        <ele>114.71</ele>
        <time>2021-03-20T22:23:41Z</time>
      </trkpt>
      <trkpt lat="57.63741" lon="-4.67674">
        <ele>117.92</ele>
        <time>2021-03-20T22:23:49Z</time>
      </trkpt>
      <trkpt lat="57.63778" lon="-4.67667">
        <ele>118.99</ele>
        <time>2021-03-20T22:23:57Z</time>
      </trkpt>
      <trkpt lat="57.63843" lon="-4.67677">
        <ele>120.52</ele>
        <time>2021-03-20T22:24:05Z</time>
      </trkpt>
      <trkpt lat="57.63892" lon="-4.67701">
        <ele>122.75</ele>
        <time>2021-03-20T22:24:13Z</time>
      </trkpt>
      <trkpt lat="57.642" lon="-4.67941">
        <ele>123.06</ele>
        <time>2021-03-20T22:24:20Z</time>
      </trkpt>
      <trkpt lat="57.64398" lon="-4.68071">
        <ele>122.86</ele>
        <time>2021-03-20T22:24:28Z</time>
      </trkpt>
      <trkpt lat="57.64596" lon="-4.68163">
        <ele>122.85</ele>
        <time>2021-03-20T22:24:36Z</time>
      </trkpt>
      <trkpt lat="57.64659" lon="-4.6818">
        <ele>122.78</ele>
        <time>2021-03-20T22:24:44Z</time>
      </trkpt>
      <trkpt lat="57.64731" lon="-4.68188">
        <ele>123.52</ele>
        <time>2021-03-20T22:24:52Z</time>
      </trkpt>
      <trkpt lat="57.64912" lon="-4.68167">
        <ele>125.96</ele>
        <time>2021-03-20T22:24:59Z</time>
      </trkpt>
      <trkpt lat="57.65281" lon="-4.6798">
        <ele>127.23</ele>
        <time>2021-03-20T22:25:07Z</time>
      </trkpt>
      <trkpt lat="57.65639" lon="-4.67788">
        <ele>132</ele>
        <time>2021-03-20T22:25:15Z</time>
      </trkpt>
      <trkpt lat="57.66028" lon="-4.67586">
        <ele>135.72</ele>
        <time>2021-03-20T22:25:23Z</time>
      </trkpt>
      <trkpt lat="57.66028" lon="-4.67586">
        <ele>135.72</ele>
        <time>2021-03-20T22:25:23Z</time>
      </trkpt>
      <trkpt lat="57.66111" lon="-4.67541">
        <ele>137.01</ele>
        <time>2021-03-20T22:25:28Z</time>
      </trkpt>
      <trkpt lat="57.66169" lon="-4.67498">
        <ele>136.08</ele>
        <time>2021-03-20T22:25:33Z</time>
      </trkpt>
      <trkpt lat="57.66222" lon="-4.67448">
        <ele>137.87</ele>
        <time>2021-03-20T22:25:37Z</time>
      </trkpt>
      <trkpt lat="57.66269" lon="-4.67377">
        <ele>140</ele>
        <time>2021-03-20T22:25:42Z</time>
      </trkpt>
      <trkpt lat="57.66337" lon="-4.67232">
        <ele>141.54</ele>
        <time>2021-03-20T22:25:47Z</time>
      </trkpt>
      <trkpt lat="57.66393" lon="-4.67082">
        <ele>143.05</ele>
        <time>2021-03-20T22:25:52Z</time>
      </trkpt>
      <trkpt lat="57.66459" lon="-4.6694">
        <ele>144.19</ele>
        <time>2021-03-20T22:25:57Z</time>
      </trkpt>
      <trkpt lat="57.66529" lon="-4.66817">
        <ele>145.57</ele>
        <time>2021-03-20T22:26:02Z</time>
      </trkpt>
      <trkpt lat="57.66614" lon="-4.66683">
        <ele>144.33</ele>
        <time>2021-03-20T22:26:06Z</time>
      </trkpt>
      <trkpt lat="57.66689" lon="-4.66548">
        <ele>146.76</ele>
        <time>2021-03-20T22:26:11Z</time>
      </trkpt>
      <trkpt lat="57.66741" lon="-4.6647">
        <ele>146.07</ele>
        <time>2021-03-20T22:26:16Z</time>
      </trkpt>
      <trkpt lat="57.66767" lon="-4.66436">
        <ele>146.44</ele>
        <time>2021-03-20T22:26:21Z</time>
      </trkpt>
      <trkpt lat="57.66793" lon="-4.6641">
        <ele>146.82</ele>
        <time>2021-03-20T22:26:26Z</time>
      </trkpt>
      <trkpt lat="57.66859" lon="-4.66378">
        <ele>147.17</ele>
        <time>2021-03-20T22:26:31Z</time>
      </trkpt>
      <trkpt lat="57.66915" lon="-4.6637">
        <ele>148.1</ele>
        <time>2021-03-20T22:26:35Z</time>
      </trkpt>
      <trkpt lat="57.66967" lon="-4.66381">
        <ele>146.55</ele>
        <time>2021-03-20T22:26:40Z</time>
      </trkpt>
      <trkpt lat="57.67117" lon="-4.66427">
        <ele>146.83</ele>
        <time>2021-03-20T22:26:45Z</time>
      </trkpt>
      <trkpt lat="57.67173" lon="-4.66438">
        <ele>148.41</ele>
        <time>2021-03-20T22:26:50Z</time>
      </trkpt>
      <trkpt lat="57.67205" lon="-4.6644">
        <ele>149</ele>
        <time>2021-03-20T22:26:55Z</time>
      </trkpt>
      <trkpt lat="57.67215" lon="-4.66439">
        <ele>149</ele>
        <time>2021-03-20T22:27:00Z</time>
      </trkpt>
      <trkpt lat="57.67291" lon="-4.66417">
        <ele>149.01</ele>
        <time>2021-03-20T22:27:04Z</time>
      </trkpt>
      <trkpt lat="57.67349" lon="-4.66397">
        <ele>148.71</ele>
        <time>2021-03-20T22:27:09Z</time>
      </trkpt>
      <trkpt lat="57.67454" lon="-4.66378">
        <ele>151</ele>
        <time>2021-03-20T22:27:14Z</time>
      </trkpt>
      <trkpt lat="57.67535" lon="-4.66394">
        <ele>150.8</ele>
        <time>2021-03-20T22:27:19Z</time>
      </trkpt>
      <trkpt lat="57.67608" lon="-4.66446">
        <ele>149.84</ele>
        <time>2021-03-20T22:27:24Z</time>
      </trkpt>
      <trkpt lat="57.67705" lon="-4.66523">
        <ele>151.54</ele>
        <time>2021-03-20T22:27:29Z</time>
      </trkpt>
      <trkpt lat="57.67777" lon="-4.66589">
        <ele>152.75</ele>
        <time>2021-03-20T22:27:34Z</time>
      </trkpt>
      <trkpt lat="57.67832" lon="-4.66653">
        <ele>152.41</ele>
        <time>2021-03-20T22:27:38Z</time>
      </trkpt>
      <trkpt lat="57.67897" lon="-4.66749">
        <ele>153.87</ele>
        <time>2021-03-20T22:27:43Z</time>
      </trkpt>
      <trkpt lat="57.67948" lon="-4.66849">
        <ele>155.98</ele>
        <time>2021-03-20T22:27:48Z</time>
      </trkpt>
      <trkpt lat="57.6819" lon="-4.67387">
        <ele>157.6</ele>
        <time>2021-03-20T22:27:53Z</time>
      </trkpt>
      <trkpt lat="57.68205" lon="-4.67423">
        <ele>157.86</ele>
        <time>2021-03-20T22:27:58Z</time>
      </trkpt>
      <trkpt lat="57.68353" lon="-4.67754">
        <ele>159</ele>
        <time>2021-03-20T22:28:03Z</time>
      </trkpt>
      <trkpt lat="57.68431" lon="-4.67914">
        <ele>162.15</ele>
        <time>2021-03-20T22:28:07Z</time>
      </trkpt>
      <trkpt lat="57.68507" lon="-4.68058">
        <ele>164.53</ele>
        <time>2021-03-20T22:28:12Z</time>
      </trkpt>
      <trkpt lat="57.6853" lon="-4.68138">
        <ele>166.5</ele>
        <time>2021-03-20T22:28:17Z</time>
      </trkpt>
      <trkpt lat="57.68671" lon="-4.68773">
        <ele>169</ele>
        <time>2021-03-20T22:28:22Z</time>
      </trkpt>
      <trkpt lat="57.68682" lon="-4.68827">
        <ele>169.57</ele>
        <time>2021-03-20T22:28:27Z</time>
      </trkpt>
      <trkpt lat="57.68697" lon="-4.6891">
        <ele>170.1</ele>
        <time>2021-03-20T22:28:32Z</time>
      </trkpt>
      <trkpt lat="57.68712" lon="-4.69033">
        <ele>171.73</ele>
        <time>2021-03-20T22:28:36Z</time>
      </trkpt>
      <trkpt lat="57.68713" lon="-4.69168">
        <ele>175.01</ele>
        <time>2021-03-20T22:28:41Z</time>
      </trkpt>
      <trkpt lat="57.68706" lon="-4.69332">
        <ele>177.28</ele>
        <time>2021-03-20T22:28:46Z</time>
      </trkpt>
      <trkpt lat="57.68695" lon="-4.69505">
        <ele>179.09</ele>
        <time>2021-03-20T22:28:51Z</time>
      </trkpt>
      <trkpt lat="57.68693" lon="-4.69652">
        <ele>177.8</ele>
        <time>2021-03-20T22:28:56Z</time>
      </trkpt>
      <trkpt lat="57.68695" lon="-4.69834">
        <ele>180.01</ele>
        <time>2021-03-20T22:29:01Z</time>
      </trkpt>
      <trkpt lat="57.68709" lon="-4.69923">
        <ele>180.52</ele>
        <time>2021-03-20T22:29:05Z</time>
      </trkpt>
      <trkpt lat="57.68742" lon="-4.70052">
        <ele>181.3</ele>
        <time>2021-03-20T22:29:10Z</time>
      </trkpt>
      <trkpt lat="57.68786" lon="-4.70195">
        <ele>182</ele>
        <time>2021-03-20T22:29:15Z</time>
      </trkpt>
      <trkpt lat="57.6883" lon="-4.70301">
        <ele>182.98</ele>
        <time>2021-03-20T22:29:20Z</time>
      </trkpt>
      <trkpt lat="57.68896" lon="-4.70429">
        <ele>184.24</ele>
        <time>2021-03-20T22:29:25Z</time>
      </trkpt>
      <trkpt lat="57.68947" lon="-4.7052">
        <ele>185.12</ele>
        <time>2021-03-20T22:29:30Z</time>
      </trkpt>
      <trkpt lat="57.69012" lon="-4.70627">
        <ele>186.27</ele>
        <time>2021-03-20T22:29:35Z</time>
      </trkpt>
      <trkpt lat="57.69072" lon="-4.70713">
        <ele>187.82</ele>
        <time>2021-03-20T22:29:39Z</time>
      </trkpt>
      <trkpt lat="57.6914" lon="-4.70822">
        <ele>189.44</ele>
        <time>2021-03-20T22:29:44Z</time>
      </trkpt>
      <trkpt lat="57.69208" lon="-4.70965">
        <ele>190.08</ele>
        <time>2021-03-20T22:29:49Z</time>
      </trkpt>
      <trkpt lat="57.69304" lon="-4.71254">
        <ele>193.74</ele>
        <time>2021-03-20T22:29:54Z</time>
      </trkpt>
      <trkpt lat="57.69347" lon="-4.71391">
        <ele>194.32</ele>
        <time>2021-03-20T22:29:59Z</time>
      </trkpt>
      <trkpt lat="57.69402" lon="-4.71498">
        <ele>197.51</ele>
        <time>2021-03-20T22:30:04Z</time>
      </trkpt>
      <trkpt lat="57.69571" lon="-4.71786">
        <ele>197.53</ele>
        <time>2021-03-20T22:30:08Z</time>
      </trkpt>
      <trkpt lat="57.69632" lon="-4.71895">
        <ele>200.11</ele>
        <time>2021-03-20T22:30:13Z</time>
      </trkpt>
      <trkpt lat="57.69685" lon="-4.72016">
        <ele>201.71</ele>
        <time>2021-03-20T22:30:18Z</time>
      </trkpt>
      <trkpt lat="57.69722" lon="-4.72155">
        <ele>202</ele>
        <time>2021-03-20T22:30:23Z</time>
      </trkpt>
      <trkpt lat="57.69758" lon="-4.72315">
        <ele>202.29</ele>
        <time>2021-03-20T22:30:28Z</time>
      </trkpt>
      <trkpt lat="57.69778" lon="-4.72471">
        <ele>203.99</ele>
        <time>2021-03-20T22:30:33Z</time>
      </trkpt>
      <trkpt lat="57.69785" lon="-4.72613">
        <ele>205.76</ele>
        <time>2021-03-20T22:30:37Z</time>
      </trkpt>
      <trkpt lat="57.69784" lon="-4.72785">
        <ele>207.48</ele>
        <time>2021-03-20T22:30:42Z</time>
      </trkpt>
      <trkpt lat="57.69775" lon="-4.72918">
        <ele>207.83</ele>
        <time>2021-03-20T22:30:47Z</time>
      </trkpt>
      <trkpt lat="57.69756" lon="-4.7306">
        <ele>207.08</ele>
        <time>2021-03-20T22:30:52Z</time>
      </trkpt>
      <trkpt lat="57.69739" lon="-4.73158">
        <ele>206.41</ele>
        <time>2021-03-20T22:30:57Z</time>
      </trkpt>
      <trkpt lat="57.69704" lon="-4.73312">
        <ele>209.65</ele>
        <time>2021-03-20T22:31:02Z</time>
      </trkpt>
      <trkpt lat="57.69646" lon="-4.73525">
        <ele>212.84</ele>
        <time>2021-03-20T22:31:06Z</time>
      </trkpt>
      <trkpt lat="57.69604" lon="-4.73617">
        <ele>212.33</ele>
        <time>2021-03-20T22:31:11Z</time>
      </trkpt>
      <trkpt lat="57.69452" lon="-4.73817">
        <ele>211</ele>
        <time>2021-03-20T22:31:16Z</time>
      </trkpt>
      <trkpt lat="57.6938" lon="-4.73925">
        <ele>210.34</ele>
        <time>2021-03-20T22:31:21Z</time>
      </trkpt>
      <trkpt lat="57.69332" lon="-4.74018">
        <ele>210.43</ele>
        <time>2021-03-20T22:31:26Z</time>
      </trkpt>
      <trkpt lat="57.69302" lon="-4.74127">
        <ele>210.24</ele>
        <time>2021-03-20T22:31:31Z</time>
      </trkpt>
      <trkpt lat="57.69267" lon="-4.74349">
        <ele>212.38</ele>
        <time>2021-03-20T22:31:36Z</time>
      </trkpt>
      <trkpt lat="57.69259" lon="-4.74541">
        <ele>215.3</ele>
        <time>2021-03-20T22:31:40Z</time>
      </trkpt>
      <trkpt lat="57.69246" lon="-4.74652">
        <ele>216.8</ele>
        <time>2021-03-20T22:31:45Z</time>
      </trkpt>
      <trkpt lat="57.69223" lon="-4.74781">
        <ele>218.84</ele>
        <time>2021-03-20T22:31:50Z</time>
      </trkpt>
      <trkpt lat="57.69186" lon="-4.74953">
        <ele>220.41</ele>
        <time>2021-03-20T22:31:55Z</time>
      </trkpt>
      <trkpt lat="57.69163" lon="-4.75124">
        <ele>221.8</ele>
        <time>2021-03-20T22:32:00Z</time>
      </trkpt>
      <trkpt lat="57.69141" lon="-4.75458">
        <ele>226.35</ele>
        <time>2021-03-20T22:32:05Z</time>
      </trkpt>
      <trkpt lat="57.69143" lon="-4.75611">
        <ele>223.61</ele>
        <time>2021-03-20T22:32:09Z</time>
      </trkpt>
      <trkpt lat="57.69156" lon="-4.75744">
        <ele>224.56</ele>
        <time>2021-03-20T22:32:14Z</time>
      </trkpt>
      <trkpt lat="57.69174" lon="-4.75864">
        <ele>225.74</ele>
        <time>2021-03-20T22:32:19Z</time>
      </trkpt>
      <trkpt lat="57.69246" lon="-4.76292">
        <ele>227.24</ele>
        <time>2021-03-20T22:32:24Z</time>
      </trkpt>
      <trkpt lat="57.69303" lon="-4.76661">
        <ele>227.09</ele>
        <time>2021-03-20T22:32:29Z</time>
      </trkpt>
      <trkpt lat="57.69311" lon="-4.76729">
        <ele>228.04</ele>
        <time>2021-03-20T22:32:34Z</time>
      </trkpt>
      <trkpt lat="57.69314" lon="-4.76783">
        <ele>228.88</ele>
        <time>2021-03-20T22:32:38Z</time>
      </trkpt>
      <trkpt lat="57.69313" lon="-4.76847">
        <ele>229.73</ele>
        <time>2021-03-20T22:32:43Z</time>
      </trkpt>
      <trkpt lat="57.69308" lon="-4.76898">
        <ele>230.21</ele>
        <time>2021-03-20T22:32:48Z</time>
      </trkpt>
      <trkpt lat="57.69298" lon="-4.76952">
        <ele>231.81</ele>
        <time>2021-03-20T22:32:53Z</time>
      </trkpt>
      <trkpt lat="57.69264" lon="-4.77082">
        <ele>235.48</ele>
        <time>2021-03-20T22:32:58Z</time>
      </trkpt>
      <trkpt lat="57.69255" lon="-4.77137">
        <ele>235.81</ele>
        <time>2021-03-20T22:33:03Z</time>
      </trkpt>
      <trkpt lat="57.69249" lon="-4.77222">
        <ele>237.08</ele>
        <time>2021-03-20T22:33:07Z</time>
      </trkpt>
      <trkpt lat="57.69254" lon="-4.77308">
        <ele>240.79</ele>
        <time>2021-03-20T22:33:12Z</time>
      </trkpt>
      <trkpt lat="57.69273" lon="-4.77407">
        <ele>243.67</ele>
        <time>2021-03-20T22:33:17Z</time>
      </trkpt>
      <trkpt lat="57.69299" lon="-4.77492">
        <ele>244.87</ele>
        <time>2021-03-20T22:33:22Z</time>
      </trkpt>
      <trkpt lat="57.69314" lon="-4.77571">
        <ele>245.35</ele>
        <time>2021-03-20T22:33:27Z</time>
      </trkpt>
      <trkpt lat="57.69319" lon="-4.77647">
        <ele>247.82</ele>
        <time>2021-03-20T22:33:32Z</time>
      </trkpt>
      <trkpt lat="57.69317" lon="-4.77832">
        <ele>255.72</ele>
        <time>2021-03-20T22:33:37Z</time>
      </trkpt>
      <trkpt lat="57.69321" lon="-4.77881">
        <ele>256.69</ele>
        <time>2021-03-20T22:33:41Z</time>
      </trkpt>
      <trkpt lat="57.69332" lon="-4.77941">
        <ele>258.04</ele>
        <time>2021-03-20T22:33:46Z</time>
      </trkpt>
      <trkpt lat="57.69371" lon="-4.78077">
        <ele>258.95</ele>
        <time>2021-03-20T22:33:51Z</time>
      </trkpt>
      <trkpt lat="57.69389" lon="-4.78188">
        <ele>258.94</ele>
        <time>2021-03-20T22:33:56Z</time>
      </trkpt>
      <trkpt lat="57.6942" lon="-4.78307">
        <ele>260.89</ele>
        <time>2021-03-20T22:34:01Z</time>
      </trkpt>
      <trkpt lat="57.69453" lon="-4.78413">
        <ele>256.8</ele>
        <time>2021-03-20T22:34:06Z</time>
      </trkpt>
      <trkpt lat="57.69465" lon="-4.78474">
        <ele>256.37</ele>
        <time>2021-03-20T22:34:10Z</time>
      </trkpt>
      <trkpt lat="57.69472" lon="-4.78535">
        <ele>256.3</ele>
        <time>2021-03-20T22:34:15Z</time>
      </trkpt>
      <trkpt lat="57.69472" lon="-4.78654">
        <ele>259.03</ele>
        <time>2021-03-20T22:34:20Z</time>
      </trkpt>
      <trkpt lat="57.69478" lon="-4.78758">
        <ele>259.55</ele>
        <time>2021-03-20T22:34:25Z</time>
      </trkpt>
      <trkpt lat="57.69498" lon="-4.78853">
        <ele>262.21</ele>
        <time>2021-03-20T22:34:30Z</time>
      </trkpt>
      <trkpt lat="57.69519" lon="-4.7897">
        <ele>259.31</ele>
        <time>2021-03-20T22:34:35Z</time>
      </trkpt>
      <trkpt lat="57.6953" lon="-4.79107">
        <ele>256.61</ele>
        <time>2021-03-20T22:34:39Z</time>
      </trkpt>
      <trkpt lat="57.69563" lon="-4.79424">
        <ele>257.23</ele>
        <time>2021-03-20T22:34:44Z</time>
      </trkpt>
      <trkpt lat="57.69576" lon="-4.79501">
        <ele>256.83</ele>
        <time>2021-03-20T22:34:49Z</time>
      </trkpt>
      <trkpt lat="57.69594" lon="-4.79563">
        <ele>257.12</ele>
        <time>2021-03-20T22:34:54Z</time>
      </trkpt>
      <trkpt lat="57.69635" lon="-4.79691">
        <ele>258.23</ele>
        <time>2021-03-20T22:34:59Z</time>
      </trkpt>
      <trkpt lat="57.69688" lon="-4.79969">
        <ele>258.79</ele>
        <time>2021-03-20T22:35:04Z</time>
      </trkpt>
      <trkpt lat="57.69733" lon="-4.80122">
        <ele>261.23</ele>
        <time>2021-03-20T22:35:08Z</time>
      </trkpt>
      <trkpt lat="57.69804" lon="-4.80327">
        <ele>259.99</ele>
        <time>2021-03-20T22:35:13Z</time>
      </trkpt>
      <trkpt lat="57.69897" lon="-4.80678">
        <ele>263.34</ele>
        <time>2021-03-20T22:35:18Z</time>
      </trkpt>
      <trkpt lat="57.69963" lon="-4.80878">
        <ele>266.18</ele>
        <time>2021-03-20T22:35:23Z</time>
      </trkpt>
      <trkpt lat="57.70012" lon="-4.81072">
        <ele>267.15</ele>
        <time>2021-03-20T22:35:28Z</time>
      </trkpt>
      <trkpt lat="57.70038" lon="-4.81152">
        <ele>270.15</ele>
        <time>2021-03-20T22:35:33Z</time>
      </trkpt>
      <trkpt lat="57.70179" lon="-4.81557">
        <ele>261.48</ele>
        <time>2021-03-20T22:35:38Z</time>
      </trkpt>
      <trkpt lat="57.70218" lon="-4.81673">
        <ele>261.39</ele>
        <time>2021-03-20T22:35:42Z</time>
      </trkpt>
      <trkpt lat="57.70301" lon="-4.81931">
        <ele>257.33</ele>
        <time>2021-03-20T22:35:47Z</time>
      </trkpt>
      <trkpt lat="57.70356" lon="-4.82077">
        <ele>258.71</ele>
        <time>2021-03-20T22:35:52Z</time>
      </trkpt>
      <trkpt lat="57.70412" lon="-4.8226">
        <ele>257.84</ele>
        <time>2021-03-20T22:35:57Z</time>
      </trkpt>
      <trkpt lat="57.70483" lon="-4.82441">
        <ele>258.12</ele>
        <time>2021-03-20T22:36:02Z</time>
      </trkpt>
      <trkpt lat="57.70519" lon="-4.82561">
        <ele>259.24</ele>
        <time>2021-03-20T22:36:07Z</time>
      </trkpt>
      <trkpt lat="57.70561" lon="-4.82707">
        <ele>260.63</ele>
        <time>2021-03-20T22:36:11Z</time>
      </trkpt>
      <trkpt lat="57.70599" lon="-4.82823">
        <ele>259.54</ele>
        <time>2021-03-20T22:36:16Z</time>
      </trkpt>
      <trkpt lat="57.70631" lon="-4.82894">
        <ele>260.85</ele>
        <time>2021-03-20T22:36:21Z</time>
      </trkpt>
      <trkpt lat="57.70727" lon="-4.83046">
        <ele>258.33</ele>
        <time>2021-03-20T22:36:26Z</time>
      </trkpt>
      <trkpt lat="57.70772" lon="-4.83132">
        <ele>258.36</ele>
        <time>2021-03-20T22:36:31Z</time>
      </trkpt>
      <trkpt lat="57.70807" lon="-4.83227">
        <ele>257.29</ele>
        <time>2021-03-20T22:36:36Z</time>
      </trkpt>
      <trkpt lat="57.70854" lon="-4.83409">
        <ele>259.51</ele>
        <time>2021-03-20T22:36:40Z</time>
      </trkpt>
      <trkpt lat="57.70899" lon="-4.83553">
        <ele>260.23</ele>
        <time>2021-03-20T22:36:45Z</time>
      </trkpt>
      <trkpt lat="57.70952" lon="-4.8369">
        <ele>259.7</ele>
        <time>2021-03-20T22:36:50Z</time>
      </trkpt>
      <trkpt lat="57.71007" lon="-4.8381">
        <ele>258.76</ele>
        <time>2021-03-20T22:36:55Z</time>
      </trkpt>
      <trkpt lat="57.71063" lon="-4.83946">
        <ele>258.5</ele>
        <time>2021-03-20T22:37:00Z</time>
      </trkpt>
      <trkpt lat="57.71179" lon="-4.84246">
        <ele>258.53</ele>
        <time>2021-03-20T22:37:05Z</time>
      </trkpt>
      <trkpt lat="57.71217" lon="-4.84365">
        <ele>257.85</ele>
        <time>2021-03-20T22:37:10Z</time>
      </trkpt>
      <trkpt lat="57.71217" lon="-4.84365">
        <ele>257.85</ele>
        <time>2021-03-20T22:37:10Z</time>
      </trkpt>
      <trkpt lat="57.71234" lon="-4.84417">
        <ele>257.16</ele>
        <time>2021-03-20T22:37:16Z</time>
      </trkpt>
      <trkpt lat="57.71344" lon="-4.84841">
        <ele>257.49</ele>
        <time>2021-03-20T22:37:22Z</time>
      </trkpt>
      <trkpt lat="57.71374" lon="-4.84951">
        <ele>258.14</ele>
        <time>2021-03-20T22:37:28Z</time>
      </trkpt>
      <trkpt lat="57.71418" lon="-4.85086">
        <ele>256.95</ele>
        <time>2021-03-20T22:37:34Z</time>
      </trkpt>
      <trkpt lat="57.7147" lon="-4.85227">
        <ele>257.35</ele>
        <time>2021-03-20T22:37:40Z</time>
      </trkpt>
      <trkpt lat="57.7151" lon="-4.85323">
        <ele>257.52</ele>
        <time>2021-03-20T22:37:46Z</time>
      </trkpt>
      <trkpt lat="57.71617" lon="-4.85543">
        <ele>262.31</ele>
        <time>2021-03-20T22:37:53Z</time>
      </trkpt>
      <trkpt lat="57.71639" lon="-4.85611">
        <ele>263.96</ele>
        <time>2021-03-20T22:37:59Z</time>
      </trkpt>
      <trkpt lat="57.71658" lon="-4.85709">
        <ele>262.54</ele>
        <time>2021-03-20T22:38:05Z</time>
      </trkpt>
      <trkpt lat="57.71663" lon="-4.85808">
        <ele>263.73</ele>
        <time>2021-03-20T22:38:11Z</time>
      </trkpt>
      <trkpt lat="57.71651" lon="-4.85931">
        <ele>265.36</ele>
        <time>2021-03-20T22:38:17Z</time>
      </trkpt>
      <trkpt lat="57.71626" lon="-4.86145">
        <ele>262.26</ele>
        <time>2021-03-20T22:38:23Z</time>
      </trkpt>
      <trkpt lat="57.71614" lon="-4.86301">
        <ele>263.83</ele>
        <time>2021-03-20T22:38:30Z</time>
      </trkpt>
      <trkpt lat="57.71615" lon="-4.86424">
        <ele>264.96</ele>
        <time>2021-03-20T22:38:36Z</time>
      </trkpt>
      <trkpt lat="57.71628" lon="-4.86537">
        <ele>264</ele>
        <time>2021-03-20T22:38:42Z</time>
      </trkpt>
      <trkpt lat="57.7164" lon="-4.86595">
        <ele>263</ele>
        <time>2021-03-20T22:38:48Z</time>
      </trkpt>
      <trkpt lat="57.71669" lon="-4.86705">
        <ele>262</ele>
        <time>2021-03-20T22:38:54Z</time>
      </trkpt>
      <trkpt lat="57.71736" lon="-4.86892">
        <ele>262.14</ele>
        <time>2021-03-20T22:39:00Z</time>
      </trkpt>
      <trkpt lat="57.71841" lon="-4.87235">
        <ele>259.29</ele>
        <time>2021-03-20T22:39:06Z</time>
      </trkpt>
      <trkpt lat="57.71896" lon="-4.87404">
        <ele>255.96</ele>
        <time>2021-03-20T22:39:13Z</time>
      </trkpt>
      <trkpt lat="57.71952" lon="-4.87537">
        <ele>257.52</ele>
        <time>2021-03-20T22:39:19Z</time>
      </trkpt>
      <trkpt lat="57.72017" lon="-4.87666">
        <ele>257.77</ele>
        <time>2021-03-20T22:39:25Z</time>
      </trkpt>
      <trkpt lat="57.72121" lon="-4.87862">
        <ele>261</ele>
        <time>2021-03-20T22:39:31Z</time>
      </trkpt>
      <trkpt lat="57.72162" lon="-4.87956">
        <ele>260.42</ele>
        <time>2021-03-20T22:39:37Z</time>
      </trkpt>
      <trkpt lat="57.72194" lon="-4.88093">
        <ele>261</ele>
        <time>2021-03-20T22:39:43Z</time>
      </trkpt>
      <trkpt lat="57.7222" lon="-4.88274">
        <ele>261</ele>
        <time>2021-03-20T22:39:49Z</time>
      </trkpt>
      <trkpt lat="57.72278" lon="-4.88698">
        <ele>262.98</ele>
        <time>2021-03-20T22:39:56Z</time>
      </trkpt>
      <trkpt lat="57.72309" lon="-4.88883">
        <ele>262.78</ele>
        <time>2021-03-20T22:40:02Z</time>
      </trkpt>
      <trkpt lat="57.72347" lon="-4.89023">
        <ele>261.5</ele>
        <time>2021-03-20T22:40:08Z</time>
      </trkpt>
      <trkpt lat="57.72434" lon="-4.89227">
        <ele>263.5</ele>
        <time>2021-03-20T22:40:14Z</time>
      </trkpt>
      <trkpt lat="57.72502" lon="-4.89402">
        <ele>266.07</ele>
        <time>2021-03-20T22:40:20Z</time>
      </trkpt>
      <trkpt lat="57.72588" lon="-4.89647">
        <ele>273.17</ele>
        <time>2021-03-20T22:40:26Z</time>
      </trkpt>
      <trkpt lat="57.72657" lon="-4.89861">
        <ele>277.3</ele>
        <time>2021-03-20T22:40:32Z</time>
      </trkpt>
      <trkpt lat="57.72712" lon="-4.90085">
        <ele>278.23</ele>
        <time>2021-03-20T22:40:39Z</time>
      </trkpt>
      <trkpt lat="57.72762" lon="-4.90305">
        <ele>278.92</ele>
        <time>2021-03-20T22:40:45Z</time>
      </trkpt>
      <trkpt lat="57.72808" lon="-4.90476">
        <ele>280.04</ele>
        <time>2021-03-20T22:40:51Z</time>
      </trkpt>
      <trkpt lat="57.72922" lon="-4.90829">
        <ele>278.66</ele>
        <time>2021-03-20T22:40:57Z</time>
      </trkpt>
      <trkpt lat="57.72959" lon="-4.90927">
        <ele>277.87</ele>
        <time>2021-03-20T22:41:03Z</time>
      </trkpt>
      <trkpt lat="57.73032" lon="-4.91053">
        <ele>277.83</ele>
        <time>2021-03-20T22:41:09Z</time>
      </trkpt>
      <trkpt lat="57.73072" lon="-4.91129">
        <ele>277.72</ele>
        <time>2021-03-20T22:41:15Z</time>
      </trkpt>
      <trkpt lat="57.73203" lon="-4.9144">
        <ele>278.46</ele>
        <time>2021-03-20T22:41:22Z</time>
      </trkpt>
      <trkpt lat="57.73257" lon="-4.91594">
        <ele>278.19</ele>
        <time>2021-03-20T22:41:28Z</time>
      </trkpt>
      <trkpt lat="57.73298" lon="-4.91749">
        <ele>275.49</ele>
        <time>2021-03-20T22:41:34Z</time>
      </trkpt>
      <trkpt lat="57.73376" lon="-4.92144">
        <ele>273.44</ele>
        <time>2021-03-20T22:41:40Z</time>
      </trkpt>
      <trkpt lat="57.73421" lon="-4.92413">
        <ele>271.17</ele>
        <time>2021-03-20T22:41:46Z</time>
      </trkpt>
      <trkpt lat="57.73536" lon="-4.9313">
        <ele>275.3</ele>
        <time>2021-03-20T22:41:52Z</time>
      </trkpt>
      <trkpt lat="57.73548" lon="-4.93229">
        <ele>276.74</ele>
        <time>2021-03-20T22:41:59Z</time>
      </trkpt>
      <trkpt lat="57.73554" lon="-4.93357">
        <ele>276.07</ele>
        <time>2021-03-20T22:42:05Z</time>
      </trkpt>
      <trkpt lat="57.73555" lon="-4.93478">
        <ele>278.14</ele>
        <time>2021-03-20T22:42:11Z</time>
      </trkpt>
      <trkpt lat="57.73552" lon="-4.93635">
        <ele>275.77</ele>
        <time>2021-03-20T22:42:17Z</time>
      </trkpt>
      <trkpt lat="57.73547" lon="-4.93798">
        <ele>276.12</ele>
        <time>2021-03-20T22:42:23Z</time>
      </trkpt>
      <trkpt lat="57.7356" lon="-4.93981">
        <ele>276.44</ele>
        <time>2021-03-20T22:42:29Z</time>
      </trkpt>
      <trkpt lat="57.73583" lon="-4.94153">
        <ele>277.97</ele>
        <time>2021-03-20T22:42:35Z</time>
      </trkpt>
      <trkpt lat="57.73604" lon="-4.94375">
        <ele>277.26</ele>
        <time>2021-03-20T22:42:42Z</time>
      </trkpt>
      <trkpt lat="57.73711" lon="-4.95346">
        <ele>271.73</ele>
        <time>2021-03-20T22:42:48Z</time>
      </trkpt>
      <trkpt lat="57.73775" lon="-4.95964">
        <ele>267.2</ele>
        <time>2021-03-20T22:42:54Z</time>
      </trkpt>
      <trkpt lat="57.73805" lon="-4.96306">
        <ele>260.99</ele>
        <time>2021-03-20T22:43:00Z</time>
      </trkpt>
      <trkpt lat="57.73835" lon="-4.96453">
        <ele>261.16</ele>
        <time>2021-03-20T22:43:06Z</time>
      </trkpt>
      <trkpt lat="57.73933" lon="-4.96873">
        <ele>258.16</ele>
        <time>2021-03-20T22:43:12Z</time>
      </trkpt>
      <trkpt lat="57.7399" lon="-4.97097">
        <ele>257.3</ele>
        <time>2021-03-20T22:43:18Z</time>
      </trkpt>
      <trkpt lat="57.74043" lon="-4.97236">
        <ele>255.51</ele>
        <time>2021-03-20T22:43:25Z</time>
      </trkpt>
      <trkpt lat="57.74108" lon="-4.97371">
        <ele>252.54</ele>
        <time>2021-03-20T22:43:31Z</time>
      </trkpt>
      <trkpt lat="57.74265" lon="-4.97595">
        <ele>248</ele>
        <time>2021-03-20T22:43:37Z</time>
      </trkpt>
      <trkpt lat="57.74345" lon="-4.97686">
        <ele>247.84</ele>
        <time>2021-03-20T22:43:43Z</time>
      </trkpt>
      <trkpt lat="57.7454" lon="-4.9793">
        <ele>238.72</ele>
        <time>2021-03-20T22:43:49Z</time>
      </trkpt>
      <trkpt lat="57.7459" lon="-4.98007">
        <ele>235.28</ele>
        <time>2021-03-20T22:43:55Z</time>
      </trkpt>
      <trkpt lat="57.74641" lon="-4.98101">
        <ele>235.52</ele>
        <time>2021-03-20T22:44:01Z</time>
      </trkpt>
      <trkpt lat="57.747" lon="-4.98247">
        <ele>235.85</ele>
        <time>2021-03-20T22:44:08Z</time>
      </trkpt>
      <trkpt lat="57.7476" lon="-4.9841">
        <ele>232.03</ele>
        <time>2021-03-20T22:44:14Z</time>
      </trkpt>
      <trkpt lat="57.74843" lon="-4.98644">
        <ele>224.19</ele>
        <time>2021-03-20T22:44:20Z</time>
      </trkpt>
      <trkpt lat="57.74907" lon="-4.98839">
        <ele>220.29</ele>
        <time>2021-03-20T22:44:26Z</time>
      </trkpt>
      <trkpt lat="57.74962" lon="-4.99066">
        <ele>214.77</ele>
        <time>2021-03-20T22:44:32Z</time>
      </trkpt>
      <trkpt lat="57.75006" lon="-4.99327">
        <ele>214.23</ele>
        <time>2021-03-20T22:44:38Z</time>
      </trkpt>
      <trkpt lat="57.75058" lon="-4.99612">
        <ele>212.05</ele>
        <time>2021-03-20T22:44:44Z</time>
      </trkpt>
      <trkpt lat="57.75098" lon="-4.99877">
        <ele>207</ele>
        <time>2021-03-20T22:44:51Z</time>
      </trkpt>
      <trkpt lat="57.75191" lon="-5.0042">
        <ele>196.49</ele>
        <time>2021-03-20T22:44:57Z</time>
      </trkpt>
      <trkpt lat="57.75233" lon="-5.00759">
        <ele>190.74</ele>
        <time>2021-03-20T22:45:03Z</time>
      </trkpt>
      <trkpt lat="57.75262" lon="-5.00968">
        <ele>187.77</ele>
        <time>2021-03-20T22:45:09Z</time>
      </trkpt>
      <trkpt lat="57.75278" lon="-5.01077">
        <ele>185.31</ele>
        <time>2021-03-20T22:45:15Z</time>
      </trkpt>
      <trkpt lat="57.75307" lon="-5.01248">
        <ele>185.52</ele>
        <time>2021-03-20T22:45:21Z</time>
      </trkpt>
      <trkpt lat="57.75385" lon="-5.0148">
        <ele>172.94</ele>
        <time>2021-03-20T22:45:28Z</time>
      </trkpt>
      <trkpt lat="57.75487" lon="-5.01747">
        <ele>172.38</ele>
        <time>2021-03-20T22:45:34Z</time>
      </trkpt>
      <trkpt lat="57.75593" lon="-5.01994">
        <ele>171.2</ele>
        <time>2021-03-20T22:45:40Z</time>
      </trkpt>
      <trkpt lat="57.75712" lon="-5.02245">
        <ele>153.83</ele>
        <time>2021-03-20T22:45:46Z</time>
      </trkpt>
      <trkpt lat="57.7575" lon="-5.02316">
        <ele>151.41</ele>
        <time>2021-03-20T22:45:52Z</time>
      </trkpt>
      <trkpt lat="57.75808" lon="-5.02407">
        <ele>151.2</ele>
        <time>2021-03-20T22:45:58Z</time>
      </trkpt>
      <trkpt lat="57.75842" lon="-5.02444">
        <ele>150.46</ele>
        <time>2021-03-20T22:46:04Z</time>
      </trkpt>
      <trkpt lat="57.75897" lon="-5.02495">
        <ele>145.2</ele>
        <time>2021-03-20T22:46:11Z</time>
      </trkpt>
      <trkpt lat="57.75939" lon="-5.02554">
        <ele>137.81</ele>
        <time>2021-03-20T22:46:17Z</time>
      </trkpt>
      <trkpt lat="57.76019" lon="-5.02749">
        <ele>128.46</ele>
        <time>2021-03-20T22:46:23Z</time>
      </trkpt>
      <trkpt lat="57.76072" lon="-5.02868">
        <ele>125.06</ele>
        <time>2021-03-20T22:46:29Z</time>
      </trkpt>
      <trkpt lat="57.76132" lon="-5.02971">
        <ele>117.9</ele>
        <time>2021-03-20T22:46:35Z</time>
      </trkpt>
      <trkpt lat="57.76219" lon="-5.03071">
        <ele>106.39</ele>
        <time>2021-03-20T22:46:41Z</time>
      </trkpt>
      <trkpt lat="57.76252" lon="-5.03125">
        <ele>107.06</ele>
        <time>2021-03-20T22:46:47Z</time>
      </trkpt>
      <trkpt lat="57.76353" lon="-5.03273">
        <ele>102.34</ele>
        <time>2021-03-20T22:46:54Z</time>
      </trkpt>
      <trkpt lat="57.7644" lon="-5.03384">
        <ele>93.03</ele>
        <time>2021-03-20T22:47:00Z</time>
      </trkpt>
      <trkpt lat="57.76516" lon="-5.0347">
        <ele>84.34</ele>
        <time>2021-03-20T22:47:06Z</time>
      </trkpt>
      <trkpt lat="57.76565" lon="-5.03513">
        <ele>78.55</ele>
        <time>2021-03-20T22:47:12Z</time>
      </trkpt>
      <trkpt lat="57.76614" lon="-5.03538">
        <ele>75.78</ele>
        <time>2021-03-20T22:47:18Z</time>
      </trkpt>
      <trkpt lat="57.76723" lon="-5.03577">
        <ele>69.98</ele>
        <time>2021-03-20T22:47:24Z</time>
      </trkpt>
      <trkpt lat="57.76901" lon="-5.03655">
        <ele>61.3</ele>
        <time>2021-03-20T22:47:30Z</time>
      </trkpt>
      <trkpt lat="57.77113" lon="-5.03643">
        <ele>59.54</ele>
        <time>2021-03-20T22:47:37Z</time>
      </trkpt>
      <trkpt lat="57.77399" lon="-5.0362">
        <ele>48.01</ele>
        <time>2021-03-20T22:47:43Z</time>
      </trkpt>
      <trkpt lat="57.77623" lon="-5.03582">
        <ele>45.72</ele>
        <time>2021-03-20T22:47:49Z</time>
      </trkpt>
      <trkpt lat="57.77784" lon="-5.03583">
        <ele>47.46</ele>
        <time>2021-03-20T22:47:55Z</time>
      </trkpt>
      <trkpt lat="57.77863" lon="-5.0361">
        <ele>35.34</ele>
        <time>2021-03-20T22:48:01Z</time>
      </trkpt>
      <trkpt lat="57.77983" lon="-5.03642">
        <ele>40.08</ele>
        <time>2021-03-20T22:48:07Z</time>
      </trkpt>
      <trkpt lat="57.78115" lon="-5.03685">
        <ele>40.39</ele>
        <time>2021-03-20T22:48:13Z</time>
      </trkpt>
      <trkpt lat="57.78198" lon="-5.03714">
        <ele>40.89</ele>
        <time>2021-03-20T22:48:20Z</time>
      </trkpt>
      <trkpt lat="57.78282" lon="-5.03752">
        <ele>44.44</ele>
        <time>2021-03-20T22:48:26Z</time>
      </trkpt>
      <trkpt lat="57.78382" lon="-5.03827">
        <ele>38.52</ele>
        <time>2021-03-20T22:48:32Z</time>
      </trkpt>
      <trkpt lat="57.78454" lon="-5.03895">
        <ele>39.31</ele>
        <time>2021-03-20T22:48:38Z</time>
      </trkpt>
      <trkpt lat="57.78525" lon="-5.0395">
        <ele>42.13</ele>
        <time>2021-03-20T22:48:44Z</time>
      </trkpt>
      <trkpt lat="57.78655" lon="-5.04044">
        <ele>47.36</ele>
        <time>2021-03-20T22:48:50Z</time>
      </trkpt>
      <trkpt lat="57.78913" lon="-5.04251">
        <ele>42.28</ele>
        <time>2021-03-20T22:48:57Z</time>
      </trkpt>
      <trkpt lat="57.7904" lon="-5.04339">
        <ele>40.81</ele>
        <time>2021-03-20T22:49:03Z</time>
      </trkpt>
      <trkpt lat="57.79134" lon="-5.0442">
        <ele>35.29</ele>
        <time>2021-03-20T22:49:09Z</time>
      </trkpt>
      <trkpt lat="57.79198" lon="-5.04497">
        <ele>32.79</ele>
        <time>2021-03-20T22:49:15Z</time>
      </trkpt>
      <trkpt lat="57.79252" lon="-5.04579">
        <ele>31.7</ele>
        <time>2021-03-20T22:49:21Z</time>
      </trkpt>
      <trkpt lat="57.79302" lon="-5.0469">
        <ele>26.65</ele>
        <time>2021-03-20T22:49:27Z</time>
      </trkpt>
      <trkpt lat="57.79361" lon="-5.04845">
        <ele>26.57</ele>
        <time>2021-03-20T22:49:33Z</time>
      </trkpt>
      <trkpt lat="57.79495" lon="-5.05007">
        <ele>24.61</ele>
        <time>2021-03-20T22:49:40Z</time>
      </trkpt>
      <trkpt lat="57.79595" lon="-5.05114">
        <ele>24.85</ele>
        <time>2021-03-20T22:49:46Z</time>
      </trkpt>
      <trkpt lat="57.79746" lon="-5.05256">
        <ele>18.82</ele>
        <time>2021-03-20T22:49:52Z</time>
      </trkpt>
      <trkpt lat="57.79965" lon="-5.05453">
        <ele>17</ele>
        <time>2021-03-20T22:49:58Z</time>
      </trkpt>
      <trkpt lat="57.80072" lon="-5.0554">
        <ele>19.35</ele>
        <time>2021-03-20T22:50:04Z</time>
      </trkpt>
      <trkpt lat="57.80146" lon="-5.05576">
        <ele>18.76</ele>
        <time>2021-03-20T22:50:10Z</time>
      </trkpt>
      <trkpt lat="57.80211" lon="-5.05602">
        <ele>17.89</ele>
        <time>2021-03-20T22:50:16Z</time>
      </trkpt>
      <trkpt lat="57.80278" lon="-5.05625">
        <ele>17</ele>
        <time>2021-03-20T22:50:23Z</time>
      </trkpt>
      <trkpt lat="57.80344" lon="-5.05633">
        <ele>16.44</ele>
        <time>2021-03-20T22:50:29Z</time>
      </trkpt>
      <trkpt lat="57.80479" lon="-5.05591">
        <ele>17.32</ele>
        <time>2021-03-20T22:50:35Z</time>
      </trkpt>
      <trkpt lat="57.8057" lon="-5.05602">
        <ele>21.93</ele>
        <time>2021-03-20T22:50:41Z</time>
      </trkpt>
      <trkpt lat="57.80725" lon="-5.05656">
        <ele>20.9</ele>
        <time>2021-03-20T22:50:47Z</time>
      </trkpt>
      <trkpt lat="57.80821" lon="-5.05682">
        <ele>26.2</ele>
        <time>2021-03-20T22:50:53Z</time>
      </trkpt>
      <trkpt lat="57.80999" lon="-5.0574">
        <ele>16.07</ele>
        <time>2021-03-20T22:50:59Z</time>
      </trkpt>
      <trkpt lat="57.81129" lon="-5.05778">
        <ele>14.35</ele>
        <time>2021-03-20T22:51:06Z</time>
      </trkpt>
      <trkpt lat="57.81215" lon="-5.05808">
        <ele>17.83</ele>
        <time>2021-03-20T22:51:12Z</time>
      </trkpt>
      <trkpt lat="57.81304" lon="-5.0586">
        <ele>12.15</ele>
        <time>2021-03-20T22:51:18Z</time>
      </trkpt>
      <trkpt lat="57.81351" lon="-5.05895">
        <ele>11.01</ele>
        <time>2021-03-20T22:51:24Z</time>
      </trkpt>
      <trkpt lat="57.8141" lon="-5.05921">
        <ele>9.52</ele>
        <time>2021-03-20T22:51:30Z</time>
      </trkpt>
      <trkpt lat="57.81462" lon="-5.05922">
        <ele>8.22</ele>
        <time>2021-03-20T22:51:36Z</time>
      </trkpt>
      <trkpt lat="57.81593" lon="-5.05899">
        <ele>9.77</ele>
        <time>2021-03-20T22:51:42Z</time>
      </trkpt>
      <trkpt lat="57.81662" lon="-5.05926">
        <ele>9.18</ele>
        <time>2021-03-20T22:51:49Z</time>
      </trkpt>
      <trkpt lat="57.81715" lon="-5.05985">
        <ele>7</ele>
        <time>2021-03-20T22:51:55Z</time>
      </trkpt>
      <trkpt lat="57.81856" lon="-5.06195">
        <ele>12.74</ele>
        <time>2021-03-20T22:52:01Z</time>
      </trkpt>
      <trkpt lat="57.81891" lon="-5.06226">
        <ele>11.85</ele>
        <time>2021-03-20T22:52:07Z</time>
      </trkpt>
      <trkpt lat="57.81935" lon="-5.06253">
        <ele>11</ele>
        <time>2021-03-20T22:52:13Z</time>
      </trkpt>
      <trkpt lat="57.81972" lon="-5.06266">
        <ele>11</ele>
        <time>2021-03-20T22:52:19Z</time>
      </trkpt>
      <trkpt lat="57.82331" lon="-5.06359">
        <ele>10.17</ele>
        <time>2021-03-20T22:52:26Z</time>
      </trkpt>
      <trkpt lat="57.82518" lon="-5.06437">
        <ele>7</ele>
        <time>2021-03-20T22:52:32Z</time>
      </trkpt>
      <trkpt lat="57.82606" lon="-5.06467">
        <ele>9.01</ele>
        <time>2021-03-20T22:52:38Z</time>
      </trkpt>
      <trkpt lat="57.82787" lon="-5.06545">
        <ele>11.9</ele>
        <time>2021-03-20T22:52:44Z</time>
      </trkpt>
      <trkpt lat="57.82865" lon="-5.06591">
        <ele>20.87</ele>
        <time>2021-03-20T22:52:50Z</time>
      </trkpt>
      <trkpt lat="57.82961" lon="-5.0666">
        <ele>27.12</ele>
        <time>2021-03-20T22:52:56Z</time>
      </trkpt>
      <trkpt lat="57.83052" lon="-5.06747">
        <ele>28.83</ele>
        <time>2021-03-20T22:53:02Z</time>
      </trkpt>
      <trkpt lat="57.8311" lon="-5.06817">
        <ele>22.77</ele>
        <time>2021-03-20T22:53:09Z</time>
      </trkpt>
      <trkpt lat="57.83179" lon="-5.06887">
        <ele>24.16</ele>
        <time>2021-03-20T22:53:15Z</time>
      </trkpt>
      <trkpt lat="57.83252" lon="-5.06967">
        <ele>21.27</ele>
        <time>2021-03-20T22:53:21Z</time>
      </trkpt>
      <trkpt lat="57.83334" lon="-5.07047">
        <ele>18.59</ele>
        <time>2021-03-20T22:53:27Z</time>
      </trkpt>
      <trkpt lat="57.83383" lon="-5.07092">
        <ele>16.91</ele>
        <time>2021-03-20T22:53:33Z</time>
      </trkpt>
      <trkpt lat="57.83424" lon="-5.07123">
        <ele>15.82</ele>
        <time>2021-03-20T22:53:39Z</time>
      </trkpt>
      <trkpt lat="57.83794" lon="-5.07359">
        <ele>19.78</ele>
        <time>2021-03-20T22:53:45Z</time>
      </trkpt>
      <trkpt lat="57.83884" lon="-5.07407">
        <ele>21.4</ele>
        <time>2021-03-20T22:53:52Z</time>
      </trkpt>
      <trkpt lat="57.83975" lon="-5.07476">
        <ele>20.96</ele>
        <time>2021-03-20T22:53:58Z</time>
      </trkpt>
      <trkpt lat="57.84146" lon="-5.07592">
        <ele>23.67</ele>
        <time>2021-03-20T22:54:04Z</time>
      </trkpt>
      <trkpt lat="57.84234" lon="-5.07649">
        <ele>24.2</ele>
        <time>2021-03-20T22:54:10Z</time>
      </trkpt>
      <trkpt lat="57.84292" lon="-5.07673">
        <ele>26.34</ele>
        <time>2021-03-20T22:54:16Z</time>
      </trkpt>
      <trkpt lat="57.84334" lon="-5.07682">
        <ele>26.2</ele>
        <time>2021-03-20T22:54:22Z</time>
      </trkpt>
      <trkpt lat="57.84464" lon="-5.07699">
        <ele>26.25</ele>
        <time>2021-03-20T22:54:28Z</time>
      </trkpt>
      <trkpt lat="57.84528" lon="-5.07716">
        <ele>25.46</ele>
        <time>2021-03-20T22:54:35Z</time>
      </trkpt>
      <trkpt lat="57.8467" lon="-5.07732">
        <ele>23.37</ele>
        <time>2021-03-20T22:54:41Z</time>
      </trkpt>
      <trkpt lat="57.84741" lon="-5.07745">
        <ele>25.01</ele>
        <time>2021-03-20T22:54:47Z</time>
      </trkpt>
      <trkpt lat="57.84793" lon="-5.07758">
        <ele>28.03</ele>
        <time>2021-03-20T22:54:53Z</time>
      </trkpt>
      <trkpt lat="57.84898" lon="-5.07802">
        <ele>29.07</ele>
        <time>2021-03-20T22:54:59Z</time>
      </trkpt>
      <trkpt lat="57.85031" lon="-5.07873">
        <ele>29.9</ele>
        <time>2021-03-20T22:55:05Z</time>
      </trkpt>
      <trkpt lat="57.85101" lon="-5.07918">
        <ele>31.26</ele>
        <time>2021-03-20T22:55:11Z</time>
      </trkpt>
      <trkpt lat="57.8519" lon="-5.08012">
        <ele>35.52</ele>
        <time>2021-03-20T22:55:18Z</time>
      </trkpt>
      <trkpt lat="57.8525" lon="-5.08082">
        <ele>37.41</ele>
        <time>2021-03-20T22:55:24Z</time>
      </trkpt>
      <trkpt lat="57.85317" lon="-5.08153">
        <ele>38.69</ele>
        <time>2021-03-20T22:55:30Z</time>
      </trkpt>
      <trkpt lat="57.85436" lon="-5.08314">
        <ele>50.26</ele>
        <time>2021-03-20T22:55:36Z</time>
      </trkpt>
      <trkpt lat="57.85538" lon="-5.08466">
        <ele>63.09</ele>
        <time>2021-03-20T22:55:42Z</time>
      </trkpt>
      <trkpt lat="57.85576" lon="-5.08531">
        <ele>63.58</ele>
        <time>2021-03-20T22:55:48Z</time>
      </trkpt>
      <trkpt lat="57.85627" lon="-5.08662">
        <ele>52.45</ele>
        <time>2021-03-20T22:55:55Z</time>
      </trkpt>
      <trkpt lat="57.8566" lon="-5.087">
        <ele>54.24</ele>
        <time>2021-03-20T22:56:01Z</time>
      </trkpt>
      <trkpt lat="57.85689" lon="-5.08716">
        <ele>58.31</ele>
        <time>2021-03-20T22:56:07Z</time>
      </trkpt>
      <trkpt lat="57.85753" lon="-5.08724">
        <ele>57.64</ele>
        <time>2021-03-20T22:56:13Z</time>
      </trkpt>
      <trkpt lat="57.85802" lon="-5.08725">
        <ele>58.29</ele>
        <time>2021-03-20T22:56:19Z</time>
      </trkpt>
      <trkpt lat="57.85932" lon="-5.08711">
        <ele>43.6</ele>
        <time>2021-03-20T22:56:25Z</time>
      </trkpt>
      <trkpt lat="57.8601" lon="-5.08693">
        <ele>37.19</ele>
        <time>2021-03-20T22:56:31Z</time>
      </trkpt>
      <trkpt lat="57.86092" lon="-5.08701">
        <ele>37.89</ele>
        <time>2021-03-20T22:56:38Z</time>
      </trkpt>
      <trkpt lat="57.86142" lon="-5.08726">
        <ele>37.77</ele>
        <time>2021-03-20T22:56:44Z</time>
      </trkpt>
      <trkpt lat="57.86323" lon="-5.089">
        <ele>30.18</ele>
        <time>2021-03-20T22:56:50Z</time>
      </trkpt>
      <trkpt lat="57.86419" lon="-5.09012">
        <ele>29.35</ele>
        <time>2021-03-20T22:56:56Z</time>
      </trkpt>
      <trkpt lat="57.86555" lon="-5.09196">
        <ele>27.87</ele>
        <time>2021-03-20T22:57:02Z</time>
      </trkpt>
      <trkpt lat="57.86728" lon="-5.09473">
        <ele>19.36</ele>
        <time>2021-03-20T22:57:08Z</time>
      </trkpt>
      <trkpt lat="57.86781" lon="-5.09532">
        <ele>18.98</ele>
        <time>2021-03-20T22:57:14Z</time>
      </trkpt>
      <trkpt lat="57.86825" lon="-5.09551">
        <ele>21.32</ele>
        <time>2021-03-20T22:57:21Z</time>
      </trkpt>
      <trkpt lat="57.86915" lon="-5.09564">
        <ele>29.48</ele>
        <time>2021-03-20T22:57:27Z</time>
      </trkpt>
      <trkpt lat="57.87012" lon="-5.09587">
        <ele>38.62</ele>
        <time>2021-03-20T22:57:33Z</time>
      </trkpt>
      <trkpt lat="57.87075" lon="-5.09647">
        <ele>45.19</ele>
        <time>2021-03-20T22:57:39Z</time>
      </trkpt>
      <trkpt lat="57.87106" lon="-5.09689">
        <ele>45.79</ele>
        <time>2021-03-20T22:57:45Z</time>
      </trkpt>
      <trkpt lat="57.8713" lon="-5.09732">
        <ele>45.58</ele>
        <time>2021-03-20T22:57:51Z</time>
      </trkpt>
      <trkpt lat="57.87225" lon="-5.09951">
        <ele>42.4</ele>
        <time>2021-03-20T22:57:57Z</time>
      </trkpt>
      <trkpt lat="57.87324" lon="-5.10187">
        <ele>42.88</ele>
        <time>2021-03-20T22:58:04Z</time>
      </trkpt>
      <trkpt lat="57.87443" lon="-5.10534">
        <ele>37.61</ele>
        <time>2021-03-20T22:58:10Z</time>
      </trkpt>
      <trkpt lat="57.8752" lon="-5.10764">
        <ele>32.69</ele>
        <time>2021-03-20T22:58:16Z</time>
      </trkpt>
      <trkpt lat="57.87587" lon="-5.1096">
        <ele>26.72</ele>
        <time>2021-03-20T22:58:22Z</time>
      </trkpt>
      <trkpt lat="57.87721" lon="-5.1138">
        <ele>25.68</ele>
        <time>2021-03-20T22:58:28Z</time>
      </trkpt>
      <trkpt lat="57.87858" lon="-5.11767">
        <ele>27.98</ele>
        <time>2021-03-20T22:58:34Z</time>
      </trkpt>
      <trkpt lat="57.87924" lon="-5.11947">
        <ele>28.69</ele>
        <time>2021-03-20T22:58:40Z</time>
      </trkpt>
      <trkpt lat="57.8802" lon="-5.12215">
        <ele>38.31</ele>
        <time>2021-03-20T22:58:47Z</time>
      </trkpt>
      <trkpt lat="57.8807" lon="-5.12336">
        <ele>42.78</ele>
        <time>2021-03-20T22:58:53Z</time>
      </trkpt>
      <trkpt lat="57.88166" lon="-5.12493">
        <ele>46.64</ele>
        <time>2021-03-20T22:58:59Z</time>
      </trkpt>
      <trkpt lat="57.88201" lon="-5.12544">
        <ele>46.16</ele>
        <time>2021-03-20T22:59:05Z</time>
      </trkpt>
      <trkpt lat="57.88232" lon="-5.12603">
        <ele>45.82</ele>
        <time>2021-03-20T22:59:11Z</time>
      </trkpt>
      <trkpt lat="57.88322" lon="-5.1278">
        <ele>43.47</ele>
        <time>2021-03-20T22:59:17Z</time>
      </trkpt>
      <trkpt lat="57.88429" lon="-5.12934">
        <ele>37.64</ele>
        <time>2021-03-20T22:59:24Z</time>
      </trkpt>
      <trkpt lat="57.88485" lon="-5.12997">
        <ele>39.87</ele>
        <time>2021-03-20T22:59:30Z</time>
      </trkpt>
      <trkpt lat="57.88535" lon="-5.13074">
        <ele>41.44</ele>
        <time>2021-03-20T22:59:36Z</time>
      </trkpt>
      <trkpt lat="57.88565" lon="-5.13149">
        <ele>38.3</ele>
        <time>2021-03-20T22:59:42Z</time>
      </trkpt>
      <trkpt lat="57.88619" lon="-5.13338">
        <ele>31.22</ele>
        <time>2021-03-20T22:59:48Z</time>
      </trkpt>
      <trkpt lat="57.88661" lon="-5.13424">
        <ele>28.67</ele>
        <time>2021-03-20T22:59:54Z</time>
      </trkpt>
      <trkpt lat="57.88722" lon="-5.13495">
        <ele>29.51</ele>
        <time>2021-03-20T23:00:00Z</time>
      </trkpt>
      <trkpt lat="57.88784" lon="-5.13536">
        <ele>31.31</ele>
        <time>2021-03-20T23:00:07Z</time>
      </trkpt>
      <trkpt lat="57.88814" lon="-5.1356">
        <ele>30.97</ele>
        <time>2021-03-20T23:00:13Z</time>
      </trkpt>
      <trkpt lat="57.88835" lon="-5.13582">
        <ele>32.55</ele>
        <time>2021-03-20T23:00:19Z</time>
      </trkpt>
      <trkpt lat="57.88858" lon="-5.13625">
        <ele>32.86</ele>
        <time>2021-03-20T23:00:25Z</time>
      </trkpt>
      <trkpt lat="57.88888" lon="-5.13696">
        <ele>31.56</ele>
        <time>2021-03-20T23:00:31Z</time>
      </trkpt>
      <trkpt lat="57.88928" lon="-5.13785">
        <ele>30.96</ele>
        <time>2021-03-20T23:00:37Z</time>
      </trkpt>
      <trkpt lat="57.88965" lon="-5.13836">
        <ele>34.28</ele>
        <time>2021-03-20T23:00:43Z</time>
      </trkpt>
      <trkpt lat="57.88997" lon="-5.13861">
        <ele>38.15</ele>
        <time>2021-03-20T23:00:50Z</time>
      </trkpt>
      <trkpt lat="57.89049" lon="-5.13916">
        <ele>40.72</ele>
        <time>2021-03-20T23:00:56Z</time>
      </trkpt>
      <trkpt lat="57.89062" lon="-5.13932">
        <ele>39.57</ele>
        <time>2021-03-20T23:01:02Z</time>
      </trkpt>
      <trkpt lat="57.8909" lon="-5.13978">
        <ele>38.91</ele>
        <time>2021-03-20T23:01:08Z</time>
      </trkpt>
      <trkpt lat="57.89125" lon="-5.14059">
        <ele>37.65</ele>
        <time>2021-03-20T23:01:14Z</time>
      </trkpt>
      <trkpt lat="57.89166" lon="-5.14129">
        <ele>39.43</ele>
        <time>2021-03-20T23:01:20Z</time>
      </trkpt>
      <trkpt lat="57.89192" lon="-5.14167">
        <ele>39.26</ele>
        <time>2021-03-20T23:01:26Z</time>
      </trkpt>
      <trkpt lat="57.8923" lon="-5.14197">
        <ele>37.22</ele>
        <time>2021-03-20T23:01:33Z</time>
      </trkpt>
      <trkpt lat="57.89371" lon="-5.14269">
        <ele>41.4</ele>
        <time>2021-03-20T23:01:39Z</time>
      </trkpt>
      <trkpt lat="57.89426" lon="-5.14328">
        <ele>35.79</ele>
        <time>2021-03-20T23:01:45Z</time>
      </trkpt>
      <trkpt lat="57.89463" lon="-5.14385">
        <ele>36.44</ele>
        <time>2021-03-20T23:01:51Z</time>
      </trkpt>
      <trkpt lat="57.89495" lon="-5.14454">
        <ele>34.1</ele>
        <time>2021-03-20T23:01:57Z</time>
      </trkpt>
      <trkpt lat="57.89503" lon="-5.14476">
        <ele>32.47</ele>
        <time>2021-03-20T23:02:03Z</time>
      </trkpt>
      <trkpt lat="57.89518" lon="-5.14531">
        <ele>29.63</ele>
        <time>2021-03-20T23:02:09Z</time>
      </trkpt>
      <trkpt lat="57.896" lon="-5.14922">
        <ele>20.05</ele>
        <time>2021-03-20T23:02:16Z</time>
      </trkpt>
      <trkpt lat="57.89617" lon="-5.14978">
        <ele>17.73</ele>
        <time>2021-03-20T23:02:22Z</time>
      </trkpt>
      <trkpt lat="57.89657" lon="-5.1506">
        <ele>14.84</ele>
        <time>2021-03-20T23:02:28Z</time>
      </trkpt>
      <trkpt lat="57.89671" lon="-5.15104">
        <ele>12.11</ele>
        <time>2021-03-20T23:02:34Z</time>
      </trkpt>
      <trkpt lat="57.89681" lon="-5.15149">
        <ele>11.81</ele>
        <time>2021-03-20T23:02:40Z</time>
      </trkpt>
      <trkpt lat="57.89683" lon="-5.15185">
        <ele>11.09</ele>
        <time>2021-03-20T23:02:46Z</time>
      </trkpt>
      <trkpt lat="57.89684" lon="-5.1523">
        <ele>10.59</ele>
        <time>2021-03-20T23:02:53Z</time>
      </trkpt>
      <trkpt lat="57.89664" lon="-5.15478">
        <ele>8.77</ele>
        <time>2021-03-20T23:02:59Z</time>
      </trkpt>
      <trkpt lat="57.89668" lon="-5.15491">
        <ele>9.12</ele>
        <time>2021-03-20T23:03:03Z</time>
      </trkpt>
      <trkpt lat="57.8968" lon="-5.15503">
        <ele>10.59</ele>
        <time>2021-03-20T23:03:07Z</time>
      </trkpt>
      <trkpt lat="57.89754" lon="-5.15559">
        <ele>14.14</ele>
        <time>2021-03-20T23:03:12Z</time>
      </trkpt>
      <trkpt lat="57.89879" lon="-5.15668">
        <ele>16.37</ele>
        <time>2021-03-20T23:03:16Z</time>
      </trkpt>
      <trkpt lat="57.89938" lon="-5.15712">
        <ele>16.76</ele>
        <time>2021-03-20T23:03:20Z</time>
      </trkpt>
      <trkpt lat="57.8998" lon="-5.1572">
        <ele>18.27</ele>
        <time>2021-03-20T23:03:24Z</time>
      </trkpt>
      <trkpt lat="57.90073" lon="-5.15724">
        <ele>20</ele>
        <time>2021-03-20T23:03:28Z</time>
      </trkpt>
      <trkpt lat="57.90138" lon="-5.15738">
        <ele>21.42</ele>
        <time>2021-03-20T23:03:33Z</time>
      </trkpt>
      <trkpt lat="57.90171" lon="-5.15755">
        <ele>21.23</ele>
        <time>2021-03-20T23:03:37Z</time>
      </trkpt>
      <trkpt lat="57.90272" lon="-5.15832">
        <ele>25.89</ele>
        <time>2021-03-20T23:03:41Z</time>
      </trkpt>
      <trkpt lat="57.90297" lon="-5.15844">
        <ele>25.63</ele>
        <time>2021-03-20T23:03:45Z</time>
      </trkpt>
      <trkpt lat="57.90359" lon="-5.15853">
        <ele>27.44</ele>
        <time>2021-03-20T23:03:50Z</time>
      </trkpt>
      <trkpt lat="57.90395" lon="-5.15868">
        <ele>26.77</ele>
        <time>2021-03-20T23:03:54Z</time>
      </trkpt>
      <trkpt lat="57.90416" lon="-5.15886">
        <ele>26.12</ele>
        <time>2021-03-20T23:03:58Z</time>
      </trkpt>
      <trkpt lat="57.90447" lon="-5.1593">
        <ele>25.55</ele>
        <time>2021-03-20T23:04:02Z</time>
      </trkpt>
      <trkpt lat="57.90461" lon="-5.1596">
        <ele>24.22</ele>
        <time>2021-03-20T23:04:06Z</time>
      </trkpt>
      <trkpt lat="57.90478" lon="-5.16009">
        <ele>23.45</ele>
        <time>2021-03-20T23:04:11Z</time>
      </trkpt>
      <trkpt lat="57.90613" lon="-5.16507">
        <ele>23.07</ele>
        <time>2021-03-20T23:04:15Z</time>
      </trkpt>
      <trkpt lat="57.90673" lon="-5.16724">
        <ele>27.33</ele>
        <time>2021-03-20T23:04:19Z</time>
      </trkpt>
      <trkpt lat="57.90712" lon="-5.16858">
        <ele>30.27</ele>
        <time>2021-03-20T23:04:23Z</time>
      </trkpt>
      <trkpt lat="57.90749" lon="-5.16977">
        <ele>34.67</ele>
        <time>2021-03-20T23:04:28Z</time>
      </trkpt>
      <trkpt lat="57.90755" lon="-5.17001">
        <ele>35.08</ele>
        <time>2021-03-20T23:04:32Z</time>
      </trkpt>
      <trkpt lat="57.9076" lon="-5.17041">
        <ele>36.47</ele>
        <time>2021-03-20T23:04:36Z</time>
      </trkpt>
      <trkpt lat="57.90761" lon="-5.17074">
        <ele>37.04</ele>
        <time>2021-03-20T23:04:40Z</time>
      </trkpt>
      <trkpt lat="57.9076" lon="-5.17193">
        <ele>37.38</ele>
        <time>2021-03-20T23:04:44Z</time>
      </trkpt>
      <trkpt lat="57.90764" lon="-5.17258">
        <ele>39.4</ele>
        <time>2021-03-20T23:04:49Z</time>
      </trkpt>
      <trkpt lat="57.90775" lon="-5.17363">
        <ele>41.32</ele>
        <time>2021-03-20T23:04:53Z</time>
      </trkpt>
      <trkpt lat="57.90782" lon="-5.1741">
        <ele>42.23</ele>
        <time>2021-03-20T23:04:57Z</time>
      </trkpt>
      <trkpt lat="57.90797" lon="-5.17477">
        <ele>42.1</ele>
        <time>2021-03-20T23:05:01Z</time>
      </trkpt>
      <trkpt lat="57.90806" lon="-5.1751">
        <ele>41.65</ele>
        <time>2021-03-20T23:05:06Z</time>
      </trkpt>
      <trkpt lat="57.90816" lon="-5.17539">
        <ele>42.08</ele>
        <time>2021-03-20T23:05:10Z</time>
      </trkpt>
      <trkpt lat="57.90863" lon="-5.17639">
        <ele>41.51</ele>
        <time>2021-03-20T23:05:14Z</time>
      </trkpt>
      <trkpt lat="57.91087" lon="-5.1806">
        <ele>61.59</ele>
        <time>2021-03-20T23:05:18Z</time>
      </trkpt>
      <trkpt lat="57.91266" lon="-5.18343">
        <ele>81.35</ele>
        <time>2021-03-20T23:05:23Z</time>
      </trkpt>
      <trkpt lat="57.91322" lon="-5.18425">
        <ele>86.64</ele>
        <time>2021-03-20T23:05:27Z</time>
      </trkpt>
      <trkpt lat="57.91334" lon="-5.18439">
        <ele>88.25</ele>
        <time>2021-03-20T23:05:31Z</time>
      </trkpt>
      <trkpt lat="57.91349" lon="-5.18452">
        <ele>89.99</ele>
        <time>2021-03-20T23:05:35Z</time>
      </trkpt>
      <trkpt lat="57.91373" lon="-5.18464">
        <ele>91.61</ele>
        <time>2021-03-20T23:05:39Z</time>
      </trkpt>
      <trkpt lat="57.91397" lon="-5.18465">
        <ele>91.71</ele>
        <time>2021-03-20T23:05:44Z</time>
      </trkpt>
      <trkpt lat="57.91412" lon="-5.18462">
        <ele>91.16</ele>
        <time>2021-03-20T23:05:48Z</time>
      </trkpt>
      <trkpt lat="57.91456" lon="-5.18444">
        <ele>90.6</ele>
        <time>2021-03-20T23:05:52Z</time>
      </trkpt>
      <trkpt lat="57.91478" lon="-5.18438">
        <ele>90.18</ele>
        <time>2021-03-20T23:05:56Z</time>
      </trkpt>
      <trkpt lat="57.91495" lon="-5.18439">
        <ele>90.04</ele>
        <time>2021-03-20T23:06:01Z</time>
      </trkpt>
      <trkpt lat="57.91513" lon="-5.18443">
        <ele>89.04</ele>
        <time>2021-03-20T23:06:05Z</time>
      </trkpt>
      <trkpt lat="57.91539" lon="-5.18463">
        <ele>86.2</ele>
        <time>2021-03-20T23:06:09Z</time>
      </trkpt>
      <trkpt lat="57.91552" lon="-5.18483">
        <ele>84.54</ele>
        <time>2021-03-20T23:06:13Z</time>
      </trkpt>
      <trkpt lat="57.91564" lon="-5.18506">
        <ele>82.18</ele>
        <time>2021-03-20T23:06:17Z</time>
      </trkpt>
      <trkpt lat="57.91595" lon="-5.18589">
        <ele>77.87</ele>
        <time>2021-03-20T23:06:22Z</time>
      </trkpt>
      <trkpt lat="57.91637" lon="-5.18707">
        <ele>71.14</ele>
        <time>2021-03-20T23:06:26Z</time>
      </trkpt>
      <trkpt lat="57.91771" lon="-5.19162">
        <ele>42.44</ele>
        <time>2021-03-20T23:06:30Z</time>
      </trkpt>
      <trkpt lat="57.91791" lon="-5.19215">
        <ele>40.08</ele>
        <time>2021-03-20T23:06:34Z</time>
      </trkpt>
      <trkpt lat="57.91802" lon="-5.19237">
        <ele>39.35</ele>
        <time>2021-03-20T23:06:39Z</time>
      </trkpt>
      <trkpt lat="57.91821" lon="-5.19266">
        <ele>38.05</ele>
        <time>2021-03-20T23:06:43Z</time>
      </trkpt>
      <trkpt lat="57.91836" lon="-5.1928">
        <ele>35.76</ele>
        <time>2021-03-20T23:06:47Z</time>
      </trkpt>
      <trkpt lat="57.91846" lon="-5.19286">
        <ele>34.58</ele>
        <time>2021-03-20T23:06:51Z</time>
      </trkpt>
      <trkpt lat="57.9187" lon="-5.1929">
        <ele>31.67</ele>
        <time>2021-03-20T23:06:55Z</time>
      </trkpt>
      <trkpt lat="57.91886" lon="-5.19287">
        <ele>30.22</ele>
        <time>2021-03-20T23:07:00Z</time>
      </trkpt>
      <trkpt lat="57.91907" lon="-5.19275">
        <ele>30</ele>
        <time>2021-03-20T23:07:04Z</time>
      </trkpt>
      <trkpt lat="57.91935" lon="-5.19248">
        <ele>28.67</ele>
        <time>2021-03-20T23:07:08Z</time>
      </trkpt>
      <trkpt lat="57.92018" lon="-5.19131">
        <ele>33.74</ele>
        <time>2021-03-20T23:07:12Z</time>
      </trkpt>
      <trkpt lat="57.92048" lon="-5.19097">
        <ele>34.71</ele>
        <time>2021-03-20T23:07:17Z</time>
      </trkpt>
      <trkpt lat="57.92068" lon="-5.19082">
        <ele>34.95</ele>
        <time>2021-03-20T23:07:21Z</time>
      </trkpt>
      <trkpt lat="57.92085" lon="-5.19072">
        <ele>34.66</ele>
        <time>2021-03-20T23:07:25Z</time>
      </trkpt>
      <trkpt lat="57.92102" lon="-5.19069">
        <ele>35.15</ele>
        <time>2021-03-20T23:07:29Z</time>
      </trkpt>
      <trkpt lat="57.92175" lon="-5.19068">
        <ele>40.28</ele>
        <time>2021-03-20T23:07:34Z</time>
      </trkpt>
      <trkpt lat="57.92227" lon="-5.19073">
        <ele>44.94</ele>
        <time>2021-03-20T23:07:38Z</time>
      </trkpt>
      <trkpt lat="57.92249" lon="-5.19082">
        <ele>46.79</ele>
        <time>2021-03-20T23:07:42Z</time>
      </trkpt>
      <trkpt lat="57.92277" lon="-5.19102">
        <ele>48.95</ele>
        <time>2021-03-20T23:07:46Z</time>
      </trkpt>
      <trkpt lat="57.92291" lon="-5.19117">
        <ele>50.03</ele>
        <time>2021-03-20T23:07:50Z</time>
      </trkpt>
      <trkpt lat="57.92444" lon="-5.1932">
        <ele>56.98</ele>
        <time>2021-03-20T23:07:55Z</time>
      </trkpt>
      <trkpt lat="57.92472" lon="-5.19352">
        <ele>57.67</ele>
        <time>2021-03-20T23:07:59Z</time>
      </trkpt>
      <trkpt lat="57.92496" lon="-5.19368">
        <ele>58.04</ele>
        <time>2021-03-20T23:08:03Z</time>
      </trkpt>
      <trkpt lat="57.92515" lon="-5.19378">
        <ele>57.47</ele>
        <time>2021-03-20T23:08:07Z</time>
      </trkpt>
      <trkpt lat="57.92712" lon="-5.1945">
        <ele>42.17</ele>
        <time>2021-03-20T23:08:12Z</time>
      </trkpt>
      <trkpt lat="57.92727" lon="-5.19462">
        <ele>39.92</ele>
        <time>2021-03-20T23:08:16Z</time>
      </trkpt>
      <trkpt lat="57.92742" lon="-5.19481">
        <ele>37.53</ele>
        <time>2021-03-20T23:08:20Z</time>
      </trkpt>
      <trkpt lat="57.92755" lon="-5.19505">
        <ele>35.97</ele>
        <time>2021-03-20T23:08:24Z</time>
      </trkpt>
      <trkpt lat="57.92823" lon="-5.19677">
        <ele>28.7</ele>
        <time>2021-03-20T23:08:28Z</time>
      </trkpt>
      <trkpt lat="57.92844" lon="-5.19721">
        <ele>24.91</ele>
        <time>2021-03-20T23:08:33Z</time>
      </trkpt>
      <trkpt lat="57.92856" lon="-5.1974">
        <ele>22.93</ele>
        <time>2021-03-20T23:08:37Z</time>
      </trkpt>
      <trkpt lat="57.92872" lon="-5.19758">
        <ele>20.56</ele>
        <time>2021-03-20T23:08:41Z</time>
      </trkpt>
      <trkpt lat="57.92889" lon="-5.19767">
        <ele>18.37</ele>
        <time>2021-03-20T23:08:45Z</time>
      </trkpt>
      <trkpt lat="57.92902" lon="-5.19772">
        <ele>16.45</ele>
        <time>2021-03-20T23:08:50Z</time>
      </trkpt>
      <trkpt lat="57.92914" lon="-5.19771">
        <ele>14.91</ele>
        <time>2021-03-20T23:08:54Z</time>
      </trkpt>
      <trkpt lat="57.92939" lon="-5.1976">
        <ele>11.21</ele>
        <time>2021-03-20T23:08:58Z</time>
      </trkpt>
      <trkpt lat="57.93" lon="-5.19707">
        <ele>7.66</ele>
        <time>2021-03-20T23:09:02Z</time>
      </trkpt>
      <trkpt lat="57.93033" lon="-5.19682">
        <ele>6.93</ele>
        <time>2021-03-20T23:09:06Z</time>
      </trkpt>
      <trkpt lat="57.93089" lon="-5.19652">
        <ele>6.18</ele>
        <time>2021-03-20T23:09:11Z</time>
      </trkpt>
      <trkpt lat="57.93125" lon="-5.19637">
        <ele>6.6</ele>
        <time>2021-03-20T23:09:15Z</time>
      </trkpt>
      <trkpt lat="57.93203" lon="-5.19623">
        <ele>5.58</ele>
        <time>2021-03-20T23:09:19Z</time>
      </trkpt>
      <trkpt lat="57.93252" lon="-5.19621">
        <ele>4.65</ele>
        <time>2021-03-20T23:09:23Z</time>
      </trkpt>
      <trkpt lat="57.93271" lon="-5.19622">
        <ele>4.61</ele>
        <time>2021-03-20T23:09:28Z</time>
      </trkpt>
      <trkpt lat="57.93326" lon="-5.19639">
        <ele>4.01</ele>
        <time>2021-03-20T23:09:32Z</time>
      </trkpt>
      <trkpt lat="57.93346" lon="-5.19641">
        <ele>4</ele>
        <time>2021-03-20T23:09:36Z</time>
      </trkpt>
      <trkpt lat="57.93369" lon="-5.19637">
        <ele>4.34</ele>
        <time>2021-03-20T23:09:40Z</time>
      </trkpt>
      <trkpt lat="57.93384" lon="-5.19629">
        <ele>4.89</ele>
        <time>2021-03-20T23:09:45Z</time>
      </trkpt>
      <trkpt lat="57.93393" lon="-5.19618">
        <ele>5</ele>
        <time>2021-03-20T23:09:49Z</time>
      </trkpt>
      <trkpt lat="57.93403" lon="-5.19603">
        <ele>5</ele>
        <time>2021-03-20T23:09:53Z</time>
      </trkpt>
      <trkpt lat="57.93414" lon="-5.19577">
        <ele>5</ele>
        <time>2021-03-20T23:09:57Z</time>
      </trkpt>
      <trkpt lat="57.93424" lon="-5.19546">
        <ele>5</ele>
        <time>2021-03-20T23:10:01Z</time>
      </trkpt>
      <trkpt lat="57.93496" lon="-5.19273">
        <ele>6.28</ele>
        <time>2021-03-20T23:10:06Z</time>
      </trkpt>
      <trkpt lat="57.9351" lon="-5.19211">
        <ele>6.32</ele>
        <time>2021-03-20T23:10:10Z</time>
      </trkpt>
      <trkpt lat="57.93584" lon="-5.18926">
        <ele>21.69</ele>
        <time>2021-03-20T23:10:14Z</time>
      </trkpt>
      <trkpt lat="57.93606" lon="-5.18868">
        <ele>20.62</ele>
        <time>2021-03-20T23:10:18Z</time>
      </trkpt>
      <trkpt lat="57.93615" lon="-5.18827">
        <ele>16.26</ele>
        <time>2021-03-20T23:10:23Z</time>
      </trkpt>
      <trkpt lat="57.93627" lon="-5.1875">
        <ele>19.78</ele>
        <time>2021-03-20T23:10:27Z</time>
      </trkpt>
      <trkpt lat="57.93641" lon="-5.18679">
        <ele>21.83</ele>
        <time>2021-03-20T23:10:31Z</time>
      </trkpt>
      <trkpt lat="57.93671" lon="-5.18577">
        <ele>25.17</ele>
        <time>2021-03-20T23:10:35Z</time>
      </trkpt>
      <trkpt lat="57.93699" lon="-5.185">
        <ele>22.38</ele>
        <time>2021-03-20T23:10:39Z</time>
      </trkpt>
      <trkpt lat="57.93719" lon="-5.18466">
        <ele>19.83</ele>
        <time>2021-03-20T23:10:44Z</time>
      </trkpt>
      <trkpt lat="57.93746" lon="-5.18441">
        <ele>18.05</ele>
        <time>2021-03-20T23:10:48Z</time>
      </trkpt>
      <trkpt lat="57.93784" lon="-5.18422">
        <ele>18.66</ele>
        <time>2021-03-20T23:10:52Z</time>
      </trkpt>
      <trkpt lat="57.93819" lon="-5.18408">
        <ele>22.05</ele>
        <time>2021-03-20T23:10:56Z</time>
      </trkpt>
      <trkpt lat="57.93855" lon="-5.18365">
        <ele>31.16</ele>
        <time>2021-03-20T23:11:01Z</time>
      </trkpt>
      <trkpt lat="57.93945" lon="-5.18116">
        <ele>46.79</ele>
        <time>2021-03-20T23:11:05Z</time>
      </trkpt>
      <trkpt lat="57.93981" lon="-5.18008">
        <ele>46.35</ele>
        <time>2021-03-20T23:11:09Z</time>
      </trkpt>
      <trkpt lat="57.93994" lon="-5.17947">
        <ele>45.01</ele>
        <time>2021-03-20T23:11:13Z</time>
      </trkpt>
      <trkpt lat="57.9401" lon="-5.17838">
        <ele>41.62</ele>
        <time>2021-03-20T23:11:17Z</time>
      </trkpt>
      <trkpt lat="57.94023" lon="-5.17774">
        <ele>39.88</ele>
        <time>2021-03-20T23:11:22Z</time>
      </trkpt>
      <trkpt lat="57.9404" lon="-5.17716">
        <ele>38.47</ele>
        <time>2021-03-20T23:11:26Z</time>
      </trkpt>
      <trkpt lat="57.94075" lon="-5.17537">
        <ele>32.79</ele>
        <time>2021-03-20T23:11:30Z</time>
      </trkpt>
      <trkpt lat="57.94098" lon="-5.17377">
        <ele>27.78</ele>
        <time>2021-03-20T23:11:34Z</time>
      </trkpt>
      <trkpt lat="57.94114" lon="-5.17291">
        <ele>26.24</ele>
        <time>2021-03-20T23:11:39Z</time>
      </trkpt>
      <trkpt lat="57.94134" lon="-5.17209">
        <ele>23.18</ele>
        <time>2021-03-20T23:11:43Z</time>
      </trkpt>
      <trkpt lat="57.94159" lon="-5.17122">
        <ele>17.91</ele>
        <time>2021-03-20T23:11:47Z</time>
      </trkpt>
      <trkpt lat="57.94171" lon="-5.17072">
        <ele>16.67</ele>
        <time>2021-03-20T23:11:51Z</time>
      </trkpt>
      <trkpt lat="57.94194" lon="-5.17018">
        <ele>15.45</ele>
        <time>2021-03-20T23:11:56Z</time>
      </trkpt>
      <trkpt lat="57.94269" lon="-5.16873">
        <ele>15.69</ele>
        <time>2021-03-20T23:12:00Z</time>
      </trkpt>
      <trkpt lat="57.94373" lon="-5.16742">
        <ele>16.87</ele>
        <time>2021-03-20T23:12:04Z</time>
      </trkpt>
      <trkpt lat="57.9442" lon="-5.16678">
        <ele>18.08</ele>
        <time>2021-03-20T23:12:08Z</time>
      </trkpt>
      <trkpt lat="57.94453" lon="-5.16627">
        <ele>19.48</ele>
        <time>2021-03-20T23:12:12Z</time>
      </trkpt>
      <trkpt lat="57.94485" lon="-5.16557">
        <ele>21.44</ele>
        <time>2021-03-20T23:12:17Z</time>
      </trkpt>
      <trkpt lat="57.94567" lon="-5.16316">
        <ele>24.23</ele>
        <time>2021-03-20T23:12:21Z</time>
      </trkpt>
      <trkpt lat="57.94745" lon="-5.15782">
        <ele>26.9</ele>
        <time>2021-03-20T23:12:25Z</time>
      </trkpt>
      <trkpt lat="57.94867" lon="-5.15348">
        <ele>37.76</ele>
        <time>2021-03-20T23:12:29Z</time>
      </trkpt>
      <trkpt lat="57.94942" lon="-5.15055">
        <ele>50.28</ele>
        <time>2021-03-20T23:12:34Z</time>
      </trkpt>
      <trkpt lat="57.94968" lon="-5.14977">
        <ele>49.58</ele>
        <time>2021-03-20T23:12:38Z</time>
      </trkpt>
      <trkpt lat="57.95065" lon="-5.1473">
        <ele>45.58</ele>
        <time>2021-03-20T23:12:42Z</time>
      </trkpt>
      <trkpt lat="57.95191" lon="-5.14391">
        <ele>62.85</ele>
        <time>2021-03-20T23:12:46Z</time>
      </trkpt>
      <trkpt lat="57.95454" lon="-5.13948">
        <ele>52.44</ele>
        <time>2021-03-20T23:12:50Z</time>
      </trkpt>
      <trkpt lat="57.95695" lon="-5.13498">
        <ele>53</ele>
        <time>2021-03-20T23:12:55Z</time>
      </trkpt>
      <trkpt lat="57.9573" lon="-5.13456">
        <ele>52.14</ele>
        <time>2021-03-20T23:12:59Z</time>
      </trkpt>
      <trkpt lat="57.9576" lon="-5.13436">
        <ele>49.24</ele>
        <time>2021-03-20T23:13:03Z</time>
      </trkpt>
      <trkpt lat="57.95812" lon="-5.13424">
        <ele>40.23</ele>
        <time>2021-03-20T23:13:07Z</time>
      </trkpt>
      <trkpt lat="57.95868" lon="-5.13424">
        <ele>32.76</ele>
        <time>2021-03-20T23:13:12Z</time>
      </trkpt>
      <trkpt lat="57.95915" lon="-5.13439">
        <ele>28.76</ele>
        <time>2021-03-20T23:13:16Z</time>
      </trkpt>
      <trkpt lat="57.95956" lon="-5.1346">
        <ele>23.95</ele>
        <time>2021-03-20T23:13:20Z</time>
      </trkpt>
      <trkpt lat="57.96164" lon="-5.13583">
        <ele>13.01</ele>
        <time>2021-03-20T23:13:24Z</time>
      </trkpt>
      <trkpt lat="57.96208" lon="-5.13595">
        <ele>12</ele>
        <time>2021-03-20T23:13:29Z</time>
      </trkpt>
      <trkpt lat="57.96242" lon="-5.13597">
        <ele>12.72</ele>
        <time>2021-03-20T23:13:33Z</time>
      </trkpt>
      <trkpt lat="57.96277" lon="-5.13584">
        <ele>15.89</ele>
        <time>2021-03-20T23:13:37Z</time>
      </trkpt>
      <trkpt lat="57.96298" lon="-5.13569">
        <ele>17.69</ele>
        <time>2021-03-20T23:13:41Z</time>
      </trkpt>
      <trkpt lat="57.96333" lon="-5.13537">
        <ele>21.33</ele>
        <time>2021-03-20T23:13:45Z</time>
      </trkpt>
      <trkpt lat="57.96392" lon="-5.13468">
        <ele>26.01</ele>
        <time>2021-03-20T23:13:50Z</time>
      </trkpt>
      <trkpt lat="57.96465" lon="-5.13376">
        <ele>26.69</ele>
        <time>2021-03-20T23:13:54Z</time>
      </trkpt>
      <trkpt lat="57.96565" lon="-5.13254">
        <ele>38.5</ele>
        <time>2021-03-20T23:13:58Z</time>
      </trkpt>
      <trkpt lat="57.96701" lon="-5.13079">
        <ele>56.17</ele>
        <time>2021-03-20T23:14:02Z</time>
      </trkpt>
      <trkpt lat="57.96808" lon="-5.12915">
        <ele>68.44</ele>
        <time>2021-03-20T23:14:07Z</time>
      </trkpt>
      <trkpt lat="57.97077" lon="-5.12584">
        <ele>85.6</ele>
        <time>2021-03-20T23:14:11Z</time>
      </trkpt>
      <trkpt lat="57.97157" lon="-5.12495">
        <ele>89.3</ele>
        <time>2021-03-20T23:14:15Z</time>
      </trkpt>
      <trkpt lat="57.97253" lon="-5.12419">
        <ele>95.17</ele>
        <time>2021-03-20T23:14:19Z</time>
      </trkpt>
      <trkpt lat="57.97392" lon="-5.12325">
        <ele>98.33</ele>
        <time>2021-03-20T23:14:23Z</time>
      </trkpt>
      <trkpt lat="57.97392" lon="-5.12325">
        <ele>98.33</ele>
        <time>2021-03-20T23:14:23Z</time>
      </trkpt>
      <trkpt lat="57.97459" lon="-5.1228">
        <ele>101.48</ele>
        <time>2021-03-20T23:14:29Z</time>
      </trkpt>
      <trkpt lat="57.9752" lon="-5.12229">
        <ele>103.72</ele>
        <time>2021-03-20T23:14:35Z</time>
      </trkpt>
      <trkpt lat="57.9766" lon="-5.12097">
        <ele>104.86</ele>
        <time>2021-03-20T23:14:41Z</time>
      </trkpt>
      <trkpt lat="57.97782" lon="-5.11989">
        <ele>98.17</ele>
        <time>2021-03-20T23:14:47Z</time>
      </trkpt>
      <trkpt lat="57.97845" lon="-5.11943">
        <ele>99.61</ele>
        <time>2021-03-20T23:14:53Z</time>
      </trkpt>
      <trkpt lat="57.97911" lon="-5.11908">
        <ele>101.69</ele>
        <time>2021-03-20T23:14:58Z</time>
      </trkpt>
      <trkpt lat="57.97956" lon="-5.11895">
        <ele>105.38</ele>
        <time>2021-03-20T23:15:04Z</time>
      </trkpt>
      <trkpt lat="57.98021" lon="-5.11894">
        <ele>109.15</ele>
        <time>2021-03-20T23:15:10Z</time>
      </trkpt>
      <trkpt lat="57.98121" lon="-5.11914">
        <ele>115.66</ele>
        <time>2021-03-20T23:15:16Z</time>
      </trkpt>
      <trkpt lat="57.98163" lon="-5.11916">
        <ele>117.89</ele>
        <time>2021-03-20T23:15:22Z</time>
      </trkpt>
      <trkpt lat="57.98195" lon="-5.11905">
        <ele>118.25</ele>
        <time>2021-03-20T23:15:28Z</time>
      </trkpt>
      <trkpt lat="57.98225" lon="-5.11889">
        <ele>119</ele>
        <time>2021-03-20T23:15:33Z</time>
      </trkpt>
      <trkpt lat="57.98701" lon="-5.11501">
        <ele>129.18</ele>
        <time>2021-03-20T23:15:39Z</time>
      </trkpt>
      <trkpt lat="57.98817" lon="-5.1141">
        <ele>124.89</ele>
        <time>2021-03-20T23:15:45Z</time>
      </trkpt>
      <trkpt lat="57.98969" lon="-5.11321">
        <ele>125.01</ele>
        <time>2021-03-20T23:15:51Z</time>
      </trkpt>
      <trkpt lat="57.9903" lon="-5.11268">
        <ele>126.07</ele>
        <time>2021-03-20T23:15:57Z</time>
      </trkpt>
      <trkpt lat="57.99085" lon="-5.11205">
        <ele>124.65</ele>
        <time>2021-03-20T23:16:03Z</time>
      </trkpt>
      <trkpt lat="57.99174" lon="-5.11127">
        <ele>121.96</ele>
        <time>2021-03-20T23:16:08Z</time>
      </trkpt>
      <trkpt lat="57.99262" lon="-5.11061">
        <ele>122.82</ele>
        <time>2021-03-20T23:16:14Z</time>
      </trkpt>
      <trkpt lat="57.99454" lon="-5.10941">
        <ele>120.84</ele>
        <time>2021-03-20T23:16:20Z</time>
      </trkpt>
      <trkpt lat="57.99555" lon="-5.10859">
        <ele>117.28</ele>
        <time>2021-03-20T23:16:26Z</time>
      </trkpt>
      <trkpt lat="57.99654" lon="-5.10767">
        <ele>120.7</ele>
        <time>2021-03-20T23:16:32Z</time>
      </trkpt>
      <trkpt lat="57.99744" lon="-5.1066">
        <ele>120.21</ele>
        <time>2021-03-20T23:16:38Z</time>
      </trkpt>
      <trkpt lat="57.9983" lon="-5.10547">
        <ele>121.13</ele>
        <time>2021-03-20T23:16:43Z</time>
      </trkpt>
      <trkpt lat="57.99934" lon="-5.10387">
        <ele>122</ele>
        <time>2021-03-20T23:16:49Z</time>
      </trkpt>
      <trkpt lat="57.9995" lon="-5.10359">
        <ele>121.94</ele>
        <time>2021-03-20T23:16:55Z</time>
      </trkpt>
      <trkpt lat="57.99962" lon="-5.10411">
        <ele>122.49</ele>
        <time>2021-03-20T23:16:58Z</time>
      </trkpt>
      <trkpt lat="57.99971" lon="-5.1053">
        <ele>122.81</ele>
        <time>2021-03-20T23:17:02Z</time>
      </trkpt>
      <trkpt lat="57.99974" lon="-5.10603">
        <ele>122.21</ele>
        <time>2021-03-20T23:17:05Z</time>
      </trkpt>
      <trkpt lat="57.99969" lon="-5.10634">
        <ele>121.63</ele>
        <time>2021-03-20T23:17:08Z</time>
      </trkpt>
      <trkpt lat="57.9992" lon="-5.10778">
        <ele>119.53</ele>
        <time>2021-03-20T23:17:12Z</time>
      </trkpt>
      <trkpt lat="57.99902" lon="-5.10863">
        <ele>117.4</ele>
        <time>2021-03-20T23:17:15Z</time>
      </trkpt>
      <trkpt lat="57.99905" lon="-5.10897">
        <ele>117.34</ele>
        <time>2021-03-20T23:17:18Z</time>
      </trkpt>
      <trkpt lat="57.9994" lon="-5.10971">
        <ele>118.43</ele>
        <time>2021-03-20T23:17:22Z</time>
      </trkpt>
      <trkpt lat="57.9995" lon="-5.11014">
        <ele>118.13</ele>
        <time>2021-03-20T23:17:25Z</time>
      </trkpt>
      <trkpt lat="57.99942" lon="-5.11116">
        <ele>112.24</ele>
        <time>2021-03-20T23:17:28Z</time>
      </trkpt>
      <trkpt lat="57.99953" lon="-5.11189">
        <ele>110.42</ele>
        <time>2021-03-20T23:17:32Z</time>
      </trkpt>
      <trkpt lat="57.99978" lon="-5.11275">
        <ele>110.63</ele>
        <time>2021-03-20T23:17:35Z</time>
      </trkpt>
      <trkpt lat="57.99988" lon="-5.11304">
        <ele>110.74</ele>
        <time>2021-03-20T23:17:38Z</time>
      </trkpt>
      <trkpt lat="57.99988" lon="-5.11432">
        <ele>106.15</ele>
        <time>2021-03-20T23:17:41Z</time>
      </trkpt>
      <trkpt lat="58.00029" lon="-5.11543">
        <ele>101.95</ele>
        <time>2021-03-20T23:17:45Z</time>
      </trkpt>
      <trkpt lat="58.00091" lon="-5.116">
        <ele>98.05</ele>
        <time>2021-03-20T23:17:48Z</time>
      </trkpt>
      <trkpt lat="58.00113" lon="-5.11658">
        <ele>96.42</ele>
        <time>2021-03-20T23:17:51Z</time>
      </trkpt>
      <trkpt lat="58.00142" lon="-5.1183">
        <ele>98.22</ele>
        <time>2021-03-20T23:17:55Z</time>
      </trkpt>
      <trkpt lat="58.0014" lon="-5.11866">
        <ele>100.21</ele>
        <time>2021-03-20T23:17:58Z</time>
      </trkpt>
      <trkpt lat="58.00114" lon="-5.1195">
        <ele>99.85</ele>
        <time>2021-03-20T23:18:01Z</time>
      </trkpt>
      <trkpt lat="58.00096" lon="-5.12036">
        <ele>101.75</ele>
        <time>2021-03-20T23:18:05Z</time>
      </trkpt>
      <trkpt lat="58.00085" lon="-5.1211">
        <ele>102.45</ele>
        <time>2021-03-20T23:18:08Z</time>
      </trkpt>
      <trkpt lat="58.00081" lon="-5.12189">
        <ele>105.1</ele>
        <time>2021-03-20T23:18:11Z</time>
      </trkpt>
      <trkpt lat="58.0009" lon="-5.12282">
        <ele>108.26</ele>
        <time>2021-03-20T23:18:15Z</time>
      </trkpt>
      <trkpt lat="58.00092" lon="-5.12404">
        <ele>110.93</ele>
        <time>2021-03-20T23:18:18Z</time>
      </trkpt>
      <trkpt lat="58.00101" lon="-5.12474">
        <ele>112.54</ele>
        <time>2021-03-20T23:18:21Z</time>
      </trkpt>
      <trkpt lat="58.00122" lon="-5.12533">
        <ele>118.89</ele>
        <time>2021-03-20T23:18:25Z</time>
      </trkpt>
      <trkpt lat="58.00123" lon="-5.12572">
        <ele>120.53</ele>
        <time>2021-03-20T23:18:28Z</time>
      </trkpt>
      <trkpt lat="58.00112" lon="-5.12645">
        <ele>119.32</ele>
        <time>2021-03-20T23:18:31Z</time>
      </trkpt>
      <trkpt lat="58.00115" lon="-5.12691">
        <ele>120.02</ele>
        <time>2021-03-20T23:18:34Z</time>
      </trkpt>
      <trkpt lat="58.00132" lon="-5.1276">
        <ele>123.37</ele>
        <time>2021-03-20T23:18:38Z</time>
      </trkpt>
      <trkpt lat="58.00163" lon="-5.12854">
        <ele>126.46</ele>
        <time>2021-03-20T23:18:41Z</time>
      </trkpt>
      <trkpt lat="58.00214" lon="-5.1307">
        <ele>129.59</ele>
        <time>2021-03-20T23:18:44Z</time>
      </trkpt>
      <trkpt lat="58.00236" lon="-5.13206">
        <ele>125.04</ele>
        <time>2021-03-20T23:18:48Z</time>
      </trkpt>
      <trkpt lat="58.00274" lon="-5.13297">
        <ele>121.76</ele>
        <time>2021-03-20T23:18:51Z</time>
      </trkpt>
      <trkpt lat="58.00317" lon="-5.13446">
        <ele>115.63</ele>
        <time>2021-03-20T23:18:54Z</time>
      </trkpt>
      <trkpt lat="58.00346" lon="-5.1352">
        <ele>113.43</ele>
        <time>2021-03-20T23:18:58Z</time>
      </trkpt>
      <trkpt lat="58.00363" lon="-5.13543">
        <ele>112.69</ele>
        <time>2021-03-20T23:19:01Z</time>
      </trkpt>
      <trkpt lat="58.00399" lon="-5.13557">
        <ele>116.56</ele>
        <time>2021-03-20T23:19:04Z</time>
      </trkpt>
      <trkpt lat="58.00415" lon="-5.1358">
        <ele>116.11</ele>
        <time>2021-03-20T23:19:08Z</time>
      </trkpt>
      <trkpt lat="58.00449" lon="-5.13676">
        <ele>116.83</ele>
        <time>2021-03-20T23:19:11Z</time>
      </trkpt>
      <trkpt lat="58.00458" lon="-5.13711">
        <ele>118.14</ele>
        <time>2021-03-20T23:19:14Z</time>
      </trkpt>
      <trkpt lat="58.00458" lon="-5.13795">
        <ele>112.67</ele>
        <time>2021-03-20T23:19:17Z</time>
      </trkpt>
      <trkpt lat="58.00465" lon="-5.13859">
        <ele>108.97</ele>
        <time>2021-03-20T23:19:21Z</time>
      </trkpt>
      <trkpt lat="58.00496" lon="-5.13957">
        <ele>107.46</ele>
        <time>2021-03-20T23:19:24Z</time>
      </trkpt>
      <trkpt lat="58.00522" lon="-5.13994">
        <ele>109.54</ele>
        <time>2021-03-20T23:19:27Z</time>
      </trkpt>
      <trkpt lat="58.00545" lon="-5.14023">
        <ele>109.43</ele>
        <time>2021-03-20T23:19:31Z</time>
      </trkpt>
      <trkpt lat="58.00581" lon="-5.14057">
        <ele>109.75</ele>
        <time>2021-03-20T23:19:34Z</time>
      </trkpt>
      <trkpt lat="58.006" lon="-5.14083">
        <ele>108.03</ele>
        <time>2021-03-20T23:19:37Z</time>
      </trkpt>
      <trkpt lat="58.00608" lon="-5.14111">
        <ele>106.04</ele>
        <time>2021-03-20T23:19:41Z</time>
      </trkpt>
      <trkpt lat="58.00614" lon="-5.14142">
        <ele>104.24</ele>
        <time>2021-03-20T23:19:44Z</time>
      </trkpt>
      <trkpt lat="58.00628" lon="-5.14185">
        <ele>103.84</ele>
        <time>2021-03-20T23:19:47Z</time>
      </trkpt>
      <trkpt lat="58.00632" lon="-5.14222">
        <ele>103.04</ele>
        <time>2021-03-20T23:19:51Z</time>
      </trkpt>
      <trkpt lat="58.00632" lon="-5.14267">
        <ele>100.68</ele>
        <time>2021-03-20T23:19:54Z</time>
      </trkpt>
      <trkpt lat="58.00641" lon="-5.14286">
        <ele>100.87</ele>
        <time>2021-03-20T23:19:57Z</time>
      </trkpt>
      <trkpt lat="58.00682" lon="-5.14302">
        <ele>100.51</ele>
        <time>2021-03-20T23:20:01Z</time>
      </trkpt>
      <trkpt lat="58.00714" lon="-5.14303">
        <ele>100.2</ele>
        <time>2021-03-20T23:20:04Z</time>
      </trkpt>
      <trkpt lat="58.00735" lon="-5.14313">
        <ele>100.99</ele>
        <time>2021-03-20T23:20:07Z</time>
      </trkpt>
      <trkpt lat="58.00755" lon="-5.14347">
        <ele>99.07</ele>
        <time>2021-03-20T23:20:10Z</time>
      </trkpt>
      <trkpt lat="58.0077" lon="-5.14379">
        <ele>97.27</ele>
        <time>2021-03-20T23:20:14Z</time>
      </trkpt>
      <trkpt lat="58.00791" lon="-5.14424">
        <ele>95.21</ele>
        <time>2021-03-20T23:20:17Z</time>
      </trkpt>
      <trkpt lat="58.00834" lon="-5.14528">
        <ele>90.19</ele>
        <time>2021-03-20T23:20:20Z</time>
      </trkpt>
      <trkpt lat="58.00851" lon="-5.14594">
        <ele>86.26</ele>
        <time>2021-03-20T23:20:24Z</time>
      </trkpt>
      <trkpt lat="58.00902" lon="-5.147">
        <ele>81.54</ele>
        <time>2021-03-20T23:20:27Z</time>
      </trkpt>
      <trkpt lat="58.00925" lon="-5.14736">
        <ele>79.57</ele>
        <time>2021-03-20T23:20:30Z</time>
      </trkpt>
      <trkpt lat="58.00947" lon="-5.14783">
        <ele>76.9</ele>
        <time>2021-03-20T23:20:34Z</time>
      </trkpt>
      <trkpt lat="58.01011" lon="-5.14938">
        <ele>75.27</ele>
        <time>2021-03-20T23:20:37Z</time>
      </trkpt>
      <trkpt lat="58.01039" lon="-5.15018">
        <ele>74.14</ele>
        <time>2021-03-20T23:20:40Z</time>
      </trkpt>
      <trkpt lat="58.01058" lon="-5.15101">
        <ele>70.74</ele>
        <time>2021-03-20T23:20:44Z</time>
      </trkpt>
      <trkpt lat="58.01098" lon="-5.15219">
        <ele>69.29</ele>
        <time>2021-03-20T23:20:47Z</time>
      </trkpt>
      <trkpt lat="58.01123" lon="-5.15287">
        <ele>69.13</ele>
        <time>2021-03-20T23:20:50Z</time>
      </trkpt>
      <trkpt lat="58.01139" lon="-5.15314">
        <ele>69.08</ele>
        <time>2021-03-20T23:20:53Z</time>
      </trkpt>
      <trkpt lat="58.01158" lon="-5.1533">
        <ele>71.55</ele>
        <time>2021-03-20T23:20:57Z</time>
      </trkpt>
      <trkpt lat="58.01172" lon="-5.15352">
        <ele>72.04</ele>
        <time>2021-03-20T23:21:00Z</time>
      </trkpt>
      <trkpt lat="58.01189" lon="-5.15389">
        <ele>70.19</ele>
        <time>2021-03-20T23:21:03Z</time>
      </trkpt>
      <trkpt lat="58.01211" lon="-5.15418">
        <ele>70.24</ele>
        <time>2021-03-20T23:21:07Z</time>
      </trkpt>
      <trkpt lat="58.01296" lon="-5.15505">
        <ele>74.82</ele>
        <time>2021-03-20T23:21:10Z</time>
      </trkpt>
      <trkpt lat="58.01323" lon="-5.1555">
        <ele>74.63</ele>
        <time>2021-03-20T23:21:13Z</time>
      </trkpt>
      <trkpt lat="58.01349" lon="-5.15615">
        <ele>71.04</ele>
        <time>2021-03-20T23:21:17Z</time>
      </trkpt>
      <trkpt lat="58.01408" lon="-5.15697">
        <ele>75.46</ele>
        <time>2021-03-20T23:21:20Z</time>
      </trkpt>
      <trkpt lat="58.01441" lon="-5.15729">
        <ele>77.09</ele>
        <time>2021-03-20T23:21:23Z</time>
      </trkpt>
      <trkpt lat="58.01494" lon="-5.15771">
        <ele>78.24</ele>
        <time>2021-03-20T23:21:27Z</time>
      </trkpt>
      <trkpt lat="58.01502" lon="-5.15784">
        <ele>77.79</ele>
        <time>2021-03-20T23:21:30Z</time>
      </trkpt>
      <trkpt lat="58.01515" lon="-5.15814">
        <ele>77.49</ele>
        <time>2021-03-20T23:21:33Z</time>
      </trkpt>
      <trkpt lat="58.01532" lon="-5.15867">
        <ele>76.4</ele>
        <time>2021-03-20T23:21:37Z</time>
      </trkpt>
      <trkpt lat="58.01547" lon="-5.15898">
        <ele>77.15</ele>
        <time>2021-03-20T23:21:40Z</time>
      </trkpt>
      <trkpt lat="58.01605" lon="-5.15978">
        <ele>82.42</ele>
        <time>2021-03-20T23:21:43Z</time>
      </trkpt>
      <trkpt lat="58.01633" lon="-5.16046">
        <ele>80.92</ele>
        <time>2021-03-20T23:21:46Z</time>
      </trkpt>
      <trkpt lat="58.0165" lon="-5.16078">
        <ele>80.9</ele>
        <time>2021-03-20T23:21:50Z</time>
      </trkpt>
      <trkpt lat="58.01672" lon="-5.16099">
        <ele>83.17</ele>
        <time>2021-03-20T23:21:53Z</time>
      </trkpt>
      <trkpt lat="58.01732" lon="-5.16139">
        <ele>83.69</ele>
        <time>2021-03-20T23:21:56Z</time>
      </trkpt>
      <trkpt lat="58.01761" lon="-5.1618">
        <ele>82.97</ele>
        <time>2021-03-20T23:22:00Z</time>
      </trkpt>
      <trkpt lat="58.01834" lon="-5.16265">
        <ele>84.96</ele>
        <time>2021-03-20T23:22:03Z</time>
      </trkpt>
      <trkpt lat="58.01868" lon="-5.16299">
        <ele>84.55</ele>
        <time>2021-03-20T23:22:06Z</time>
      </trkpt>
      <trkpt lat="58.01906" lon="-5.1632">
        <ele>81.63</ele>
        <time>2021-03-20T23:22:10Z</time>
      </trkpt>
      <trkpt lat="58.01931" lon="-5.16352">
        <ele>78.57</ele>
        <time>2021-03-20T23:22:13Z</time>
      </trkpt>
      <trkpt lat="58.01966" lon="-5.16411">
        <ele>75.14</ele>
        <time>2021-03-20T23:22:16Z</time>
      </trkpt>
      <trkpt lat="58.02026" lon="-5.16478">
        <ele>75.41</ele>
        <time>2021-03-20T23:22:20Z</time>
      </trkpt>
      <trkpt lat="58.0205" lon="-5.16522">
        <ele>74.68</ele>
        <time>2021-03-20T23:22:23Z</time>
      </trkpt>
      <trkpt lat="58.0208" lon="-5.16586">
        <ele>74.47</ele>
        <time>2021-03-20T23:22:26Z</time>
      </trkpt>
      <trkpt lat="58.021" lon="-5.1662">
        <ele>74.15</ele>
        <time>2021-03-20T23:22:29Z</time>
      </trkpt>
      <trkpt lat="58.02158" lon="-5.1673">
        <ele>72.29</ele>
        <time>2021-03-20T23:22:33Z</time>
      </trkpt>
      <trkpt lat="58.02212" lon="-5.16851">
        <ele>71.06</ele>
        <time>2021-03-20T23:22:36Z</time>
      </trkpt>
      <trkpt lat="58.02245" lon="-5.1693">
        <ele>68.47</ele>
        <time>2021-03-20T23:22:39Z</time>
      </trkpt>
      <trkpt lat="58.02263" lon="-5.16957">
        <ele>68.02</ele>
        <time>2021-03-20T23:22:43Z</time>
      </trkpt>
      <trkpt lat="58.02284" lon="-5.16973">
        <ele>68.19</ele>
        <time>2021-03-20T23:22:46Z</time>
      </trkpt>
      <trkpt lat="58.02392" lon="-5.17">
        <ele>70.27</ele>
        <time>2021-03-20T23:22:49Z</time>
      </trkpt>
      <trkpt lat="58.02423" lon="-5.17014">
        <ele>70.87</ele>
        <time>2021-03-20T23:22:53Z</time>
      </trkpt>
      <trkpt lat="58.02439" lon="-5.17028">
        <ele>69.67</ele>
        <time>2021-03-20T23:22:56Z</time>
      </trkpt>
      <trkpt lat="58.02459" lon="-5.17039">
        <ele>69.47</ele>
        <time>2021-03-20T23:22:59Z</time>
      </trkpt>
      <trkpt lat="58.02539" lon="-5.17058">
        <ele>68.52</ele>
        <time>2021-03-20T23:23:03Z</time>
      </trkpt>
      <trkpt lat="58.026" lon="-5.17099">
        <ele>66.25</ele>
        <time>2021-03-20T23:23:06Z</time>
      </trkpt>
      <trkpt lat="58.02678" lon="-5.17134">
        <ele>66.7</ele>
        <time>2021-03-20T23:23:09Z</time>
      </trkpt>
      <trkpt lat="58.02724" lon="-5.1717">
        <ele>67.88</ele>
        <time>2021-03-20T23:23:12Z</time>
      </trkpt>
      <trkpt lat="58.0284" lon="-5.17301">
        <ele>70.35</ele>
        <time>2021-03-20T23:23:16Z</time>
      </trkpt>
      <trkpt lat="58.02914" lon="-5.17372">
        <ele>69.02</ele>
        <time>2021-03-20T23:23:19Z</time>
      </trkpt>
      <trkpt lat="58.02993" lon="-5.17441">
        <ele>72.36</ele>
        <time>2021-03-20T23:23:22Z</time>
      </trkpt>
      <trkpt lat="58.03028" lon="-5.1748">
        <ele>73.24</ele>
        <time>2021-03-20T23:23:26Z</time>
      </trkpt>
      <trkpt lat="58.03058" lon="-5.17549">
        <ele>73.14</ele>
        <time>2021-03-20T23:23:29Z</time>
      </trkpt>
      <trkpt lat="58.03079" lon="-5.17622">
        <ele>71.78</ele>
        <time>2021-03-20T23:23:32Z</time>
      </trkpt>
      <trkpt lat="58.03094" lon="-5.17692">
        <ele>72.72</ele>
        <time>2021-03-20T23:23:36Z</time>
      </trkpt>
      <trkpt lat="58.03104" lon="-5.17802">
        <ele>73.26</ele>
        <time>2021-03-20T23:23:39Z</time>
      </trkpt>
      <trkpt lat="58.03105" lon="-5.17852">
        <ele>72.99</ele>
        <time>2021-03-20T23:23:42Z</time>
      </trkpt>
      <trkpt lat="58.03116" lon="-5.17957">
        <ele>73.45</ele>
        <time>2021-03-20T23:23:46Z</time>
      </trkpt>
      <trkpt lat="58.0312" lon="-5.17969">
        <ele>73.63</ele>
        <time>2021-03-20T23:23:49Z</time>
      </trkpt>
      <trkpt lat="58.03126" lon="-5.18016">
        <ele>73.82</ele>
        <time>2021-03-20T23:23:52Z</time>
      </trkpt>
      <trkpt lat="58.03133" lon="-5.18188">
        <ele>72.21</ele>
        <time>2021-03-20T23:23:56Z</time>
      </trkpt>
      <trkpt lat="58.03134" lon="-5.18343">
        <ele>70.76</ele>
        <time>2021-03-20T23:23:59Z</time>
      </trkpt>
      <trkpt lat="58.03158" lon="-5.1856">
        <ele>71.92</ele>
        <time>2021-03-20T23:24:02Z</time>
      </trkpt>
      <trkpt lat="58.03172" lon="-5.18666">
        <ele>74.07</ele>
        <time>2021-03-20T23:24:05Z</time>
      </trkpt>
      <trkpt lat="58.03176" lon="-5.18759">
        <ele>73.95</ele>
        <time>2021-03-20T23:24:09Z</time>
      </trkpt>
      <trkpt lat="58.03166" lon="-5.19062">
        <ele>70.6</ele>
        <time>2021-03-20T23:24:12Z</time>
      </trkpt>
      <trkpt lat="58.03176" lon="-5.19144">
        <ele>70.45</ele>
        <time>2021-03-20T23:24:15Z</time>
      </trkpt>
      <trkpt lat="58.03234" lon="-5.19444">
        <ele>68.08</ele>
        <time>2021-03-20T23:24:19Z</time>
      </trkpt>
      <trkpt lat="58.03241" lon="-5.19533">
        <ele>63.57</ele>
        <time>2021-03-20T23:24:22Z</time>
      </trkpt>
      <trkpt lat="58.03261" lon="-5.19568">
        <ele>68.3</ele>
        <time>2021-03-20T23:24:25Z</time>
      </trkpt>
      <trkpt lat="58.03275" lon="-5.19621">
        <ele>70.54</ele>
        <time>2021-03-20T23:24:29Z</time>
      </trkpt>
      <trkpt lat="58.03288" lon="-5.19689">
        <ele>69.19</ele>
        <time>2021-03-20T23:24:32Z</time>
      </trkpt>
      <trkpt lat="58.033" lon="-5.19793">
        <ele>65.24</ele>
        <time>2021-03-20T23:24:35Z</time>
      </trkpt>
      <trkpt lat="58.0332" lon="-5.19862">
        <ele>64.62</ele>
        <time>2021-03-20T23:24:39Z</time>
      </trkpt>
      <trkpt lat="58.03346" lon="-5.20001">
        <ele>68.29</ele>
        <time>2021-03-20T23:24:42Z</time>
      </trkpt>
      <trkpt lat="58.03364" lon="-5.20078">
        <ele>66.9</ele>
        <time>2021-03-20T23:24:45Z</time>
      </trkpt>
      <trkpt lat="58.03374" lon="-5.20114">
        <ele>66.18</ele>
        <time>2021-03-20T23:24:48Z</time>
      </trkpt>
      <trkpt lat="58.03393" lon="-5.20167">
        <ele>64.67</ele>
        <time>2021-03-20T23:24:52Z</time>
      </trkpt>
      <trkpt lat="58.03403" lon="-5.20186">
        <ele>64.75</ele>
        <time>2021-03-20T23:24:55Z</time>
      </trkpt>
      <trkpt lat="58.03454" lon="-5.20234">
        <ele>73.5</ele>
        <time>2021-03-20T23:24:58Z</time>
      </trkpt>
      <trkpt lat="58.03461" lon="-5.2025">
        <ele>76.04</ele>
        <time>2021-03-20T23:25:02Z</time>
      </trkpt>
      <trkpt lat="58.03469" lon="-5.20293">
        <ele>78.32</ele>
        <time>2021-03-20T23:25:05Z</time>
      </trkpt>
      <trkpt lat="58.03474" lon="-5.2036">
        <ele>77.65</ele>
        <time>2021-03-20T23:25:08Z</time>
      </trkpt>
      <trkpt lat="58.03465" lon="-5.20778">
        <ele>83.42</ele>
        <time>2021-03-20T23:25:12Z</time>
      </trkpt>
      <trkpt lat="58.03456" lon="-5.20846">
        <ele>84.51</ele>
        <time>2021-03-20T23:25:15Z</time>
      </trkpt>
      <trkpt lat="58.03403" lon="-5.21044">
        <ele>86.04</ele>
        <time>2021-03-20T23:25:18Z</time>
      </trkpt>
      <trkpt lat="58.03379" lon="-5.211">
        <ele>86.78</ele>
        <time>2021-03-20T23:25:22Z</time>
      </trkpt>
      <trkpt lat="58.03338" lon="-5.21177">
        <ele>86.5</ele>
        <time>2021-03-20T23:25:25Z</time>
      </trkpt>
      <trkpt lat="58.03333" lon="-5.21194">
        <ele>86.9</ele>
        <time>2021-03-20T23:25:28Z</time>
      </trkpt>
      <trkpt lat="58.03331" lon="-5.21209">
        <ele>87.1</ele>
        <time>2021-03-20T23:25:32Z</time>
      </trkpt>
      <trkpt lat="58.03331" lon="-5.21235">
        <ele>87.97</ele>
        <time>2021-03-20T23:25:35Z</time>
      </trkpt>
      <trkpt lat="58.0334" lon="-5.21359">
        <ele>91.13</ele>
        <time>2021-03-20T23:25:38Z</time>
      </trkpt>
      <trkpt lat="58.03348" lon="-5.21424">
        <ele>92.57</ele>
        <time>2021-03-20T23:25:41Z</time>
      </trkpt>
      <trkpt lat="58.03349" lon="-5.21459">
        <ele>92.98</ele>
        <time>2021-03-20T23:25:45Z</time>
      </trkpt>
      <trkpt lat="58.03332" lon="-5.21884">
        <ele>96.74</ele>
        <time>2021-03-20T23:25:48Z</time>
      </trkpt>
      <trkpt lat="58.03313" lon="-5.22235">
        <ele>98.25</ele>
        <time>2021-03-20T23:25:51Z</time>
      </trkpt>
      <trkpt lat="58.03314" lon="-5.22266">
        <ele>98.24</ele>
        <time>2021-03-20T23:25:55Z</time>
      </trkpt>
      <trkpt lat="58.03333" lon="-5.22371">
        <ele>96.59</ele>
        <time>2021-03-20T23:25:58Z</time>
      </trkpt>
      <trkpt lat="58.03352" lon="-5.22439">
        <ele>98.8</ele>
        <time>2021-03-20T23:26:01Z</time>
      </trkpt>
      <trkpt lat="58.03356" lon="-5.22461">
        <ele>100</ele>
        <time>2021-03-20T23:26:05Z</time>
      </trkpt>
      <trkpt lat="58.03355" lon="-5.22492">
        <ele>100.72</ele>
        <time>2021-03-20T23:26:08Z</time>
      </trkpt>
      <trkpt lat="58.03347" lon="-5.22609">
        <ele>97.87</ele>
        <time>2021-03-20T23:26:11Z</time>
      </trkpt>
      <trkpt lat="58.03345" lon="-5.2283">
        <ele>97.28</ele>
        <time>2021-03-20T23:26:15Z</time>
      </trkpt>
      <trkpt lat="58.03338" lon="-5.23087">
        <ele>99.76</ele>
        <time>2021-03-20T23:26:18Z</time>
      </trkpt>
      <trkpt lat="58.03338" lon="-5.23198">
        <ele>99.98</ele>
        <time>2021-03-20T23:26:21Z</time>
      </trkpt>
      <trkpt lat="58.03326" lon="-5.2332">
        <ele>96.76</ele>
        <time>2021-03-20T23:26:24Z</time>
      </trkpt>
      <trkpt lat="58.03329" lon="-5.23352">
        <ele>95.16</ele>
        <time>2021-03-20T23:26:28Z</time>
      </trkpt>
      <trkpt lat="58.03335" lon="-5.2337">
        <ele>94.54</ele>
        <time>2021-03-20T23:26:31Z</time>
      </trkpt>
      <trkpt lat="58.03349" lon="-5.23394">
        <ele>94.54</ele>
        <time>2021-03-20T23:26:34Z</time>
      </trkpt>
      <trkpt lat="58.0339" lon="-5.23497">
        <ele>88.57</ele>
        <time>2021-03-20T23:26:38Z</time>
      </trkpt>
      <trkpt lat="58.03419" lon="-5.23556">
        <ele>85.04</ele>
        <time>2021-03-20T23:26:41Z</time>
      </trkpt>
      <trkpt lat="58.03425" lon="-5.23566">
        <ele>84.37</ele>
        <time>2021-03-20T23:26:44Z</time>
      </trkpt>
      <trkpt lat="58.03432" lon="-5.23575">
        <ele>83.58</ele>
        <time>2021-03-20T23:26:48Z</time>
      </trkpt>
      <trkpt lat="58.03478" lon="-5.23598">
        <ele>84.42</ele>
        <time>2021-03-20T23:26:51Z</time>
      </trkpt>
      <trkpt lat="58.03494" lon="-5.23614">
        <ele>83.97</ele>
        <time>2021-03-20T23:26:54Z</time>
      </trkpt>
      <trkpt lat="58.03512" lon="-5.2365">
        <ele>81.1</ele>
        <time>2021-03-20T23:26:58Z</time>
      </trkpt>
      <trkpt lat="58.0353" lon="-5.23665">
        <ele>81.57</ele>
        <time>2021-03-20T23:27:01Z</time>
      </trkpt>
      <trkpt lat="58.03559" lon="-5.23681">
        <ele>83.38</ele>
        <time>2021-03-20T23:27:04Z</time>
      </trkpt>
      <trkpt lat="58.03568" lon="-5.23694">
        <ele>83.21</ele>
        <time>2021-03-20T23:27:08Z</time>
      </trkpt>
      <trkpt lat="58.03575" lon="-5.2371">
        <ele>81.92</ele>
        <time>2021-03-20T23:27:11Z</time>
      </trkpt>
      <trkpt lat="58.03578" lon="-5.23728">
        <ele>79.67</ele>
        <time>2021-03-20T23:27:14Z</time>
      </trkpt>
      <trkpt lat="58.03581" lon="-5.23825">
        <ele>73.21</ele>
        <time>2021-03-20T23:27:17Z</time>
      </trkpt>
      <trkpt lat="58.03588" lon="-5.23902">
        <ele>70.19</ele>
        <time>2021-03-20T23:27:21Z</time>
      </trkpt>
      <trkpt lat="58.03594" lon="-5.23931">
        <ele>70.04</ele>
        <time>2021-03-20T23:27:24Z</time>
      </trkpt>
      <trkpt lat="58.03609" lon="-5.23988">
        <ele>68.87</ele>
        <time>2021-03-20T23:27:27Z</time>
      </trkpt>
      <trkpt lat="58.03623" lon="-5.24016">
        <ele>69.44</ele>
        <time>2021-03-20T23:27:31Z</time>
      </trkpt>
      <trkpt lat="58.03669" lon="-5.24088">
        <ele>71</ele>
        <time>2021-03-20T23:27:34Z</time>
      </trkpt>
      <trkpt lat="58.03693" lon="-5.24138">
        <ele>68.88</ele>
        <time>2021-03-20T23:27:37Z</time>
      </trkpt>
      <trkpt lat="58.03739" lon="-5.24221">
        <ele>65.97</ele>
        <time>2021-03-20T23:27:41Z</time>
      </trkpt>
      <trkpt lat="58.03764" lon="-5.24241">
        <ele>64.9</ele>
        <time>2021-03-20T23:27:44Z</time>
      </trkpt>
      <trkpt lat="58.03795" lon="-5.24272">
        <ele>62.13</ele>
        <time>2021-03-20T23:27:47Z</time>
      </trkpt>
      <trkpt lat="58.03842" lon="-5.24335">
        <ele>60.16</ele>
        <time>2021-03-20T23:27:51Z</time>
      </trkpt>
      <trkpt lat="58.03907" lon="-5.24404">
        <ele>59.53</ele>
        <time>2021-03-20T23:27:54Z</time>
      </trkpt>
      <trkpt lat="58.03952" lon="-5.24448">
        <ele>58.78</ele>
        <time>2021-03-20T23:27:57Z</time>
      </trkpt>
      <trkpt lat="58.03973" lon="-5.24474">
        <ele>60.12</ele>
        <time>2021-03-20T23:28:00Z</time>
      </trkpt>
      <trkpt lat="58.04032" lon="-5.24621">
        <ele>60.91</ele>
        <time>2021-03-20T23:28:04Z</time>
      </trkpt>
      <trkpt lat="58.04072" lon="-5.24709">
        <ele>59.67</ele>
        <time>2021-03-20T23:28:07Z</time>
      </trkpt>
      <trkpt lat="58.04109" lon="-5.24763">
        <ele>59.37</ele>
        <time>2021-03-20T23:28:10Z</time>
      </trkpt>
      <trkpt lat="58.04151" lon="-5.24804">
        <ele>57.57</ele>
        <time>2021-03-20T23:28:14Z</time>
      </trkpt>
      <trkpt lat="58.04219" lon="-5.24861">
        <ele>55.8</ele>
        <time>2021-03-20T23:28:17Z</time>
      </trkpt>
      <trkpt lat="58.04245" lon="-5.24889">
        <ele>56.47</ele>
        <time>2021-03-20T23:28:20Z</time>
      </trkpt>
      <trkpt lat="58.04283" lon="-5.24965">
        <ele>57.7</ele>
        <time>2021-03-20T23:28:24Z</time>
      </trkpt>
      <trkpt lat="58.04338" lon="-5.25099">
        <ele>56.77</ele>
        <time>2021-03-20T23:28:27Z</time>
      </trkpt>
      <trkpt lat="58.0439" lon="-5.25214">
        <ele>54.04</ele>
        <time>2021-03-20T23:28:30Z</time>
      </trkpt>
      <trkpt lat="58.04422" lon="-5.25297">
        <ele>54.5</ele>
        <time>2021-03-20T23:28:34Z</time>
      </trkpt>
      <trkpt lat="58.04439" lon="-5.25376">
        <ele>54</ele>
        <time>2021-03-20T23:28:37Z</time>
      </trkpt>
      <trkpt lat="58.04447" lon="-5.25549">
        <ele>56.3</ele>
        <time>2021-03-20T23:28:40Z</time>
      </trkpt>
      <trkpt lat="58.04459" lon="-5.256">
        <ele>56.6</ele>
        <time>2021-03-20T23:28:43Z</time>
      </trkpt>
      <trkpt lat="58.04514" lon="-5.25771">
        <ele>56.61</ele>
        <time>2021-03-20T23:28:47Z</time>
      </trkpt>
      <trkpt lat="58.04549" lon="-5.25899">
        <ele>56.14</ele>
        <time>2021-03-20T23:28:50Z</time>
      </trkpt>
      <trkpt lat="58.04573" lon="-5.25996">
        <ele>56.6</ele>
        <time>2021-03-20T23:28:53Z</time>
      </trkpt>
      <trkpt lat="58.04588" lon="-5.26075">
        <ele>57</ele>
        <time>2021-03-20T23:28:57Z</time>
      </trkpt>
      <trkpt lat="58.04612" lon="-5.26229">
        <ele>55.92</ele>
        <time>2021-03-20T23:29:00Z</time>
      </trkpt>
      <trkpt lat="58.04639" lon="-5.26372">
        <ele>54.06</ele>
        <time>2021-03-20T23:29:03Z</time>
      </trkpt>
      <trkpt lat="58.04658" lon="-5.26481">
        <ele>56.02</ele>
        <time>2021-03-20T23:29:07Z</time>
      </trkpt>
      <trkpt lat="58.04662" lon="-5.26726">
        <ele>55.82</ele>
        <time>2021-03-20T23:29:10Z</time>
      </trkpt>
      <trkpt lat="58.04669" lon="-5.26848">
        <ele>56.89</ele>
        <time>2021-03-20T23:29:13Z</time>
      </trkpt>
      <trkpt lat="58.04673" lon="-5.27">
        <ele>59.9</ele>
        <time>2021-03-20T23:29:17Z</time>
      </trkpt>
      <trkpt lat="58.04667" lon="-5.273">
        <ele>59.21</ele>
        <time>2021-03-20T23:29:20Z</time>
      </trkpt>
      <trkpt lat="58.04661" lon="-5.27476">
        <ele>59.43</ele>
        <time>2021-03-20T23:29:23Z</time>
      </trkpt>
      <trkpt lat="58.0467" lon="-5.27566">
        <ele>58.08</ele>
        <time>2021-03-20T23:29:27Z</time>
      </trkpt>
      <trkpt lat="58.04703" lon="-5.27697">
        <ele>59.46</ele>
        <time>2021-03-20T23:29:30Z</time>
      </trkpt>
      <trkpt lat="58.04714" lon="-5.27787">
        <ele>58.48</ele>
        <time>2021-03-20T23:29:33Z</time>
      </trkpt>
      <trkpt lat="58.04721" lon="-5.2788">
        <ele>58.85</ele>
        <time>2021-03-20T23:29:36Z</time>
      </trkpt>
      <trkpt lat="58.04719" lon="-5.27921">
        <ele>59.58</ele>
        <time>2021-03-20T23:29:40Z</time>
      </trkpt>
      <trkpt lat="58.04715" lon="-5.2796">
        <ele>59</ele>
        <time>2021-03-20T23:29:43Z</time>
      </trkpt>
      <trkpt lat="58.04716" lon="-5.27997">
        <ele>59.07</ele>
        <time>2021-03-20T23:29:46Z</time>
      </trkpt>
      <trkpt lat="58.04736" lon="-5.28132">
        <ele>60.21</ele>
        <time>2021-03-20T23:29:50Z</time>
      </trkpt>
      <trkpt lat="58.04738" lon="-5.28173">
        <ele>60.42</ele>
        <time>2021-03-20T23:29:53Z</time>
      </trkpt>
      <trkpt lat="58.04733" lon="-5.28262">
        <ele>59.76</ele>
        <time>2021-03-20T23:29:56Z</time>
      </trkpt>
      <trkpt lat="58.04734" lon="-5.28303">
        <ele>59.84</ele>
        <time>2021-03-20T23:30:00Z</time>
      </trkpt>
      <trkpt lat="58.04741" lon="-5.28337">
        <ele>60.27</ele>
        <time>2021-03-20T23:30:03Z</time>
      </trkpt>
      <trkpt lat="58.04771" lon="-5.28435">
        <ele>60.74</ele>
        <time>2021-03-20T23:30:06Z</time>
      </trkpt>
      <trkpt lat="58.04791" lon="-5.28383">
        <ele>62.98</ele>
        <time>2021-03-20T23:30:09Z</time>
      </trkpt>
      <trkpt lat="58.04804" lon="-5.28288">
        <ele>66.45</ele>
        <time>2021-03-20T23:30:12Z</time>
      </trkpt>
      <trkpt lat="58.04812" lon="-5.28172">
        <ele>71.03</ele>
        <time>2021-03-20T23:30:15Z</time>
      </trkpt>
      <trkpt lat="58.04818" lon="-5.28128">
        <ele>73.18</ele>
        <time>2021-03-20T23:30:17Z</time>
      </trkpt>
      <trkpt lat="58.04828" lon="-5.28052">
        <ele>76.15</ele>
        <time>2021-03-20T23:30:20Z</time>
      </trkpt>
      <trkpt lat="58.04848" lon="-5.27934">
        <ele>81.66</ele>
        <time>2021-03-20T23:30:23Z</time>
      </trkpt>
      <trkpt lat="58.04879" lon="-5.27806">
        <ele>87.53</ele>
        <time>2021-03-20T23:30:25Z</time>
      </trkpt>
      <trkpt lat="58.04939" lon="-5.27616">
        <ele>96.07</ele>
        <time>2021-03-20T23:30:28Z</time>
      </trkpt>
      <trkpt lat="58.04954" lon="-5.27562">
        <ele>98.37</ele>
        <time>2021-03-20T23:30:31Z</time>
      </trkpt>
      <trkpt lat="58.04963" lon="-5.27506">
        <ele>99.78</ele>
        <time>2021-03-20T23:30:34Z</time>
      </trkpt>
      <trkpt lat="58.04986" lon="-5.27323">
        <ele>105.01</ele>
        <time>2021-03-20T23:30:36Z</time>
      </trkpt>
      <trkpt lat="58.05008" lon="-5.27084">
        <ele>111.83</ele>
        <time>2021-03-20T23:30:39Z</time>
      </trkpt>
      <trkpt lat="58.05026" lon="-5.26922">
        <ele>117.75</ele>
        <time>2021-03-20T23:30:42Z</time>
      </trkpt>
      <trkpt lat="58.05048" lon="-5.26795">
        <ele>124.28</ele>
        <time>2021-03-20T23:30:44Z</time>
      </trkpt>
      <trkpt lat="58.05083" lon="-5.26682">
        <ele>127.96</ele>
        <time>2021-03-20T23:30:47Z</time>
      </trkpt>
      <trkpt lat="58.05118" lon="-5.26632">
        <ele>130.23</ele>
        <time>2021-03-20T23:30:50Z</time>
      </trkpt>
      <trkpt lat="58.05159" lon="-5.26595">
        <ele>131.71</ele>
        <time>2021-03-20T23:30:53Z</time>
      </trkpt>
      <trkpt lat="58.05238" lon="-5.26546">
        <ele>130.43</ele>
        <time>2021-03-20T23:30:55Z</time>
      </trkpt>
      <trkpt lat="58.05293" lon="-5.26507">
        <ele>126.65</ele>
        <time>2021-03-20T23:30:58Z</time>
      </trkpt>
      <trkpt lat="58.05307" lon="-5.2648">
        <ele>124.83</ele>
        <time>2021-03-20T23:31:01Z</time>
      </trkpt>
      <trkpt lat="58.05315" lon="-5.26445">
        <ele>123.23</ele>
        <time>2021-03-20T23:31:03Z</time>
      </trkpt>
      <trkpt lat="58.05322" lon="-5.26365">
        <ele>120.52</ele>
        <time>2021-03-20T23:31:06Z</time>
      </trkpt>
      <trkpt lat="58.05329" lon="-5.26342">
        <ele>118.14</ele>
        <time>2021-03-20T23:31:09Z</time>
      </trkpt>
      <trkpt lat="58.05335" lon="-5.26339">
        <ele>116.88</ele>
        <time>2021-03-20T23:31:12Z</time>
      </trkpt>
      <trkpt lat="58.05341" lon="-5.26348">
        <ele>116.22</ele>
        <time>2021-03-20T23:31:14Z</time>
      </trkpt>
      <trkpt lat="58.05354" lon="-5.26397">
        <ele>114.49</ele>
        <time>2021-03-20T23:31:17Z</time>
      </trkpt>
      <trkpt lat="58.05369" lon="-5.26426">
        <ele>112.93</ele>
        <time>2021-03-20T23:31:20Z</time>
      </trkpt>
      <trkpt lat="58.05415" lon="-5.26457">
        <ele>108.13</ele>
        <time>2021-03-20T23:31:22Z</time>
      </trkpt>
      <trkpt lat="58.05469" lon="-5.26505">
        <ele>104.42</ele>
        <time>2021-03-20T23:31:25Z</time>
      </trkpt>
      <trkpt lat="58.05513" lon="-5.26586">
        <ele>101.12</ele>
        <time>2021-03-20T23:31:28Z</time>
      </trkpt>
      <trkpt lat="58.05534" lon="-5.26616">
        <ele>99.14</ele>
        <time>2021-03-20T23:31:30Z</time>
      </trkpt>
      <trkpt lat="58.05565" lon="-5.26629">
        <ele>99</ele>
        <time>2021-03-20T23:31:33Z</time>
      </trkpt>
      <trkpt lat="58.05601" lon="-5.26609">
        <ele>98.85</ele>
        <time>2021-03-20T23:31:36Z</time>
      </trkpt>
      <trkpt lat="58.05639" lon="-5.26573">
        <ele>94.91</ele>
        <time>2021-03-20T23:31:39Z</time>
      </trkpt>
      <trkpt lat="58.05662" lon="-5.26558">
        <ele>90.68</ele>
        <time>2021-03-20T23:31:41Z</time>
      </trkpt>
      <trkpt lat="58.05682" lon="-5.26563">
        <ele>88.87</ele>
        <time>2021-03-20T23:31:44Z</time>
      </trkpt>
      <trkpt lat="58.05707" lon="-5.26591">
        <ele>89.83</ele>
        <time>2021-03-20T23:31:47Z</time>
      </trkpt>
      <trkpt lat="58.05729" lon="-5.2659">
        <ele>85.58</ele>
        <time>2021-03-20T23:31:49Z</time>
      </trkpt>
      <trkpt lat="58.05741" lon="-5.26596">
        <ele>84.13</ele>
        <time>2021-03-20T23:31:52Z</time>
      </trkpt>
      <trkpt lat="58.05757" lon="-5.26621">
        <ele>83.54</ele>
        <time>2021-03-20T23:31:55Z</time>
      </trkpt>
      <trkpt lat="58.0577" lon="-5.26656">
        <ele>83.91</ele>
        <time>2021-03-20T23:31:58Z</time>
      </trkpt>
      <trkpt lat="58.05793" lon="-5.26683">
        <ele>82.26</ele>
        <time>2021-03-20T23:32:00Z</time>
      </trkpt>
      <trkpt lat="58.05817" lon="-5.26689">
        <ele>80.16</ele>
        <time>2021-03-20T23:32:03Z</time>
      </trkpt>
      <trkpt lat="58.05855" lon="-5.26675">
        <ele>77.85</ele>
        <time>2021-03-20T23:32:06Z</time>
      </trkpt>
      <trkpt lat="58.05891" lon="-5.26656">
        <ele>76.55</ele>
        <time>2021-03-20T23:32:08Z</time>
      </trkpt>
      <trkpt lat="58.05929" lon="-5.26672">
        <ele>75.94</ele>
        <time>2021-03-20T23:32:11Z</time>
      </trkpt>
      <trkpt lat="58.05952" lon="-5.2669">
        <ele>75.57</ele>
        <time>2021-03-20T23:32:14Z</time>
      </trkpt>
      <trkpt lat="58.06001" lon="-5.26761">
        <ele>68.94</ele>
        <time>2021-03-20T23:32:17Z</time>
      </trkpt>
      <trkpt lat="58.06025" lon="-5.26776">
        <ele>67.19</ele>
        <time>2021-03-20T23:32:19Z</time>
      </trkpt>
      <trkpt lat="58.06057" lon="-5.26763">
        <ele>65.32</ele>
        <time>2021-03-20T23:32:22Z</time>
      </trkpt>
      <trkpt lat="58.06089" lon="-5.26767">
        <ele>62.4</ele>
        <time>2021-03-20T23:32:25Z</time>
      </trkpt>
      <trkpt lat="58.06118" lon="-5.26785">
        <ele>59.23</ele>
        <time>2021-03-20T23:32:27Z</time>
      </trkpt>
      <trkpt lat="58.06142" lon="-5.26813">
        <ele>56.78</ele>
        <time>2021-03-20T23:32:30Z</time>
      </trkpt>
      <trkpt lat="58.06197" lon="-5.26846">
        <ele>53.27</ele>
        <time>2021-03-20T23:32:33Z</time>
      </trkpt>
      <trkpt lat="58.06234" lon="-5.26837">
        <ele>50.32</ele>
        <time>2021-03-20T23:32:36Z</time>
      </trkpt>
      <trkpt lat="58.06263" lon="-5.26813">
        <ele>48.51</ele>
        <time>2021-03-20T23:32:38Z</time>
      </trkpt>
      <trkpt lat="58.06294" lon="-5.26759">
        <ele>49.58</ele>
        <time>2021-03-20T23:32:41Z</time>
      </trkpt>
      <trkpt lat="58.06324" lon="-5.26628">
        <ele>48.56</ele>
        <time>2021-03-20T23:32:44Z</time>
      </trkpt>
      <trkpt lat="58.06344" lon="-5.26578">
        <ele>44.78</ele>
        <time>2021-03-20T23:32:46Z</time>
      </trkpt>
      <trkpt lat="58.06372" lon="-5.26541">
        <ele>40.42</ele>
        <time>2021-03-20T23:32:49Z</time>
      </trkpt>
      <trkpt lat="58.06428" lon="-5.26517">
        <ele>34.04</ele>
        <time>2021-03-20T23:32:52Z</time>
      </trkpt>
      <trkpt lat="58.06468" lon="-5.26529">
        <ele>29.15</ele>
        <time>2021-03-20T23:32:55Z</time>
      </trkpt>
      <trkpt lat="58.06495" lon="-5.26546">
        <ele>25.55</ele>
        <time>2021-03-20T23:32:57Z</time>
      </trkpt>
      <trkpt lat="58.06516" lon="-5.26572">
        <ele>23.42</ele>
        <time>2021-03-20T23:33:00Z</time>
      </trkpt>
      <trkpt lat="58.06594" lon="-5.26714">
        <ele>14.52</ele>
        <time>2021-03-20T23:33:03Z</time>
      </trkpt>
      <trkpt lat="58.06615" lon="-5.26747">
        <ele>13.36</ele>
        <time>2021-03-20T23:33:05Z</time>
      </trkpt>
      <trkpt lat="58.06644" lon="-5.2677">
        <ele>10.66</ele>
        <time>2021-03-20T23:33:08Z</time>
      </trkpt>
      <trkpt lat="58.06664" lon="-5.2677">
        <ele>9.22</ele>
        <time>2021-03-20T23:33:11Z</time>
      </trkpt>
      <trkpt lat="58.06709" lon="-5.26725">
        <ele>9.89</ele>
        <time>2021-03-20T23:33:14Z</time>
      </trkpt>
      <trkpt lat="58.06731" lon="-5.26693">
        <ele>9.96</ele>
        <time>2021-03-20T23:33:16Z</time>
      </trkpt>
      <trkpt lat="58.06769" lon="-5.26626">
        <ele>9</ele>
        <time>2021-03-20T23:33:19Z</time>
      </trkpt>
      <trkpt lat="58.06808" lon="-5.26601">
        <ele>10.13</ele>
        <time>2021-03-20T23:33:22Z</time>
      </trkpt>
      <trkpt lat="58.06815" lon="-5.26588">
        <ele>10.59</ele>
        <time>2021-03-20T23:33:24Z</time>
      </trkpt>
      <trkpt lat="58.06825" lon="-5.26552">
        <ele>12.55</ele>
        <time>2021-03-20T23:33:27Z</time>
      </trkpt>
      <trkpt lat="58.06837" lon="-5.26447">
        <ele>17.19</ele>
        <time>2021-03-20T23:33:30Z</time>
      </trkpt>
      <trkpt lat="58.06838" lon="-5.26379">
        <ele>21.09</ele>
        <time>2021-03-20T23:33:32Z</time>
      </trkpt>
      <trkpt lat="58.06834" lon="-5.26327">
        <ele>24.8</ele>
        <time>2021-03-20T23:33:35Z</time>
      </trkpt>
      <trkpt lat="58.06815" lon="-5.26258">
        <ele>29.6</ele>
        <time>2021-03-20T23:33:38Z</time>
      </trkpt>
      <trkpt lat="58.06808" lon="-5.26148">
        <ele>31.47</ele>
        <time>2021-03-20T23:33:41Z</time>
      </trkpt>
      <trkpt lat="58.06814" lon="-5.26032">
        <ele>37.25</ele>
        <time>2021-03-20T23:33:43Z</time>
      </trkpt>
      <trkpt lat="58.0683" lon="-5.25886">
        <ele>47.49</ele>
        <time>2021-03-20T23:33:46Z</time>
      </trkpt>
      <trkpt lat="58.06848" lon="-5.25747">
        <ele>53.42</ele>
        <time>2021-03-20T23:33:49Z</time>
      </trkpt>
      <trkpt lat="58.06859" lon="-5.25688">
        <ele>50.12</ele>
        <time>2021-03-20T23:33:51Z</time>
      </trkpt>
      <trkpt lat="58.06872" lon="-5.25643">
        <ele>50.31</ele>
        <time>2021-03-20T23:33:54Z</time>
      </trkpt>
      <trkpt lat="58.06904" lon="-5.256">
        <ele>52.88</ele>
        <time>2021-03-20T23:33:57Z</time>
      </trkpt>
      <trkpt lat="58.06947" lon="-5.25553">
        <ele>58.81</ele>
        <time>2021-03-20T23:34:00Z</time>
      </trkpt>
      <trkpt lat="58.06991" lon="-5.25447">
        <ele>63.49</ele>
        <time>2021-03-20T23:34:02Z</time>
      </trkpt>
      <trkpt lat="58.07007" lon="-5.2538">
        <ele>64.16</ele>
        <time>2021-03-20T23:34:05Z</time>
      </trkpt>
      <trkpt lat="58.07045" lon="-5.25309">
        <ele>71.56</ele>
        <time>2021-03-20T23:34:08Z</time>
      </trkpt>
      <trkpt lat="58.07064" lon="-5.25237">
        <ele>74.85</ele>
        <time>2021-03-20T23:34:10Z</time>
      </trkpt>
      <trkpt lat="58.07078" lon="-5.25199">
        <ele>76.67</ele>
        <time>2021-03-20T23:34:13Z</time>
      </trkpt>
      <trkpt lat="58.07152" lon="-5.25108">
        <ele>82.02</ele>
        <time>2021-03-20T23:34:16Z</time>
      </trkpt>
      <trkpt lat="58.07191" lon="-5.25083">
        <ele>86.54</ele>
        <time>2021-03-20T23:34:19Z</time>
      </trkpt>
      <trkpt lat="58.0736" lon="-5.24905">
        <ele>98.49</ele>
        <time>2021-03-20T23:34:21Z</time>
      </trkpt>
      <trkpt lat="58.074" lon="-5.2488">
        <ele>98.59</ele>
        <time>2021-03-20T23:34:24Z</time>
      </trkpt>
      <trkpt lat="58.07438" lon="-5.24874">
        <ele>98.65</ele>
        <time>2021-03-20T23:34:27Z</time>
      </trkpt>
      <trkpt lat="58.07472" lon="-5.24879">
        <ele>99</ele>
        <time>2021-03-20T23:34:29Z</time>
      </trkpt>
      <trkpt lat="58.07495" lon="-5.24876">
        <ele>99.81</ele>
        <time>2021-03-20T23:34:32Z</time>
      </trkpt>
      <trkpt lat="58.07529" lon="-5.24847">
        <ele>99.01</ele>
        <time>2021-03-20T23:34:35Z</time>
      </trkpt>
      <trkpt lat="58.07562" lon="-5.2484">
        <ele>98</ele>
        <time>2021-03-20T23:34:38Z</time>
      </trkpt>
      <trkpt lat="58.07598" lon="-5.24853">
        <ele>98.41</ele>
        <time>2021-03-20T23:34:40Z</time>
      </trkpt>
      <trkpt lat="58.07621" lon="-5.24853">
        <ele>96.28</ele>
        <time>2021-03-20T23:34:43Z</time>
      </trkpt>
      <trkpt lat="58.07642" lon="-5.24833">
        <ele>93.87</ele>
        <time>2021-03-20T23:34:46Z</time>
      </trkpt>
      <trkpt lat="58.07658" lon="-5.24794">
        <ele>93.17</ele>
        <time>2021-03-20T23:34:48Z</time>
      </trkpt>
      <trkpt lat="58.07666" lon="-5.24767">
        <ele>93.01</ele>
        <time>2021-03-20T23:34:51Z</time>
      </trkpt>
      <trkpt lat="58.07715" lon="-5.24688">
        <ele>93.57</ele>
        <time>2021-03-20T23:34:54Z</time>
      </trkpt>
      <trkpt lat="58.07742" lon="-5.24663">
        <ele>92.8</ele>
        <time>2021-03-20T23:34:57Z</time>
      </trkpt>
      <trkpt lat="58.07786" lon="-5.24634">
        <ele>91.56</ele>
        <time>2021-03-20T23:34:59Z</time>
      </trkpt>
      <trkpt lat="58.07847" lon="-5.24589">
        <ele>91.4</ele>
        <time>2021-03-20T23:35:02Z</time>
      </trkpt>
      <trkpt lat="58.0787" lon="-5.24541">
        <ele>90.68</ele>
        <time>2021-03-20T23:35:05Z</time>
      </trkpt>
      <trkpt lat="58.07879" lon="-5.24504">
        <ele>89.78</ele>
        <time>2021-03-20T23:35:07Z</time>
      </trkpt>
      <trkpt lat="58.07891" lon="-5.24385">
        <ele>89.93</ele>
        <time>2021-03-20T23:35:10Z</time>
      </trkpt>
      <trkpt lat="58.07909" lon="-5.24287">
        <ele>91.69</ele>
        <time>2021-03-20T23:35:13Z</time>
      </trkpt>
      <trkpt lat="58.07923" lon="-5.24258">
        <ele>92.48</ele>
        <time>2021-03-20T23:35:15Z</time>
      </trkpt>
      <trkpt lat="58.07964" lon="-5.24232">
        <ele>91.46</ele>
        <time>2021-03-20T23:35:18Z</time>
      </trkpt>
      <trkpt lat="58.07968" lon="-5.24218">
        <ele>91.54</ele>
        <time>2021-03-20T23:35:21Z</time>
      </trkpt>
      <trkpt lat="58.07971" lon="-5.24147">
        <ele>95.44</ele>
        <time>2021-03-20T23:35:24Z</time>
      </trkpt>
      <trkpt lat="58.07977" lon="-5.24125">
        <ele>97.25</ele>
        <time>2021-03-20T23:35:26Z</time>
      </trkpt>
      <trkpt lat="58.07987" lon="-5.2412">
        <ele>98.25</ele>
        <time>2021-03-20T23:35:29Z</time>
      </trkpt>
      <trkpt lat="58.08008" lon="-5.24134">
        <ele>98.08</ele>
        <time>2021-03-20T23:35:32Z</time>
      </trkpt>
      <trkpt lat="58.08027" lon="-5.24132">
        <ele>99.66</ele>
        <time>2021-03-20T23:35:34Z</time>
      </trkpt>
      <trkpt lat="58.08054" lon="-5.24102">
        <ele>104.56</ele>
        <time>2021-03-20T23:35:37Z</time>
      </trkpt>
      <trkpt lat="58.08068" lon="-5.2407">
        <ele>108.08</ele>
        <time>2021-03-20T23:35:40Z</time>
      </trkpt>
      <trkpt lat="58.08134" lon="-5.23842">
        <ele>106.89</ele>
        <time>2021-03-20T23:35:43Z</time>
      </trkpt>
      <trkpt lat="58.08176" lon="-5.23764">
        <ele>103.51</ele>
        <time>2021-03-20T23:35:45Z</time>
      </trkpt>
      <trkpt lat="58.08221" lon="-5.23708">
        <ele>101.84</ele>
        <time>2021-03-20T23:35:48Z</time>
      </trkpt>
      <trkpt lat="58.08251" lon="-5.23684">
        <ele>100.86</ele>
        <time>2021-03-20T23:35:51Z</time>
      </trkpt>
      <trkpt lat="58.08297" lon="-5.2368">
        <ele>105.16</ele>
        <time>2021-03-20T23:35:53Z</time>
      </trkpt>
      <trkpt lat="58.0832" lon="-5.23675">
        <ele>107.33</ele>
        <time>2021-03-20T23:35:56Z</time>
      </trkpt>
      <trkpt lat="58.08354" lon="-5.23659">
        <ele>108.93</ele>
        <time>2021-03-20T23:35:59Z</time>
      </trkpt>
      <trkpt lat="58.084" lon="-5.23645">
        <ele>109.31</ele>
        <time>2021-03-20T23:36:02Z</time>
      </trkpt>
      <trkpt lat="58.08427" lon="-5.23615">
        <ele>105.07</ele>
        <time>2021-03-20T23:36:04Z</time>
      </trkpt>
      <trkpt lat="58.08467" lon="-5.23579">
        <ele>102.34</ele>
        <time>2021-03-20T23:36:07Z</time>
      </trkpt>
      <trkpt lat="58.0851" lon="-5.23535">
        <ele>99.63</ele>
        <time>2021-03-20T23:36:10Z</time>
      </trkpt>
      <trkpt lat="58.08542" lon="-5.23511">
        <ele>96.44</ele>
        <time>2021-03-20T23:36:12Z</time>
      </trkpt>
      <trkpt lat="58.08558" lon="-5.23512">
        <ele>95.62</ele>
        <time>2021-03-20T23:36:15Z</time>
      </trkpt>
      <trkpt lat="58.08593" lon="-5.23535">
        <ele>96.97</ele>
        <time>2021-03-20T23:36:18Z</time>
      </trkpt>
      <trkpt lat="58.08618" lon="-5.23532">
        <ele>97.85</ele>
        <time>2021-03-20T23:36:21Z</time>
      </trkpt>
      <trkpt lat="58.0863" lon="-5.2351">
        <ele>96.47</ele>
        <time>2021-03-20T23:36:23Z</time>
      </trkpt>
      <trkpt lat="58.08658" lon="-5.23419">
        <ele>91.11</ele>
        <time>2021-03-20T23:36:26Z</time>
      </trkpt>
      <trkpt lat="58.08702" lon="-5.23343">
        <ele>90.47</ele>
        <time>2021-03-20T23:36:29Z</time>
      </trkpt>
      <trkpt lat="58.08724" lon="-5.23316">
        <ele>90.19</ele>
        <time>2021-03-20T23:36:31Z</time>
      </trkpt>
      <trkpt lat="58.08766" lon="-5.23292">
        <ele>88.06</ele>
        <time>2021-03-20T23:36:34Z</time>
      </trkpt>
      <trkpt lat="58.08785" lon="-5.23287">
        <ele>86.83</ele>
        <time>2021-03-20T23:36:37Z</time>
      </trkpt>
      <trkpt lat="58.08805" lon="-5.23295">
        <ele>86.6</ele>
        <time>2021-03-20T23:36:40Z</time>
      </trkpt>
      <trkpt lat="58.08821" lon="-5.23318">
        <ele>88.51</ele>
        <time>2021-03-20T23:36:42Z</time>
      </trkpt>
      <trkpt lat="58.08833" lon="-5.23321">
        <ele>88.18</ele>
        <time>2021-03-20T23:36:45Z</time>
      </trkpt>
      <trkpt lat="58.0884" lon="-5.23312">
        <ele>88.55</ele>
        <time>2021-03-20T23:36:48Z</time>
      </trkpt>
      <trkpt lat="58.0885" lon="-5.23247">
        <ele>86.07</ele>
        <time>2021-03-20T23:36:50Z</time>
      </trkpt>
      <trkpt lat="58.08866" lon="-5.23208">
        <ele>84.57</ele>
        <time>2021-03-20T23:36:53Z</time>
      </trkpt>
      <trkpt lat="58.08894" lon="-5.23173">
        <ele>84.01</ele>
        <time>2021-03-20T23:36:56Z</time>
      </trkpt>
      <trkpt lat="58.08958" lon="-5.23182">
        <ele>87.66</ele>
        <time>2021-03-20T23:36:59Z</time>
      </trkpt>
      <trkpt lat="58.09006" lon="-5.23202">
        <ele>87.14</ele>
        <time>2021-03-20T23:37:01Z</time>
      </trkpt>
      <trkpt lat="58.0903" lon="-5.23228">
        <ele>87.07</ele>
        <time>2021-03-20T23:37:04Z</time>
      </trkpt>
      <trkpt lat="58.09052" lon="-5.23288">
        <ele>87.65</ele>
        <time>2021-03-20T23:37:07Z</time>
      </trkpt>
      <trkpt lat="58.0909" lon="-5.23348">
        <ele>83.8</ele>
        <time>2021-03-20T23:37:09Z</time>
      </trkpt>
      <trkpt lat="58.09116" lon="-5.23374">
        <ele>81.18</ele>
        <time>2021-03-20T23:37:12Z</time>
      </trkpt>
      <trkpt lat="58.09134" lon="-5.23405">
        <ele>81.88</ele>
        <time>2021-03-20T23:37:15Z</time>
      </trkpt>
      <trkpt lat="58.09147" lon="-5.23418">
        <ele>82.22</ele>
        <time>2021-03-20T23:37:17Z</time>
      </trkpt>
      <trkpt lat="58.09164" lon="-5.23424">
        <ele>81.18</ele>
        <time>2021-03-20T23:37:20Z</time>
      </trkpt>
      <trkpt lat="58.09183" lon="-5.2342">
        <ele>80.95</ele>
        <time>2021-03-20T23:37:23Z</time>
      </trkpt>
      <trkpt lat="58.09209" lon="-5.23382">
        <ele>79.43</ele>
        <time>2021-03-20T23:37:26Z</time>
      </trkpt>
      <trkpt lat="58.09241" lon="-5.23322">
        <ele>75.96</ele>
        <time>2021-03-20T23:37:28Z</time>
      </trkpt>
      <trkpt lat="58.09311" lon="-5.23243">
        <ele>74.79</ele>
        <time>2021-03-20T23:37:31Z</time>
      </trkpt>
      <trkpt lat="58.09399" lon="-5.23191">
        <ele>73.27</ele>
        <time>2021-03-20T23:37:34Z</time>
      </trkpt>
      <trkpt lat="58.09466" lon="-5.23141">
        <ele>64.77</ele>
        <time>2021-03-20T23:37:36Z</time>
      </trkpt>
      <trkpt lat="58.09492" lon="-5.23142">
        <ele>61.48</ele>
        <time>2021-03-20T23:37:39Z</time>
      </trkpt>
      <trkpt lat="58.09519" lon="-5.23151">
        <ele>60.31</ele>
        <time>2021-03-20T23:37:42Z</time>
      </trkpt>
      <trkpt lat="58.09548" lon="-5.23155">
        <ele>58.68</ele>
        <time>2021-03-20T23:37:45Z</time>
      </trkpt>
      <trkpt lat="58.09566" lon="-5.23162">
        <ele>57.53</ele>
        <time>2021-03-20T23:37:47Z</time>
      </trkpt>
      <trkpt lat="58.09609" lon="-5.2321">
        <ele>52.13</ele>
        <time>2021-03-20T23:37:50Z</time>
      </trkpt>
      <trkpt lat="58.09629" lon="-5.23245">
        <ele>48.61</ele>
        <time>2021-03-20T23:37:53Z</time>
      </trkpt>
      <trkpt lat="58.09637" lon="-5.23271">
        <ele>46.68</ele>
        <time>2021-03-20T23:37:55Z</time>
      </trkpt>
      <trkpt lat="58.0964" lon="-5.23321">
        <ele>46.7</ele>
        <time>2021-03-20T23:37:58Z</time>
      </trkpt>
      <trkpt lat="58.09647" lon="-5.23361">
        <ele>44.83</ele>
        <time>2021-03-20T23:38:01Z</time>
      </trkpt>
      <trkpt lat="58.09671" lon="-5.23393">
        <ele>41.85</ele>
        <time>2021-03-20T23:38:04Z</time>
      </trkpt>
      <trkpt lat="58.09675" lon="-5.23414">
        <ele>41.11</ele>
        <time>2021-03-20T23:38:06Z</time>
      </trkpt>
      <trkpt lat="58.09675" lon="-5.23438">
        <ele>41</ele>
        <time>2021-03-20T23:38:09Z</time>
      </trkpt>
      <trkpt lat="58.09648" lon="-5.23554">
        <ele>36.7</ele>
        <time>2021-03-20T23:38:12Z</time>
      </trkpt>
      <trkpt lat="58.09618" lon="-5.23653">
        <ele>37.96</ele>
        <time>2021-03-20T23:38:14Z</time>
      </trkpt>
      <trkpt lat="58.0957" lon="-5.23793">
        <ele>34.7</ele>
        <time>2021-03-20T23:38:17Z</time>
      </trkpt>
      <trkpt lat="58.09507" lon="-5.23966">
        <ele>32.46</ele>
        <time>2021-03-20T23:38:20Z</time>
      </trkpt>
      <trkpt lat="58.09419" lon="-5.24137">
        <ele>32.01</ele>
        <time>2021-03-20T23:38:23Z</time>
      </trkpt>
      <trkpt lat="58.09396" lon="-5.24164">
        <ele>32.35</ele>
        <time>2021-03-20T23:38:25Z</time>
      </trkpt>
      <trkpt lat="58.09331" lon="-5.24198">
        <ele>31.03</ele>
        <time>2021-03-20T23:38:28Z</time>
      </trkpt>
      <trkpt lat="58.09313" lon="-5.24246">
        <ele>31.66</ele>
        <time>2021-03-20T23:38:31Z</time>
      </trkpt>
      <trkpt lat="58.09305" lon="-5.24311">
        <ele>32.89</ele>
        <time>2021-03-20T23:38:33Z</time>
      </trkpt>
      <trkpt lat="58.09301" lon="-5.24378">
        <ele>32.49</ele>
        <time>2021-03-20T23:38:36Z</time>
      </trkpt>
      <trkpt lat="58.09294" lon="-5.2443">
        <ele>31.5</ele>
        <time>2021-03-20T23:38:39Z</time>
      </trkpt>
      <trkpt lat="58.09295" lon="-5.24455">
        <ele>32.21</ele>
        <time>2021-03-20T23:38:42Z</time>
      </trkpt>
      <trkpt lat="58.09383" lon="-5.24627">
        <ele>25.78</ele>
        <time>2021-03-20T23:38:44Z</time>
      </trkpt>
      <trkpt lat="58.09437" lon="-5.24705">
        <ele>21.37</ele>
        <time>2021-03-20T23:38:47Z</time>
      </trkpt>
      <trkpt lat="58.09575" lon="-5.2505">
        <ele>20.36</ele>
        <time>2021-03-20T23:38:50Z</time>
      </trkpt>
      <trkpt lat="58.09603" lon="-5.2515">
        <ele>21.42</ele>
        <time>2021-03-20T23:38:52Z</time>
      </trkpt>
      <trkpt lat="58.09636" lon="-5.25247">
        <ele>21.09</ele>
        <time>2021-03-20T23:38:55Z</time>
      </trkpt>
      <trkpt lat="58.0965" lon="-5.25311">
        <ele>23.19</ele>
        <time>2021-03-20T23:38:58Z</time>
      </trkpt>
      <trkpt lat="58.09659" lon="-5.25392">
        <ele>24.92</ele>
        <time>2021-03-20T23:39:01Z</time>
      </trkpt>
      <trkpt lat="58.09663" lon="-5.25418">
        <ele>24.19</ele>
        <time>2021-03-20T23:39:03Z</time>
      </trkpt>
      <trkpt lat="58.09669" lon="-5.25438">
        <ele>23.12</ele>
        <time>2021-03-20T23:39:06Z</time>
      </trkpt>
      <trkpt lat="58.09713" lon="-5.25498">
        <ele>22.21</ele>
        <time>2021-03-20T23:39:09Z</time>
      </trkpt>
      <trkpt lat="58.09756" lon="-5.25569">
        <ele>17.47</ele>
        <time>2021-03-20T23:39:11Z</time>
      </trkpt>
      <trkpt lat="58.09787" lon="-5.25615">
        <ele>13.75</ele>
        <time>2021-03-20T23:39:14Z</time>
      </trkpt>
      <trkpt lat="58.09851" lon="-5.25781">
        <ele>14.78</ele>
        <time>2021-03-20T23:39:17Z</time>
      </trkpt>
      <trkpt lat="58.09869" lon="-5.25838">
        <ele>15.46</ele>
        <time>2021-03-20T23:39:19Z</time>
      </trkpt>
      <trkpt lat="58.09888" lon="-5.25946">
        <ele>13.96</ele>
        <time>2021-03-20T23:39:22Z</time>
      </trkpt>
      <trkpt lat="58.09916" lon="-5.26048">
        <ele>14.32</ele>
        <time>2021-03-20T23:39:25Z</time>
      </trkpt>
      <trkpt lat="58.09979" lon="-5.26153">
        <ele>17.19</ele>
        <time>2021-03-20T23:39:28Z</time>
      </trkpt>
      <trkpt lat="58.09988" lon="-5.26195">
        <ele>19.76</ele>
        <time>2021-03-20T23:39:30Z</time>
      </trkpt>
      <trkpt lat="58.09983" lon="-5.2623">
        <ele>18.67</ele>
        <time>2021-03-20T23:39:33Z</time>
      </trkpt>
      <trkpt lat="58.09983" lon="-5.26251">
        <ele>18.16</ele>
        <time>2021-03-20T23:39:36Z</time>
      </trkpt>
      <trkpt lat="58.10011" lon="-5.26318">
        <ele>18.49</ele>
        <time>2021-03-20T23:39:38Z</time>
      </trkpt>
      <trkpt lat="58.10018" lon="-5.26365">
        <ele>17.21</ele>
        <time>2021-03-20T23:39:41Z</time>
      </trkpt>
      <trkpt lat="58.10019" lon="-5.26413">
        <ele>16.63</ele>
        <time>2021-03-20T23:39:44Z</time>
      </trkpt>
      <trkpt lat="58.10066" lon="-5.26532">
        <ele>13.28</ele>
        <time>2021-03-20T23:39:47Z</time>
      </trkpt>
      <trkpt lat="58.10087" lon="-5.26564">
        <ele>12.5</ele>
        <time>2021-03-20T23:39:49Z</time>
      </trkpt>
      <trkpt lat="58.10146" lon="-5.26645">
        <ele>11.2</ele>
        <time>2021-03-20T23:39:52Z</time>
      </trkpt>
      <trkpt lat="58.10187" lon="-5.26662">
        <ele>13.22</ele>
        <time>2021-03-20T23:39:55Z</time>
      </trkpt>
      <trkpt lat="58.10198" lon="-5.26672">
        <ele>12.88</ele>
        <time>2021-03-20T23:39:57Z</time>
      </trkpt>
      <trkpt lat="58.10207" lon="-5.26699">
        <ele>10.7</ele>
        <time>2021-03-20T23:40:00Z</time>
      </trkpt>
      <trkpt lat="58.1024" lon="-5.26743">
        <ele>9.52</ele>
        <time>2021-03-20T23:40:03Z</time>
      </trkpt>
      <trkpt lat="58.10248" lon="-5.26752">
        <ele>9.33</ele>
        <time>2021-03-20T23:40:06Z</time>
      </trkpt>
      <trkpt lat="58.10274" lon="-5.26764">
        <ele>11.42</ele>
        <time>2021-03-20T23:40:08Z</time>
      </trkpt>
      <trkpt lat="58.10283" lon="-5.26788">
        <ele>9.88</ele>
        <time>2021-03-20T23:40:11Z</time>
      </trkpt>
      <trkpt lat="58.10289" lon="-5.26795">
        <ele>10.15</ele>
        <time>2021-03-20T23:40:14Z</time>
      </trkpt>
      <trkpt lat="58.10312" lon="-5.26809">
        <ele>13.28</ele>
        <time>2021-03-20T23:40:16Z</time>
      </trkpt>
      <trkpt lat="58.1032" lon="-5.2682">
        <ele>14.11</ele>
        <time>2021-03-20T23:40:19Z</time>
      </trkpt>
      <trkpt lat="58.10322" lon="-5.26829">
        <ele>13.72</ele>
        <time>2021-03-20T23:40:22Z</time>
      </trkpt>
      <trkpt lat="58.10322" lon="-5.26858">
        <ele>10.82</ele>
        <time>2021-03-20T23:40:25Z</time>
      </trkpt>
      <trkpt lat="58.10325" lon="-5.26872">
        <ele>10.27</ele>
        <time>2021-03-20T23:40:27Z</time>
      </trkpt>
      <trkpt lat="58.10335" lon="-5.269">
        <ele>9.04</ele>
        <time>2021-03-20T23:40:30Z</time>
      </trkpt>
      <trkpt lat="58.10342" lon="-5.26912">
        <ele>8.42</ele>
        <time>2021-03-20T23:40:33Z</time>
      </trkpt>
      <trkpt lat="58.10351" lon="-5.26918">
        <ele>8.71</ele>
        <time>2021-03-20T23:40:35Z</time>
      </trkpt>
      <trkpt lat="58.1038" lon="-5.26929">
        <ele>8.99</ele>
        <time>2021-03-20T23:40:38Z</time>
      </trkpt>
      <trkpt lat="58.10398" lon="-5.26925">
        <ele>9.46</ele>
        <time>2021-03-20T23:40:41Z</time>
      </trkpt>
      <trkpt lat="58.10421" lon="-5.26912">
        <ele>10.37</ele>
        <time>2021-03-20T23:40:44Z</time>
      </trkpt>
      <trkpt lat="58.10455" lon="-5.26876">
        <ele>11.75</ele>
        <time>2021-03-20T23:40:46Z</time>
      </trkpt>
      <trkpt lat="58.10479" lon="-5.26867">
        <ele>9.97</ele>
        <time>2021-03-20T23:40:49Z</time>
      </trkpt>
      <trkpt lat="58.10503" lon="-5.2687">
        <ele>7.36</ele>
        <time>2021-03-20T23:40:52Z</time>
      </trkpt>
      <trkpt lat="58.1052" lon="-5.26857">
        <ele>10.67</ele>
        <time>2021-03-20T23:40:54Z</time>
      </trkpt>
      <trkpt lat="58.10526" lon="-5.26857">
        <ele>11.31</ele>
        <time>2021-03-20T23:40:57Z</time>
      </trkpt>
      <trkpt lat="58.10537" lon="-5.26871">
        <ele>12.53</ele>
        <time>2021-03-20T23:41:00Z</time>
      </trkpt>
      <trkpt lat="58.10549" lon="-5.26905">
        <ele>12.63</ele>
        <time>2021-03-20T23:41:03Z</time>
      </trkpt>
      <trkpt lat="58.10554" lon="-5.26931">
        <ele>11.15</ele>
        <time>2021-03-20T23:41:05Z</time>
      </trkpt>
      <trkpt lat="58.10559" lon="-5.26994">
        <ele>7.93</ele>
        <time>2021-03-20T23:41:08Z</time>
      </trkpt>
      <trkpt lat="58.10566" lon="-5.27013">
        <ele>8.01</ele>
        <time>2021-03-20T23:41:11Z</time>
      </trkpt>
      <trkpt lat="58.10576" lon="-5.27024">
        <ele>8.48</ele>
        <time>2021-03-20T23:41:13Z</time>
      </trkpt>
      <trkpt lat="58.10607" lon="-5.27019">
        <ele>12.8</ele>
        <time>2021-03-20T23:41:16Z</time>
      </trkpt>
      <trkpt lat="58.10614" lon="-5.27029">
        <ele>12.54</ele>
        <time>2021-03-20T23:41:19Z</time>
      </trkpt>
      <trkpt lat="58.10632" lon="-5.27068">
        <ele>11.22</ele>
        <time>2021-03-20T23:41:21Z</time>
      </trkpt>
      <trkpt lat="58.10648" lon="-5.27095">
        <ele>12.38</ele>
        <time>2021-03-20T23:41:24Z</time>
      </trkpt>
      <trkpt lat="58.10684" lon="-5.27121">
        <ele>17.99</ele>
        <time>2021-03-20T23:41:27Z</time>
      </trkpt>
      <trkpt lat="58.10703" lon="-5.27131">
        <ele>20.84</ele>
        <time>2021-03-20T23:41:30Z</time>
      </trkpt>
      <trkpt lat="58.10712" lon="-5.27145">
        <ele>20.28</ele>
        <time>2021-03-20T23:41:32Z</time>
      </trkpt>
      <trkpt lat="58.10733" lon="-5.27189">
        <ele>17.09</ele>
        <time>2021-03-20T23:41:35Z</time>
      </trkpt>
      <trkpt lat="58.10738" lon="-5.27217">
        <ele>14.9</ele>
        <time>2021-03-20T23:41:38Z</time>
      </trkpt>
      <trkpt lat="58.10742" lon="-5.27283">
        <ele>16.04</ele>
        <time>2021-03-20T23:41:40Z</time>
      </trkpt>
      <trkpt lat="58.10726" lon="-5.27347">
        <ele>14.21</ele>
        <time>2021-03-20T23:41:43Z</time>
      </trkpt>
      <trkpt lat="58.10728" lon="-5.27367">
        <ele>13.79</ele>
        <time>2021-03-20T23:41:46Z</time>
      </trkpt>
      <trkpt lat="58.10744" lon="-5.27446">
        <ele>11.03</ele>
        <time>2021-03-20T23:41:49Z</time>
      </trkpt>
      <trkpt lat="58.1076" lon="-5.27478">
        <ele>9.52</ele>
        <time>2021-03-20T23:41:51Z</time>
      </trkpt>
      <trkpt lat="58.10771" lon="-5.27483">
        <ele>9.9</ele>
        <time>2021-03-20T23:41:54Z</time>
      </trkpt>
      <trkpt lat="58.10788" lon="-5.27485">
        <ele>10.36</ele>
        <time>2021-03-20T23:41:57Z</time>
      </trkpt>
      <trkpt lat="58.10825" lon="-5.27475">
        <ele>11.82</ele>
        <time>2021-03-20T23:41:59Z</time>
      </trkpt>
      <trkpt lat="58.10863" lon="-5.2746">
        <ele>11.73</ele>
        <time>2021-03-20T23:42:02Z</time>
      </trkpt>
      <trkpt lat="58.10871" lon="-5.27452">
        <ele>12.22</ele>
        <time>2021-03-20T23:42:05Z</time>
      </trkpt>
      <trkpt lat="58.10945" lon="-5.27341">
        <ele>16.13</ele>
        <time>2021-03-20T23:42:08Z</time>
      </trkpt>
      <trkpt lat="58.1096" lon="-5.27278">
        <ele>18.25</ele>
        <time>2021-03-20T23:42:10Z</time>
      </trkpt>
      <trkpt lat="58.11018" lon="-5.27197">
        <ele>26.52</ele>
        <time>2021-03-20T23:42:13Z</time>
      </trkpt>
      <trkpt lat="58.11084" lon="-5.27175">
        <ele>28.76</ele>
        <time>2021-03-20T23:42:16Z</time>
      </trkpt>
      <trkpt lat="58.11099" lon="-5.27151">
        <ele>31.87</ele>
        <time>2021-03-20T23:42:18Z</time>
      </trkpt>
      <trkpt lat="58.11122" lon="-5.27082">
        <ele>41.45</ele>
        <time>2021-03-20T23:42:21Z</time>
      </trkpt>
      <trkpt lat="58.11155" lon="-5.27003">
        <ele>47.38</ele>
        <time>2021-03-20T23:42:24Z</time>
      </trkpt>
      <trkpt lat="58.1122" lon="-5.26886">
        <ele>56.86</ele>
        <time>2021-03-20T23:42:27Z</time>
      </trkpt>
      <trkpt lat="58.11248" lon="-5.26872">
        <ele>58.51</ele>
        <time>2021-03-20T23:42:29Z</time>
      </trkpt>
      <trkpt lat="58.11281" lon="-5.26849">
        <ele>62.63</ele>
        <time>2021-03-20T23:42:32Z</time>
      </trkpt>
      <trkpt lat="58.11302" lon="-5.26819">
        <ele>66.49</ele>
        <time>2021-03-20T23:42:35Z</time>
      </trkpt>
      <trkpt lat="58.11439" lon="-5.26558">
        <ele>69.19</ele>
        <time>2021-03-20T23:42:37Z</time>
      </trkpt>
      <trkpt lat="58.1147" lon="-5.26416">
        <ele>68.08</ele>
        <time>2021-03-20T23:42:40Z</time>
      </trkpt>
      <trkpt lat="58.11512" lon="-5.26204">
        <ele>69.18</ele>
        <time>2021-03-20T23:42:43Z</time>
      </trkpt>
      <trkpt lat="58.11537" lon="-5.26123">
        <ele>70.28</ele>
        <time>2021-03-20T23:42:46Z</time>
      </trkpt>
      <trkpt lat="58.1155" lon="-5.26107">
        <ele>69.72</ele>
        <time>2021-03-20T23:42:48Z</time>
      </trkpt>
      <trkpt lat="58.11649" lon="-5.26064">
        <ele>69.33</ele>
        <time>2021-03-20T23:42:51Z</time>
      </trkpt>
      <trkpt lat="58.11762" lon="-5.2592">
        <ele>73.23</ele>
        <time>2021-03-20T23:42:54Z</time>
      </trkpt>
      <trkpt lat="58.11847" lon="-5.25741">
        <ele>75.69</ele>
        <time>2021-03-20T23:42:56Z</time>
      </trkpt>
      <trkpt lat="58.11859" lon="-5.25699">
        <ele>69.05</ele>
        <time>2021-03-20T23:42:59Z</time>
      </trkpt>
      <trkpt lat="58.11859" lon="-5.25668">
        <ele>65.75</ele>
        <time>2021-03-20T23:43:02Z</time>
      </trkpt>
      <trkpt lat="58.1184" lon="-5.25553">
        <ele>61.25</ele>
        <time>2021-03-20T23:43:04Z</time>
      </trkpt>
      <trkpt lat="58.11846" lon="-5.25527">
        <ele>60.2</ele>
        <time>2021-03-20T23:43:07Z</time>
      </trkpt>
      <trkpt lat="58.11911" lon="-5.25488">
        <ele>49.58</ele>
        <time>2021-03-20T23:43:10Z</time>
      </trkpt>
      <trkpt lat="58.11944" lon="-5.2546">
        <ele>48.46</ele>
        <time>2021-03-20T23:43:13Z</time>
      </trkpt>
      <trkpt lat="58.11963" lon="-5.254">
        <ele>45.77</ele>
        <time>2021-03-20T23:43:15Z</time>
      </trkpt>
      <trkpt lat="58.11983" lon="-5.25362">
        <ele>40.33</ele>
        <time>2021-03-20T23:43:18Z</time>
      </trkpt>
      <trkpt lat="58.12006" lon="-5.25334">
        <ele>35.97</ele>
        <time>2021-03-20T23:43:21Z</time>
      </trkpt>
      <trkpt lat="58.12009" lon="-5.25326">
        <ele>35.56</ele>
        <time>2021-03-20T23:43:24Z</time>
      </trkpt>
      <trkpt lat="58.12009" lon="-5.25326">
        <ele>35.56</ele>
        <time>2021-03-20T23:43:24Z</time>
      </trkpt>
      <trkpt lat="58.12011" lon="-5.25316">
        <ele>35.47</ele>
        <time>2021-03-20T23:43:26Z</time>
      </trkpt>
      <trkpt lat="58.1201" lon="-5.25302">
        <ele>35.93</ele>
        <time>2021-03-20T23:43:28Z</time>
      </trkpt>
      <trkpt lat="58.12015" lon="-5.25268">
        <ele>36.17</ele>
        <time>2021-03-20T23:43:30Z</time>
      </trkpt>
      <trkpt lat="58.12056" lon="-5.25219">
        <ele>28.03</ele>
        <time>2021-03-20T23:43:33Z</time>
      </trkpt>
      <trkpt lat="58.12076" lon="-5.25204">
        <ele>21.92</ele>
        <time>2021-03-20T23:43:35Z</time>
      </trkpt>
      <trkpt lat="58.12084" lon="-5.25194">
        <ele>19.85</ele>
        <time>2021-03-20T23:43:37Z</time>
      </trkpt>
      <trkpt lat="58.12106" lon="-5.25156">
        <ele>16.88</ele>
        <time>2021-03-20T23:43:40Z</time>
      </trkpt>
      <trkpt lat="58.12143" lon="-5.25143">
        <ele>17.03</ele>
        <time>2021-03-20T23:43:42Z</time>
      </trkpt>
      <trkpt lat="58.12152" lon="-5.25146">
        <ele>19.87</ele>
        <time>2021-03-20T23:43:44Z</time>
      </trkpt>
      <trkpt lat="58.12155" lon="-5.25154">
        <ele>20.68</ele>
        <time>2021-03-20T23:43:46Z</time>
      </trkpt>
      <trkpt lat="58.12157" lon="-5.25163">
        <ele>21.17</ele>
        <time>2021-03-20T23:43:49Z</time>
      </trkpt>
      <trkpt lat="58.12158" lon="-5.2524">
        <ele>20.58</ele>
        <time>2021-03-20T23:43:51Z</time>
      </trkpt>
      <trkpt lat="58.12149" lon="-5.25361">
        <ele>19.17</ele>
        <time>2021-03-20T23:43:53Z</time>
      </trkpt>
      <trkpt lat="58.12148" lon="-5.25491">
        <ele>17.81</ele>
        <time>2021-03-20T23:43:56Z</time>
      </trkpt>
      <trkpt lat="58.1215" lon="-5.25541">
        <ele>17.61</ele>
        <time>2021-03-20T23:43:58Z</time>
      </trkpt>
      <trkpt lat="58.12159" lon="-5.25594">
        <ele>17.54</ele>
        <time>2021-03-20T23:44:00Z</time>
      </trkpt>
      <trkpt lat="58.12203" lon="-5.25711">
        <ele>10.4</ele>
        <time>2021-03-20T23:44:02Z</time>
      </trkpt>
      <trkpt lat="58.12201" lon="-5.25777">
        <ele>8.92</ele>
        <time>2021-03-20T23:44:05Z</time>
      </trkpt>
      <trkpt lat="58.12203" lon="-5.25847">
        <ele>8.74</ele>
        <time>2021-03-20T23:44:07Z</time>
      </trkpt>
      <trkpt lat="58.12215" lon="-5.25939">
        <ele>9.45</ele>
        <time>2021-03-20T23:44:09Z</time>
      </trkpt>
      <trkpt lat="58.1221" lon="-5.2605">
        <ele>8.56</ele>
        <time>2021-03-20T23:44:12Z</time>
      </trkpt>
      <trkpt lat="58.12219" lon="-5.26118">
        <ele>10.79</ele>
        <time>2021-03-20T23:44:14Z</time>
      </trkpt>
      <trkpt lat="58.12238" lon="-5.26174">
        <ele>13.02</ele>
        <time>2021-03-20T23:44:16Z</time>
      </trkpt>
      <trkpt lat="58.12255" lon="-5.26302">
        <ele>11.55</ele>
        <time>2021-03-20T23:44:18Z</time>
      </trkpt>
      <trkpt lat="58.12271" lon="-5.26367">
        <ele>7.57</ele>
        <time>2021-03-20T23:44:21Z</time>
      </trkpt>
      <trkpt lat="58.12284" lon="-5.26409">
        <ele>8.1</ele>
        <time>2021-03-20T23:44:23Z</time>
      </trkpt>
      <trkpt lat="58.12298" lon="-5.26413">
        <ele>8.05</ele>
        <time>2021-03-20T23:44:25Z</time>
      </trkpt>
      <trkpt lat="58.12339" lon="-5.26404">
        <ele>6.79</ele>
        <time>2021-03-20T23:44:28Z</time>
      </trkpt>
      <trkpt lat="58.12386" lon="-5.26403">
        <ele>5.09</ele>
        <time>2021-03-20T23:44:30Z</time>
      </trkpt>
      <trkpt lat="58.12429" lon="-5.26407">
        <ele>5.89</ele>
        <time>2021-03-20T23:44:32Z</time>
      </trkpt>
      <trkpt lat="58.12456" lon="-5.26414">
        <ele>8.09</ele>
        <time>2021-03-20T23:44:34Z</time>
      </trkpt>
      <trkpt lat="58.12539" lon="-5.26467">
        <ele>7.92</ele>
        <time>2021-03-20T23:44:37Z</time>
      </trkpt>
      <trkpt lat="58.12575" lon="-5.26501">
        <ele>7.36</ele>
        <time>2021-03-20T23:44:39Z</time>
      </trkpt>
      <trkpt lat="58.12592" lon="-5.26533">
        <ele>7.81</ele>
        <time>2021-03-20T23:44:41Z</time>
      </trkpt>
      <trkpt lat="58.12615" lon="-5.2656">
        <ele>10.56</ele>
        <time>2021-03-20T23:44:44Z</time>
      </trkpt>
      <trkpt lat="58.12646" lon="-5.26567">
        <ele>14.67</ele>
        <time>2021-03-20T23:44:46Z</time>
      </trkpt>
      <trkpt lat="58.1268" lon="-5.26553">
        <ele>20.37</ele>
        <time>2021-03-20T23:44:48Z</time>
      </trkpt>
      <trkpt lat="58.12704" lon="-5.26524">
        <ele>23.94</ele>
        <time>2021-03-20T23:44:51Z</time>
      </trkpt>
      <trkpt lat="58.12719" lon="-5.26492">
        <ele>26.19</ele>
        <time>2021-03-20T23:44:53Z</time>
      </trkpt>
      <trkpt lat="58.12754" lon="-5.26376">
        <ele>32.17</ele>
        <time>2021-03-20T23:44:55Z</time>
      </trkpt>
      <trkpt lat="58.12765" lon="-5.26346">
        <ele>34.4</ele>
        <time>2021-03-20T23:44:57Z</time>
      </trkpt>
      <trkpt lat="58.12775" lon="-5.26318">
        <ele>35.96</ele>
        <time>2021-03-20T23:45:00Z</time>
      </trkpt>
      <trkpt lat="58.12805" lon="-5.26253">
        <ele>38.11</ele>
        <time>2021-03-20T23:45:02Z</time>
      </trkpt>
      <trkpt lat="58.12823" lon="-5.26225">
        <ele>38.06</ele>
        <time>2021-03-20T23:45:04Z</time>
      </trkpt>
      <trkpt lat="58.1284" lon="-5.26201">
        <ele>39.81</ele>
        <time>2021-03-20T23:45:07Z</time>
      </trkpt>
      <trkpt lat="58.12874" lon="-5.26163">
        <ele>43.24</ele>
        <time>2021-03-20T23:45:09Z</time>
      </trkpt>
      <trkpt lat="58.12889" lon="-5.2614">
        <ele>45.97</ele>
        <time>2021-03-20T23:45:11Z</time>
      </trkpt>
      <trkpt lat="58.12902" lon="-5.26106">
        <ele>46.27</ele>
        <time>2021-03-20T23:45:13Z</time>
      </trkpt>
      <trkpt lat="58.12921" lon="-5.26012">
        <ele>47.4</ele>
        <time>2021-03-20T23:45:16Z</time>
      </trkpt>
      <trkpt lat="58.13013" lon="-5.2575">
        <ele>53.48</ele>
        <time>2021-03-20T23:45:18Z</time>
      </trkpt>
      <trkpt lat="58.13036" lon="-5.25696">
        <ele>52.4</ele>
        <time>2021-03-20T23:45:20Z</time>
      </trkpt>
      <trkpt lat="58.13055" lon="-5.25664">
        <ele>50.06</ele>
        <time>2021-03-20T23:45:23Z</time>
      </trkpt>
      <trkpt lat="58.13066" lon="-5.25659">
        <ele>48.19</ele>
        <time>2021-03-20T23:45:25Z</time>
      </trkpt>
      <trkpt lat="58.13076" lon="-5.25667">
        <ele>46.32</ele>
        <time>2021-03-20T23:45:27Z</time>
      </trkpt>
      <trkpt lat="58.13091" lon="-5.25692">
        <ele>45.39</ele>
        <time>2021-03-20T23:45:29Z</time>
      </trkpt>
      <trkpt lat="58.13138" lon="-5.25796">
        <ele>46.37</ele>
        <time>2021-03-20T23:45:32Z</time>
      </trkpt>
      <trkpt lat="58.13179" lon="-5.25873">
        <ele>46.89</ele>
        <time>2021-03-20T23:45:34Z</time>
      </trkpt>
      <trkpt lat="58.13196" lon="-5.25886">
        <ele>44.79</ele>
        <time>2021-03-20T23:45:36Z</time>
      </trkpt>
      <trkpt lat="58.13264" lon="-5.25906">
        <ele>42.6</ele>
        <time>2021-03-20T23:45:39Z</time>
      </trkpt>
      <trkpt lat="58.13286" lon="-5.2592">
        <ele>43.62</ele>
        <time>2021-03-20T23:45:41Z</time>
      </trkpt>
      <trkpt lat="58.13296" lon="-5.2593">
        <ele>44.32</ele>
        <time>2021-03-20T23:45:43Z</time>
      </trkpt>
      <trkpt lat="58.13327" lon="-5.25977">
        <ele>46.22</ele>
        <time>2021-03-20T23:45:45Z</time>
      </trkpt>
      <trkpt lat="58.13391" lon="-5.26089">
        <ele>42.81</ele>
        <time>2021-03-20T23:45:48Z</time>
      </trkpt>
      <trkpt lat="58.13409" lon="-5.26125">
        <ele>41.51</ele>
        <time>2021-03-20T23:45:50Z</time>
      </trkpt>
      <trkpt lat="58.13415" lon="-5.26144">
        <ele>41</ele>
        <time>2021-03-20T23:45:52Z</time>
      </trkpt>
      <trkpt lat="58.1342" lon="-5.26172">
        <ele>41.01</ele>
        <time>2021-03-20T23:45:55Z</time>
      </trkpt>
      <trkpt lat="58.13424" lon="-5.26212">
        <ele>39.61</ele>
        <time>2021-03-20T23:45:57Z</time>
      </trkpt>
      <trkpt lat="58.13427" lon="-5.26222">
        <ele>39.38</ele>
        <time>2021-03-20T23:45:59Z</time>
      </trkpt>
      <trkpt lat="58.13435" lon="-5.26236">
        <ele>38.86</ele>
        <time>2021-03-20T23:46:01Z</time>
      </trkpt>
      <trkpt lat="58.13467" lon="-5.26259">
        <ele>36.62</ele>
        <time>2021-03-20T23:46:04Z</time>
      </trkpt>
      <trkpt lat="58.13488" lon="-5.26265">
        <ele>35.59</ele>
        <time>2021-03-20T23:46:06Z</time>
      </trkpt>
      <trkpt lat="58.13606" lon="-5.26216">
        <ele>35.81</ele>
        <time>2021-03-20T23:46:08Z</time>
      </trkpt>
      <trkpt lat="58.13619" lon="-5.26207">
        <ele>34.97</ele>
        <time>2021-03-20T23:46:11Z</time>
      </trkpt>
      <trkpt lat="58.13625" lon="-5.26198">
        <ele>34.31</ele>
        <time>2021-03-20T23:46:13Z</time>
      </trkpt>
      <trkpt lat="58.13667" lon="-5.26103">
        <ele>27.03</ele>
        <time>2021-03-20T23:46:15Z</time>
      </trkpt>
      <trkpt lat="58.13706" lon="-5.25954">
        <ele>24.15</ele>
        <time>2021-03-20T23:46:18Z</time>
      </trkpt>
      <trkpt lat="58.1372" lon="-5.25863">
        <ele>18.84</ele>
        <time>2021-03-20T23:46:20Z</time>
      </trkpt>
      <trkpt lat="58.13719" lon="-5.25809">
        <ele>18.09</ele>
        <time>2021-03-20T23:46:22Z</time>
      </trkpt>
      <trkpt lat="58.13712" lon="-5.25757">
        <ele>18.56</ele>
        <time>2021-03-20T23:46:24Z</time>
      </trkpt>
      <trkpt lat="58.13688" lon="-5.25652">
        <ele>23.05</ele>
        <time>2021-03-20T23:46:27Z</time>
      </trkpt>
      <trkpt lat="58.13663" lon="-5.25593">
        <ele>24.7</ele>
        <time>2021-03-20T23:46:29Z</time>
      </trkpt>
      <trkpt lat="58.13645" lon="-5.25518">
        <ele>24.07</ele>
        <time>2021-03-20T23:46:31Z</time>
      </trkpt>
      <trkpt lat="58.1364" lon="-5.25488">
        <ele>23.07</ele>
        <time>2021-03-20T23:46:34Z</time>
      </trkpt>
      <trkpt lat="58.13638" lon="-5.25406">
        <ele>24.7</ele>
        <time>2021-03-20T23:46:36Z</time>
      </trkpt>
      <trkpt lat="58.13634" lon="-5.25373">
        <ele>25.92</ele>
        <time>2021-03-20T23:46:38Z</time>
      </trkpt>
      <trkpt lat="58.13618" lon="-5.25318">
        <ele>25.82</ele>
        <time>2021-03-20T23:46:40Z</time>
      </trkpt>
      <trkpt lat="58.13616" lon="-5.25292">
        <ele>26.32</ele>
        <time>2021-03-20T23:46:43Z</time>
      </trkpt>
      <trkpt lat="58.13623" lon="-5.25245">
        <ele>28.24</ele>
        <time>2021-03-20T23:46:45Z</time>
      </trkpt>
      <trkpt lat="58.13628" lon="-5.25185">
        <ele>30.62</ele>
        <time>2021-03-20T23:46:47Z</time>
      </trkpt>
      <trkpt lat="58.13625" lon="-5.25095">
        <ele>31</ele>
        <time>2021-03-20T23:46:50Z</time>
      </trkpt>
      <trkpt lat="58.13624" lon="-5.24957">
        <ele>31.14</ele>
        <time>2021-03-20T23:46:52Z</time>
      </trkpt>
      <trkpt lat="58.13626" lon="-5.24935">
        <ele>30.74</ele>
        <time>2021-03-20T23:46:54Z</time>
      </trkpt>
      <trkpt lat="58.1363" lon="-5.24912">
        <ele>30.49</ele>
        <time>2021-03-20T23:46:56Z</time>
      </trkpt>
      <trkpt lat="58.13648" lon="-5.24859">
        <ele>31.32</ele>
        <time>2021-03-20T23:46:59Z</time>
      </trkpt>
      <trkpt lat="58.13656" lon="-5.24842">
        <ele>32.06</ele>
        <time>2021-03-20T23:47:01Z</time>
      </trkpt>
      <trkpt lat="58.13691" lon="-5.24792">
        <ele>36.72</ele>
        <time>2021-03-20T23:47:03Z</time>
      </trkpt>
      <trkpt lat="58.13732" lon="-5.2471">
        <ele>41</ele>
        <time>2021-03-20T23:47:06Z</time>
      </trkpt>
      <trkpt lat="58.13763" lon="-5.24656">
        <ele>46.24</ele>
        <time>2021-03-20T23:47:08Z</time>
      </trkpt>
      <trkpt lat="58.13817" lon="-5.24514">
        <ele>48.19</ele>
        <time>2021-03-20T23:47:10Z</time>
      </trkpt>
      <trkpt lat="58.13869" lon="-5.24344">
        <ele>59.81</ele>
        <time>2021-03-20T23:47:12Z</time>
      </trkpt>
      <trkpt lat="58.13939" lon="-5.24145">
        <ele>61.76</ele>
        <time>2021-03-20T23:47:15Z</time>
      </trkpt>
      <trkpt lat="58.13941" lon="-5.24128">
        <ele>59.58</ele>
        <time>2021-03-20T23:47:17Z</time>
      </trkpt>
      <trkpt lat="58.13939" lon="-5.24116">
        <ele>58.03</ele>
        <time>2021-03-20T23:47:19Z</time>
      </trkpt>
      <trkpt lat="58.13921" lon="-5.24055">
        <ele>52.5</ele>
        <time>2021-03-20T23:47:22Z</time>
      </trkpt>
      <trkpt lat="58.13917" lon="-5.24026">
        <ele>51.8</ele>
        <time>2021-03-20T23:47:24Z</time>
      </trkpt>
      <trkpt lat="58.13917" lon="-5.24009">
        <ele>50.59</ele>
        <time>2021-03-20T23:47:26Z</time>
      </trkpt>
      <trkpt lat="58.13923" lon="-5.2399">
        <ele>48.54</ele>
        <time>2021-03-20T23:47:28Z</time>
      </trkpt>
      <trkpt lat="58.13933" lon="-5.23979">
        <ele>45.94</ele>
        <time>2021-03-20T23:47:31Z</time>
      </trkpt>
      <trkpt lat="58.13939" lon="-5.23978">
        <ele>44.54</ele>
        <time>2021-03-20T23:47:33Z</time>
      </trkpt>
      <trkpt lat="58.13952" lon="-5.23982">
        <ele>41.94</ele>
        <time>2021-03-20T23:47:35Z</time>
      </trkpt>
      <trkpt lat="58.1399" lon="-5.24022">
        <ele>39.64</ele>
        <time>2021-03-20T23:47:38Z</time>
      </trkpt>
      <trkpt lat="58.14005" lon="-5.24027">
        <ele>38.24</ele>
        <time>2021-03-20T23:47:40Z</time>
      </trkpt>
      <trkpt lat="58.14022" lon="-5.24022">
        <ele>35.16</ele>
        <time>2021-03-20T23:47:42Z</time>
      </trkpt>
      <trkpt lat="58.14036" lon="-5.24024">
        <ele>33.44</ele>
        <time>2021-03-20T23:47:44Z</time>
      </trkpt>
      <trkpt lat="58.14044" lon="-5.24039">
        <ele>33.85</ele>
        <time>2021-03-20T23:47:47Z</time>
      </trkpt>
      <trkpt lat="58.14061" lon="-5.24107">
        <ele>38.16</ele>
        <time>2021-03-20T23:47:49Z</time>
      </trkpt>
      <trkpt lat="58.14066" lon="-5.24123">
        <ele>38.43</ele>
        <time>2021-03-20T23:47:51Z</time>
      </trkpt>
      <trkpt lat="58.14072" lon="-5.2413">
        <ele>37.76</ele>
        <time>2021-03-20T23:47:54Z</time>
      </trkpt>
      <trkpt lat="58.1408" lon="-5.24132">
        <ele>36.51</ele>
        <time>2021-03-20T23:47:56Z</time>
      </trkpt>
      <trkpt lat="58.14085" lon="-5.24125">
        <ele>36.18</ele>
        <time>2021-03-20T23:47:58Z</time>
      </trkpt>
      <trkpt lat="58.14094" lon="-5.24099">
        <ele>37.21</ele>
        <time>2021-03-20T23:48:01Z</time>
      </trkpt>
      <trkpt lat="58.14106" lon="-5.23999">
        <ele>37.36</ele>
        <time>2021-03-20T23:48:03Z</time>
      </trkpt>
      <trkpt lat="58.1412" lon="-5.2393">
        <ele>37.67</ele>
        <time>2021-03-20T23:48:05Z</time>
      </trkpt>
      <trkpt lat="58.14126" lon="-5.23912">
        <ele>37.9</ele>
        <time>2021-03-20T23:48:07Z</time>
      </trkpt>
      <trkpt lat="58.14136" lon="-5.2389">
        <ele>37.65</ele>
        <time>2021-03-20T23:48:10Z</time>
      </trkpt>
      <trkpt lat="58.14144" lon="-5.23877">
        <ele>38.22</ele>
        <time>2021-03-20T23:48:12Z</time>
      </trkpt>
      <trkpt lat="58.14168" lon="-5.23856">
        <ele>40.85</ele>
        <time>2021-03-20T23:48:14Z</time>
      </trkpt>
      <trkpt lat="58.14175" lon="-5.23846">
        <ele>41.04</ele>
        <time>2021-03-20T23:48:17Z</time>
      </trkpt>
      <trkpt lat="58.14185" lon="-5.23817">
        <ele>39.69</ele>
        <time>2021-03-20T23:48:19Z</time>
      </trkpt>
      <trkpt lat="58.14192" lon="-5.23775">
        <ele>36.56</ele>
        <time>2021-03-20T23:48:21Z</time>
      </trkpt>
      <trkpt lat="58.142" lon="-5.23751">
        <ele>35.69</ele>
        <time>2021-03-20T23:48:23Z</time>
      </trkpt>
      <trkpt lat="58.14225" lon="-5.23702">
        <ele>34.41</ele>
        <time>2021-03-20T23:48:26Z</time>
      </trkpt>
      <trkpt lat="58.14244" lon="-5.23685">
        <ele>34.08</ele>
        <time>2021-03-20T23:48:28Z</time>
      </trkpt>
      <trkpt lat="58.14255" lon="-5.23681">
        <ele>34.03</ele>
        <time>2021-03-20T23:48:30Z</time>
      </trkpt>
      <trkpt lat="58.1427" lon="-5.23677">
        <ele>33.71</ele>
        <time>2021-03-20T23:48:33Z</time>
      </trkpt>
      <trkpt lat="58.14305" lon="-5.23689">
        <ele>32.62</ele>
        <time>2021-03-20T23:48:35Z</time>
      </trkpt>
      <trkpt lat="58.14351" lon="-5.23699">
        <ele>30.1</ele>
        <time>2021-03-20T23:48:37Z</time>
      </trkpt>
      <trkpt lat="58.14375" lon="-5.23708">
        <ele>29.21</ele>
        <time>2021-03-20T23:48:39Z</time>
      </trkpt>
      <trkpt lat="58.14402" lon="-5.23724">
        <ele>28.71</ele>
        <time>2021-03-20T23:48:42Z</time>
      </trkpt>
      <trkpt lat="58.14426" lon="-5.23752">
        <ele>29.03</ele>
        <time>2021-03-20T23:48:44Z</time>
      </trkpt>
      <trkpt lat="58.14452" lon="-5.23879">
        <ele>25.94</ele>
        <time>2021-03-20T23:48:46Z</time>
      </trkpt>
      <trkpt lat="58.14467" lon="-5.23911">
        <ele>24.61</ele>
        <time>2021-03-20T23:48:49Z</time>
      </trkpt>
      <trkpt lat="58.14482" lon="-5.23917">
        <ele>22.97</ele>
        <time>2021-03-20T23:48:51Z</time>
      </trkpt>
      <trkpt lat="58.14508" lon="-5.23918">
        <ele>20.74</ele>
        <time>2021-03-20T23:48:53Z</time>
      </trkpt>
      <trkpt lat="58.14538" lon="-5.23938">
        <ele>19.28</ele>
        <time>2021-03-20T23:48:55Z</time>
      </trkpt>
      <trkpt lat="58.14569" lon="-5.23968">
        <ele>18.58</ele>
        <time>2021-03-20T23:48:58Z</time>
      </trkpt>
      <trkpt lat="58.14587" lon="-5.23973">
        <ele>17.48</ele>
        <time>2021-03-20T23:49:00Z</time>
      </trkpt>
      <trkpt lat="58.1463" lon="-5.23963">
        <ele>11.48</ele>
        <time>2021-03-20T23:49:02Z</time>
      </trkpt>
      <trkpt lat="58.14647" lon="-5.23964">
        <ele>10.31</ele>
        <time>2021-03-20T23:49:05Z</time>
      </trkpt>
      <trkpt lat="58.14661" lon="-5.23971">
        <ele>9.44</ele>
        <time>2021-03-20T23:49:07Z</time>
      </trkpt>
      <trkpt lat="58.14667" lon="-5.23951">
        <ele>9.77</ele>
        <time>2021-03-20T23:49:09Z</time>
      </trkpt>
      <trkpt lat="58.14673" lon="-5.23943">
        <ele>10.31</ele>
        <time>2021-03-20T23:49:11Z</time>
      </trkpt>
      <trkpt lat="58.14691" lon="-5.2394">
        <ele>11.05</ele>
        <time>2021-03-20T23:49:14Z</time>
      </trkpt>
      <trkpt lat="58.14708" lon="-5.23975">
        <ele>8.33</ele>
        <time>2021-03-20T23:49:16Z</time>
      </trkpt>
      <trkpt lat="58.14744" lon="-5.24001">
        <ele>6.72</ele>
        <time>2021-03-20T23:49:18Z</time>
      </trkpt>
      <trkpt lat="58.14747" lon="-5.24008">
        <ele>6.33</ele>
        <time>2021-03-20T23:49:21Z</time>
      </trkpt>
      <trkpt lat="58.14751" lon="-5.24036">
        <ele>4.47</ele>
        <time>2021-03-20T23:49:23Z</time>
      </trkpt>
      <trkpt lat="58.14763" lon="-5.24031">
        <ele>5.24</ele>
        <time>2021-03-20T23:49:29Z</time>
      </trkpt>
      <trkpt lat="58.14779" lon="-5.24036">
        <ele>5.41</ele>
        <time>2021-03-20T23:49:34Z</time>
      </trkpt>
      <trkpt lat="58.14818" lon="-5.2406">
        <ele>4.66</ele>
        <time>2021-03-20T23:49:40Z</time>
      </trkpt>
      <trkpt lat="58.14843" lon="-5.24069">
        <ele>4.01</ele>
        <time>2021-03-20T23:49:46Z</time>
      </trkpt>
      <trkpt lat="58.15019" lon="-5.24108">
        <ele>4.07</ele>
        <time>2021-03-20T23:49:51Z</time>
      </trkpt>
      <trkpt lat="58.15041" lon="-5.24108">
        <ele>5.05</ele>
        <time>2021-03-20T23:49:57Z</time>
      </trkpt>
      <trkpt lat="58.15186" lon="-5.24043">
        <ele>6.61</ele>
        <time>2021-03-20T23:50:03Z</time>
      </trkpt>
      <trkpt lat="58.15205" lon="-5.24042">
        <ele>6.1</ele>
        <time>2021-03-20T23:50:08Z</time>
      </trkpt>
      <trkpt lat="58.1522" lon="-5.24045">
        <ele>5.44</ele>
        <time>2021-03-20T23:50:14Z</time>
      </trkpt>
      <trkpt lat="58.15283" lon="-5.24069">
        <ele>4.33</ele>
        <time>2021-03-20T23:50:20Z</time>
      </trkpt>
      <trkpt lat="58.15298" lon="-5.2407">
        <ele>3.73</ele>
        <time>2021-03-20T23:50:25Z</time>
      </trkpt>
      <trkpt lat="58.15309" lon="-5.24065">
        <ele>3.55</ele>
        <time>2021-03-20T23:50:31Z</time>
      </trkpt>
      <trkpt lat="58.1533" lon="-5.24038">
        <ele>3.13</ele>
        <time>2021-03-20T23:50:37Z</time>
      </trkpt>
      <trkpt lat="58.15399" lon="-5.2394">
        <ele>6</ele>
        <time>2021-03-20T23:50:42Z</time>
      </trkpt>
      <trkpt lat="58.15465" lon="-5.23842">
        <ele>9.29</ele>
        <time>2021-03-20T23:50:48Z</time>
      </trkpt>
      <trkpt lat="58.15503" lon="-5.23773">
        <ele>10.17</ele>
        <time>2021-03-20T23:50:54Z</time>
      </trkpt>
      <trkpt lat="58.15517" lon="-5.23749">
        <ele>10.02</ele>
        <time>2021-03-20T23:50:59Z</time>
      </trkpt>
      <trkpt lat="58.15535" lon="-5.23725">
        <ele>9.55</ele>
        <time>2021-03-20T23:51:05Z</time>
      </trkpt>
      <trkpt lat="58.1558" lon="-5.23685">
        <ele>11.39</ele>
        <time>2021-03-20T23:51:11Z</time>
      </trkpt>
      <trkpt lat="58.15612" lon="-5.23666">
        <ele>14.08</ele>
        <time>2021-03-20T23:51:16Z</time>
      </trkpt>
      <trkpt lat="58.1568" lon="-5.2363">
        <ele>23.23</ele>
        <time>2021-03-20T23:51:22Z</time>
      </trkpt>
      <trkpt lat="58.15769" lon="-5.23576">
        <ele>35.8</ele>
        <time>2021-03-20T23:51:27Z</time>
      </trkpt>
      <trkpt lat="58.15799" lon="-5.23548">
        <ele>41.47</ele>
        <time>2021-03-20T23:51:33Z</time>
      </trkpt>
      <trkpt lat="58.15824" lon="-5.23519">
        <ele>47.04</ele>
        <time>2021-03-20T23:51:39Z</time>
      </trkpt>
      <trkpt lat="58.15868" lon="-5.23425">
        <ele>53.63</ele>
        <time>2021-03-20T23:51:44Z</time>
      </trkpt>
      <trkpt lat="58.15934" lon="-5.23268">
        <ele>49.4</ele>
        <time>2021-03-20T23:51:50Z</time>
      </trkpt>
      <trkpt lat="58.15956" lon="-5.23218">
        <ele>48.95</ele>
        <time>2021-03-20T23:51:56Z</time>
      </trkpt>
      <trkpt lat="58.15975" lon="-5.23248">
        <ele>51</ele>
        <time>2021-03-20T23:51:58Z</time>
      </trkpt>
      <trkpt lat="58.16002" lon="-5.23335">
        <ele>54.05</ele>
        <time>2021-03-20T23:52:01Z</time>
      </trkpt>
      <trkpt lat="58.16011" lon="-5.23375">
        <ele>54.19</ele>
        <time>2021-03-20T23:52:03Z</time>
      </trkpt>
      <trkpt lat="58.1602" lon="-5.23483">
        <ele>53.34</ele>
        <time>2021-03-20T23:52:06Z</time>
      </trkpt>
      <trkpt lat="58.16026" lon="-5.23511">
        <ele>52.75</ele>
        <time>2021-03-20T23:52:09Z</time>
      </trkpt>
      <trkpt lat="58.16033" lon="-5.23529">
        <ele>53.06</ele>
        <time>2021-03-20T23:52:11Z</time>
      </trkpt>
      <trkpt lat="58.16042" lon="-5.23542">
        <ele>53.49</ele>
        <time>2021-03-20T23:52:14Z</time>
      </trkpt>
      <trkpt lat="58.16053" lon="-5.23544">
        <ele>53.59</ele>
        <time>2021-03-20T23:52:16Z</time>
      </trkpt>
      <trkpt lat="58.16064" lon="-5.23543">
        <ele>54.05</ele>
        <time>2021-03-20T23:52:19Z</time>
      </trkpt>
      <trkpt lat="58.16095" lon="-5.2353">
        <ele>54.58</ele>
        <time>2021-03-20T23:52:21Z</time>
      </trkpt>
      <trkpt lat="58.16143" lon="-5.2353">
        <ele>57.31</ele>
        <time>2021-03-20T23:52:24Z</time>
      </trkpt>
      <trkpt lat="58.16159" lon="-5.23536">
        <ele>58.11</ele>
        <time>2021-03-20T23:52:26Z</time>
      </trkpt>
      <trkpt lat="58.16168" lon="-5.23548">
        <ele>58.81</ele>
        <time>2021-03-20T23:52:29Z</time>
      </trkpt>
      <trkpt lat="58.16179" lon="-5.23568">
        <ele>60.78</ele>
        <time>2021-03-20T23:52:32Z</time>
      </trkpt>
      <trkpt lat="58.16187" lon="-5.23597">
        <ele>62.63</ele>
        <time>2021-03-20T23:52:34Z</time>
      </trkpt>
      <trkpt lat="58.16217" lon="-5.23774">
        <ele>67.2</ele>
        <time>2021-03-20T23:52:37Z</time>
      </trkpt>
      <trkpt lat="58.16257" lon="-5.24159">
        <ele>71.08</ele>
        <time>2021-03-20T23:52:39Z</time>
      </trkpt>
      <trkpt lat="58.16264" lon="-5.2427">
        <ele>66.75</ele>
        <time>2021-03-20T23:52:42Z</time>
      </trkpt>
      <trkpt lat="58.16268" lon="-5.24364">
        <ele>64.74</ele>
        <time>2021-03-20T23:52:44Z</time>
      </trkpt>
      <trkpt lat="58.16313" lon="-5.24572">
        <ele>62.01</ele>
        <time>2021-03-20T23:52:47Z</time>
      </trkpt>
      <trkpt lat="58.16342" lon="-5.24673">
        <ele>62.95</ele>
        <time>2021-03-20T23:52:49Z</time>
      </trkpt>
      <trkpt lat="58.16354" lon="-5.24696">
        <ele>62.03</ele>
        <time>2021-03-20T23:52:52Z</time>
      </trkpt>
      <trkpt lat="58.16367" lon="-5.24708">
        <ele>61.5</ele>
        <time>2021-03-20T23:52:54Z</time>
      </trkpt>
      <trkpt lat="58.16379" lon="-5.24714">
        <ele>61.72</ele>
        <time>2021-03-20T23:52:57Z</time>
      </trkpt>
      <trkpt lat="58.16443" lon="-5.24718">
        <ele>68.73</ele>
        <time>2021-03-20T23:53:00Z</time>
      </trkpt>
      <trkpt lat="58.16465" lon="-5.24726">
        <ele>67.95</ele>
        <time>2021-03-20T23:53:02Z</time>
      </trkpt>
      <trkpt lat="58.16554" lon="-5.24802">
        <ele>61.07</ele>
        <time>2021-03-20T23:53:05Z</time>
      </trkpt>
      <trkpt lat="58.16576" lon="-5.24826">
        <ele>58.07</ele>
        <time>2021-03-20T23:53:07Z</time>
      </trkpt>
      <trkpt lat="58.16603" lon="-5.24876">
        <ele>52.86</ele>
        <time>2021-03-20T23:53:10Z</time>
      </trkpt>
      <trkpt lat="58.16644" lon="-5.24973">
        <ele>45.65</ele>
        <time>2021-03-20T23:53:12Z</time>
      </trkpt>
      <trkpt lat="58.16683" lon="-5.25141">
        <ele>44.98</ele>
        <time>2021-03-20T23:53:15Z</time>
      </trkpt>
      <trkpt lat="58.16695" lon="-5.25203">
        <ele>42.99</ele>
        <time>2021-03-20T23:53:17Z</time>
      </trkpt>
      <trkpt lat="58.16744" lon="-5.25592">
        <ele>33.97</ele>
        <time>2021-03-20T23:53:20Z</time>
      </trkpt>
      <trkpt lat="58.16752" lon="-5.25638">
        <ele>32</ele>
        <time>2021-03-20T23:53:23Z</time>
      </trkpt>
      <trkpt lat="58.16835" lon="-5.25882">
        <ele>24.92</ele>
        <time>2021-03-20T23:53:25Z</time>
      </trkpt>
      <trkpt lat="58.1686" lon="-5.25946">
        <ele>23.12</ele>
        <time>2021-03-20T23:53:28Z</time>
      </trkpt>
      <trkpt lat="58.16877" lon="-5.25995">
        <ele>21.53</ele>
        <time>2021-03-20T23:53:30Z</time>
      </trkpt>
      <trkpt lat="58.16893" lon="-5.26055">
        <ele>17.01</ele>
        <time>2021-03-20T23:53:33Z</time>
      </trkpt>
      <trkpt lat="58.16911" lon="-5.26106">
        <ele>14.8</ele>
        <time>2021-03-20T23:53:35Z</time>
      </trkpt>
      <trkpt lat="58.16923" lon="-5.26124">
        <ele>13.21</ele>
        <time>2021-03-20T23:53:38Z</time>
      </trkpt>
      <trkpt lat="58.16937" lon="-5.26131">
        <ele>12.09</ele>
        <time>2021-03-20T23:53:40Z</time>
      </trkpt>
      <trkpt lat="58.16983" lon="-5.2613">
        <ele>12.66</ele>
        <time>2021-03-20T23:53:43Z</time>
      </trkpt>
      <trkpt lat="58.16994" lon="-5.26135">
        <ele>12.28</ele>
        <time>2021-03-20T23:53:46Z</time>
      </trkpt>
      <trkpt lat="58.17005" lon="-5.26159">
        <ele>11.57</ele>
        <time>2021-03-20T23:53:48Z</time>
      </trkpt>
      <trkpt lat="58.17043" lon="-5.26182">
        <ele>15.19</ele>
        <time>2021-03-20T23:53:51Z</time>
      </trkpt>
      <trkpt lat="58.17056" lon="-5.26184">
        <ele>17.39</ele>
        <time>2021-03-20T23:53:53Z</time>
      </trkpt>
      <trkpt lat="58.17069" lon="-5.26178">
        <ele>18.9</ele>
        <time>2021-03-20T23:53:56Z</time>
      </trkpt>
      <trkpt lat="58.17133" lon="-5.26085">
        <ele>22.24</ele>
        <time>2021-03-20T23:53:58Z</time>
      </trkpt>
      <trkpt lat="58.17156" lon="-5.26045">
        <ele>23.79</ele>
        <time>2021-03-20T23:54:01Z</time>
      </trkpt>
      <trkpt lat="58.17183" lon="-5.25983">
        <ele>26.89</ele>
        <time>2021-03-20T23:54:03Z</time>
      </trkpt>
      <trkpt lat="58.17195" lon="-5.25966">
        <ele>27.9</ele>
        <time>2021-03-20T23:54:06Z</time>
      </trkpt>
      <trkpt lat="58.17203" lon="-5.25962">
        <ele>28.78</ele>
        <time>2021-03-20T23:54:08Z</time>
      </trkpt>
      <trkpt lat="58.1721" lon="-5.25963">
        <ele>29.79</ele>
        <time>2021-03-20T23:54:11Z</time>
      </trkpt>
      <trkpt lat="58.17217" lon="-5.2597">
        <ele>31.09</ele>
        <time>2021-03-20T23:54:14Z</time>
      </trkpt>
      <trkpt lat="58.17256" lon="-5.26017">
        <ele>35.16</ele>
        <time>2021-03-20T23:54:16Z</time>
      </trkpt>
      <trkpt lat="58.17318" lon="-5.26085">
        <ele>40.07</ele>
        <time>2021-03-20T23:54:19Z</time>
      </trkpt>
      <trkpt lat="58.1733" lon="-5.26107">
        <ele>40.97</ele>
        <time>2021-03-20T23:54:21Z</time>
      </trkpt>
      <trkpt lat="58.17352" lon="-5.26201">
        <ele>43.06</ele>
        <time>2021-03-20T23:54:24Z</time>
      </trkpt>
      <trkpt lat="58.17356" lon="-5.2625">
        <ele>41.74</ele>
        <time>2021-03-20T23:54:26Z</time>
      </trkpt>
      <trkpt lat="58.17356" lon="-5.26289">
        <ele>40.53</ele>
        <time>2021-03-20T23:54:29Z</time>
      </trkpt>
      <trkpt lat="58.17352" lon="-5.26349">
        <ele>40.76</ele>
        <time>2021-03-20T23:54:31Z</time>
      </trkpt>
      <trkpt lat="58.17353" lon="-5.26411">
        <ele>43.08</ele>
        <time>2021-03-20T23:54:34Z</time>
      </trkpt>
      <trkpt lat="58.17363" lon="-5.26518">
        <ele>43.36</ele>
        <time>2021-03-20T23:54:37Z</time>
      </trkpt>
      <trkpt lat="58.17371" lon="-5.26564">
        <ele>44.01</ele>
        <time>2021-03-20T23:54:39Z</time>
      </trkpt>
      <trkpt lat="58.17383" lon="-5.26617">
        <ele>46.7</ele>
        <time>2021-03-20T23:54:42Z</time>
      </trkpt>
      <trkpt lat="58.17434" lon="-5.26758">
        <ele>59.91</ele>
        <time>2021-03-20T23:54:44Z</time>
      </trkpt>
      <trkpt lat="58.1747" lon="-5.26869">
        <ele>66.54</ele>
        <time>2021-03-20T23:54:47Z</time>
      </trkpt>
      <trkpt lat="58.1749" lon="-5.26922">
        <ele>70.39</ele>
        <time>2021-03-20T23:54:49Z</time>
      </trkpt>
      <trkpt lat="58.17513" lon="-5.2697">
        <ele>74.83</ele>
        <time>2021-03-20T23:54:52Z</time>
      </trkpt>
      <trkpt lat="58.17539" lon="-5.2701">
        <ele>77.15</ele>
        <time>2021-03-20T23:54:54Z</time>
      </trkpt>
      <trkpt lat="58.17566" lon="-5.27045">
        <ele>80.86</ele>
        <time>2021-03-20T23:54:57Z</time>
      </trkpt>
      <trkpt lat="58.17588" lon="-5.27079">
        <ele>85.27</ele>
        <time>2021-03-20T23:54:59Z</time>
      </trkpt>
      <trkpt lat="58.17605" lon="-5.27111">
        <ele>88.52</ele>
        <time>2021-03-20T23:55:02Z</time>
      </trkpt>
      <trkpt lat="58.17708" lon="-5.27388">
        <ele>109.84</ele>
        <time>2021-03-20T23:55:05Z</time>
      </trkpt>
      <trkpt lat="58.17716" lon="-5.27425">
        <ele>112.98</ele>
        <time>2021-03-20T23:55:07Z</time>
      </trkpt>
      <trkpt lat="58.17732" lon="-5.27507">
        <ele>115.76</ele>
        <time>2021-03-20T23:55:10Z</time>
      </trkpt>
      <trkpt lat="58.17735" lon="-5.27604">
        <ele>118.39</ele>
        <time>2021-03-20T23:55:12Z</time>
      </trkpt>
      <trkpt lat="58.17747" lon="-5.27737">
        <ele>116.29</ele>
        <time>2021-03-20T23:55:15Z</time>
      </trkpt>
      <trkpt lat="58.17748" lon="-5.27774">
        <ele>113.54</ele>
        <time>2021-03-20T23:55:17Z</time>
      </trkpt>
      <trkpt lat="58.17745" lon="-5.27809">
        <ele>112.55</ele>
        <time>2021-03-20T23:55:20Z</time>
      </trkpt>
      <trkpt lat="58.17722" lon="-5.2794">
        <ele>114.05</ele>
        <time>2021-03-20T23:55:22Z</time>
      </trkpt>
      <trkpt lat="58.17719" lon="-5.27973">
        <ele>115.72</ele>
        <time>2021-03-20T23:55:25Z</time>
      </trkpt>
      <trkpt lat="58.17719" lon="-5.28004">
        <ele>115.86</ele>
        <time>2021-03-20T23:55:28Z</time>
      </trkpt>
      <trkpt lat="58.17736" lon="-5.28113">
        <ele>108.56</ele>
        <time>2021-03-20T23:55:30Z</time>
      </trkpt>
      <trkpt lat="58.17743" lon="-5.28134">
        <ele>105.81</ele>
        <time>2021-03-20T23:55:33Z</time>
      </trkpt>
      <trkpt lat="58.17766" lon="-5.28165">
        <ele>102.1</ele>
        <time>2021-03-20T23:55:35Z</time>
      </trkpt>
      <trkpt lat="58.17776" lon="-5.28193">
        <ele>98.39</ele>
        <time>2021-03-20T23:55:38Z</time>
      </trkpt>
      <trkpt lat="58.17784" lon="-5.28234">
        <ele>94.59</ele>
        <time>2021-03-20T23:55:40Z</time>
      </trkpt>
      <trkpt lat="58.1779" lon="-5.28322">
        <ele>84.95</ele>
        <time>2021-03-20T23:55:43Z</time>
      </trkpt>
      <trkpt lat="58.17794" lon="-5.28336">
        <ele>83.04</ele>
        <time>2021-03-20T23:55:45Z</time>
      </trkpt>
      <trkpt lat="58.17799" lon="-5.2834">
        <ele>82.22</ele>
        <time>2021-03-20T23:55:48Z</time>
      </trkpt>
      <trkpt lat="58.17807" lon="-5.28339">
        <ele>82.06</ele>
        <time>2021-03-20T23:55:51Z</time>
      </trkpt>
      <trkpt lat="58.17864" lon="-5.28261">
        <ele>81.93</ele>
        <time>2021-03-20T23:55:53Z</time>
      </trkpt>
      <trkpt lat="58.17899" lon="-5.28236">
        <ele>77.55</ele>
        <time>2021-03-20T23:55:56Z</time>
      </trkpt>
      <trkpt lat="58.17952" lon="-5.28189">
        <ele>72.04</ele>
        <time>2021-03-20T23:55:58Z</time>
      </trkpt>
      <trkpt lat="58.17961" lon="-5.28188">
        <ele>69.84</ele>
        <time>2021-03-20T23:56:01Z</time>
      </trkpt>
      <trkpt lat="58.17969" lon="-5.28196">
        <ele>67.6</ele>
        <time>2021-03-20T23:56:03Z</time>
      </trkpt>
      <trkpt lat="58.17975" lon="-5.28215">
        <ele>66.04</ele>
        <time>2021-03-20T23:56:06Z</time>
      </trkpt>
      <trkpt lat="58.17979" lon="-5.2824">
        <ele>65.33</ele>
        <time>2021-03-20T23:56:08Z</time>
      </trkpt>
      <trkpt lat="58.1798" lon="-5.28273">
        <ele>65.16</ele>
        <time>2021-03-20T23:56:11Z</time>
      </trkpt>
      <trkpt lat="58.17976" lon="-5.28306">
        <ele>65.4</ele>
        <time>2021-03-20T23:56:13Z</time>
      </trkpt>
      <trkpt lat="58.17951" lon="-5.28466">
        <ele>64.5</ele>
        <time>2021-03-20T23:56:16Z</time>
      </trkpt>
      <trkpt lat="58.17944" lon="-5.28493">
        <ele>63.56</ele>
        <time>2021-03-20T23:56:19Z</time>
      </trkpt>
      <trkpt lat="58.17924" lon="-5.28526">
        <ele>63.03</ele>
        <time>2021-03-20T23:56:21Z</time>
      </trkpt>
      <trkpt lat="58.17914" lon="-5.28552">
        <ele>62.77</ele>
        <time>2021-03-20T23:56:24Z</time>
      </trkpt>
      <trkpt lat="58.17909" lon="-5.28577">
        <ele>62.19</ele>
        <time>2021-03-20T23:56:26Z</time>
      </trkpt>
      <trkpt lat="58.17901" lon="-5.28648">
        <ele>58.76</ele>
        <time>2021-03-20T23:56:29Z</time>
      </trkpt>
      <trkpt lat="58.17896" lon="-5.28677">
        <ele>58.12</ele>
        <time>2021-03-20T23:56:31Z</time>
      </trkpt>
      <trkpt lat="58.17888" lon="-5.28701">
        <ele>57.65</ele>
        <time>2021-03-20T23:56:34Z</time>
      </trkpt>
      <trkpt lat="58.17849" lon="-5.28758">
        <ele>57.45</ele>
        <time>2021-03-20T23:56:36Z</time>
      </trkpt>
      <trkpt lat="58.17831" lon="-5.28796">
        <ele>57.36</ele>
        <time>2021-03-20T23:56:39Z</time>
      </trkpt>
      <trkpt lat="58.17819" lon="-5.28834">
        <ele>57.01</ele>
        <time>2021-03-20T23:56:42Z</time>
      </trkpt>
      <trkpt lat="58.17807" lon="-5.28881">
        <ele>58.7</ele>
        <time>2021-03-20T23:56:44Z</time>
      </trkpt>
      <trkpt lat="58.17803" lon="-5.28917">
        <ele>60.51</ele>
        <time>2021-03-20T23:56:47Z</time>
      </trkpt>
      <trkpt lat="58.17801" lon="-5.28953">
        <ele>61.9</ele>
        <time>2021-03-20T23:56:49Z</time>
      </trkpt>
      <trkpt lat="58.17809" lon="-5.29149">
        <ele>66.63</ele>
        <time>2021-03-20T23:56:52Z</time>
      </trkpt>
      <trkpt lat="58.17815" lon="-5.29197">
        <ele>67.14</ele>
        <time>2021-03-20T23:56:54Z</time>
      </trkpt>
      <trkpt lat="58.17822" lon="-5.29233">
        <ele>65.83</ele>
        <time>2021-03-20T23:56:57Z</time>
      </trkpt>
      <trkpt lat="58.17913" lon="-5.29549">
        <ele>61.1</ele>
        <time>2021-03-20T23:56:59Z</time>
      </trkpt>
      <trkpt lat="58.17923" lon="-5.29594">
        <ele>61.4</ele>
        <time>2021-03-20T23:57:02Z</time>
      </trkpt>
      <trkpt lat="58.17964" lon="-5.29885">
        <ele>61.36</ele>
        <time>2021-03-20T23:57:04Z</time>
      </trkpt>
      <trkpt lat="58.1797" lon="-5.29936">
        <ele>59.62</ele>
        <time>2021-03-20T23:57:07Z</time>
      </trkpt>
      <trkpt lat="58.17971" lon="-5.29999">
        <ele>58.54</ele>
        <time>2021-03-20T23:57:10Z</time>
      </trkpt>
      <trkpt lat="58.17997" lon="-5.30241">
        <ele>52.95</ele>
        <time>2021-03-20T23:57:12Z</time>
      </trkpt>
      <trkpt lat="58.18002" lon="-5.30276">
        <ele>52.09</ele>
        <time>2021-03-20T23:57:15Z</time>
      </trkpt>
      <trkpt lat="58.18018" lon="-5.30299">
        <ele>53.4</ele>
        <time>2021-03-20T23:57:17Z</time>
      </trkpt>
      <trkpt lat="58.18065" lon="-5.30351">
        <ele>56.55</ele>
        <time>2021-03-20T23:57:20Z</time>
      </trkpt>
      <trkpt lat="58.18184" lon="-5.30613">
        <ele>46.24</ele>
        <time>2021-03-20T23:57:22Z</time>
      </trkpt>
      <trkpt lat="58.18223" lon="-5.30727">
        <ele>49.06</ele>
        <time>2021-03-20T23:57:25Z</time>
      </trkpt>
      <trkpt lat="58.18235" lon="-5.30788">
        <ele>48.84</ele>
        <time>2021-03-20T23:57:27Z</time>
      </trkpt>
      <trkpt lat="58.18239" lon="-5.30813">
        <ele>48.24</ele>
        <time>2021-03-20T23:57:30Z</time>
      </trkpt>
      <trkpt lat="58.18275" lon="-5.30909">
        <ele>45.03</ele>
        <time>2021-03-20T23:57:33Z</time>
      </trkpt>
      <trkpt lat="58.18283" lon="-5.30958">
        <ele>45.14</ele>
        <time>2021-03-20T23:57:35Z</time>
      </trkpt>
      <trkpt lat="58.18281" lon="-5.31002">
        <ele>44.5</ele>
        <time>2021-03-20T23:57:38Z</time>
      </trkpt>
      <trkpt lat="58.18282" lon="-5.31021">
        <ele>45.34</ele>
        <time>2021-03-20T23:57:40Z</time>
      </trkpt>
      <trkpt lat="58.183" lon="-5.31116">
        <ele>51.59</ele>
        <time>2021-03-20T23:57:43Z</time>
      </trkpt>
      <trkpt lat="58.18324" lon="-5.31217">
        <ele>54.57</ele>
        <time>2021-03-20T23:57:45Z</time>
      </trkpt>
      <trkpt lat="58.18347" lon="-5.31292">
        <ele>54.06</ele>
        <time>2021-03-20T23:57:48Z</time>
      </trkpt>
      <trkpt lat="58.18412" lon="-5.31432">
        <ele>52.88</ele>
        <time>2021-03-20T23:57:50Z</time>
      </trkpt>
      <trkpt lat="58.18469" lon="-5.31612">
        <ele>60.85</ele>
        <time>2021-03-20T23:57:53Z</time>
      </trkpt>
      <trkpt lat="58.18478" lon="-5.31668">
        <ele>60.05</ele>
        <time>2021-03-20T23:57:56Z</time>
      </trkpt>
      <trkpt lat="58.18477" lon="-5.31803">
        <ele>59.85</ele>
        <time>2021-03-20T23:57:58Z</time>
      </trkpt>
      <trkpt lat="58.18485" lon="-5.31975">
        <ele>53.3</ele>
        <time>2021-03-20T23:58:01Z</time>
      </trkpt>
      <trkpt lat="58.18532" lon="-5.32158">
        <ele>40.41</ele>
        <time>2021-03-20T23:58:03Z</time>
      </trkpt>
      <trkpt lat="58.18549" lon="-5.32204">
        <ele>41.51</ele>
        <time>2021-03-20T23:58:06Z</time>
      </trkpt>
      <trkpt lat="58.18579" lon="-5.32251">
        <ele>44.03</ele>
        <time>2021-03-20T23:58:08Z</time>
      </trkpt>
      <trkpt lat="58.18595" lon="-5.32308">
        <ele>45.25</ele>
        <time>2021-03-20T23:58:11Z</time>
      </trkpt>
      <trkpt lat="58.18608" lon="-5.32431">
        <ele>48.44</ele>
        <time>2021-03-20T23:58:13Z</time>
      </trkpt>
      <trkpt lat="58.18666" lon="-5.32633">
        <ele>46.28</ele>
        <time>2021-03-20T23:58:16Z</time>
      </trkpt>
      <trkpt lat="58.18696" lon="-5.32685">
        <ele>44.35</ele>
        <time>2021-03-20T23:58:18Z</time>
      </trkpt>
      <trkpt lat="58.18773" lon="-5.32743">
        <ele>38.96</ele>
        <time>2021-03-20T23:58:21Z</time>
      </trkpt>
      <trkpt lat="58.18858" lon="-5.32845">
        <ele>41.93</ele>
        <time>2021-03-20T23:58:24Z</time>
      </trkpt>
      <trkpt lat="58.18882" lon="-5.32917">
        <ele>40.24</ele>
        <time>2021-03-20T23:58:26Z</time>
      </trkpt>
      <trkpt lat="58.1889" lon="-5.33062">
        <ele>30.21</ele>
        <time>2021-03-20T23:58:29Z</time>
      </trkpt>
      <trkpt lat="58.18911" lon="-5.33203">
        <ele>18.21</ele>
        <time>2021-03-20T23:58:31Z</time>
      </trkpt>
      <trkpt lat="58.18916" lon="-5.3322">
        <ele>17.07</ele>
        <time>2021-03-20T23:58:34Z</time>
      </trkpt>
      <trkpt lat="58.18934" lon="-5.33231">
        <ele>14.07</ele>
        <time>2021-03-20T23:58:36Z</time>
      </trkpt>
      <trkpt lat="58.19072" lon="-5.3324">
        <ele>12.8</ele>
        <time>2021-03-20T23:58:39Z</time>
      </trkpt>
      <trkpt lat="58.19115" lon="-5.33237">
        <ele>14.07</ele>
        <time>2021-03-20T23:58:41Z</time>
      </trkpt>
      <trkpt lat="58.19157" lon="-5.33223">
        <ele>14.65</ele>
        <time>2021-03-20T23:58:44Z</time>
      </trkpt>
      <trkpt lat="58.19209" lon="-5.33192">
        <ele>14.96</ele>
        <time>2021-03-20T23:58:47Z</time>
      </trkpt>
      <trkpt lat="58.193" lon="-5.33172">
        <ele>14.19</ele>
        <time>2021-03-20T23:58:49Z</time>
      </trkpt>
      <trkpt lat="58.19331" lon="-5.33173">
        <ele>13.34</ele>
        <time>2021-03-20T23:58:52Z</time>
      </trkpt>
      <trkpt lat="58.19372" lon="-5.33191">
        <ele>12.67</ele>
        <time>2021-03-20T23:58:54Z</time>
      </trkpt>
      <trkpt lat="58.19434" lon="-5.33247">
        <ele>12</ele>
        <time>2021-03-20T23:58:57Z</time>
      </trkpt>
      <trkpt lat="58.19483" lon="-5.333">
        <ele>11.61</ele>
        <time>2021-03-20T23:58:59Z</time>
      </trkpt>
      <trkpt lat="58.19507" lon="-5.3333">
        <ele>10.75</ele>
        <time>2021-03-20T23:59:02Z</time>
      </trkpt>
      <trkpt lat="58.19541" lon="-5.33381">
        <ele>11</ele>
        <time>2021-03-20T23:59:04Z</time>
      </trkpt>
      <trkpt lat="58.19574" lon="-5.33424">
        <ele>11.95</ele>
        <time>2021-03-20T23:59:07Z</time>
      </trkpt>
      <trkpt lat="58.19623" lon="-5.33469">
        <ele>9.55</ele>
        <time>2021-03-20T23:59:09Z</time>
      </trkpt>
      <trkpt lat="58.19662" lon="-5.33522">
        <ele>7.38</ele>
        <time>2021-03-20T23:59:12Z</time>
      </trkpt>
      <trkpt lat="58.19716" lon="-5.3364">
        <ele>7.44</ele>
        <time>2021-03-20T23:59:15Z</time>
      </trkpt>
      <trkpt lat="58.19748" lon="-5.33674">
        <ele>6.34</ele>
        <time>2021-03-20T23:59:17Z</time>
      </trkpt>
      <trkpt lat="58.19755" lon="-5.33676">
        <ele>6.16</ele>
        <time>2021-03-20T23:59:20Z</time>
      </trkpt>
      <trkpt lat="58.19771" lon="-5.33673">
        <ele>5.48</ele>
        <time>2021-03-20T23:59:22Z</time>
      </trkpt>
      <trkpt lat="58.19789" lon="-5.3366">
        <ele>5.41</ele>
        <time>2021-03-20T23:59:25Z</time>
      </trkpt>
      <trkpt lat="58.19821" lon="-5.33645">
        <ele>6</ele>
        <time>2021-03-20T23:59:27Z</time>
      </trkpt>
      <trkpt lat="58.19829" lon="-5.33644">
        <ele>6</ele>
        <time>2021-03-20T23:59:30Z</time>
      </trkpt>
      <trkpt lat="58.1987" lon="-5.33654">
        <ele>6</ele>
        <time>2021-03-20T23:59:32Z</time>
      </trkpt>
      <trkpt lat="58.19954" lon="-5.33681">
        <ele>9.72</ele>
        <time>2021-03-20T23:59:35Z</time>
      </trkpt>
      <trkpt lat="58.19983" lon="-5.33696">
        <ele>12.48</ele>
        <time>2021-03-20T23:59:38Z</time>
      </trkpt>
      <trkpt lat="58.19998" lon="-5.33712">
        <ele>14.69</ele>
        <time>2021-03-20T23:59:40Z</time>
      </trkpt>
      <trkpt lat="58.20007" lon="-5.33726">
        <ele>15.89</ele>
        <time>2021-03-20T23:59:43Z</time>
      </trkpt>
      <trkpt lat="58.20032" lon="-5.33788">
        <ele>17.71</ele>
        <time>2021-03-20T23:59:45Z</time>
      </trkpt>
      <trkpt lat="58.20038" lon="-5.33796">
        <ele>18.67</ele>
        <time>2021-03-20T23:59:48Z</time>
      </trkpt>
      <trkpt lat="58.20046" lon="-5.33802">
        <ele>20.12</ele>
        <time>2021-03-20T23:59:50Z</time>
      </trkpt>
      <trkpt lat="58.20059" lon="-5.338">
        <ele>22.22</ele>
        <time>2021-03-20T23:59:53Z</time>
      </trkpt>
      <trkpt lat="58.201" lon="-5.33759">
        <ele>26.22</ele>
        <time>2021-03-20T23:59:55Z</time>
      </trkpt>
      <trkpt lat="58.20117" lon="-5.33755">
        <ele>27.61</ele>
        <time>2021-03-20T23:59:58Z</time>
      </trkpt>
      <trkpt lat="58.20246" lon="-5.33827">
        <ele>41.7</ele>
        <time>2021-03-21T00:00:01Z</time>
      </trkpt>
      <trkpt lat="58.20282" lon="-5.33862">
        <ele>45</ele>
        <time>2021-03-21T00:00:03Z</time>
      </trkpt>
      <trkpt lat="58.20294" lon="-5.3388">
        <ele>45</ele>
        <time>2021-03-21T00:00:06Z</time>
      </trkpt>
      <trkpt lat="58.20306" lon="-5.33956">
        <ele>45.4</ele>
        <time>2021-03-21T00:00:08Z</time>
      </trkpt>
      <trkpt lat="58.20332" lon="-5.3401">
        <ele>47.08</ele>
        <time>2021-03-21T00:00:11Z</time>
      </trkpt>
      <trkpt lat="58.20345" lon="-5.34028">
        <ele>48.58</ele>
        <time>2021-03-21T00:00:13Z</time>
      </trkpt>
      <trkpt lat="58.20465" lon="-5.34139">
        <ele>52.01</ele>
        <time>2021-03-21T00:00:16Z</time>
      </trkpt>
      <trkpt lat="58.20491" lon="-5.34146">
        <ele>53.45</ele>
        <time>2021-03-21T00:00:18Z</time>
      </trkpt>
      <trkpt lat="58.20518" lon="-5.34134">
        <ele>55.24</ele>
        <time>2021-03-21T00:00:21Z</time>
      </trkpt>
      <trkpt lat="58.20529" lon="-5.34125">
        <ele>56.14</ele>
        <time>2021-03-21T00:00:23Z</time>
      </trkpt>
      <trkpt lat="58.20557" lon="-5.34048">
        <ele>59.07</ele>
        <time>2021-03-21T00:00:26Z</time>
      </trkpt>
      <trkpt lat="58.2057" lon="-5.34026">
        <ele>59.49</ele>
        <time>2021-03-21T00:00:29Z</time>
      </trkpt>
      <trkpt lat="58.20584" lon="-5.34015">
        <ele>59.5</ele>
        <time>2021-03-21T00:00:31Z</time>
      </trkpt>
      <trkpt lat="58.20672" lon="-5.33965">
        <ele>57.93</ele>
        <time>2021-03-21T00:00:34Z</time>
      </trkpt>
      <trkpt lat="58.208" lon="-5.33833">
        <ele>59.8</ele>
        <time>2021-03-21T00:00:36Z</time>
      </trkpt>
      <trkpt lat="58.20817" lon="-5.33819">
        <ele>60.12</ele>
        <time>2021-03-21T00:00:39Z</time>
      </trkpt>
      <trkpt lat="58.20836" lon="-5.33812">
        <ele>60.69</ele>
        <time>2021-03-21T00:00:41Z</time>
      </trkpt>
      <trkpt lat="58.20914" lon="-5.33795">
        <ele>61.81</ele>
        <time>2021-03-21T00:00:44Z</time>
      </trkpt>
      <trkpt lat="58.20994" lon="-5.3378">
        <ele>63.98</ele>
        <time>2021-03-21T00:00:46Z</time>
      </trkpt>
      <trkpt lat="58.21039" lon="-5.33767">
        <ele>64</ele>
        <time>2021-03-21T00:00:49Z</time>
      </trkpt>
      <trkpt lat="58.21123" lon="-5.33755">
        <ele>59.31</ele>
        <time>2021-03-21T00:00:52Z</time>
      </trkpt>
      <trkpt lat="58.21139" lon="-5.33745">
        <ele>57.67</ele>
        <time>2021-03-21T00:00:54Z</time>
      </trkpt>
      <trkpt lat="58.21151" lon="-5.33735">
        <ele>56.05</ele>
        <time>2021-03-21T00:00:57Z</time>
      </trkpt>
      <trkpt lat="58.21244" lon="-5.3364">
        <ele>49.21</ele>
        <time>2021-03-21T00:00:59Z</time>
      </trkpt>
      <trkpt lat="58.21285" lon="-5.33602">
        <ele>48.73</ele>
        <time>2021-03-21T00:01:02Z</time>
      </trkpt>
      <trkpt lat="58.21499" lon="-5.33385">
        <ele>47.35</ele>
        <time>2021-03-21T00:01:04Z</time>
      </trkpt>
      <trkpt lat="58.21531" lon="-5.33357">
        <ele>45.3</ele>
        <time>2021-03-21T00:01:07Z</time>
      </trkpt>
      <trkpt lat="58.21586" lon="-5.33269">
        <ele>49.4</ele>
        <time>2021-03-21T00:01:09Z</time>
      </trkpt>
      <trkpt lat="58.21608" lon="-5.33207">
        <ele>52.36</ele>
        <time>2021-03-21T00:01:12Z</time>
      </trkpt>
      <trkpt lat="58.21634" lon="-5.33098">
        <ele>53.31</ele>
        <time>2021-03-21T00:01:14Z</time>
      </trkpt>
      <trkpt lat="58.21723" lon="-5.32811">
        <ele>54.12</ele>
        <time>2021-03-21T00:01:17Z</time>
      </trkpt>
      <trkpt lat="58.21764" lon="-5.32653">
        <ele>55.77</ele>
        <time>2021-03-21T00:01:20Z</time>
      </trkpt>
      <trkpt lat="58.21817" lon="-5.32531">
        <ele>52.93</ele>
        <time>2021-03-21T00:01:22Z</time>
      </trkpt>
      <trkpt lat="58.21869" lon="-5.32461">
        <ele>52.58</ele>
        <time>2021-03-21T00:01:25Z</time>
      </trkpt>
      <trkpt lat="58.21937" lon="-5.32381">
        <ele>50.45</ele>
        <time>2021-03-21T00:01:27Z</time>
      </trkpt>
      <trkpt lat="58.21988" lon="-5.32329">
        <ele>51.9</ele>
        <time>2021-03-21T00:01:30Z</time>
      </trkpt>
      <trkpt lat="58.22025" lon="-5.32252">
        <ele>51.6</ele>
        <time>2021-03-21T00:01:32Z</time>
      </trkpt>
      <trkpt lat="58.22059" lon="-5.32205">
        <ele>52.68</ele>
        <time>2021-03-21T00:01:35Z</time>
      </trkpt>
      <trkpt lat="58.22114" lon="-5.32101">
        <ele>48.76</ele>
        <time>2021-03-21T00:01:37Z</time>
      </trkpt>
      <trkpt lat="58.22138" lon="-5.32021">
        <ele>46.76</ele>
        <time>2021-03-21T00:01:40Z</time>
      </trkpt>
      <trkpt lat="58.22163" lon="-5.31812">
        <ele>39.17</ele>
        <time>2021-03-21T00:01:43Z</time>
      </trkpt>
      <trkpt lat="58.2217" lon="-5.31775">
        <ele>37.92</ele>
        <time>2021-03-21T00:01:45Z</time>
      </trkpt>
      <trkpt lat="58.22189" lon="-5.31705">
        <ele>36.16</ele>
        <time>2021-03-21T00:01:48Z</time>
      </trkpt>
      <trkpt lat="58.22199" lon="-5.31676">
        <ele>34.81</ele>
        <time>2021-03-21T00:01:50Z</time>
      </trkpt>
      <trkpt lat="58.22232" lon="-5.31608">
        <ele>31.57</ele>
        <time>2021-03-21T00:01:53Z</time>
      </trkpt>
      <trkpt lat="58.22245" lon="-5.31564">
        <ele>29.42</ele>
        <time>2021-03-21T00:01:55Z</time>
      </trkpt>
      <trkpt lat="58.22253" lon="-5.31525">
        <ele>26.97</ele>
        <time>2021-03-21T00:01:58Z</time>
      </trkpt>
      <trkpt lat="58.22261" lon="-5.31463">
        <ele>23.17</ele>
        <time>2021-03-21T00:02:00Z</time>
      </trkpt>
      <trkpt lat="58.22269" lon="-5.31439">
        <ele>21.91</ele>
        <time>2021-03-21T00:02:03Z</time>
      </trkpt>
      <trkpt lat="58.22284" lon="-5.31406">
        <ele>19.04</ele>
        <time>2021-03-21T00:02:05Z</time>
      </trkpt>
      <trkpt lat="58.22291" lon="-5.31384">
        <ele>17.2</ele>
        <time>2021-03-21T00:02:08Z</time>
      </trkpt>
      <trkpt lat="58.22299" lon="-5.31342">
        <ele>14.15</ele>
        <time>2021-03-21T00:02:11Z</time>
      </trkpt>
      <trkpt lat="58.22296" lon="-5.31279">
        <ele>12.67</ele>
        <time>2021-03-21T00:02:13Z</time>
      </trkpt>
      <trkpt lat="58.22296" lon="-5.31279">
        <ele>12.67</ele>
        <time>2021-03-21T00:02:13Z</time>
      </trkpt>
      <trkpt lat="58.22294" lon="-5.31245">
        <ele>12.24</ele>
        <time>2021-03-21T00:02:16Z</time>
      </trkpt>
      <trkpt lat="58.22301" lon="-5.31163">
        <ele>11.18</ele>
        <time>2021-03-21T00:02:19Z</time>
      </trkpt>
      <trkpt lat="58.22308" lon="-5.31119">
        <ele>11.37</ele>
        <time>2021-03-21T00:02:22Z</time>
      </trkpt>
      <trkpt lat="58.22316" lon="-5.31079">
        <ele>10.53</ele>
        <time>2021-03-21T00:02:24Z</time>
      </trkpt>
      <trkpt lat="58.22338" lon="-5.31013">
        <ele>10.48</ele>
        <time>2021-03-21T00:02:27Z</time>
      </trkpt>
      <trkpt lat="58.22374" lon="-5.30928">
        <ele>13.56</ele>
        <time>2021-03-21T00:02:30Z</time>
      </trkpt>
      <trkpt lat="58.22402" lon="-5.30897">
        <ele>13.05</ele>
        <time>2021-03-21T00:02:33Z</time>
      </trkpt>
      <trkpt lat="58.2242" lon="-5.30869">
        <ele>13.33</ele>
        <time>2021-03-21T00:02:36Z</time>
      </trkpt>
      <trkpt lat="58.22488" lon="-5.30635">
        <ele>16.46</ele>
        <time>2021-03-21T00:02:39Z</time>
      </trkpt>
      <trkpt lat="58.225" lon="-5.30557">
        <ele>19.79</ele>
        <time>2021-03-21T00:02:41Z</time>
      </trkpt>
      <trkpt lat="58.22524" lon="-5.30499">
        <ele>14.39</ele>
        <time>2021-03-21T00:02:44Z</time>
      </trkpt>
      <trkpt lat="58.22527" lon="-5.30466">
        <ele>15.5</ele>
        <time>2021-03-21T00:02:47Z</time>
      </trkpt>
      <trkpt lat="58.22537" lon="-5.30439">
        <ele>15.19</ele>
        <time>2021-03-21T00:02:50Z</time>
      </trkpt>
      <trkpt lat="58.22574" lon="-5.30417">
        <ele>10.04</ele>
        <time>2021-03-21T00:02:53Z</time>
      </trkpt>
      <trkpt lat="58.22603" lon="-5.30373">
        <ele>10.12</ele>
        <time>2021-03-21T00:02:56Z</time>
      </trkpt>
      <trkpt lat="58.22622" lon="-5.30321">
        <ele>10.76</ele>
        <time>2021-03-21T00:02:58Z</time>
      </trkpt>
      <trkpt lat="58.22627" lon="-5.3026">
        <ele>14.43</ele>
        <time>2021-03-21T00:03:01Z</time>
      </trkpt>
      <trkpt lat="58.22634" lon="-5.30209">
        <ele>17.44</ele>
        <time>2021-03-21T00:03:04Z</time>
      </trkpt>
      <trkpt lat="58.22649" lon="-5.30161">
        <ele>20.03</ele>
        <time>2021-03-21T00:03:07Z</time>
      </trkpt>
      <trkpt lat="58.2269" lon="-5.30092">
        <ele>20.78</ele>
        <time>2021-03-21T00:03:10Z</time>
      </trkpt>
      <trkpt lat="58.22748" lon="-5.30041">
        <ele>16.55</ele>
        <time>2021-03-21T00:03:13Z</time>
      </trkpt>
      <trkpt lat="58.22823" lon="-5.29958">
        <ele>14.43</ele>
        <time>2021-03-21T00:03:15Z</time>
      </trkpt>
      <trkpt lat="58.22853" lon="-5.29908">
        <ele>13.7</ele>
        <time>2021-03-21T00:03:18Z</time>
      </trkpt>
      <trkpt lat="58.22871" lon="-5.29863">
        <ele>11.28</ele>
        <time>2021-03-21T00:03:21Z</time>
      </trkpt>
      <trkpt lat="58.22881" lon="-5.29782">
        <ele>12.46</ele>
        <time>2021-03-21T00:03:24Z</time>
      </trkpt>
      <trkpt lat="58.22886" lon="-5.29758">
        <ele>12.41</ele>
        <time>2021-03-21T00:03:27Z</time>
      </trkpt>
      <trkpt lat="58.22904" lon="-5.29718">
        <ele>11.69</ele>
        <time>2021-03-21T00:03:30Z</time>
      </trkpt>
      <trkpt lat="58.23005" lon="-5.29607">
        <ele>13.75</ele>
        <time>2021-03-21T00:03:32Z</time>
      </trkpt>
      <trkpt lat="58.23087" lon="-5.29499">
        <ele>10.14</ele>
        <time>2021-03-21T00:03:35Z</time>
      </trkpt>
      <trkpt lat="58.2309" lon="-5.2948">
        <ele>11.2</ele>
        <time>2021-03-21T00:03:38Z</time>
      </trkpt>
      <trkpt lat="58.23086" lon="-5.29444">
        <ele>17.02</ele>
        <time>2021-03-21T00:03:41Z</time>
      </trkpt>
      <trkpt lat="58.23088" lon="-5.29418">
        <ele>17.98</ele>
        <time>2021-03-21T00:03:44Z</time>
      </trkpt>
      <trkpt lat="58.23099" lon="-5.29381">
        <ele>16.68</ele>
        <time>2021-03-21T00:03:46Z</time>
      </trkpt>
      <trkpt lat="58.23103" lon="-5.29327">
        <ele>16.85</ele>
        <time>2021-03-21T00:03:49Z</time>
      </trkpt>
      <trkpt lat="58.23109" lon="-5.29294">
        <ele>15.24</ele>
        <time>2021-03-21T00:03:52Z</time>
      </trkpt>
      <trkpt lat="58.23129" lon="-5.29141">
        <ele>18.26</ele>
        <time>2021-03-21T00:03:55Z</time>
      </trkpt>
      <trkpt lat="58.23139" lon="-5.29025">
        <ele>22.15</ele>
        <time>2021-03-21T00:03:58Z</time>
      </trkpt>
      <trkpt lat="58.23119" lon="-5.28776">
        <ele>24.71</ele>
        <time>2021-03-21T00:04:01Z</time>
      </trkpt>
      <trkpt lat="58.23089" lon="-5.28543">
        <ele>26.66</ele>
        <time>2021-03-21T00:04:03Z</time>
      </trkpt>
      <trkpt lat="58.23057" lon="-5.28453">
        <ele>23.99</ele>
        <time>2021-03-21T00:04:06Z</time>
      </trkpt>
      <trkpt lat="58.23037" lon="-5.28371">
        <ele>24.07</ele>
        <time>2021-03-21T00:04:09Z</time>
      </trkpt>
      <trkpt lat="58.23002" lon="-5.2821">
        <ele>20.88</ele>
        <time>2021-03-21T00:04:12Z</time>
      </trkpt>
      <trkpt lat="58.22963" lon="-5.28004">
        <ele>24.42</ele>
        <time>2021-03-21T00:04:15Z</time>
      </trkpt>
      <trkpt lat="58.22941" lon="-5.27905">
        <ele>24.29</ele>
        <time>2021-03-21T00:04:18Z</time>
      </trkpt>
      <trkpt lat="58.22917" lon="-5.27822">
        <ele>25.43</ele>
        <time>2021-03-21T00:04:20Z</time>
      </trkpt>
      <trkpt lat="58.22834" lon="-5.27507">
        <ele>41.57</ele>
        <time>2021-03-21T00:04:23Z</time>
      </trkpt>
      <trkpt lat="58.22773" lon="-5.27174">
        <ele>51.41</ele>
        <time>2021-03-21T00:04:26Z</time>
      </trkpt>
      <trkpt lat="58.22725" lon="-5.26876">
        <ele>56.58</ele>
        <time>2021-03-21T00:04:29Z</time>
      </trkpt>
      <trkpt lat="58.22712" lon="-5.26765">
        <ele>60.42</ele>
        <time>2021-03-21T00:04:32Z</time>
      </trkpt>
      <trkpt lat="58.22707" lon="-5.26697">
        <ele>61.1</ele>
        <time>2021-03-21T00:04:35Z</time>
      </trkpt>
      <trkpt lat="58.22716" lon="-5.26581">
        <ele>60.86</ele>
        <time>2021-03-21T00:04:37Z</time>
      </trkpt>
      <trkpt lat="58.22724" lon="-5.26544">
        <ele>62.15</ele>
        <time>2021-03-21T00:04:40Z</time>
      </trkpt>
      <trkpt lat="58.2273" lon="-5.26535">
        <ele>62.56</ele>
        <time>2021-03-21T00:04:43Z</time>
      </trkpt>
      <trkpt lat="58.2283" lon="-5.26421">
        <ele>66.88</ele>
        <time>2021-03-21T00:04:46Z</time>
      </trkpt>
      <trkpt lat="58.22849" lon="-5.26391">
        <ele>66.07</ele>
        <time>2021-03-21T00:04:49Z</time>
      </trkpt>
      <trkpt lat="58.22852" lon="-5.26368">
        <ele>66</ele>
        <time>2021-03-21T00:04:52Z</time>
      </trkpt>
      <trkpt lat="58.22851" lon="-5.26292">
        <ele>65.96</ele>
        <time>2021-03-21T00:04:54Z</time>
      </trkpt>
      <trkpt lat="58.22841" lon="-5.26047">
        <ele>69.85</ele>
        <time>2021-03-21T00:04:57Z</time>
      </trkpt>
      <trkpt lat="58.22845" lon="-5.26003">
        <ele>71.19</ele>
        <time>2021-03-21T00:05:00Z</time>
      </trkpt>
      <trkpt lat="58.22912" lon="-5.25859">
        <ele>78.77</ele>
        <time>2021-03-21T00:05:03Z</time>
      </trkpt>
      <trkpt lat="58.22976" lon="-5.25755">
        <ele>77.18</ele>
        <time>2021-03-21T00:05:06Z</time>
      </trkpt>
      <trkpt lat="58.23011" lon="-5.25728">
        <ele>76.6</ele>
        <time>2021-03-21T00:05:08Z</time>
      </trkpt>
      <trkpt lat="58.23045" lon="-5.25708">
        <ele>76.69</ele>
        <time>2021-03-21T00:05:11Z</time>
      </trkpt>
      <trkpt lat="58.23112" lon="-5.25723">
        <ele>76.05</ele>
        <time>2021-03-21T00:05:14Z</time>
      </trkpt>
      <trkpt lat="58.23126" lon="-5.25707">
        <ele>77.07</ele>
        <time>2021-03-21T00:05:17Z</time>
      </trkpt>
      <trkpt lat="58.23131" lon="-5.25673">
        <ele>76.67</ele>
        <time>2021-03-21T00:05:20Z</time>
      </trkpt>
      <trkpt lat="58.23129" lon="-5.25599">
        <ele>75.29</ele>
        <time>2021-03-21T00:05:23Z</time>
      </trkpt>
      <trkpt lat="58.23138" lon="-5.25529">
        <ele>75</ele>
        <time>2021-03-21T00:05:25Z</time>
      </trkpt>
      <trkpt lat="58.23148" lon="-5.25477">
        <ele>75.65</ele>
        <time>2021-03-21T00:05:28Z</time>
      </trkpt>
      <trkpt lat="58.23148" lon="-5.25437">
        <ele>74.68</ele>
        <time>2021-03-21T00:05:31Z</time>
      </trkpt>
      <trkpt lat="58.2313" lon="-5.25342">
        <ele>76.36</ele>
        <time>2021-03-21T00:05:34Z</time>
      </trkpt>
      <trkpt lat="58.23115" lon="-5.25278">
        <ele>77.26</ele>
        <time>2021-03-21T00:05:37Z</time>
      </trkpt>
      <trkpt lat="58.2311" lon="-5.2524">
        <ele>76.57</ele>
        <time>2021-03-21T00:05:40Z</time>
      </trkpt>
      <trkpt lat="58.23118" lon="-5.2516">
        <ele>74.93</ele>
        <time>2021-03-21T00:05:42Z</time>
      </trkpt>
      <trkpt lat="58.23142" lon="-5.25038">
        <ele>77.48</ele>
        <time>2021-03-21T00:05:45Z</time>
      </trkpt>
      <trkpt lat="58.23154" lon="-5.25005">
        <ele>79.34</ele>
        <time>2021-03-21T00:05:48Z</time>
      </trkpt>
      <trkpt lat="58.2323" lon="-5.24878">
        <ele>85.07</ele>
        <time>2021-03-21T00:05:51Z</time>
      </trkpt>
      <trkpt lat="58.23305" lon="-5.24761">
        <ele>82.97</ele>
        <time>2021-03-21T00:05:54Z</time>
      </trkpt>
      <trkpt lat="58.23366" lon="-5.24675">
        <ele>78.58</ele>
        <time>2021-03-21T00:05:57Z</time>
      </trkpt>
      <trkpt lat="58.23466" lon="-5.24528">
        <ele>77</ele>
        <time>2021-03-21T00:05:59Z</time>
      </trkpt>
      <trkpt lat="58.23486" lon="-5.24467">
        <ele>75.81</ele>
        <time>2021-03-21T00:06:02Z</time>
      </trkpt>
      <trkpt lat="58.23556" lon="-5.24344">
        <ele>63.71</ele>
        <time>2021-03-21T00:06:05Z</time>
      </trkpt>
      <trkpt lat="58.23639" lon="-5.24217">
        <ele>55.41</ele>
        <time>2021-03-21T00:06:08Z</time>
      </trkpt>
      <trkpt lat="58.23672" lon="-5.24173">
        <ele>50</ele>
        <time>2021-03-21T00:06:11Z</time>
      </trkpt>
      <trkpt lat="58.23709" lon="-5.24138">
        <ele>44.34</ele>
        <time>2021-03-21T00:06:14Z</time>
      </trkpt>
      <trkpt lat="58.23739" lon="-5.24122">
        <ele>40.43</ele>
        <time>2021-03-21T00:06:16Z</time>
      </trkpt>
      <trkpt lat="58.23826" lon="-5.24145">
        <ele>37.46</ele>
        <time>2021-03-21T00:06:19Z</time>
      </trkpt>
      <trkpt lat="58.23864" lon="-5.24135">
        <ele>27.88</ele>
        <time>2021-03-21T00:06:22Z</time>
      </trkpt>
      <trkpt lat="58.2389" lon="-5.24109">
        <ele>19.73</ele>
        <time>2021-03-21T00:06:25Z</time>
      </trkpt>
      <trkpt lat="58.23953" lon="-5.24009">
        <ele>12</ele>
        <time>2021-03-21T00:06:28Z</time>
      </trkpt>
      <trkpt lat="58.23976" lon="-5.23981">
        <ele>11.96</ele>
        <time>2021-03-21T00:06:31Z</time>
      </trkpt>
      <trkpt lat="58.23988" lon="-5.23977">
        <ele>11.9</ele>
        <time>2021-03-21T00:06:33Z</time>
      </trkpt>
      <trkpt lat="58.2404" lon="-5.23986">
        <ele>12.95</ele>
        <time>2021-03-21T00:06:36Z</time>
      </trkpt>
      <trkpt lat="58.24087" lon="-5.23999">
        <ele>12.91</ele>
        <time>2021-03-21T00:06:39Z</time>
      </trkpt>
      <trkpt lat="58.24101" lon="-5.24">
        <ele>12.37</ele>
        <time>2021-03-21T00:06:42Z</time>
      </trkpt>
      <trkpt lat="58.24119" lon="-5.23994">
        <ele>11.94</ele>
        <time>2021-03-21T00:06:45Z</time>
      </trkpt>
      <trkpt lat="58.24137" lon="-5.23981">
        <ele>11.75</ele>
        <time>2021-03-21T00:06:47Z</time>
      </trkpt>
      <trkpt lat="58.24152" lon="-5.23962">
        <ele>11.88</ele>
        <time>2021-03-21T00:06:50Z</time>
      </trkpt>
      <trkpt lat="58.24181" lon="-5.23914">
        <ele>12.6</ele>
        <time>2021-03-21T00:06:53Z</time>
      </trkpt>
      <trkpt lat="58.2419" lon="-5.23889">
        <ele>13.15</ele>
        <time>2021-03-21T00:06:56Z</time>
      </trkpt>
      <trkpt lat="58.24223" lon="-5.23769">
        <ele>12</ele>
        <time>2021-03-21T00:06:59Z</time>
      </trkpt>
      <trkpt lat="58.24228" lon="-5.2376">
        <ele>12</ele>
        <time>2021-03-21T00:07:02Z</time>
      </trkpt>
      <trkpt lat="58.24398" lon="-5.2357">
        <ele>11.22</ele>
        <time>2021-03-21T00:07:04Z</time>
      </trkpt>
      <trkpt lat="58.24405" lon="-5.23559">
        <ele>10.82</ele>
        <time>2021-03-21T00:07:07Z</time>
      </trkpt>
      <trkpt lat="58.24424" lon="-5.23518">
        <ele>9.55</ele>
        <time>2021-03-21T00:07:10Z</time>
      </trkpt>
      <trkpt lat="58.24439" lon="-5.23497">
        <ele>8.36</ele>
        <time>2021-03-21T00:07:13Z</time>
      </trkpt>
      <trkpt lat="58.24495" lon="-5.23384">
        <ele>6.11</ele>
        <time>2021-03-21T00:07:16Z</time>
      </trkpt>
      <trkpt lat="58.24514" lon="-5.23341">
        <ele>6.59</ele>
        <time>2021-03-21T00:07:19Z</time>
      </trkpt>
      <trkpt lat="58.24518" lon="-5.23321">
        <ele>6.85</ele>
        <time>2021-03-21T00:07:21Z</time>
      </trkpt>
      <trkpt lat="58.24519" lon="-5.23312">
        <ele>7.08</ele>
        <time>2021-03-21T00:07:24Z</time>
      </trkpt>
      <trkpt lat="58.24518" lon="-5.23302">
        <ele>7.57</ele>
        <time>2021-03-21T00:07:27Z</time>
      </trkpt>
      <trkpt lat="58.2451" lon="-5.23278">
        <ele>9.53</ele>
        <time>2021-03-21T00:07:30Z</time>
      </trkpt>
      <trkpt lat="58.24492" lon="-5.23194">
        <ele>12.59</ele>
        <time>2021-03-21T00:07:33Z</time>
      </trkpt>
      <trkpt lat="58.24448" lon="-5.2304">
        <ele>13</ele>
        <time>2021-03-21T00:07:36Z</time>
      </trkpt>
      <trkpt lat="58.24398" lon="-5.22836">
        <ele>13.09</ele>
        <time>2021-03-21T00:07:38Z</time>
      </trkpt>
      <trkpt lat="58.24363" lon="-5.22702">
        <ele>14.64</ele>
        <time>2021-03-21T00:07:41Z</time>
      </trkpt>
      <trkpt lat="58.24339" lon="-5.22623">
        <ele>19.22</ele>
        <time>2021-03-21T00:07:44Z</time>
      </trkpt>
      <trkpt lat="58.24299" lon="-5.22552">
        <ele>25.47</ele>
        <time>2021-03-21T00:07:47Z</time>
      </trkpt>
      <trkpt lat="58.24277" lon="-5.225">
        <ele>29.08</ele>
        <time>2021-03-21T00:07:50Z</time>
      </trkpt>
      <trkpt lat="58.24271" lon="-5.22467">
        <ele>31.81</ele>
        <time>2021-03-21T00:07:53Z</time>
      </trkpt>
      <trkpt lat="58.24272" lon="-5.22437">
        <ele>33.49</ele>
        <time>2021-03-21T00:07:55Z</time>
      </trkpt>
      <trkpt lat="58.24279" lon="-5.22319">
        <ele>36.09</ele>
        <time>2021-03-21T00:07:58Z</time>
      </trkpt>
      <trkpt lat="58.24285" lon="-5.22269">
        <ele>36.24</ele>
        <time>2021-03-21T00:08:01Z</time>
      </trkpt>
      <trkpt lat="58.24295" lon="-5.22234">
        <ele>36.03</ele>
        <time>2021-03-21T00:08:04Z</time>
      </trkpt>
      <trkpt lat="58.2432" lon="-5.22202">
        <ele>36.33</ele>
        <time>2021-03-21T00:08:07Z</time>
      </trkpt>
      <trkpt lat="58.24331" lon="-5.22184">
        <ele>36.42</ele>
        <time>2021-03-21T00:08:09Z</time>
      </trkpt>
      <trkpt lat="58.24337" lon="-5.22163">
        <ele>36.44</ele>
        <time>2021-03-21T00:08:12Z</time>
      </trkpt>
      <trkpt lat="58.24343" lon="-5.22124">
        <ele>36.87</ele>
        <time>2021-03-21T00:08:15Z</time>
      </trkpt>
      <trkpt lat="58.24344" lon="-5.22101">
        <ele>36.79</ele>
        <time>2021-03-21T00:08:18Z</time>
      </trkpt>
      <trkpt lat="58.24343" lon="-5.2207">
        <ele>36.9</ele>
        <time>2021-03-21T00:08:21Z</time>
      </trkpt>
      <trkpt lat="58.2434" lon="-5.22012">
        <ele>36.82</ele>
        <time>2021-03-21T00:08:24Z</time>
      </trkpt>
      <trkpt lat="58.24335" lon="-5.21966">
        <ele>37.49</ele>
        <time>2021-03-21T00:08:26Z</time>
      </trkpt>
      <trkpt lat="58.2433" lon="-5.21937">
        <ele>37.78</ele>
        <time>2021-03-21T00:08:29Z</time>
      </trkpt>
      <trkpt lat="58.24283" lon="-5.21749">
        <ele>39.74</ele>
        <time>2021-03-21T00:08:32Z</time>
      </trkpt>
      <trkpt lat="58.2424" lon="-5.21555">
        <ele>39.5</ele>
        <time>2021-03-21T00:08:35Z</time>
      </trkpt>
      <trkpt lat="58.24234" lon="-5.21514">
        <ele>38.93</ele>
        <time>2021-03-21T00:08:38Z</time>
      </trkpt>
      <trkpt lat="58.24233" lon="-5.21489">
        <ele>38.76</ele>
        <time>2021-03-21T00:08:41Z</time>
      </trkpt>
      <trkpt lat="58.24236" lon="-5.21464">
        <ele>38.08</ele>
        <time>2021-03-21T00:08:43Z</time>
      </trkpt>
      <trkpt lat="58.24247" lon="-5.21438">
        <ele>37.57</ele>
        <time>2021-03-21T00:08:46Z</time>
      </trkpt>
      <trkpt lat="58.2429" lon="-5.21388">
        <ele>37.38</ele>
        <time>2021-03-21T00:08:49Z</time>
      </trkpt>
      <trkpt lat="58.24312" lon="-5.21357">
        <ele>36.61</ele>
        <time>2021-03-21T00:08:52Z</time>
      </trkpt>
      <trkpt lat="58.24321" lon="-5.21353">
        <ele>36.17</ele>
        <time>2021-03-21T00:08:55Z</time>
      </trkpt>
      <trkpt lat="58.24331" lon="-5.21359">
        <ele>36.03</ele>
        <time>2021-03-21T00:08:58Z</time>
      </trkpt>
      <trkpt lat="58.2435" lon="-5.21396">
        <ele>36.29</ele>
        <time>2021-03-21T00:09:00Z</time>
      </trkpt>
      <trkpt lat="58.24373" lon="-5.21426">
        <ele>36.49</ele>
        <time>2021-03-21T00:09:03Z</time>
      </trkpt>
      <trkpt lat="58.24392" lon="-5.21431">
        <ele>35.4</ele>
        <time>2021-03-21T00:09:06Z</time>
      </trkpt>
      <trkpt lat="58.2441" lon="-5.21427">
        <ele>34.64</ele>
        <time>2021-03-21T00:09:09Z</time>
      </trkpt>
      <trkpt lat="58.24424" lon="-5.21415">
        <ele>34.42</ele>
        <time>2021-03-21T00:09:12Z</time>
      </trkpt>
      <trkpt lat="58.24436" lon="-5.21397">
        <ele>34.64</ele>
        <time>2021-03-21T00:09:15Z</time>
      </trkpt>
      <trkpt lat="58.24453" lon="-5.21322">
        <ele>37.28</ele>
        <time>2021-03-21T00:09:17Z</time>
      </trkpt>
      <trkpt lat="58.2447" lon="-5.21205">
        <ele>42.56</ele>
        <time>2021-03-21T00:09:20Z</time>
      </trkpt>
      <trkpt lat="58.24469" lon="-5.21169">
        <ele>43.27</ele>
        <time>2021-03-21T00:09:23Z</time>
      </trkpt>
      <trkpt lat="58.2446" lon="-5.2105">
        <ele>42</ele>
        <time>2021-03-21T00:09:26Z</time>
      </trkpt>
      <trkpt lat="58.24455" lon="-5.2101">
        <ele>41.55</ele>
        <time>2021-03-21T00:09:29Z</time>
      </trkpt>
      <trkpt lat="58.24447" lon="-5.20965">
        <ele>39.94</ele>
        <time>2021-03-21T00:09:31Z</time>
      </trkpt>
      <trkpt lat="58.24444" lon="-5.20935">
        <ele>39.99</ele>
        <time>2021-03-21T00:09:34Z</time>
      </trkpt>
      <trkpt lat="58.24449" lon="-5.20915">
        <ele>41.08</ele>
        <time>2021-03-21T00:09:37Z</time>
      </trkpt>
      <trkpt lat="58.24468" lon="-5.20858">
        <ele>42.88</ele>
        <time>2021-03-21T00:09:40Z</time>
      </trkpt>
      <trkpt lat="58.24473" lon="-5.20832">
        <ele>42.18</ele>
        <time>2021-03-21T00:09:43Z</time>
      </trkpt>
      <trkpt lat="58.24477" lon="-5.20803">
        <ele>42.85</ele>
        <time>2021-03-21T00:09:46Z</time>
      </trkpt>
      <trkpt lat="58.24477" lon="-5.20778">
        <ele>41.86</ele>
        <time>2021-03-21T00:09:48Z</time>
      </trkpt>
      <trkpt lat="58.24472" lon="-5.207">
        <ele>43.79</ele>
        <time>2021-03-21T00:09:51Z</time>
      </trkpt>
      <trkpt lat="58.24468" lon="-5.20675">
        <ele>44.65</ele>
        <time>2021-03-21T00:09:54Z</time>
      </trkpt>
      <trkpt lat="58.24463" lon="-5.2062">
        <ele>45.79</ele>
        <time>2021-03-21T00:09:57Z</time>
      </trkpt>
      <trkpt lat="58.24457" lon="-5.20587">
        <ele>47.17</ele>
        <time>2021-03-21T00:10:00Z</time>
      </trkpt>
      <trkpt lat="58.24446" lon="-5.2055">
        <ele>49.79</ele>
        <time>2021-03-21T00:10:03Z</time>
      </trkpt>
      <trkpt lat="58.24438" lon="-5.20515">
        <ele>50.5</ele>
        <time>2021-03-21T00:10:05Z</time>
      </trkpt>
      <trkpt lat="58.24437" lon="-5.20496">
        <ele>50.36</ele>
        <time>2021-03-21T00:10:08Z</time>
      </trkpt>
      <trkpt lat="58.24423" lon="-5.20451">
        <ele>48.23</ele>
        <time>2021-03-21T00:10:11Z</time>
      </trkpt>
      <trkpt lat="58.24413" lon="-5.20426">
        <ele>47.01</ele>
        <time>2021-03-21T00:10:14Z</time>
      </trkpt>
      <trkpt lat="58.24392" lon="-5.20388">
        <ele>44.24</ele>
        <time>2021-03-21T00:10:17Z</time>
      </trkpt>
      <trkpt lat="58.24382" lon="-5.20362">
        <ele>43.99</ele>
        <time>2021-03-21T00:10:20Z</time>
      </trkpt>
      <trkpt lat="58.24376" lon="-5.20341">
        <ele>43.92</ele>
        <time>2021-03-21T00:10:22Z</time>
      </trkpt>
      <trkpt lat="58.24341" lon="-5.20237">
        <ele>47.64</ele>
        <time>2021-03-21T00:10:25Z</time>
      </trkpt>
      <trkpt lat="58.2431" lon="-5.20163">
        <ele>49.55</ele>
        <time>2021-03-21T00:10:28Z</time>
      </trkpt>
      <trkpt lat="58.24282" lon="-5.20106">
        <ele>49.14</ele>
        <time>2021-03-21T00:10:31Z</time>
      </trkpt>
      <trkpt lat="58.24225" lon="-5.2">
        <ele>46.31</ele>
        <time>2021-03-21T00:10:34Z</time>
      </trkpt>
      <trkpt lat="58.24202" lon="-5.19946">
        <ele>47.91</ele>
        <time>2021-03-21T00:10:37Z</time>
      </trkpt>
      <trkpt lat="58.24128" lon="-5.19814">
        <ele>52.09</ele>
        <time>2021-03-21T00:10:39Z</time>
      </trkpt>
      <trkpt lat="58.2411" lon="-5.19785">
        <ele>52.71</ele>
        <time>2021-03-21T00:10:42Z</time>
      </trkpt>
      <trkpt lat="58.24099" lon="-5.19741">
        <ele>54.6</ele>
        <time>2021-03-21T00:10:45Z</time>
      </trkpt>
      <trkpt lat="58.24091" lon="-5.19658">
        <ele>58.12</ele>
        <time>2021-03-21T00:10:48Z</time>
      </trkpt>
      <trkpt lat="58.24094" lon="-5.19608">
        <ele>62.63</ele>
        <time>2021-03-21T00:10:51Z</time>
      </trkpt>
      <trkpt lat="58.24129" lon="-5.19495">
        <ele>67.5</ele>
        <time>2021-03-21T00:10:54Z</time>
      </trkpt>
      <trkpt lat="58.24185" lon="-5.1936">
        <ele>63.92</ele>
        <time>2021-03-21T00:10:56Z</time>
      </trkpt>
      <trkpt lat="58.24224" lon="-5.19272">
        <ele>55.72</ele>
        <time>2021-03-21T00:10:59Z</time>
      </trkpt>
      <trkpt lat="58.24238" lon="-5.19255">
        <ele>53.51</ele>
        <time>2021-03-21T00:11:02Z</time>
      </trkpt>
      <trkpt lat="58.24246" lon="-5.19233">
        <ele>53.12</ele>
        <time>2021-03-21T00:11:05Z</time>
      </trkpt>
      <trkpt lat="58.24252" lon="-5.19185">
        <ele>55.33</ele>
        <time>2021-03-21T00:11:08Z</time>
      </trkpt>
      <trkpt lat="58.24258" lon="-5.19157">
        <ele>56.13</ele>
        <time>2021-03-21T00:11:10Z</time>
      </trkpt>
      <trkpt lat="58.24282" lon="-5.19103">
        <ele>54.96</ele>
        <time>2021-03-21T00:11:13Z</time>
      </trkpt>
      <trkpt lat="58.24295" lon="-5.19033">
        <ele>54.81</ele>
        <time>2021-03-21T00:11:16Z</time>
      </trkpt>
      <trkpt lat="58.24304" lon="-5.18977">
        <ele>55.12</ele>
        <time>2021-03-21T00:11:19Z</time>
      </trkpt>
      <trkpt lat="58.24305" lon="-5.18929">
        <ele>56.69</ele>
        <time>2021-03-21T00:11:22Z</time>
      </trkpt>
      <trkpt lat="58.24302" lon="-5.18885">
        <ele>59.13</ele>
        <time>2021-03-21T00:11:25Z</time>
      </trkpt>
      <trkpt lat="58.24257" lon="-5.18731">
        <ele>72.75</ele>
        <time>2021-03-21T00:11:27Z</time>
      </trkpt>
      <trkpt lat="58.242" lon="-5.18518">
        <ele>74.21</ele>
        <time>2021-03-21T00:11:30Z</time>
      </trkpt>
      <trkpt lat="58.24189" lon="-5.18443">
        <ele>72.86</ele>
        <time>2021-03-21T00:11:33Z</time>
      </trkpt>
      <trkpt lat="58.24173" lon="-5.18249">
        <ele>68.66</ele>
        <time>2021-03-21T00:11:36Z</time>
      </trkpt>
      <trkpt lat="58.24168" lon="-5.18127">
        <ele>68.75</ele>
        <time>2021-03-21T00:11:39Z</time>
      </trkpt>
      <trkpt lat="58.24153" lon="-5.18087">
        <ele>67.01</ele>
        <time>2021-03-21T00:11:42Z</time>
      </trkpt>
      <trkpt lat="58.24079" lon="-5.18017">
        <ele>61.33</ele>
        <time>2021-03-21T00:11:44Z</time>
      </trkpt>
      <trkpt lat="58.24053" lon="-5.17911">
        <ele>58.96</ele>
        <time>2021-03-21T00:11:47Z</time>
      </trkpt>
      <trkpt lat="58.24051" lon="-5.1783">
        <ele>54.11</ele>
        <time>2021-03-21T00:11:50Z</time>
      </trkpt>
      <trkpt lat="58.24034" lon="-5.17782">
        <ele>50.78</ele>
        <time>2021-03-21T00:11:53Z</time>
      </trkpt>
      <trkpt lat="58.23986" lon="-5.17729">
        <ele>45.08</ele>
        <time>2021-03-21T00:11:56Z</time>
      </trkpt>
      <trkpt lat="58.23967" lon="-5.17716">
        <ele>42.74</ele>
        <time>2021-03-21T00:11:59Z</time>
      </trkpt>
      <trkpt lat="58.23938" lon="-5.17733">
        <ele>48.28</ele>
        <time>2021-03-21T00:12:01Z</time>
      </trkpt>
      <trkpt lat="58.23894" lon="-5.17705">
        <ele>44.39</ele>
        <time>2021-03-21T00:12:04Z</time>
      </trkpt>
      <trkpt lat="58.23827" lon="-5.17645">
        <ele>40.99</ele>
        <time>2021-03-21T00:12:07Z</time>
      </trkpt>
      <trkpt lat="58.23786" lon="-5.17614">
        <ele>42.23</ele>
        <time>2021-03-21T00:12:10Z</time>
      </trkpt>
      <trkpt lat="58.23653" lon="-5.17574">
        <ele>45.7</ele>
        <time>2021-03-21T00:12:13Z</time>
      </trkpt>
      <trkpt lat="58.2362" lon="-5.17486">
        <ele>41.67</ele>
        <time>2021-03-21T00:12:16Z</time>
      </trkpt>
      <trkpt lat="58.23613" lon="-5.17423">
        <ele>43.82</ele>
        <time>2021-03-21T00:12:18Z</time>
      </trkpt>
      <trkpt lat="58.23608" lon="-5.17341">
        <ele>43.97</ele>
        <time>2021-03-21T00:12:21Z</time>
      </trkpt>
      <trkpt lat="58.23567" lon="-5.17217">
        <ele>40.83</ele>
        <time>2021-03-21T00:12:24Z</time>
      </trkpt>
      <trkpt lat="58.23541" lon="-5.17154">
        <ele>39.52</ele>
        <time>2021-03-21T00:12:27Z</time>
      </trkpt>
      <trkpt lat="58.23534" lon="-5.17127">
        <ele>39.55</ele>
        <time>2021-03-21T00:12:30Z</time>
      </trkpt>
      <trkpt lat="58.23539" lon="-5.17084">
        <ele>36.31</ele>
        <time>2021-03-21T00:12:32Z</time>
      </trkpt>
      <trkpt lat="58.23546" lon="-5.17042">
        <ele>31.97</ele>
        <time>2021-03-21T00:12:35Z</time>
      </trkpt>
      <trkpt lat="58.23544" lon="-5.16963">
        <ele>27.74</ele>
        <time>2021-03-21T00:12:38Z</time>
      </trkpt>
      <trkpt lat="58.23549" lon="-5.16912">
        <ele>23.91</ele>
        <time>2021-03-21T00:12:41Z</time>
      </trkpt>
      <trkpt lat="58.23548" lon="-5.16814">
        <ele>18</ele>
        <time>2021-03-21T00:12:44Z</time>
      </trkpt>
      <trkpt lat="58.23527" lon="-5.16624">
        <ele>7.19</ele>
        <time>2021-03-21T00:12:47Z</time>
      </trkpt>
      <trkpt lat="58.23474" lon="-5.16477">
        <ele>10.25</ele>
        <time>2021-03-21T00:12:49Z</time>
      </trkpt>
      <trkpt lat="58.23443" lon="-5.16418">
        <ele>12.96</ele>
        <time>2021-03-21T00:12:52Z</time>
      </trkpt>
      <trkpt lat="58.23433" lon="-5.16366">
        <ele>11.85</ele>
        <time>2021-03-21T00:12:55Z</time>
      </trkpt>
      <trkpt lat="58.23442" lon="-5.16313">
        <ele>7.93</ele>
        <time>2021-03-21T00:12:58Z</time>
      </trkpt>
      <trkpt lat="58.23437" lon="-5.16252">
        <ele>7.5</ele>
        <time>2021-03-21T00:13:01Z</time>
      </trkpt>
      <trkpt lat="58.23395" lon="-5.16132">
        <ele>11.18</ele>
        <time>2021-03-21T00:13:04Z</time>
      </trkpt>
      <trkpt lat="58.23326" lon="-5.15987">
        <ele>9.29</ele>
        <time>2021-03-21T00:13:06Z</time>
      </trkpt>
      <trkpt lat="58.23294" lon="-5.15893">
        <ele>6.94</ele>
        <time>2021-03-21T00:13:09Z</time>
      </trkpt>
      <trkpt lat="58.23284" lon="-5.15843">
        <ele>6.67</ele>
        <time>2021-03-21T00:13:12Z</time>
      </trkpt>
      <trkpt lat="58.23291" lon="-5.15796">
        <ele>5.54</ele>
        <time>2021-03-21T00:13:15Z</time>
      </trkpt>
      <trkpt lat="58.23301" lon="-5.15772">
        <ele>5.18</ele>
        <time>2021-03-21T00:13:18Z</time>
      </trkpt>
      <trkpt lat="58.2336" lon="-5.15712">
        <ele>8.27</ele>
        <time>2021-03-21T00:13:21Z</time>
      </trkpt>
      <trkpt lat="58.23368" lon="-5.15696">
        <ele>9.75</ele>
        <time>2021-03-21T00:13:23Z</time>
      </trkpt>
      <trkpt lat="58.23374" lon="-5.15667">
        <ele>11.35</ele>
        <time>2021-03-21T00:13:26Z</time>
      </trkpt>
      <trkpt lat="58.23376" lon="-5.15627">
        <ele>13.43</ele>
        <time>2021-03-21T00:13:29Z</time>
      </trkpt>
      <trkpt lat="58.23354" lon="-5.15523">
        <ele>24.16</ele>
        <time>2021-03-21T00:13:32Z</time>
      </trkpt>
      <trkpt lat="58.23336" lon="-5.15466">
        <ele>29.75</ele>
        <time>2021-03-21T00:13:35Z</time>
      </trkpt>
      <trkpt lat="58.23309" lon="-5.15394">
        <ele>32.37</ele>
        <time>2021-03-21T00:13:38Z</time>
      </trkpt>
      <trkpt lat="58.23286" lon="-5.1536">
        <ele>30.26</ele>
        <time>2021-03-21T00:13:40Z</time>
      </trkpt>
      <trkpt lat="58.23282" lon="-5.15308">
        <ele>33.89</ele>
        <time>2021-03-21T00:13:43Z</time>
      </trkpt>
      <trkpt lat="58.23286" lon="-5.15246">
        <ele>40.42</ele>
        <time>2021-03-21T00:13:46Z</time>
      </trkpt>
      <trkpt lat="58.23284" lon="-5.15204">
        <ele>42.93</ele>
        <time>2021-03-21T00:13:49Z</time>
      </trkpt>
      <trkpt lat="58.23268" lon="-5.15057">
        <ele>52.33</ele>
        <time>2021-03-21T00:13:52Z</time>
      </trkpt>
      <trkpt lat="58.23243" lon="-5.14967">
        <ele>58.35</ele>
        <time>2021-03-21T00:13:55Z</time>
      </trkpt>
      <trkpt lat="58.23211" lon="-5.1491">
        <ele>60.37</ele>
        <time>2021-03-21T00:13:57Z</time>
      </trkpt>
      <trkpt lat="58.23206" lon="-5.14882">
        <ele>63.69</ele>
        <time>2021-03-21T00:14:00Z</time>
      </trkpt>
      <trkpt lat="58.23214" lon="-5.14853">
        <ele>67.02</ele>
        <time>2021-03-21T00:14:03Z</time>
      </trkpt>
      <trkpt lat="58.23233" lon="-5.148">
        <ele>74.51</ele>
        <time>2021-03-21T00:14:06Z</time>
      </trkpt>
      <trkpt lat="58.23237" lon="-5.1474">
        <ele>80.35</ele>
        <time>2021-03-21T00:14:09Z</time>
      </trkpt>
      <trkpt lat="58.23232" lon="-5.14686">
        <ele>82.15</ele>
        <time>2021-03-21T00:14:11Z</time>
      </trkpt>
      <trkpt lat="58.23224" lon="-5.14563">
        <ele>86.11</ele>
        <time>2021-03-21T00:14:14Z</time>
      </trkpt>
      <trkpt lat="58.23233" lon="-5.14463">
        <ele>90.66</ele>
        <time>2021-03-21T00:14:17Z</time>
      </trkpt>
      <trkpt lat="58.2323" lon="-5.14342">
        <ele>87.83</ele>
        <time>2021-03-21T00:14:20Z</time>
      </trkpt>
      <trkpt lat="58.23237" lon="-5.14173">
        <ele>91.11</ele>
        <time>2021-03-21T00:14:23Z</time>
      </trkpt>
      <trkpt lat="58.23236" lon="-5.14008">
        <ele>94.68</ele>
        <time>2021-03-21T00:14:26Z</time>
      </trkpt>
      <trkpt lat="58.23245" lon="-5.13901">
        <ele>96.57</ele>
        <time>2021-03-21T00:14:28Z</time>
      </trkpt>
      <trkpt lat="58.23291" lon="-5.138">
        <ele>103.51</ele>
        <time>2021-03-21T00:14:31Z</time>
      </trkpt>
      <trkpt lat="58.23297" lon="-5.13743">
        <ele>104.77</ele>
        <time>2021-03-21T00:14:34Z</time>
      </trkpt>
      <trkpt lat="58.23333" lon="-5.13718">
        <ele>108.94</ele>
        <time>2021-03-21T00:14:37Z</time>
      </trkpt>
      <trkpt lat="58.23372" lon="-5.13682">
        <ele>109.74</ele>
        <time>2021-03-21T00:14:40Z</time>
      </trkpt>
      <trkpt lat="58.23417" lon="-5.13708">
        <ele>109.01</ele>
        <time>2021-03-21T00:14:43Z</time>
      </trkpt>
      <trkpt lat="58.23446" lon="-5.13705">
        <ele>110.05</ele>
        <time>2021-03-21T00:14:45Z</time>
      </trkpt>
      <trkpt lat="58.23518" lon="-5.13672">
        <ele>113.48</ele>
        <time>2021-03-21T00:14:48Z</time>
      </trkpt>
      <trkpt lat="58.23546" lon="-5.13673">
        <ele>114.9</ele>
        <time>2021-03-21T00:14:51Z</time>
      </trkpt>
      <trkpt lat="58.23572" lon="-5.13699">
        <ele>114.99</ele>
        <time>2021-03-21T00:14:54Z</time>
      </trkpt>
      <trkpt lat="58.23601" lon="-5.13764">
        <ele>117.1</ele>
        <time>2021-03-21T00:14:57Z</time>
      </trkpt>
      <trkpt lat="58.23618" lon="-5.13771">
        <ele>120.67</ele>
        <time>2021-03-21T00:15:00Z</time>
      </trkpt>
      <trkpt lat="58.23629" lon="-5.13759">
        <ele>123.48</ele>
        <time>2021-03-21T00:15:02Z</time>
      </trkpt>
      <trkpt lat="58.23637" lon="-5.1372">
        <ele>125.66</ele>
        <time>2021-03-21T00:15:05Z</time>
      </trkpt>
      <trkpt lat="58.23646" lon="-5.13632">
        <ele>130.25</ele>
        <time>2021-03-21T00:15:08Z</time>
      </trkpt>
      <trkpt lat="58.23694" lon="-5.13548">
        <ele>133.29</ele>
        <time>2021-03-21T00:15:11Z</time>
      </trkpt>
      <trkpt lat="58.23736" lon="-5.13458">
        <ele>131.73</ele>
        <time>2021-03-21T00:15:14Z</time>
      </trkpt>
      <trkpt lat="58.2374" lon="-5.13423">
        <ele>131.5</ele>
        <time>2021-03-21T00:15:17Z</time>
      </trkpt>
      <trkpt lat="58.23734" lon="-5.13385">
        <ele>131.24</ele>
        <time>2021-03-21T00:15:19Z</time>
      </trkpt>
      <trkpt lat="58.2373" lon="-5.13333">
        <ele>131.11</ele>
        <time>2021-03-21T00:15:22Z</time>
      </trkpt>
      <trkpt lat="58.23733" lon="-5.13269">
        <ele>132.06</ele>
        <time>2021-03-21T00:15:25Z</time>
      </trkpt>
      <trkpt lat="58.23744" lon="-5.13229">
        <ele>131.68</ele>
        <time>2021-03-21T00:15:28Z</time>
      </trkpt>
      <trkpt lat="58.23764" lon="-5.13204">
        <ele>131.14</ele>
        <time>2021-03-21T00:15:31Z</time>
      </trkpt>
      <trkpt lat="58.23789" lon="-5.13213">
        <ele>130.35</ele>
        <time>2021-03-21T00:15:33Z</time>
      </trkpt>
      <trkpt lat="58.23857" lon="-5.13265">
        <ele>130</ele>
        <time>2021-03-21T00:15:36Z</time>
      </trkpt>
      <trkpt lat="58.23875" lon="-5.13257">
        <ele>129.49</ele>
        <time>2021-03-21T00:15:39Z</time>
      </trkpt>
      <trkpt lat="58.23925" lon="-5.13181">
        <ele>129.18</ele>
        <time>2021-03-21T00:15:42Z</time>
      </trkpt>
      <trkpt lat="58.23963" lon="-5.13113">
        <ele>128.63</ele>
        <time>2021-03-21T00:15:45Z</time>
      </trkpt>
      <trkpt lat="58.2399" lon="-5.12992">
        <ele>129.28</ele>
        <time>2021-03-21T00:15:48Z</time>
      </trkpt>
      <trkpt lat="58.23993" lon="-5.12953">
        <ele>130.21</ele>
        <time>2021-03-21T00:15:50Z</time>
      </trkpt>
      <trkpt lat="58.23985" lon="-5.12892">
        <ele>131.1</ele>
        <time>2021-03-21T00:15:53Z</time>
      </trkpt>
      <trkpt lat="58.23988" lon="-5.12847">
        <ele>131.93</ele>
        <time>2021-03-21T00:15:56Z</time>
      </trkpt>
      <trkpt lat="58.24025" lon="-5.12791">
        <ele>133.16</ele>
        <time>2021-03-21T00:15:59Z</time>
      </trkpt>
      <trkpt lat="58.24157" lon="-5.12475">
        <ele>136.36</ele>
        <time>2021-03-21T00:16:02Z</time>
      </trkpt>
      <trkpt lat="58.24196" lon="-5.12397">
        <ele>134.07</ele>
        <time>2021-03-21T00:16:05Z</time>
      </trkpt>
      <trkpt lat="58.24202" lon="-5.12374">
        <ele>132.31</ele>
        <time>2021-03-21T00:16:07Z</time>
      </trkpt>
      <trkpt lat="58.24184" lon="-5.12268">
        <ele>131.89</ele>
        <time>2021-03-21T00:16:10Z</time>
      </trkpt>
      <trkpt lat="58.24192" lon="-5.12215">
        <ele>129.42</ele>
        <time>2021-03-21T00:16:13Z</time>
      </trkpt>
      <trkpt lat="58.24193" lon="-5.12006">
        <ele>120.79</ele>
        <time>2021-03-21T00:16:16Z</time>
      </trkpt>
      <trkpt lat="58.24183" lon="-5.11818">
        <ele>109.79</ele>
        <time>2021-03-21T00:16:19Z</time>
      </trkpt>
      <trkpt lat="58.24186" lon="-5.11753">
        <ele>107.28</ele>
        <time>2021-03-21T00:16:22Z</time>
      </trkpt>
      <trkpt lat="58.242" lon="-5.11694">
        <ele>105.44</ele>
        <time>2021-03-21T00:16:24Z</time>
      </trkpt>
      <trkpt lat="58.24222" lon="-5.11647">
        <ele>102.1</ele>
        <time>2021-03-21T00:16:27Z</time>
      </trkpt>
      <trkpt lat="58.2427" lon="-5.11525">
        <ele>96.56</ele>
        <time>2021-03-21T00:16:30Z</time>
      </trkpt>
      <trkpt lat="58.24306" lon="-5.11493">
        <ele>91.69</ele>
        <time>2021-03-21T00:16:33Z</time>
      </trkpt>
      <trkpt lat="58.24312" lon="-5.11467">
        <ele>89.89</ele>
        <time>2021-03-21T00:16:36Z</time>
      </trkpt>
      <trkpt lat="58.24312" lon="-5.11431">
        <ele>88.39</ele>
        <time>2021-03-21T00:16:39Z</time>
      </trkpt>
      <trkpt lat="58.24318" lon="-5.11406">
        <ele>86.58</ele>
        <time>2021-03-21T00:16:41Z</time>
      </trkpt>
      <trkpt lat="58.24368" lon="-5.11302">
        <ele>83.09</ele>
        <time>2021-03-21T00:16:44Z</time>
      </trkpt>
      <trkpt lat="58.24401" lon="-5.11238">
        <ele>80.66</ele>
        <time>2021-03-21T00:16:47Z</time>
      </trkpt>
      <trkpt lat="58.24423" lon="-5.1124">
        <ele>78.72</ele>
        <time>2021-03-21T00:16:50Z</time>
      </trkpt>
      <trkpt lat="58.24444" lon="-5.11235">
        <ele>75.58</ele>
        <time>2021-03-21T00:16:53Z</time>
      </trkpt>
      <trkpt lat="58.24461" lon="-5.11183">
        <ele>70.65</ele>
        <time>2021-03-21T00:16:55Z</time>
      </trkpt>
      <trkpt lat="58.24462" lon="-5.11132">
        <ele>68.64</ele>
        <time>2021-03-21T00:16:58Z</time>
      </trkpt>
      <trkpt lat="58.24429" lon="-5.11015">
        <ele>70.68</ele>
        <time>2021-03-21T00:17:01Z</time>
      </trkpt>
      <trkpt lat="58.24422" lon="-5.10956">
        <ele>70.83</ele>
        <time>2021-03-21T00:17:04Z</time>
      </trkpt>
      <trkpt lat="58.24444" lon="-5.10874">
        <ele>75.09</ele>
        <time>2021-03-21T00:17:07Z</time>
      </trkpt>
      <trkpt lat="58.24443" lon="-5.10786">
        <ele>81.68</ele>
        <time>2021-03-21T00:17:10Z</time>
      </trkpt>
      <trkpt lat="58.2445" lon="-5.10716">
        <ele>86.01</ele>
        <time>2021-03-21T00:17:12Z</time>
      </trkpt>
      <trkpt lat="58.24467" lon="-5.10634">
        <ele>89.59</ele>
        <time>2021-03-21T00:17:15Z</time>
      </trkpt>
      <trkpt lat="58.24484" lon="-5.10537">
        <ele>94.49</ele>
        <time>2021-03-21T00:17:18Z</time>
      </trkpt>
      <trkpt lat="58.24487" lon="-5.10429">
        <ele>100.54</ele>
        <time>2021-03-21T00:17:21Z</time>
      </trkpt>
      <trkpt lat="58.24488" lon="-5.10346">
        <ele>104.59</ele>
        <time>2021-03-21T00:17:24Z</time>
      </trkpt>
      <trkpt lat="58.245" lon="-5.10299">
        <ele>104.71</ele>
        <time>2021-03-21T00:17:27Z</time>
      </trkpt>
      <trkpt lat="58.2453" lon="-5.10267">
        <ele>105.65</ele>
        <time>2021-03-21T00:17:29Z</time>
      </trkpt>
      <trkpt lat="58.24651" lon="-5.1022">
        <ele>115.51</ele>
        <time>2021-03-21T00:17:32Z</time>
      </trkpt>
      <trkpt lat="58.24679" lon="-5.10145">
        <ele>113.05</ele>
        <time>2021-03-21T00:17:35Z</time>
      </trkpt>
      <trkpt lat="58.24681" lon="-5.1008">
        <ele>109.22</ele>
        <time>2021-03-21T00:17:38Z</time>
      </trkpt>
      <trkpt lat="58.24659" lon="-5.09855">
        <ele>103.44</ele>
        <time>2021-03-21T00:17:41Z</time>
      </trkpt>
      <trkpt lat="58.24665" lon="-5.09812">
        <ele>99.83</ele>
        <time>2021-03-21T00:17:44Z</time>
      </trkpt>
      <trkpt lat="58.2469" lon="-5.09794">
        <ele>95.54</ele>
        <time>2021-03-21T00:17:46Z</time>
      </trkpt>
      <trkpt lat="58.24715" lon="-5.09798">
        <ele>91.82</ele>
        <time>2021-03-21T00:17:49Z</time>
      </trkpt>
      <trkpt lat="58.2475" lon="-5.09821">
        <ele>84.91</ele>
        <time>2021-03-21T00:17:52Z</time>
      </trkpt>
      <trkpt lat="58.24803" lon="-5.09933">
        <ele>73.89</ele>
        <time>2021-03-21T00:17:55Z</time>
      </trkpt>
      <trkpt lat="58.24819" lon="-5.09952">
        <ele>69.94</ele>
        <time>2021-03-21T00:17:58Z</time>
      </trkpt>
      <trkpt lat="58.24836" lon="-5.09942">
        <ele>66.43</ele>
        <time>2021-03-21T00:18:01Z</time>
      </trkpt>
      <trkpt lat="58.24854" lon="-5.09886">
        <ele>62.34</ele>
        <time>2021-03-21T00:18:03Z</time>
      </trkpt>
      <trkpt lat="58.2486" lon="-5.09837">
        <ele>60.32</ele>
        <time>2021-03-21T00:18:06Z</time>
      </trkpt>
      <trkpt lat="58.24858" lon="-5.09783">
        <ele>61.1</ele>
        <time>2021-03-21T00:18:09Z</time>
      </trkpt>
      <trkpt lat="58.24862" lon="-5.09767">
        <ele>59.48</ele>
        <time>2021-03-21T00:18:12Z</time>
      </trkpt>
      <trkpt lat="58.24872" lon="-5.09764">
        <ele>56.12</ele>
        <time>2021-03-21T00:18:15Z</time>
      </trkpt>
      <trkpt lat="58.24895" lon="-5.09799">
        <ele>51.6</ele>
        <time>2021-03-21T00:18:18Z</time>
      </trkpt>
      <trkpt lat="58.24909" lon="-5.09799">
        <ele>49.1</ele>
        <time>2021-03-21T00:18:20Z</time>
      </trkpt>
      <trkpt lat="58.24935" lon="-5.09743">
        <ele>47.74</ele>
        <time>2021-03-21T00:18:23Z</time>
      </trkpt>
      <trkpt lat="58.24947" lon="-5.09695">
        <ele>51.57</ele>
        <time>2021-03-21T00:18:26Z</time>
      </trkpt>
      <trkpt lat="58.24948" lon="-5.09578">
        <ele>58.5</ele>
        <time>2021-03-21T00:18:29Z</time>
      </trkpt>
      <trkpt lat="58.24988" lon="-5.09482">
        <ele>72.8</ele>
        <time>2021-03-21T00:18:32Z</time>
      </trkpt>
      <trkpt lat="58.25018" lon="-5.0942">
        <ele>82.03</ele>
        <time>2021-03-21T00:18:34Z</time>
      </trkpt>
      <trkpt lat="58.2502" lon="-5.09395">
        <ele>82.87</ele>
        <time>2021-03-21T00:18:37Z</time>
      </trkpt>
      <trkpt lat="58.25016" lon="-5.09337">
        <ele>86.17</ele>
        <time>2021-03-21T00:18:40Z</time>
      </trkpt>
      <trkpt lat="58.25114" lon="-5.09087">
        <ele>88.13</ele>
        <time>2021-03-21T00:18:43Z</time>
      </trkpt>
      <trkpt lat="58.251" lon="-5.08963">
        <ele>86.25</ele>
        <time>2021-03-21T00:18:46Z</time>
      </trkpt>
      <trkpt lat="58.25106" lon="-5.08906">
        <ele>83.48</ele>
        <time>2021-03-21T00:18:49Z</time>
      </trkpt>
      <trkpt lat="58.25098" lon="-5.08855">
        <ele>84.36</ele>
        <time>2021-03-21T00:18:51Z</time>
      </trkpt>
      <trkpt lat="58.25092" lon="-5.08651">
        <ele>86.8</ele>
        <time>2021-03-21T00:18:54Z</time>
      </trkpt>
      <trkpt lat="58.25077" lon="-5.08604">
        <ele>86.68</ele>
        <time>2021-03-21T00:18:57Z</time>
      </trkpt>
      <trkpt lat="58.25013" lon="-5.08557">
        <ele>85.18</ele>
        <time>2021-03-21T00:19:00Z</time>
      </trkpt>
      <trkpt lat="58.25" lon="-5.08529">
        <ele>84.07</ele>
        <time>2021-03-21T00:19:03Z</time>
      </trkpt>
      <trkpt lat="58.24987" lon="-5.08436">
        <ele>80.28</ele>
        <time>2021-03-21T00:19:06Z</time>
      </trkpt>
      <trkpt lat="58.24922" lon="-5.0813">
        <ele>82.44</ele>
        <time>2021-03-21T00:19:08Z</time>
      </trkpt>
      <trkpt lat="58.24927" lon="-5.08077">
        <ele>77.27</ele>
        <time>2021-03-21T00:19:11Z</time>
      </trkpt>
      <trkpt lat="58.24943" lon="-5.08027">
        <ele>71.53</ele>
        <time>2021-03-21T00:19:14Z</time>
      </trkpt>
      <trkpt lat="58.24942" lon="-5.07908">
        <ele>69.24</ele>
        <time>2021-03-21T00:19:17Z</time>
      </trkpt>
      <trkpt lat="58.24917" lon="-5.07824">
        <ele>70.68</ele>
        <time>2021-03-21T00:19:20Z</time>
      </trkpt>
      <trkpt lat="58.24917" lon="-5.07686">
        <ele>68.05</ele>
        <time>2021-03-21T00:19:23Z</time>
      </trkpt>
      <trkpt lat="58.2493" lon="-5.07589">
        <ele>66.49</ele>
        <time>2021-03-21T00:19:25Z</time>
      </trkpt>
      <trkpt lat="58.24933" lon="-5.07491">
        <ele>70.26</ele>
        <time>2021-03-21T00:19:28Z</time>
      </trkpt>
      <trkpt lat="58.24922" lon="-5.07433">
        <ele>72.1</ele>
        <time>2021-03-21T00:19:31Z</time>
      </trkpt>
      <trkpt lat="58.24902" lon="-5.07384">
        <ele>72.07</ele>
        <time>2021-03-21T00:19:34Z</time>
      </trkpt>
      <trkpt lat="58.24888" lon="-5.07306">
        <ele>61.31</ele>
        <time>2021-03-21T00:19:37Z</time>
      </trkpt>
      <trkpt lat="58.24885" lon="-5.07194">
        <ele>47.93</ele>
        <time>2021-03-21T00:19:40Z</time>
      </trkpt>
      <trkpt lat="58.24873" lon="-5.07017">
        <ele>40.17</ele>
        <time>2021-03-21T00:19:42Z</time>
      </trkpt>
      <trkpt lat="58.24899" lon="-5.06902">
        <ele>34.42</ele>
        <time>2021-03-21T00:19:45Z</time>
      </trkpt>
      <trkpt lat="58.24921" lon="-5.06818">
        <ele>29.1</ele>
        <time>2021-03-21T00:19:48Z</time>
      </trkpt>
      <trkpt lat="58.2494" lon="-5.0672">
        <ele>22.25</ele>
        <time>2021-03-21T00:19:51Z</time>
      </trkpt>
      <trkpt lat="58.24943" lon="-5.0667">
        <ele>19.52</ele>
        <time>2021-03-21T00:19:54Z</time>
      </trkpt>
      <trkpt lat="58.24917" lon="-5.06564">
        <ele>18.2</ele>
        <time>2021-03-21T00:19:56Z</time>
      </trkpt>
      <trkpt lat="58.24883" lon="-5.06499">
        <ele>21.23</ele>
        <time>2021-03-21T00:19:59Z</time>
      </trkpt>
      <trkpt lat="58.24833" lon="-5.06455">
        <ele>27.43</ele>
        <time>2021-03-21T00:20:02Z</time>
      </trkpt>
      <trkpt lat="58.24792" lon="-5.06411">
        <ele>31.12</ele>
        <time>2021-03-21T00:20:05Z</time>
      </trkpt>
      <trkpt lat="58.24737" lon="-5.06368">
        <ele>40.39</ele>
        <time>2021-03-21T00:20:08Z</time>
      </trkpt>
      <trkpt lat="58.24722" lon="-5.06339">
        <ele>40.01</ele>
        <time>2021-03-21T00:20:11Z</time>
      </trkpt>
      <trkpt lat="58.24706" lon="-5.06278">
        <ele>37.92</ele>
        <time>2021-03-21T00:20:13Z</time>
      </trkpt>
      <trkpt lat="58.24654" lon="-5.06223">
        <ele>47.48</ele>
        <time>2021-03-21T00:20:16Z</time>
      </trkpt>
      <trkpt lat="58.24639" lon="-5.06109">
        <ele>41.79</ele>
        <time>2021-03-21T00:20:19Z</time>
      </trkpt>
      <trkpt lat="58.24615" lon="-5.06001">
        <ele>38.99</ele>
        <time>2021-03-21T00:20:22Z</time>
      </trkpt>
      <trkpt lat="58.24593" lon="-5.05928">
        <ele>40.49</ele>
        <time>2021-03-21T00:20:25Z</time>
      </trkpt>
      <trkpt lat="58.24577" lon="-5.05839">
        <ele>37.96</ele>
        <time>2021-03-21T00:20:28Z</time>
      </trkpt>
      <trkpt lat="58.24548" lon="-5.05766">
        <ele>37.57</ele>
        <time>2021-03-21T00:20:30Z</time>
      </trkpt>
      <trkpt lat="58.24535" lon="-5.05693">
        <ele>38.89</ele>
        <time>2021-03-21T00:20:33Z</time>
      </trkpt>
      <trkpt lat="58.24525" lon="-5.05606">
        <ele>41.97</ele>
        <time>2021-03-21T00:20:36Z</time>
      </trkpt>
      <trkpt lat="58.24529" lon="-5.05512">
        <ele>38.51</ele>
        <time>2021-03-21T00:20:39Z</time>
      </trkpt>
      <trkpt lat="58.24531" lon="-5.05429">
        <ele>36.35</ele>
        <time>2021-03-21T00:20:42Z</time>
      </trkpt>
      <trkpt lat="58.24518" lon="-5.05386">
        <ele>38.73</ele>
        <time>2021-03-21T00:20:45Z</time>
      </trkpt>
      <trkpt lat="58.2449" lon="-5.05318">
        <ele>42.81</ele>
        <time>2021-03-21T00:20:47Z</time>
      </trkpt>
      <trkpt lat="58.24467" lon="-5.05228">
        <ele>44.71</ele>
        <time>2021-03-21T00:20:50Z</time>
      </trkpt>
      <trkpt lat="58.2443" lon="-5.05161">
        <ele>49.21</ele>
        <time>2021-03-21T00:20:53Z</time>
      </trkpt>
      <trkpt lat="58.24373" lon="-5.04967">
        <ele>53.51</ele>
        <time>2021-03-21T00:20:56Z</time>
      </trkpt>
      <trkpt lat="58.24327" lon="-5.04835">
        <ele>60.68</ele>
        <time>2021-03-21T00:20:59Z</time>
      </trkpt>
      <trkpt lat="58.2429" lon="-5.04744">
        <ele>64.21</ele>
        <time>2021-03-21T00:21:02Z</time>
      </trkpt>
      <trkpt lat="58.24279" lon="-5.04678">
        <ele>58.29</ele>
        <time>2021-03-21T00:21:04Z</time>
      </trkpt>
      <trkpt lat="58.24281" lon="-5.04613">
        <ele>61.44</ele>
        <time>2021-03-21T00:21:07Z</time>
      </trkpt>
      <trkpt lat="58.24275" lon="-5.04571">
        <ele>66.55</ele>
        <time>2021-03-21T00:21:10Z</time>
      </trkpt>
      <trkpt lat="58.24255" lon="-5.04495">
        <ele>69.38</ele>
        <time>2021-03-21T00:21:13Z</time>
      </trkpt>
      <trkpt lat="58.24231" lon="-5.04432">
        <ele>66.44</ele>
        <time>2021-03-21T00:21:16Z</time>
      </trkpt>
      <trkpt lat="58.24202" lon="-5.04335">
        <ele>64.41</ele>
        <time>2021-03-21T00:21:18Z</time>
      </trkpt>
      <trkpt lat="58.24193" lon="-5.04255">
        <ele>62.88</ele>
        <time>2021-03-21T00:21:21Z</time>
      </trkpt>
      <trkpt lat="58.24195" lon="-5.04204">
        <ele>63.18</ele>
        <time>2021-03-21T00:21:24Z</time>
      </trkpt>
      <trkpt lat="58.24211" lon="-5.04094">
        <ele>67.57</ele>
        <time>2021-03-21T00:21:27Z</time>
      </trkpt>
      <trkpt lat="58.24206" lon="-5.04034">
        <ele>68.72</ele>
        <time>2021-03-21T00:21:30Z</time>
      </trkpt>
      <trkpt lat="58.24174" lon="-5.03866">
        <ele>77.31</ele>
        <time>2021-03-21T00:21:33Z</time>
      </trkpt>
      <trkpt lat="58.24158" lon="-5.03814">
        <ele>82.16</ele>
        <time>2021-03-21T00:21:35Z</time>
      </trkpt>
      <trkpt lat="58.24112" lon="-5.03726">
        <ele>89.53</ele>
        <time>2021-03-21T00:21:38Z</time>
      </trkpt>
      <trkpt lat="58.24085" lon="-5.03532">
        <ele>98.84</ele>
        <time>2021-03-21T00:21:41Z</time>
      </trkpt>
      <trkpt lat="58.24082" lon="-5.03466">
        <ele>103.77</ele>
        <time>2021-03-21T00:21:44Z</time>
      </trkpt>
      <trkpt lat="58.24074" lon="-5.03413">
        <ele>108.73</ele>
        <time>2021-03-21T00:21:47Z</time>
      </trkpt>
      <trkpt lat="58.24003" lon="-5.03198">
        <ele>116.22</ele>
        <time>2021-03-21T00:21:50Z</time>
      </trkpt>
      <trkpt lat="58.2399" lon="-5.03147">
        <ele>113.54</ele>
        <time>2021-03-21T00:21:52Z</time>
      </trkpt>
      <trkpt lat="58.2399" lon="-5.03102">
        <ele>110.7</ele>
        <time>2021-03-21T00:21:55Z</time>
      </trkpt>
      <trkpt lat="58.24003" lon="-5.02972">
        <ele>105.86</ele>
        <time>2021-03-21T00:21:58Z</time>
      </trkpt>
      <trkpt lat="58.24002" lon="-5.02854">
        <ele>101.66</ele>
        <time>2021-03-21T00:22:01Z</time>
      </trkpt>
      <trkpt lat="58.2399" lon="-5.02751">
        <ele>98.13</ele>
        <time>2021-03-21T00:22:04Z</time>
      </trkpt>
      <trkpt lat="58.23951" lon="-5.02661">
        <ele>97.49</ele>
        <time>2021-03-21T00:22:07Z</time>
      </trkpt>
      <trkpt lat="58.23915" lon="-5.02551">
        <ele>96.14</ele>
        <time>2021-03-21T00:22:09Z</time>
      </trkpt>
      <trkpt lat="58.23883" lon="-5.025">
        <ele>97.85</ele>
        <time>2021-03-21T00:22:12Z</time>
      </trkpt>
      <trkpt lat="58.23842" lon="-5.02403">
        <ele>97.41</ele>
        <time>2021-03-21T00:22:15Z</time>
      </trkpt>
      <trkpt lat="58.23803" lon="-5.02244">
        <ele>98</ele>
        <time>2021-03-21T00:22:18Z</time>
      </trkpt>
      <trkpt lat="58.23777" lon="-5.02186">
        <ele>97.29</ele>
        <time>2021-03-21T00:22:21Z</time>
      </trkpt>
      <trkpt lat="58.23756" lon="-5.02075">
        <ele>94.22</ele>
        <time>2021-03-21T00:22:24Z</time>
      </trkpt>
      <trkpt lat="58.23719" lon="-5.0202">
        <ele>96.11</ele>
        <time>2021-03-21T00:22:26Z</time>
      </trkpt>
      <trkpt lat="58.23701" lon="-5.01941">
        <ele>95.15</ele>
        <time>2021-03-21T00:22:29Z</time>
      </trkpt>
      <trkpt lat="58.23666" lon="-5.01869">
        <ele>94.62</ele>
        <time>2021-03-21T00:22:32Z</time>
      </trkpt>
      <trkpt lat="58.23603" lon="-5.01791">
        <ele>94.07</ele>
        <time>2021-03-21T00:22:35Z</time>
      </trkpt>
      <trkpt lat="58.2357" lon="-5.01739">
        <ele>90.01</ele>
        <time>2021-03-21T00:22:38Z</time>
      </trkpt>
      <trkpt lat="58.23566" lon="-5.01703">
        <ele>87.25</ele>
        <time>2021-03-21T00:22:41Z</time>
      </trkpt>
      <trkpt lat="58.23581" lon="-5.01626">
        <ele>82.83</ele>
        <time>2021-03-21T00:22:43Z</time>
      </trkpt>
      <trkpt lat="58.23588" lon="-5.01528">
        <ele>77.16</ele>
        <time>2021-03-21T00:22:46Z</time>
      </trkpt>
      <trkpt lat="58.23587" lon="-5.01475">
        <ele>76</ele>
        <time>2021-03-21T00:22:49Z</time>
      </trkpt>
      <trkpt lat="58.23584" lon="-5.01434">
        <ele>74.63</ele>
        <time>2021-03-21T00:22:52Z</time>
      </trkpt>
      <trkpt lat="58.23599" lon="-5.01354">
        <ele>72.2</ele>
        <time>2021-03-21T00:22:55Z</time>
      </trkpt>
      <trkpt lat="58.23598" lon="-5.01322">
        <ele>70.61</ele>
        <time>2021-03-21T00:22:58Z</time>
      </trkpt>
      <trkpt lat="58.23483" lon="-5.01469">
        <ele>77.89</ele>
        <time>2021-03-21T00:23:00Z</time>
      </trkpt>
      <trkpt lat="58.23459" lon="-5.01491">
        <ele>80.14</ele>
        <time>2021-03-21T00:23:03Z</time>
      </trkpt>
      <trkpt lat="58.2344" lon="-5.015">
        <ele>82.57</ele>
        <time>2021-03-21T00:23:06Z</time>
      </trkpt>
      <trkpt lat="58.2342" lon="-5.01504">
        <ele>85.08</ele>
        <time>2021-03-21T00:23:09Z</time>
      </trkpt>
      <trkpt lat="58.23398" lon="-5.01498">
        <ele>86.17</ele>
        <time>2021-03-21T00:23:12Z</time>
      </trkpt>
      <trkpt lat="58.23375" lon="-5.01475">
        <ele>88.23</ele>
        <time>2021-03-21T00:23:14Z</time>
      </trkpt>
      <trkpt lat="58.23333" lon="-5.01403">
        <ele>92.15</ele>
        <time>2021-03-21T00:23:17Z</time>
      </trkpt>
      <trkpt lat="58.23303" lon="-5.01345">
        <ele>95.57</ele>
        <time>2021-03-21T00:23:20Z</time>
      </trkpt>
      <trkpt lat="58.23272" lon="-5.01221">
        <ele>99.29</ele>
        <time>2021-03-21T00:23:23Z</time>
      </trkpt>
      <trkpt lat="58.23256" lon="-5.01172">
        <ele>103</ele>
        <time>2021-03-21T00:23:25Z</time>
      </trkpt>
      <trkpt lat="58.23199" lon="-5.01078">
        <ele>108.35</ele>
        <time>2021-03-21T00:23:28Z</time>
      </trkpt>
      <trkpt lat="58.23171" lon="-5.01041">
        <ele>112.4</ele>
        <time>2021-03-21T00:23:31Z</time>
      </trkpt>
      <trkpt lat="58.23083" lon="-5.00993">
        <ele>123.56</ele>
        <time>2021-03-21T00:23:34Z</time>
      </trkpt>
      <trkpt lat="58.23059" lon="-5.00963">
        <ele>126.68</ele>
        <time>2021-03-21T00:23:37Z</time>
      </trkpt>
      <trkpt lat="58.22996" lon="-5.00869">
        <ele>130.49</ele>
        <time>2021-03-21T00:23:39Z</time>
      </trkpt>
      <trkpt lat="58.22976" lon="-5.00851">
        <ele>133.28</ele>
        <time>2021-03-21T00:23:42Z</time>
      </trkpt>
      <trkpt lat="58.22892" lon="-5.00817">
        <ele>138.79</ele>
        <time>2021-03-21T00:23:45Z</time>
      </trkpt>
      <trkpt lat="58.22697" lon="-5.00652">
        <ele>148.77</ele>
        <time>2021-03-21T00:23:48Z</time>
      </trkpt>
      <trkpt lat="58.22675" lon="-5.00631">
        <ele>147.32</ele>
        <time>2021-03-21T00:23:51Z</time>
      </trkpt>
      <trkpt lat="58.22656" lon="-5.00601">
        <ele>146.16</ele>
        <time>2021-03-21T00:23:53Z</time>
      </trkpt>
      <trkpt lat="58.22643" lon="-5.00575">
        <ele>146.33</ele>
        <time>2021-03-21T00:23:56Z</time>
      </trkpt>
      <trkpt lat="58.22623" lon="-5.00526">
        <ele>147.72</ele>
        <time>2021-03-21T00:23:59Z</time>
      </trkpt>
      <trkpt lat="58.22596" lon="-5.00438">
        <ele>150.54</ele>
        <time>2021-03-21T00:24:02Z</time>
      </trkpt>
      <trkpt lat="58.22569" lon="-5.00361">
        <ele>150.48</ele>
        <time>2021-03-21T00:24:05Z</time>
      </trkpt>
      <trkpt lat="58.22528" lon="-5.00281">
        <ele>150.99</ele>
        <time>2021-03-21T00:24:07Z</time>
      </trkpt>
      <trkpt lat="58.22508" lon="-5.00246">
        <ele>152.56</ele>
        <time>2021-03-21T00:24:10Z</time>
      </trkpt>
      <trkpt lat="58.22494" lon="-5.00231">
        <ele>154.07</ele>
        <time>2021-03-21T00:24:13Z</time>
      </trkpt>
      <trkpt lat="58.22482" lon="-5.00225">
        <ele>155.18</ele>
        <time>2021-03-21T00:24:16Z</time>
      </trkpt>
      <trkpt lat="58.22466" lon="-5.00224">
        <ele>156.85</ele>
        <time>2021-03-21T00:24:19Z</time>
      </trkpt>
      <trkpt lat="58.22382" lon="-5.0028">
        <ele>164.34</ele>
        <time>2021-03-21T00:24:21Z</time>
      </trkpt>
      <trkpt lat="58.22368" lon="-5.0028">
        <ele>165.35</ele>
        <time>2021-03-21T00:24:24Z</time>
      </trkpt>
      <trkpt lat="58.22356" lon="-5.00272">
        <ele>166.35</ele>
        <time>2021-03-21T00:24:27Z</time>
      </trkpt>
      <trkpt lat="58.22336" lon="-5.00238">
        <ele>167.42</ele>
        <time>2021-03-21T00:24:30Z</time>
      </trkpt>
      <trkpt lat="58.22275" lon="-5.00027">
        <ele>168.8</ele>
        <time>2021-03-21T00:24:32Z</time>
      </trkpt>
      <trkpt lat="58.22259" lon="-4.99991">
        <ele>169.01</ele>
        <time>2021-03-21T00:24:35Z</time>
      </trkpt>
      <trkpt lat="58.22233" lon="-4.99955">
        <ele>169.66</ele>
        <time>2021-03-21T00:24:38Z</time>
      </trkpt>
      <trkpt lat="58.22188" lon="-4.99924">
        <ele>170.73</ele>
        <time>2021-03-21T00:24:41Z</time>
      </trkpt>
      <trkpt lat="58.22083" lon="-4.99861">
        <ele>172.93</ele>
        <time>2021-03-21T00:24:44Z</time>
      </trkpt>
      <trkpt lat="58.21997" lon="-4.99781">
        <ele>179.21</ele>
        <time>2021-03-21T00:24:46Z</time>
      </trkpt>
      <trkpt lat="58.21958" lon="-4.99756">
        <ele>179.55</ele>
        <time>2021-03-21T00:24:49Z</time>
      </trkpt>
      <trkpt lat="58.21932" lon="-4.99747">
        <ele>179.72</ele>
        <time>2021-03-21T00:24:52Z</time>
      </trkpt>
      <trkpt lat="58.21907" lon="-4.99748">
        <ele>181.83</ele>
        <time>2021-03-21T00:24:55Z</time>
      </trkpt>
      <trkpt lat="58.21864" lon="-4.99791">
        <ele>186.53</ele>
        <time>2021-03-21T00:24:58Z</time>
      </trkpt>
      <trkpt lat="58.21816" lon="-4.99858">
        <ele>186.67</ele>
        <time>2021-03-21T00:25:00Z</time>
      </trkpt>
      <trkpt lat="58.21798" lon="-4.99872">
        <ele>188.25</ele>
        <time>2021-03-21T00:25:03Z</time>
      </trkpt>
      <trkpt lat="58.21776" lon="-4.99883">
        <ele>190.82</ele>
        <time>2021-03-21T00:25:06Z</time>
      </trkpt>
      <trkpt lat="58.21728" lon="-4.99888">
        <ele>196.54</ele>
        <time>2021-03-21T00:25:09Z</time>
      </trkpt>
      <trkpt lat="58.21703" lon="-4.99899">
        <ele>199.59</ele>
        <time>2021-03-21T00:25:12Z</time>
      </trkpt>
      <trkpt lat="58.21684" lon="-4.99932">
        <ele>202.43</ele>
        <time>2021-03-21T00:25:14Z</time>
      </trkpt>
      <trkpt lat="58.21661" lon="-5.00048">
        <ele>202.99</ele>
        <time>2021-03-21T00:25:17Z</time>
      </trkpt>
      <trkpt lat="58.21643" lon="-5.00075">
        <ele>206.03</ele>
        <time>2021-03-21T00:25:20Z</time>
      </trkpt>
      <trkpt lat="58.21625" lon="-5.00076">
        <ele>212.13</ele>
        <time>2021-03-21T00:25:23Z</time>
      </trkpt>
      <trkpt lat="58.21611" lon="-5.00055">
        <ele>217.15</ele>
        <time>2021-03-21T00:25:26Z</time>
      </trkpt>
      <trkpt lat="58.21608" lon="-5.00032">
        <ele>218.59</ele>
        <time>2021-03-21T00:25:28Z</time>
      </trkpt>
      <trkpt lat="58.21609" lon="-5.00001">
        <ele>217.86</ele>
        <time>2021-03-21T00:25:31Z</time>
      </trkpt>
      <trkpt lat="58.21636" lon="-4.99816">
        <ele>222.96</ele>
        <time>2021-03-21T00:25:34Z</time>
      </trkpt>
      <trkpt lat="58.21637" lon="-4.99776">
        <ele>226.35</ele>
        <time>2021-03-21T00:25:37Z</time>
      </trkpt>
      <trkpt lat="58.21635" lon="-4.99753">
        <ele>227.49</ele>
        <time>2021-03-21T00:25:39Z</time>
      </trkpt>
      <trkpt lat="58.2163" lon="-4.99735">
        <ele>229.05</ele>
        <time>2021-03-21T00:25:42Z</time>
      </trkpt>
      <trkpt lat="58.21622" lon="-4.99724">
        <ele>230.14</ele>
        <time>2021-03-21T00:25:45Z</time>
      </trkpt>
      <trkpt lat="58.21611" lon="-4.99715">
        <ele>230.5</ele>
        <time>2021-03-21T00:25:48Z</time>
      </trkpt>
      <trkpt lat="58.21598" lon="-4.99712">
        <ele>230.76</ele>
        <time>2021-03-21T00:25:51Z</time>
      </trkpt>
      <trkpt lat="58.21571" lon="-4.99717">
        <ele>231.6</ele>
        <time>2021-03-21T00:25:53Z</time>
      </trkpt>
      <trkpt lat="58.21418" lon="-4.99765">
        <ele>234.52</ele>
        <time>2021-03-21T00:25:56Z</time>
      </trkpt>
      <trkpt lat="58.21272" lon="-4.99822">
        <ele>240.95</ele>
        <time>2021-03-21T00:25:59Z</time>
      </trkpt>
      <trkpt lat="58.21132" lon="-4.99896">
        <ele>247.43</ele>
        <time>2021-03-21T00:26:02Z</time>
      </trkpt>
      <trkpt lat="58.20971" lon="-4.99999">
        <ele>253.11</ele>
        <time>2021-03-21T00:26:05Z</time>
      </trkpt>
      <trkpt lat="58.20915" lon="-5.00073">
        <ele>255.47</ele>
        <time>2021-03-21T00:26:07Z</time>
      </trkpt>
      <trkpt lat="58.20843" lon="-5.00176">
        <ele>258.29</ele>
        <time>2021-03-21T00:26:10Z</time>
      </trkpt>
      <trkpt lat="58.2082" lon="-5.00198">
        <ele>258.42</ele>
        <time>2021-03-21T00:26:13Z</time>
      </trkpt>
      <trkpt lat="58.20777" lon="-5.00223">
        <ele>257.99</ele>
        <time>2021-03-21T00:26:16Z</time>
      </trkpt>
      <trkpt lat="58.20749" lon="-5.00246">
        <ele>258.19</ele>
        <time>2021-03-21T00:26:19Z</time>
      </trkpt>
      <trkpt lat="58.2073" lon="-5.00274">
        <ele>259.46</ele>
        <time>2021-03-21T00:26:21Z</time>
      </trkpt>
      <trkpt lat="58.20651" lon="-5.00435">
        <ele>262</ele>
        <time>2021-03-21T00:26:24Z</time>
      </trkpt>
      <trkpt lat="58.20633" lon="-5.00456">
        <ele>262.12</ele>
        <time>2021-03-21T00:26:27Z</time>
      </trkpt>
      <trkpt lat="58.20606" lon="-5.00471">
        <ele>261.85</ele>
        <time>2021-03-21T00:26:30Z</time>
      </trkpt>
      <trkpt lat="58.20537" lon="-5.00494">
        <ele>259.56</ele>
        <time>2021-03-21T00:26:33Z</time>
      </trkpt>
      <trkpt lat="58.20467" lon="-5.00533">
        <ele>258.82</ele>
        <time>2021-03-21T00:26:35Z</time>
      </trkpt>
      <trkpt lat="58.20347" lon="-5.00674">
        <ele>256.23</ele>
        <time>2021-03-21T00:26:38Z</time>
      </trkpt>
      <trkpt lat="58.20331" lon="-5.00687">
        <ele>255.26</ele>
        <time>2021-03-21T00:26:41Z</time>
      </trkpt>
      <trkpt lat="58.20309" lon="-5.00695">
        <ele>254.97</ele>
        <time>2021-03-21T00:26:44Z</time>
      </trkpt>
      <trkpt lat="58.20238" lon="-5.00683">
        <ele>252.82</ele>
        <time>2021-03-21T00:26:46Z</time>
      </trkpt>
      <trkpt lat="58.2021" lon="-5.00682">
        <ele>253.35</ele>
        <time>2021-03-21T00:26:49Z</time>
      </trkpt>
      <trkpt lat="58.20145" lon="-5.00717">
        <ele>252.41</ele>
        <time>2021-03-21T00:26:52Z</time>
      </trkpt>
      <trkpt lat="58.20088" lon="-5.00736">
        <ele>251.03</ele>
        <time>2021-03-21T00:26:55Z</time>
      </trkpt>
      <trkpt lat="58.20068" lon="-5.00746">
        <ele>250.29</ele>
        <time>2021-03-21T00:26:58Z</time>
      </trkpt>
      <trkpt lat="58.20054" lon="-5.00758">
        <ele>249.85</ele>
        <time>2021-03-21T00:27:00Z</time>
      </trkpt>
      <trkpt lat="58.20036" lon="-5.00784">
        <ele>250.2</ele>
        <time>2021-03-21T00:27:03Z</time>
      </trkpt>
      <trkpt lat="58.19973" lon="-5.00954">
        <ele>248.64</ele>
        <time>2021-03-21T00:27:06Z</time>
      </trkpt>
      <trkpt lat="58.19957" lon="-5.00984">
        <ele>248.32</ele>
        <time>2021-03-21T00:27:09Z</time>
      </trkpt>
      <trkpt lat="58.19941" lon="-5.00999">
        <ele>248.17</ele>
        <time>2021-03-21T00:27:12Z</time>
      </trkpt>
      <trkpt lat="58.1992" lon="-5.01012">
        <ele>248.49</ele>
        <time>2021-03-21T00:27:14Z</time>
      </trkpt>
      <trkpt lat="58.19894" lon="-5.0102">
        <ele>249.08</ele>
        <time>2021-03-21T00:27:17Z</time>
      </trkpt>
      <trkpt lat="58.1979" lon="-5.0102">
        <ele>248.56</ele>
        <time>2021-03-21T00:27:20Z</time>
      </trkpt>
      <trkpt lat="58.19659" lon="-5.01037">
        <ele>245.62</ele>
        <time>2021-03-21T00:27:23Z</time>
      </trkpt>
      <trkpt lat="58.1959" lon="-5.01061">
        <ele>243.9</ele>
        <time>2021-03-21T00:27:26Z</time>
      </trkpt>
      <trkpt lat="58.19518" lon="-5.01097">
        <ele>241.04</ele>
        <time>2021-03-21T00:27:28Z</time>
      </trkpt>
      <trkpt lat="58.19452" lon="-5.0112">
        <ele>241.12</ele>
        <time>2021-03-21T00:27:31Z</time>
      </trkpt>
      <trkpt lat="58.19425" lon="-5.01138">
        <ele>240.1</ele>
        <time>2021-03-21T00:27:34Z</time>
      </trkpt>
      <trkpt lat="58.19334" lon="-5.01244">
        <ele>239.19</ele>
        <time>2021-03-21T00:27:37Z</time>
      </trkpt>
      <trkpt lat="58.19258" lon="-5.01309">
        <ele>235.91</ele>
        <time>2021-03-21T00:27:40Z</time>
      </trkpt>
      <trkpt lat="58.19112" lon="-5.01365">
        <ele>229.9</ele>
        <time>2021-03-21T00:27:42Z</time>
      </trkpt>
      <trkpt lat="58.18995" lon="-5.01443">
        <ele>222.32</ele>
        <time>2021-03-21T00:27:45Z</time>
      </trkpt>
      <trkpt lat="58.18964" lon="-5.01442">
        <ele>217.54</ele>
        <time>2021-03-21T00:27:48Z</time>
      </trkpt>
      <trkpt lat="58.1894" lon="-5.01425">
        <ele>214.06</ele>
        <time>2021-03-21T00:27:51Z</time>
      </trkpt>
      <trkpt lat="58.18874" lon="-5.01332">
        <ele>208.95</ele>
        <time>2021-03-21T00:27:54Z</time>
      </trkpt>
      <trkpt lat="58.18804" lon="-5.01263">
        <ele>203.27</ele>
        <time>2021-03-21T00:27:56Z</time>
      </trkpt>
      <trkpt lat="58.18735" lon="-5.01171">
        <ele>196.5</ele>
        <time>2021-03-21T00:27:59Z</time>
      </trkpt>
      <trkpt lat="58.18657" lon="-5.01099">
        <ele>189.05</ele>
        <time>2021-03-21T00:28:02Z</time>
      </trkpt>
      <trkpt lat="58.18615" lon="-5.01058">
        <ele>183.71</ele>
        <time>2021-03-21T00:28:05Z</time>
      </trkpt>
      <trkpt lat="58.18578" lon="-5.0101">
        <ele>180.66</ele>
        <time>2021-03-21T00:28:07Z</time>
      </trkpt>
      <trkpt lat="58.18551" lon="-5.00968">
        <ele>177.65</ele>
        <time>2021-03-21T00:28:10Z</time>
      </trkpt>
      <trkpt lat="58.18531" lon="-5.00927">
        <ele>177.07</ele>
        <time>2021-03-21T00:28:13Z</time>
      </trkpt>
      <trkpt lat="58.18482" lon="-5.008">
        <ele>172.37</ele>
        <time>2021-03-21T00:28:16Z</time>
      </trkpt>
      <trkpt lat="58.18472" lon="-5.00757">
        <ele>170.92</ele>
        <time>2021-03-21T00:28:19Z</time>
      </trkpt>
      <trkpt lat="58.18452" lon="-5.00646">
        <ele>166.29</ele>
        <time>2021-03-21T00:28:21Z</time>
      </trkpt>
      <trkpt lat="58.18446" lon="-5.00625">
        <ele>164.32</ele>
        <time>2021-03-21T00:28:24Z</time>
      </trkpt>
      <trkpt lat="58.18437" lon="-5.00599">
        <ele>161.59</ele>
        <time>2021-03-21T00:28:27Z</time>
      </trkpt>
      <trkpt lat="58.18411" lon="-5.00551">
        <ele>156.39</ele>
        <time>2021-03-21T00:28:30Z</time>
      </trkpt>
      <trkpt lat="58.18395" lon="-5.0053">
        <ele>154.79</ele>
        <time>2021-03-21T00:28:33Z</time>
      </trkpt>
      <trkpt lat="58.18379" lon="-5.00522">
        <ele>153.77</ele>
        <time>2021-03-21T00:28:35Z</time>
      </trkpt>
      <trkpt lat="58.18359" lon="-5.0052">
        <ele>152.79</ele>
        <time>2021-03-21T00:28:38Z</time>
      </trkpt>
      <trkpt lat="58.18131" lon="-5.00549">
        <ele>130.81</ele>
        <time>2021-03-21T00:28:41Z</time>
      </trkpt>
      <trkpt lat="58.18103" lon="-5.00548">
        <ele>129.07</ele>
        <time>2021-03-21T00:28:44Z</time>
      </trkpt>
      <trkpt lat="58.18087" lon="-5.00537">
        <ele>129.88</ele>
        <time>2021-03-21T00:28:47Z</time>
      </trkpt>
      <trkpt lat="58.1807" lon="-5.00518">
        <ele>130.48</ele>
        <time>2021-03-21T00:28:49Z</time>
      </trkpt>
      <trkpt lat="58.18054" lon="-5.0049">
        <ele>131.52</ele>
        <time>2021-03-21T00:28:52Z</time>
      </trkpt>
      <trkpt lat="58.18008" lon="-5.00387">
        <ele>129.25</ele>
        <time>2021-03-21T00:28:55Z</time>
      </trkpt>
      <trkpt lat="58.17979" lon="-5.00343">
        <ele>125.22</ele>
        <time>2021-03-21T00:28:58Z</time>
      </trkpt>
      <trkpt lat="58.17957" lon="-5.00325">
        <ele>122.28</ele>
        <time>2021-03-21T00:29:01Z</time>
      </trkpt>
      <trkpt lat="58.17875" lon="-5.00292">
        <ele>113.72</ele>
        <time>2021-03-21T00:29:03Z</time>
      </trkpt>
      <trkpt lat="58.17847" lon="-5.00292">
        <ele>111.98</ele>
        <time>2021-03-21T00:29:06Z</time>
      </trkpt>
      <trkpt lat="58.17827" lon="-5.00299">
        <ele>111.28</ele>
        <time>2021-03-21T00:29:09Z</time>
      </trkpt>
      <trkpt lat="58.1781" lon="-5.0031">
        <ele>110.85</ele>
        <time>2021-03-21T00:29:12Z</time>
      </trkpt>
      <trkpt lat="58.17739" lon="-5.00392">
        <ele>108.19</ele>
        <time>2021-03-21T00:29:14Z</time>
      </trkpt>
      <trkpt lat="58.17712" lon="-5.00408">
        <ele>107.3</ele>
        <time>2021-03-21T00:29:17Z</time>
      </trkpt>
      <trkpt lat="58.17698" lon="-5.00409">
        <ele>106.68</ele>
        <time>2021-03-21T00:29:20Z</time>
      </trkpt>
      <trkpt lat="58.17684" lon="-5.00405">
        <ele>104.9</ele>
        <time>2021-03-21T00:29:23Z</time>
      </trkpt>
      <trkpt lat="58.17665" lon="-5.00395">
        <ele>102.37</ele>
        <time>2021-03-21T00:29:26Z</time>
      </trkpt>
      <trkpt lat="58.17542" lon="-5.00262">
        <ele>91.94</ele>
        <time>2021-03-21T00:29:28Z</time>
      </trkpt>
      <trkpt lat="58.17523" lon="-5.00246">
        <ele>90.78</ele>
        <time>2021-03-21T00:29:31Z</time>
      </trkpt>
      <trkpt lat="58.17503" lon="-5.00235">
        <ele>89.5</ele>
        <time>2021-03-21T00:29:34Z</time>
      </trkpt>
      <trkpt lat="58.1748" lon="-5.00231">
        <ele>86.86</ele>
        <time>2021-03-21T00:29:37Z</time>
      </trkpt>
      <trkpt lat="58.17426" lon="-5.00235">
        <ele>82.27</ele>
        <time>2021-03-21T00:29:40Z</time>
      </trkpt>
      <trkpt lat="58.17388" lon="-5.00243">
        <ele>80.6</ele>
        <time>2021-03-21T00:29:42Z</time>
      </trkpt>
      <trkpt lat="58.17284" lon="-5.00298">
        <ele>71.58</ele>
        <time>2021-03-21T00:29:45Z</time>
      </trkpt>
      <trkpt lat="58.17241" lon="-5.00213">
        <ele>74.67</ele>
        <time>2021-03-21T00:29:49Z</time>
      </trkpt>
      <trkpt lat="58.17186" lon="-5.0015">
        <ele>72.44</ele>
        <time>2021-03-21T00:29:52Z</time>
      </trkpt>
      <trkpt lat="58.17128" lon="-5.00068">
        <ele>71.29</ele>
        <time>2021-03-21T00:29:56Z</time>
      </trkpt>
      <trkpt lat="58.17013" lon="-4.99872">
        <ele>74.26</ele>
        <time>2021-03-21T00:30:00Z</time>
      </trkpt>
      <trkpt lat="58.16997" lon="-4.99839">
        <ele>74.26</ele>
        <time>2021-03-21T00:30:03Z</time>
      </trkpt>
      <trkpt lat="58.16989" lon="-4.99806">
        <ele>74.33</ele>
        <time>2021-03-21T00:30:07Z</time>
      </trkpt>
      <trkpt lat="58.16981" lon="-4.99765">
        <ele>74.06</ele>
        <time>2021-03-21T00:30:10Z</time>
      </trkpt>
      <trkpt lat="58.16954" lon="-4.9952">
        <ele>74.28</ele>
        <time>2021-03-21T00:30:14Z</time>
      </trkpt>
      <trkpt lat="58.16948" lon="-4.9949">
        <ele>74.76</ele>
        <time>2021-03-21T00:30:18Z</time>
      </trkpt>
      <trkpt lat="58.16938" lon="-4.99457">
        <ele>75.25</ele>
        <time>2021-03-21T00:30:21Z</time>
      </trkpt>
      <trkpt lat="58.16927" lon="-4.99432">
        <ele>74.13</ele>
        <time>2021-03-21T00:30:25Z</time>
      </trkpt>
      <trkpt lat="58.16903" lon="-4.9939">
        <ele>73.58</ele>
        <time>2021-03-21T00:30:28Z</time>
      </trkpt>
      <trkpt lat="58.16892" lon="-4.99374">
        <ele>73.42</ele>
        <time>2021-03-21T00:30:32Z</time>
      </trkpt>
      <trkpt lat="58.16854" lon="-4.99301">
        <ele>73.34</ele>
        <time>2021-03-21T00:30:35Z</time>
      </trkpt>
      <trkpt lat="58.16841" lon="-4.99269">
        <ele>72.86</ele>
        <time>2021-03-21T00:30:39Z</time>
      </trkpt>
      <trkpt lat="58.16802" lon="-4.99104">
        <ele>75.38</ele>
        <time>2021-03-21T00:30:43Z</time>
      </trkpt>
      <trkpt lat="58.16791" lon="-4.99072">
        <ele>77.69</ele>
        <time>2021-03-21T00:30:46Z</time>
      </trkpt>
      <trkpt lat="58.16768" lon="-4.99036">
        <ele>79.49</ele>
        <time>2021-03-21T00:30:50Z</time>
      </trkpt>
      <trkpt lat="58.16687" lon="-4.9897">
        <ele>75.79</ele>
        <time>2021-03-21T00:30:53Z</time>
      </trkpt>
      <trkpt lat="58.16657" lon="-4.9894">
        <ele>75.61</ele>
        <time>2021-03-21T00:30:57Z</time>
      </trkpt>
      <trkpt lat="58.16619" lon="-4.98888">
        <ele>75.89</ele>
        <time>2021-03-21T00:31:00Z</time>
      </trkpt>
      <trkpt lat="58.16507" lon="-4.98712">
        <ele>70</ele>
        <time>2021-03-21T00:31:04Z</time>
      </trkpt>
      <trkpt lat="58.16478" lon="-4.9867">
        <ele>70.89</ele>
        <time>2021-03-21T00:31:08Z</time>
      </trkpt>
      <trkpt lat="58.16453" lon="-4.98647">
        <ele>71.7</ele>
        <time>2021-03-21T00:31:11Z</time>
      </trkpt>
      <trkpt lat="58.16425" lon="-4.9864">
        <ele>71.96</ele>
        <time>2021-03-21T00:31:15Z</time>
      </trkpt>
      <trkpt lat="58.16399" lon="-4.98645">
        <ele>72.32</ele>
        <time>2021-03-21T00:31:18Z</time>
      </trkpt>
      <trkpt lat="58.16327" lon="-4.98683">
        <ele>71.37</ele>
        <time>2021-03-21T00:31:22Z</time>
      </trkpt>
      <trkpt lat="58.16299" lon="-4.98689">
        <ele>72.17</ele>
        <time>2021-03-21T00:31:26Z</time>
      </trkpt>
      <trkpt lat="58.16272" lon="-4.98682">
        <ele>71.79</ele>
        <time>2021-03-21T00:31:29Z</time>
      </trkpt>
      <trkpt lat="58.16246" lon="-4.98657">
        <ele>70.6</ele>
        <time>2021-03-21T00:31:33Z</time>
      </trkpt>
      <trkpt lat="58.162" lon="-4.98578">
        <ele>77.16</ele>
        <time>2021-03-21T00:31:36Z</time>
      </trkpt>
      <trkpt lat="58.16133" lon="-4.98447">
        <ele>85.22</ele>
        <time>2021-03-21T00:31:40Z</time>
      </trkpt>
      <trkpt lat="58.16114" lon="-4.98417">
        <ele>88.24</ele>
        <time>2021-03-21T00:31:43Z</time>
      </trkpt>
      <trkpt lat="58.16056" lon="-4.98371">
        <ele>79.28</ele>
        <time>2021-03-21T00:31:47Z</time>
      </trkpt>
      <trkpt lat="58.1603" lon="-4.98346">
        <ele>77.32</ele>
        <time>2021-03-21T00:31:51Z</time>
      </trkpt>
      <trkpt lat="58.16013" lon="-4.98318">
        <ele>77.98</ele>
        <time>2021-03-21T00:31:54Z</time>
      </trkpt>
      <trkpt lat="58.15921" lon="-4.98096">
        <ele>88.96</ele>
        <time>2021-03-21T00:31:58Z</time>
      </trkpt>
      <trkpt lat="58.15826" lon="-4.97888">
        <ele>95.07</ele>
        <time>2021-03-21T00:32:01Z</time>
      </trkpt>
      <trkpt lat="58.15806" lon="-4.97853">
        <ele>96.58</ele>
        <time>2021-03-21T00:32:05Z</time>
      </trkpt>
      <trkpt lat="58.15786" lon="-4.97831">
        <ele>98.25</ele>
        <time>2021-03-21T00:32:09Z</time>
      </trkpt>
      <trkpt lat="58.15761" lon="-4.97814">
        <ele>99.68</ele>
        <time>2021-03-21T00:32:12Z</time>
      </trkpt>
      <trkpt lat="58.15616" lon="-4.97735">
        <ele>92.71</ele>
        <time>2021-03-21T00:32:16Z</time>
      </trkpt>
      <trkpt lat="58.15592" lon="-4.97712">
        <ele>90.67</ele>
        <time>2021-03-21T00:32:19Z</time>
      </trkpt>
      <trkpt lat="58.15532" lon="-4.97634">
        <ele>85.7</ele>
        <time>2021-03-21T00:32:23Z</time>
      </trkpt>
      <trkpt lat="58.15506" lon="-4.97607">
        <ele>84.59</ele>
        <time>2021-03-21T00:32:26Z</time>
      </trkpt>
      <trkpt lat="58.15398" lon="-4.97547">
        <ele>85.33</ele>
        <time>2021-03-21T00:32:30Z</time>
      </trkpt>
      <trkpt lat="58.15293" lon="-4.975">
        <ele>81.06</ele>
        <time>2021-03-21T00:32:34Z</time>
      </trkpt>
      <trkpt lat="58.15142" lon="-4.9746">
        <ele>75.96</ele>
        <time>2021-03-21T00:32:37Z</time>
      </trkpt>
      <trkpt lat="58.15043" lon="-4.9743">
        <ele>73.56</ele>
        <time>2021-03-21T00:32:41Z</time>
      </trkpt>
      <trkpt lat="58.14955" lon="-4.97376">
        <ele>74</ele>
        <time>2021-03-21T00:32:44Z</time>
      </trkpt>
      <trkpt lat="58.1493" lon="-4.97369">
        <ele>74.37</ele>
        <time>2021-03-21T00:32:48Z</time>
      </trkpt>
      <trkpt lat="58.14913" lon="-4.97368">
        <ele>74.8</ele>
        <time>2021-03-21T00:32:52Z</time>
      </trkpt>
      <trkpt lat="58.14876" lon="-4.97379">
        <ele>75</ele>
        <time>2021-03-21T00:32:55Z</time>
      </trkpt>
      <trkpt lat="58.1473" lon="-4.97452">
        <ele>71.8</ele>
        <time>2021-03-21T00:32:59Z</time>
      </trkpt>
      <trkpt lat="58.14589" lon="-4.9758">
        <ele>73.93</ele>
        <time>2021-03-21T00:33:02Z</time>
      </trkpt>
      <trkpt lat="58.14568" lon="-4.97589">
        <ele>75.07</ele>
        <time>2021-03-21T00:33:06Z</time>
      </trkpt>
      <trkpt lat="58.14548" lon="-4.97593">
        <ele>75.91</ele>
        <time>2021-03-21T00:33:09Z</time>
      </trkpt>
      <trkpt lat="58.14485" lon="-4.97589">
        <ele>74.26</ele>
        <time>2021-03-21T00:33:13Z</time>
      </trkpt>
      <trkpt lat="58.14449" lon="-4.97595">
        <ele>74.41</ele>
        <time>2021-03-21T00:33:17Z</time>
      </trkpt>
      <trkpt lat="58.14424" lon="-4.97606">
        <ele>74.94</ele>
        <time>2021-03-21T00:33:20Z</time>
      </trkpt>
      <trkpt lat="58.14354" lon="-4.97645">
        <ele>72.75</ele>
        <time>2021-03-21T00:33:24Z</time>
      </trkpt>
      <trkpt lat="58.14226" lon="-4.97673">
        <ele>71.63</ele>
        <time>2021-03-21T00:33:27Z</time>
      </trkpt>
      <trkpt lat="58.14184" lon="-4.97673">
        <ele>72.76</ele>
        <time>2021-03-21T00:33:31Z</time>
      </trkpt>
      <trkpt lat="58.14123" lon="-4.97643">
        <ele>73.28</ele>
        <time>2021-03-21T00:33:35Z</time>
      </trkpt>
      <trkpt lat="58.141" lon="-4.97626">
        <ele>73.06</ele>
        <time>2021-03-21T00:33:38Z</time>
      </trkpt>
      <trkpt lat="58.14074" lon="-4.97611">
        <ele>72.65</ele>
        <time>2021-03-21T00:33:42Z</time>
      </trkpt>
      <trkpt lat="58.1405" lon="-4.97605">
        <ele>72.24</ele>
        <time>2021-03-21T00:33:45Z</time>
      </trkpt>
      <trkpt lat="58.14021" lon="-4.97606">
        <ele>72.2</ele>
        <time>2021-03-21T00:33:49Z</time>
      </trkpt>
      <trkpt lat="58.13728" lon="-4.97689">
        <ele>74.42</ele>
        <time>2021-03-21T00:33:52Z</time>
      </trkpt>
      <trkpt lat="58.13623" lon="-4.97712">
        <ele>75.75</ele>
        <time>2021-03-21T00:33:56Z</time>
      </trkpt>
      <trkpt lat="58.1349" lon="-4.97697">
        <ele>78.18</ele>
        <time>2021-03-21T00:34:00Z</time>
      </trkpt>
      <trkpt lat="58.13372" lon="-4.97717">
        <ele>77.57</ele>
        <time>2021-03-21T00:34:03Z</time>
      </trkpt>
      <trkpt lat="58.13269" lon="-4.97779">
        <ele>78.98</ele>
        <time>2021-03-21T00:34:07Z</time>
      </trkpt>
      <trkpt lat="58.13255" lon="-4.97779">
        <ele>78.95</ele>
        <time>2021-03-21T00:34:10Z</time>
      </trkpt>
      <trkpt lat="58.13048" lon="-4.97723">
        <ele>85.23</ele>
        <time>2021-03-21T00:34:14Z</time>
      </trkpt>
      <trkpt lat="58.12856" lon="-4.97651">
        <ele>94.28</ele>
        <time>2021-03-21T00:34:18Z</time>
      </trkpt>
      <trkpt lat="58.12835" lon="-4.97648">
        <ele>94.69</ele>
        <time>2021-03-21T00:34:21Z</time>
      </trkpt>
      <trkpt lat="58.12759" lon="-4.97646">
        <ele>95.7</ele>
        <time>2021-03-21T00:34:25Z</time>
      </trkpt>
      <trkpt lat="58.12723" lon="-4.97642">
        <ele>94.82</ele>
        <time>2021-03-21T00:34:28Z</time>
      </trkpt>
      <trkpt lat="58.12651" lon="-4.97601">
        <ele>96.05</ele>
        <time>2021-03-21T00:34:32Z</time>
      </trkpt>
      <trkpt lat="58.12545" lon="-4.97578">
        <ele>102.14</ele>
        <time>2021-03-21T00:34:35Z</time>
      </trkpt>
      <trkpt lat="58.12526" lon="-4.97567">
        <ele>104.2</ele>
        <time>2021-03-21T00:34:39Z</time>
      </trkpt>
      <trkpt lat="58.12504" lon="-4.97545">
        <ele>105.02</ele>
        <time>2021-03-21T00:34:43Z</time>
      </trkpt>
      <trkpt lat="58.12504" lon="-4.97545">
        <ele>105.02</ele>
        <time>2021-03-21T00:34:43Z</time>
      </trkpt>
      <trkpt lat="58.12476" lon="-4.97498">
        <ele>109.07</ele>
        <time>2021-03-21T00:34:47Z</time>
      </trkpt>
      <trkpt lat="58.124" lon="-4.97344">
        <ele>114.32</ele>
        <time>2021-03-21T00:34:52Z</time>
      </trkpt>
      <trkpt lat="58.12366" lon="-4.97295">
        <ele>113.54</ele>
        <time>2021-03-21T00:34:57Z</time>
      </trkpt>
      <trkpt lat="58.12284" lon="-4.97201">
        <ele>115.13</ele>
        <time>2021-03-21T00:35:02Z</time>
      </trkpt>
      <trkpt lat="58.12219" lon="-4.97137">
        <ele>117.13</ele>
        <time>2021-03-21T00:35:07Z</time>
      </trkpt>
      <trkpt lat="58.12118" lon="-4.97063">
        <ele>124.46</ele>
        <time>2021-03-21T00:35:12Z</time>
      </trkpt>
      <trkpt lat="58.12011" lon="-4.96976">
        <ele>130.12</ele>
        <time>2021-03-21T00:35:17Z</time>
      </trkpt>
      <trkpt lat="58.11977" lon="-4.96956">
        <ele>131.15</ele>
        <time>2021-03-21T00:35:21Z</time>
      </trkpt>
      <trkpt lat="58.11826" lon="-4.969">
        <ele>138.87</ele>
        <time>2021-03-21T00:35:26Z</time>
      </trkpt>
      <trkpt lat="58.11781" lon="-4.96878">
        <ele>140.38</ele>
        <time>2021-03-21T00:35:31Z</time>
      </trkpt>
      <trkpt lat="58.11732" lon="-4.96851">
        <ele>139.87</ele>
        <time>2021-03-21T00:35:36Z</time>
      </trkpt>
      <trkpt lat="58.11699" lon="-4.96838">
        <ele>138.85</ele>
        <time>2021-03-21T00:35:41Z</time>
      </trkpt>
      <trkpt lat="58.11596" lon="-4.96814">
        <ele>137.56</ele>
        <time>2021-03-21T00:35:46Z</time>
      </trkpt>
      <trkpt lat="58.11576" lon="-4.96801">
        <ele>137.88</ele>
        <time>2021-03-21T00:35:51Z</time>
      </trkpt>
      <trkpt lat="58.11556" lon="-4.96781">
        <ele>137.91</ele>
        <time>2021-03-21T00:35:55Z</time>
      </trkpt>
      <trkpt lat="58.1154" lon="-4.96758">
        <ele>138.13</ele>
        <time>2021-03-21T00:36:00Z</time>
      </trkpt>
      <trkpt lat="58.11526" lon="-4.96734">
        <ele>138.54</ele>
        <time>2021-03-21T00:36:05Z</time>
      </trkpt>
      <trkpt lat="58.11483" lon="-4.96666">
        <ele>140.64</ele>
        <time>2021-03-21T00:36:10Z</time>
      </trkpt>
      <trkpt lat="58.11459" lon="-4.96631">
        <ele>142.27</ele>
        <time>2021-03-21T00:36:15Z</time>
      </trkpt>
      <trkpt lat="58.11428" lon="-4.96596">
        <ele>142.96</ele>
        <time>2021-03-21T00:36:20Z</time>
      </trkpt>
      <trkpt lat="58.11391" lon="-4.96576">
        <ele>143.5</ele>
        <time>2021-03-21T00:36:25Z</time>
      </trkpt>
      <trkpt lat="58.1129" lon="-4.96559">
        <ele>144.76</ele>
        <time>2021-03-21T00:36:29Z</time>
      </trkpt>
      <trkpt lat="58.11249" lon="-4.96559">
        <ele>146.71</ele>
        <time>2021-03-21T00:36:34Z</time>
      </trkpt>
      <trkpt lat="58.11047" lon="-4.96584">
        <ele>150.59</ele>
        <time>2021-03-21T00:36:39Z</time>
      </trkpt>
      <trkpt lat="58.10803" lon="-4.96687">
        <ele>156.81</ele>
        <time>2021-03-21T00:36:44Z</time>
      </trkpt>
      <trkpt lat="58.10774" lon="-4.96694">
        <ele>156.31</ele>
        <time>2021-03-21T00:36:49Z</time>
      </trkpt>
      <trkpt lat="58.10687" lon="-4.96698">
        <ele>158.16</ele>
        <time>2021-03-21T00:36:54Z</time>
      </trkpt>
      <trkpt lat="58.10658" lon="-4.96709">
        <ele>159.38</ele>
        <time>2021-03-21T00:36:59Z</time>
      </trkpt>
      <trkpt lat="58.10527" lon="-4.96782">
        <ele>161.74</ele>
        <time>2021-03-21T00:37:03Z</time>
      </trkpt>
      <trkpt lat="58.10474" lon="-4.96818">
        <ele>162.63</ele>
        <time>2021-03-21T00:37:08Z</time>
      </trkpt>
      <trkpt lat="58.10407" lon="-4.96843">
        <ele>163.57</ele>
        <time>2021-03-21T00:37:13Z</time>
      </trkpt>
      <trkpt lat="58.10281" lon="-4.96881">
        <ele>163.94</ele>
        <time>2021-03-21T00:37:18Z</time>
      </trkpt>
      <trkpt lat="58.10043" lon="-4.97028">
        <ele>164.4</ele>
        <time>2021-03-21T00:37:23Z</time>
      </trkpt>
      <trkpt lat="58.09993" lon="-4.9705">
        <ele>166.61</ele>
        <time>2021-03-21T00:37:28Z</time>
      </trkpt>
      <trkpt lat="58.09737" lon="-4.97118">
        <ele>164.85</ele>
        <time>2021-03-21T00:37:33Z</time>
      </trkpt>
      <trkpt lat="58.09636" lon="-4.97122">
        <ele>168.1</ele>
        <time>2021-03-21T00:37:37Z</time>
      </trkpt>
      <trkpt lat="58.09593" lon="-4.97133">
        <ele>166.45</ele>
        <time>2021-03-21T00:37:42Z</time>
      </trkpt>
      <trkpt lat="58.09505" lon="-4.97206">
        <ele>164.47</ele>
        <time>2021-03-21T00:37:47Z</time>
      </trkpt>
      <trkpt lat="58.09392" lon="-4.97284">
        <ele>163.57</ele>
        <time>2021-03-21T00:37:52Z</time>
      </trkpt>
      <trkpt lat="58.0937" lon="-4.97288">
        <ele>163.93</ele>
        <time>2021-03-21T00:37:57Z</time>
      </trkpt>
      <trkpt lat="58.09336" lon="-4.97288">
        <ele>164.26</ele>
        <time>2021-03-21T00:38:02Z</time>
      </trkpt>
      <trkpt lat="58.09158" lon="-4.97267">
        <ele>167.68</ele>
        <time>2021-03-21T00:38:07Z</time>
      </trkpt>
      <trkpt lat="58.08963" lon="-4.97307">
        <ele>166.93</ele>
        <time>2021-03-21T00:38:11Z</time>
      </trkpt>
      <trkpt lat="58.08487" lon="-4.97174">
        <ele>157.72</ele>
        <time>2021-03-21T00:38:16Z</time>
      </trkpt>
      <trkpt lat="58.08294" lon="-4.97095">
        <ele>154.25</ele>
        <time>2021-03-21T00:38:21Z</time>
      </trkpt>
      <trkpt lat="58.08271" lon="-4.97094">
        <ele>154</ele>
        <time>2021-03-21T00:38:26Z</time>
      </trkpt>
      <trkpt lat="58.0824" lon="-4.97099">
        <ele>154</ele>
        <time>2021-03-21T00:38:31Z</time>
      </trkpt>
      <trkpt lat="58.08205" lon="-4.9711">
        <ele>153.39</ele>
        <time>2021-03-21T00:38:36Z</time>
      </trkpt>
      <trkpt lat="58.0813" lon="-4.97166">
        <ele>152.33</ele>
        <time>2021-03-21T00:38:41Z</time>
      </trkpt>
      <trkpt lat="58.07989" lon="-4.97312">
        <ele>153</ele>
        <time>2021-03-21T00:38:45Z</time>
      </trkpt>
      <trkpt lat="58.07942" lon="-4.97342">
        <ele>152.3</ele>
        <time>2021-03-21T00:38:50Z</time>
      </trkpt>
      <trkpt lat="58.07893" lon="-4.97365">
        <ele>152.15</ele>
        <time>2021-03-21T00:38:55Z</time>
      </trkpt>
      <trkpt lat="58.07689" lon="-4.97521">
        <ele>148.24</ele>
        <time>2021-03-21T00:39:00Z</time>
      </trkpt>
      <trkpt lat="58.07575" lon="-4.97628">
        <ele>149.41</ele>
        <time>2021-03-21T00:39:05Z</time>
      </trkpt>
      <trkpt lat="58.07546" lon="-4.97659">
        <ele>149.44</ele>
        <time>2021-03-21T00:39:10Z</time>
      </trkpt>
      <trkpt lat="58.07485" lon="-4.97758">
        <ele>148.26</ele>
        <time>2021-03-21T00:39:15Z</time>
      </trkpt>
      <trkpt lat="58.0744" lon="-4.9781">
        <ele>147.88</ele>
        <time>2021-03-21T00:39:19Z</time>
      </trkpt>
      <trkpt lat="58.07388" lon="-4.97861">
        <ele>147</ele>
        <time>2021-03-21T00:39:24Z</time>
      </trkpt>
      <trkpt lat="58.0732" lon="-4.97913">
        <ele>146.75</ele>
        <time>2021-03-21T00:39:29Z</time>
      </trkpt>
      <trkpt lat="58.07275" lon="-4.97936">
        <ele>144.74</ele>
        <time>2021-03-21T00:39:34Z</time>
      </trkpt>
      <trkpt lat="58.0725" lon="-4.97936">
        <ele>145.9</ele>
        <time>2021-03-21T00:39:39Z</time>
      </trkpt>
      <trkpt lat="58.07223" lon="-4.97928">
        <ele>146.23</ele>
        <time>2021-03-21T00:39:44Z</time>
      </trkpt>
      <trkpt lat="58.07192" lon="-4.97904">
        <ele>146.24</ele>
        <time>2021-03-21T00:39:49Z</time>
      </trkpt>
      <trkpt lat="58.0716" lon="-4.97872">
        <ele>146.62</ele>
        <time>2021-03-21T00:39:53Z</time>
      </trkpt>
      <trkpt lat="58.07128" lon="-4.97816">
        <ele>147.64</ele>
        <time>2021-03-21T00:39:58Z</time>
      </trkpt>
      <trkpt lat="58.07032" lon="-4.97627">
        <ele>147.36</ele>
        <time>2021-03-21T00:40:03Z</time>
      </trkpt>
      <trkpt lat="58.06981" lon="-4.97537">
        <ele>147.3</ele>
        <time>2021-03-21T00:40:08Z</time>
      </trkpt>
      <trkpt lat="58.06942" lon="-4.97477">
        <ele>148.44</ele>
        <time>2021-03-21T00:40:13Z</time>
      </trkpt>
      <trkpt lat="58.06896" lon="-4.97425">
        <ele>148.62</ele>
        <time>2021-03-21T00:40:18Z</time>
      </trkpt>
      <trkpt lat="58.06665" lon="-4.97197">
        <ele>146.82</ele>
        <time>2021-03-21T00:40:23Z</time>
      </trkpt>
      <trkpt lat="58.06638" lon="-4.97326">
        <ele>142.24</ele>
        <time>2021-03-21T00:40:27Z</time>
      </trkpt>
      <trkpt lat="58.06632" lon="-4.97368">
        <ele>140.94</ele>
        <time>2021-03-21T00:40:32Z</time>
      </trkpt>
      <trkpt lat="58.06628" lon="-4.97437">
        <ele>139.59</ele>
        <time>2021-03-21T00:40:36Z</time>
      </trkpt>
      <trkpt lat="58.06613" lon="-4.97768">
        <ele>131.41</ele>
        <time>2021-03-21T00:40:41Z</time>
      </trkpt>
      <trkpt lat="58.06618" lon="-4.97941">
        <ele>128</ele>
        <time>2021-03-21T00:40:45Z</time>
      </trkpt>
      <trkpt lat="58.06616" lon="-4.97986">
        <ele>129</ele>
        <time>2021-03-21T00:40:50Z</time>
      </trkpt>
      <trkpt lat="58.06612" lon="-4.98035">
        <ele>130</ele>
        <time>2021-03-21T00:40:54Z</time>
      </trkpt>
      <trkpt lat="58.06601" lon="-4.98084">
        <ele>131</ele>
        <time>2021-03-21T00:40:59Z</time>
      </trkpt>
      <trkpt lat="58.06498" lon="-4.98271">
        <ele>133</ele>
        <time>2021-03-21T00:41:04Z</time>
      </trkpt>
      <trkpt lat="58.06414" lon="-4.98439">
        <ele>135.61</ele>
        <time>2021-03-21T00:41:08Z</time>
      </trkpt>
      <trkpt lat="58.06387" lon="-4.98524">
        <ele>136.68</ele>
        <time>2021-03-21T00:41:13Z</time>
      </trkpt>
      <trkpt lat="58.06375" lon="-4.98608">
        <ele>134.98</ele>
        <time>2021-03-21T00:41:17Z</time>
      </trkpt>
      <trkpt lat="58.06383" lon="-4.99035">
        <ele>131.6</ele>
        <time>2021-03-21T00:41:22Z</time>
      </trkpt>
      <trkpt lat="58.0639" lon="-4.99195">
        <ele>130.1</ele>
        <time>2021-03-21T00:41:26Z</time>
      </trkpt>
      <trkpt lat="58.06376" lon="-4.99324">
        <ele>129.65</ele>
        <time>2021-03-21T00:41:31Z</time>
      </trkpt>
      <trkpt lat="58.06332" lon="-4.99495">
        <ele>131.83</ele>
        <time>2021-03-21T00:41:36Z</time>
      </trkpt>
      <trkpt lat="58.06298" lon="-4.99818">
        <ele>134.16</ele>
        <time>2021-03-21T00:41:40Z</time>
      </trkpt>
      <trkpt lat="58.06267" lon="-5.00131">
        <ele>128.85</ele>
        <time>2021-03-21T00:41:45Z</time>
      </trkpt>
      <trkpt lat="58.06256" lon="-5.002">
        <ele>127.65</ele>
        <time>2021-03-21T00:41:49Z</time>
      </trkpt>
      <trkpt lat="58.06188" lon="-5.00414">
        <ele>126.44</ele>
        <time>2021-03-21T00:41:54Z</time>
      </trkpt>
      <trkpt lat="58.06179" lon="-5.00485">
        <ele>127.14</ele>
        <time>2021-03-21T00:41:58Z</time>
      </trkpt>
      <trkpt lat="58.06176" lon="-5.00546">
        <ele>127.04</ele>
        <time>2021-03-21T00:42:03Z</time>
      </trkpt>
      <trkpt lat="58.0618" lon="-5.00616">
        <ele>127.69</ele>
        <time>2021-03-21T00:42:08Z</time>
      </trkpt>
      <trkpt lat="58.06192" lon="-5.00701">
        <ele>128.33</ele>
        <time>2021-03-21T00:42:12Z</time>
      </trkpt>
      <trkpt lat="58.06219" lon="-5.00811">
        <ele>129.41</ele>
        <time>2021-03-21T00:42:17Z</time>
      </trkpt>
      <trkpt lat="58.06251" lon="-5.01065">
        <ele>129.23</ele>
        <time>2021-03-21T00:42:21Z</time>
      </trkpt>
      <trkpt lat="58.06286" lon="-5.0132">
        <ele>130.75</ele>
        <time>2021-03-21T00:42:26Z</time>
      </trkpt>
      <trkpt lat="58.06289" lon="-5.01361">
        <ele>131.74</ele>
        <time>2021-03-21T00:42:30Z</time>
      </trkpt>
      <trkpt lat="58.06288" lon="-5.01401">
        <ele>133</ele>
        <time>2021-03-21T00:42:35Z</time>
      </trkpt>
      <trkpt lat="58.06276" lon="-5.01543">
        <ele>136.34</ele>
        <time>2021-03-21T00:42:40Z</time>
      </trkpt>
      <trkpt lat="58.06263" lon="-5.01615">
        <ele>136.45</ele>
        <time>2021-03-21T00:42:44Z</time>
      </trkpt>
      <trkpt lat="58.06201" lon="-5.019">
        <ele>138.51</ele>
        <time>2021-03-21T00:42:49Z</time>
      </trkpt>
      <trkpt lat="58.06191" lon="-5.01982">
        <ele>140.14</ele>
        <time>2021-03-21T00:42:53Z</time>
      </trkpt>
      <trkpt lat="58.06172" lon="-5.0224">
        <ele>140.89</ele>
        <time>2021-03-21T00:42:58Z</time>
      </trkpt>
      <trkpt lat="58.06157" lon="-5.02306">
        <ele>142.44</ele>
        <time>2021-03-21T00:43:02Z</time>
      </trkpt>
      <trkpt lat="58.06075" lon="-5.02595">
        <ele>140.11</ele>
        <time>2021-03-21T00:43:07Z</time>
      </trkpt>
      <trkpt lat="58.06016" lon="-5.02778">
        <ele>137.82</ele>
        <time>2021-03-21T00:43:11Z</time>
      </trkpt>
      <trkpt lat="58.06" lon="-5.0281">
        <ele>136.84</ele>
        <time>2021-03-21T00:43:16Z</time>
      </trkpt>
      <trkpt lat="58.05982" lon="-5.02837">
        <ele>137.09</ele>
        <time>2021-03-21T00:43:21Z</time>
      </trkpt>
      <trkpt lat="58.05944" lon="-5.02876">
        <ele>136.48</ele>
        <time>2021-03-21T00:43:25Z</time>
      </trkpt>
      <trkpt lat="58.059" lon="-5.0291">
        <ele>136.07</ele>
        <time>2021-03-21T00:43:30Z</time>
      </trkpt>
      <trkpt lat="58.05851" lon="-5.02921">
        <ele>135.56</ele>
        <time>2021-03-21T00:43:34Z</time>
      </trkpt>
      <trkpt lat="58.05624" lon="-5.02949">
        <ele>137.92</ele>
        <time>2021-03-21T00:43:39Z</time>
      </trkpt>
      <trkpt lat="58.05566" lon="-5.02962">
        <ele>138.24</ele>
        <time>2021-03-21T00:43:43Z</time>
      </trkpt>
      <trkpt lat="58.05376" lon="-5.03049">
        <ele>146.4</ele>
        <time>2021-03-21T00:43:48Z</time>
      </trkpt>
      <trkpt lat="58.05277" lon="-5.03071">
        <ele>145.5</ele>
        <time>2021-03-21T00:43:53Z</time>
      </trkpt>
      <trkpt lat="58.05262" lon="-5.03085">
        <ele>144.89</ele>
        <time>2021-03-21T00:43:57Z</time>
      </trkpt>
      <trkpt lat="58.05248" lon="-5.03103">
        <ele>143.88</ele>
        <time>2021-03-21T00:44:02Z</time>
      </trkpt>
      <trkpt lat="58.0522" lon="-5.03162">
        <ele>141.09</ele>
        <time>2021-03-21T00:44:06Z</time>
      </trkpt>
      <trkpt lat="58.05191" lon="-5.0322">
        <ele>140.88</ele>
        <time>2021-03-21T00:44:11Z</time>
      </trkpt>
      <trkpt lat="58.05179" lon="-5.03239">
        <ele>142.4</ele>
        <time>2021-03-21T00:44:15Z</time>
      </trkpt>
      <trkpt lat="58.05155" lon="-5.03263">
        <ele>144.76</ele>
        <time>2021-03-21T00:44:20Z</time>
      </trkpt>
      <trkpt lat="58.05147" lon="-5.03269">
        <ele>145.17</ele>
        <time>2021-03-21T00:44:25Z</time>
      </trkpt>
      <trkpt lat="58.05129" lon="-5.03276">
        <ele>145.53</ele>
        <time>2021-03-21T00:44:29Z</time>
      </trkpt>
      <trkpt lat="58.05111" lon="-5.03276">
        <ele>146.24</ele>
        <time>2021-03-21T00:44:34Z</time>
      </trkpt>
      <trkpt lat="58.05092" lon="-5.03268">
        <ele>149.18</ele>
        <time>2021-03-21T00:44:38Z</time>
      </trkpt>
      <trkpt lat="58.05066" lon="-5.03252">
        <ele>153.74</ele>
        <time>2021-03-21T00:44:43Z</time>
      </trkpt>
      <trkpt lat="58.05047" lon="-5.03229">
        <ele>159</ele>
        <time>2021-03-21T00:44:47Z</time>
      </trkpt>
      <trkpt lat="58.04978" lon="-5.03057">
        <ele>162.52</ele>
        <time>2021-03-21T00:44:52Z</time>
      </trkpt>
      <trkpt lat="58.04949" lon="-5.03022">
        <ele>161.26</ele>
        <time>2021-03-21T00:44:57Z</time>
      </trkpt>
      <trkpt lat="58.0492" lon="-5.03006">
        <ele>158.87</ele>
        <time>2021-03-21T00:45:01Z</time>
      </trkpt>
      <trkpt lat="58.04887" lon="-5.03009">
        <ele>157.1</ele>
        <time>2021-03-21T00:45:06Z</time>
      </trkpt>
      <trkpt lat="58.04854" lon="-5.03035">
        <ele>157.85</ele>
        <time>2021-03-21T00:45:10Z</time>
      </trkpt>
      <trkpt lat="58.04831" lon="-5.0307">
        <ele>161.09</ele>
        <time>2021-03-21T00:45:15Z</time>
      </trkpt>
      <trkpt lat="58.04822" lon="-5.03092">
        <ele>162.48</ele>
        <time>2021-03-21T00:45:19Z</time>
      </trkpt>
      <trkpt lat="58.04783" lon="-5.03218">
        <ele>159.91</ele>
        <time>2021-03-21T00:45:24Z</time>
      </trkpt>
      <trkpt lat="58.0473" lon="-5.03398">
        <ele>159.57</ele>
        <time>2021-03-21T00:45:29Z</time>
      </trkpt>
      <trkpt lat="58.04714" lon="-5.03438">
        <ele>160.97</ele>
        <time>2021-03-21T00:45:33Z</time>
      </trkpt>
      <trkpt lat="58.04694" lon="-5.03475">
        <ele>160.68</ele>
        <time>2021-03-21T00:45:38Z</time>
      </trkpt>
      <trkpt lat="58.046" lon="-5.03625">
        <ele>163.39</ele>
        <time>2021-03-21T00:45:42Z</time>
      </trkpt>
      <trkpt lat="58.04585" lon="-5.03658">
        <ele>164.25</ele>
        <time>2021-03-21T00:45:47Z</time>
      </trkpt>
      <trkpt lat="58.04584" lon="-5.03664">
        <ele>164.04</ele>
        <time>2021-03-21T00:45:51Z</time>
      </trkpt>
      <trkpt lat="58.04599" lon="-5.03652">
        <ele>161.97</ele>
        <time>2021-03-21T00:45:56Z</time>
      </trkpt>
      <trkpt lat="58.04617" lon="-5.03622">
        <ele>160.71</ele>
        <time>2021-03-21T00:46:01Z</time>
      </trkpt>
      <trkpt lat="58.04617" lon="-5.03622">
        <ele>160.71</ele>
        <time>2021-03-21T00:46:01Z</time>
      </trkpt>
      <trkpt lat="58.04599" lon="-5.03652">
        <ele>161.97</ele>
        <time>2021-03-21T00:46:05Z</time>
      </trkpt>
      <trkpt lat="58.04584" lon="-5.03664">
        <ele>164.04</ele>
        <time>2021-03-21T00:46:10Z</time>
      </trkpt>
      <trkpt lat="58.04578" lon="-5.03695">
        <ele>163.7</ele>
        <time>2021-03-21T00:46:14Z</time>
      </trkpt>
      <trkpt lat="58.04585" lon="-5.03766">
        <ele>164.4</ele>
        <time>2021-03-21T00:46:19Z</time>
      </trkpt>
      <trkpt lat="58.04616" lon="-5.0386">
        <ele>167.24</ele>
        <time>2021-03-21T00:46:24Z</time>
      </trkpt>
      <trkpt lat="58.04639" lon="-5.03938">
        <ele>166.76</ele>
        <time>2021-03-21T00:46:29Z</time>
      </trkpt>
      <trkpt lat="58.04643" lon="-5.03994">
        <ele>165.64</ele>
        <time>2021-03-21T00:46:33Z</time>
      </trkpt>
      <trkpt lat="58.0464" lon="-5.04059">
        <ele>166.6</ele>
        <time>2021-03-21T00:46:38Z</time>
      </trkpt>
      <trkpt lat="58.04617" lon="-5.04238">
        <ele>168.63</ele>
        <time>2021-03-21T00:46:43Z</time>
      </trkpt>
      <trkpt lat="58.04588" lon="-5.04409">
        <ele>175.63</ele>
        <time>2021-03-21T00:46:47Z</time>
      </trkpt>
      <trkpt lat="58.04559" lon="-5.04679">
        <ele>187.4</ele>
        <time>2021-03-21T00:46:52Z</time>
      </trkpt>
      <trkpt lat="58.0454" lon="-5.04801">
        <ele>192.1</ele>
        <time>2021-03-21T00:46:57Z</time>
      </trkpt>
      <trkpt lat="58.04526" lon="-5.04858">
        <ele>195.77</ele>
        <time>2021-03-21T00:47:02Z</time>
      </trkpt>
      <trkpt lat="58.04509" lon="-5.04919">
        <ele>200.56</ele>
        <time>2021-03-21T00:47:06Z</time>
      </trkpt>
      <trkpt lat="58.04394" lon="-5.05255">
        <ele>216.43</ele>
        <time>2021-03-21T00:47:11Z</time>
      </trkpt>
      <trkpt lat="58.04244" lon="-5.05651">
        <ele>226.49</ele>
        <time>2021-03-21T00:47:16Z</time>
      </trkpt>
      <trkpt lat="58.04217" lon="-5.05715">
        <ele>228.44</ele>
        <time>2021-03-21T00:47:20Z</time>
      </trkpt>
      <trkpt lat="58.0401" lon="-5.06114">
        <ele>244.1</ele>
        <time>2021-03-21T00:47:25Z</time>
      </trkpt>
      <trkpt lat="58.03991" lon="-5.06162">
        <ele>246.77</ele>
        <time>2021-03-21T00:47:30Z</time>
      </trkpt>
      <trkpt lat="58.03925" lon="-5.0635">
        <ele>246.8</ele>
        <time>2021-03-21T00:47:35Z</time>
      </trkpt>
      <trkpt lat="58.03909" lon="-5.06384">
        <ele>246.28</ele>
        <time>2021-03-21T00:47:39Z</time>
      </trkpt>
      <trkpt lat="58.03839" lon="-5.06507">
        <ele>244.87</ele>
        <time>2021-03-21T00:47:44Z</time>
      </trkpt>
      <trkpt lat="58.03817" lon="-5.06554">
        <ele>243.32</ele>
        <time>2021-03-21T00:47:49Z</time>
      </trkpt>
      <trkpt lat="58.03681" lon="-5.06882">
        <ele>234.37</ele>
        <time>2021-03-21T00:47:53Z</time>
      </trkpt>
      <trkpt lat="58.03654" lon="-5.0694">
        <ele>233.29</ele>
        <time>2021-03-21T00:47:58Z</time>
      </trkpt>
      <trkpt lat="58.0363" lon="-5.06983">
        <ele>232.2</ele>
        <time>2021-03-21T00:48:03Z</time>
      </trkpt>
      <trkpt lat="58.03606" lon="-5.07018">
        <ele>230.21</ele>
        <time>2021-03-21T00:48:08Z</time>
      </trkpt>
      <trkpt lat="58.03567" lon="-5.07065">
        <ele>229.56</ele>
        <time>2021-03-21T00:48:12Z</time>
      </trkpt>
      <trkpt lat="58.0347" lon="-5.07136">
        <ele>228.25</ele>
        <time>2021-03-21T00:48:17Z</time>
      </trkpt>
      <trkpt lat="58.03187" lon="-5.07337">
        <ele>228.19</ele>
        <time>2021-03-21T00:48:22Z</time>
      </trkpt>
      <trkpt lat="58.03157" lon="-5.07353">
        <ele>229.28</ele>
        <time>2021-03-21T00:48:26Z</time>
      </trkpt>
      <trkpt lat="58.03128" lon="-5.07364">
        <ele>231.56</ele>
        <time>2021-03-21T00:48:31Z</time>
      </trkpt>
      <trkpt lat="58.03101" lon="-5.07368">
        <ele>232.27</ele>
        <time>2021-03-21T00:48:36Z</time>
      </trkpt>
      <trkpt lat="58.03058" lon="-5.07362">
        <ele>232</ele>
        <time>2021-03-21T00:48:41Z</time>
      </trkpt>
      <trkpt lat="58.02884" lon="-5.07314">
        <ele>234.66</ele>
        <time>2021-03-21T00:48:45Z</time>
      </trkpt>
      <trkpt lat="58.02852" lon="-5.07309">
        <ele>234.89</ele>
        <time>2021-03-21T00:48:50Z</time>
      </trkpt>
      <trkpt lat="58.0282" lon="-5.07312">
        <ele>236.87</ele>
        <time>2021-03-21T00:48:55Z</time>
      </trkpt>
      <trkpt lat="58.02775" lon="-5.07329">
        <ele>240.18</ele>
        <time>2021-03-21T00:48:59Z</time>
      </trkpt>
      <trkpt lat="58.02696" lon="-5.07367">
        <ele>241.73</ele>
        <time>2021-03-21T00:49:04Z</time>
      </trkpt>
      <trkpt lat="58.02296" lon="-5.07581">
        <ele>246.63</ele>
        <time>2021-03-21T00:49:09Z</time>
      </trkpt>
      <trkpt lat="58.02052" lon="-5.07704">
        <ele>237.25</ele>
        <time>2021-03-21T00:49:14Z</time>
      </trkpt>
      <trkpt lat="58.01845" lon="-5.07815">
        <ele>233.28</ele>
        <time>2021-03-21T00:49:18Z</time>
      </trkpt>
      <trkpt lat="58.01755" lon="-5.07859">
        <ele>235.95</ele>
        <time>2021-03-21T00:49:23Z</time>
      </trkpt>
      <trkpt lat="58.01644" lon="-5.07893">
        <ele>233.45</ele>
        <time>2021-03-21T00:49:28Z</time>
      </trkpt>
      <trkpt lat="58.01604" lon="-5.07909">
        <ele>232.26</ele>
        <time>2021-03-21T00:49:32Z</time>
      </trkpt>
      <trkpt lat="58.01557" lon="-5.07948">
        <ele>231.37</ele>
        <time>2021-03-21T00:49:37Z</time>
      </trkpt>
      <trkpt lat="58.01397" lon="-5.08182">
        <ele>226.24</ele>
        <time>2021-03-21T00:49:42Z</time>
      </trkpt>
      <trkpt lat="58.013" lon="-5.08296">
        <ele>219.47</ele>
        <time>2021-03-21T00:49:47Z</time>
      </trkpt>
      <trkpt lat="58.01223" lon="-5.08379">
        <ele>212.08</ele>
        <time>2021-03-21T00:49:51Z</time>
      </trkpt>
      <trkpt lat="58.01202" lon="-5.08406">
        <ele>211.14</ele>
        <time>2021-03-21T00:49:56Z</time>
      </trkpt>
      <trkpt lat="58.0115" lon="-5.0846">
        <ele>208.93</ele>
        <time>2021-03-21T00:50:01Z</time>
      </trkpt>
      <trkpt lat="58.00982" lon="-5.08604">
        <ele>198.88</ele>
        <time>2021-03-21T00:50:05Z</time>
      </trkpt>
      <trkpt lat="58.00945" lon="-5.08638">
        <ele>195.08</ele>
        <time>2021-03-21T00:50:10Z</time>
      </trkpt>
      <trkpt lat="58.00913" lon="-5.08676">
        <ele>191.82</ele>
        <time>2021-03-21T00:50:15Z</time>
      </trkpt>
      <trkpt lat="58.00768" lon="-5.08872">
        <ele>185.76</ele>
        <time>2021-03-21T00:50:20Z</time>
      </trkpt>
      <trkpt lat="58.00722" lon="-5.08925">
        <ele>179.4</ele>
        <time>2021-03-21T00:50:24Z</time>
      </trkpt>
      <trkpt lat="58.00593" lon="-5.09041">
        <ele>169.87</ele>
        <time>2021-03-21T00:50:29Z</time>
      </trkpt>
      <trkpt lat="58.00563" lon="-5.09076">
        <ele>167.92</ele>
        <time>2021-03-21T00:50:34Z</time>
      </trkpt>
      <trkpt lat="58.00538" lon="-5.09126">
        <ele>166.03</ele>
        <time>2021-03-21T00:50:38Z</time>
      </trkpt>
      <trkpt lat="58.00498" lon="-5.09242">
        <ele>159.34</ele>
        <time>2021-03-21T00:50:43Z</time>
      </trkpt>
      <trkpt lat="58.00334" lon="-5.09555">
        <ele>146.23</ele>
        <time>2021-03-21T00:50:48Z</time>
      </trkpt>
      <trkpt lat="58.00284" lon="-5.09666">
        <ele>142.62</ele>
        <time>2021-03-21T00:50:53Z</time>
      </trkpt>
      <trkpt lat="58.00241" lon="-5.09784">
        <ele>139.42</ele>
        <time>2021-03-21T00:50:57Z</time>
      </trkpt>
      <trkpt lat="58.00227" lon="-5.09841">
        <ele>138.59</ele>
        <time>2021-03-21T00:51:02Z</time>
      </trkpt>
      <trkpt lat="58.00205" lon="-5.10012">
        <ele>138.36</ele>
        <time>2021-03-21T00:51:07Z</time>
      </trkpt>
      <trkpt lat="58.00195" lon="-5.10054">
        <ele>136</ele>
        <time>2021-03-21T00:51:11Z</time>
      </trkpt>
      <trkpt lat="58.0018" lon="-5.10089">
        <ele>134.79</ele>
        <time>2021-03-21T00:51:16Z</time>
      </trkpt>
      <trkpt lat="58.00156" lon="-5.10126">
        <ele>132.84</ele>
        <time>2021-03-21T00:51:21Z</time>
      </trkpt>
      <trkpt lat="57.9995" lon="-5.10359">
        <ele>121.94</ele>
        <time>2021-03-21T00:51:26Z</time>
      </trkpt>
      <trkpt lat="57.99934" lon="-5.10387">
        <ele>122</ele>
        <time>2021-03-21T00:51:30Z</time>
      </trkpt>
      <trkpt lat="57.9983" lon="-5.10547">
        <ele>121.13</ele>
        <time>2021-03-21T00:51:35Z</time>
      </trkpt>
      <trkpt lat="57.99744" lon="-5.1066">
        <ele>120.21</ele>
        <time>2021-03-21T00:51:40Z</time>
      </trkpt>
      <trkpt lat="57.99654" lon="-5.10767">
        <ele>120.7</ele>
        <time>2021-03-21T00:51:44Z</time>
      </trkpt>
      <trkpt lat="57.99555" lon="-5.10859">
        <ele>117.28</ele>
        <time>2021-03-21T00:51:49Z</time>
      </trkpt>
      <trkpt lat="57.99454" lon="-5.10941">
        <ele>120.84</ele>
        <time>2021-03-21T00:51:54Z</time>
      </trkpt>
      <trkpt lat="57.99262" lon="-5.11061">
        <ele>122.82</ele>
        <time>2021-03-21T00:51:59Z</time>
      </trkpt>
      <trkpt lat="57.99174" lon="-5.11127">
        <ele>121.96</ele>
        <time>2021-03-21T00:52:03Z</time>
      </trkpt>
      <trkpt lat="57.99085" lon="-5.11205">
        <ele>124.65</ele>
        <time>2021-03-21T00:52:08Z</time>
      </trkpt>
      <trkpt lat="57.9903" lon="-5.11268">
        <ele>126.07</ele>
        <time>2021-03-21T00:52:13Z</time>
      </trkpt>
      <trkpt lat="57.98969" lon="-5.11321">
        <ele>125.01</ele>
        <time>2021-03-21T00:52:17Z</time>
      </trkpt>
      <trkpt lat="57.98817" lon="-5.1141">
        <ele>124.89</ele>
        <time>2021-03-21T00:52:22Z</time>
      </trkpt>
      <trkpt lat="57.98701" lon="-5.11501">
        <ele>129.18</ele>
        <time>2021-03-21T00:52:27Z</time>
      </trkpt>
      <trkpt lat="57.98225" lon="-5.11889">
        <ele>119</ele>
        <time>2021-03-21T00:52:32Z</time>
      </trkpt>
      <trkpt lat="57.98195" lon="-5.11905">
        <ele>118.25</ele>
        <time>2021-03-21T00:52:36Z</time>
      </trkpt>
      <trkpt lat="57.98163" lon="-5.11916">
        <ele>117.89</ele>
        <time>2021-03-21T00:52:41Z</time>
      </trkpt>
      <trkpt lat="57.98121" lon="-5.11914">
        <ele>115.66</ele>
        <time>2021-03-21T00:52:46Z</time>
      </trkpt>
      <trkpt lat="57.98021" lon="-5.11894">
        <ele>109.15</ele>
        <time>2021-03-21T00:52:50Z</time>
      </trkpt>
      <trkpt lat="57.97956" lon="-5.11895">
        <ele>105.38</ele>
        <time>2021-03-21T00:52:55Z</time>
      </trkpt>
      <trkpt lat="57.97911" lon="-5.11908">
        <ele>101.69</ele>
        <time>2021-03-21T00:53:00Z</time>
      </trkpt>
      <trkpt lat="57.97845" lon="-5.11943">
        <ele>99.61</ele>
        <time>2021-03-21T00:53:05Z</time>
      </trkpt>
      <trkpt lat="57.97782" lon="-5.11989">
        <ele>98.17</ele>
        <time>2021-03-21T00:53:09Z</time>
      </trkpt>
      <trkpt lat="57.9766" lon="-5.12097">
        <ele>104.86</ele>
        <time>2021-03-21T00:53:14Z</time>
      </trkpt>
      <trkpt lat="57.9752" lon="-5.12229">
        <ele>103.72</ele>
        <time>2021-03-21T00:53:19Z</time>
      </trkpt>
      <trkpt lat="57.97459" lon="-5.1228">
        <ele>101.48</ele>
        <time>2021-03-21T00:53:23Z</time>
      </trkpt>
      <trkpt lat="57.97253" lon="-5.12419">
        <ele>95.17</ele>
        <time>2021-03-21T00:53:28Z</time>
      </trkpt>
      <trkpt lat="57.97157" lon="-5.12495">
        <ele>89.3</ele>
        <time>2021-03-21T00:53:33Z</time>
      </trkpt>
      <trkpt lat="57.97077" lon="-5.12584">
        <ele>85.6</ele>
        <time>2021-03-21T00:53:38Z</time>
      </trkpt>
      <trkpt lat="57.96808" lon="-5.12915">
        <ele>68.44</ele>
        <time>2021-03-21T00:53:42Z</time>
      </trkpt>
      <trkpt lat="57.96701" lon="-5.13079">
        <ele>56.17</ele>
        <time>2021-03-21T00:53:47Z</time>
      </trkpt>
      <trkpt lat="57.96565" lon="-5.13254">
        <ele>38.5</ele>
        <time>2021-03-21T00:53:52Z</time>
      </trkpt>
      <trkpt lat="57.96465" lon="-5.13376">
        <ele>26.69</ele>
        <time>2021-03-21T00:53:56Z</time>
      </trkpt>
      <trkpt lat="57.96392" lon="-5.13468">
        <ele>26.01</ele>
        <time>2021-03-21T00:54:01Z</time>
      </trkpt>
      <trkpt lat="57.96333" lon="-5.13537">
        <ele>21.33</ele>
        <time>2021-03-21T00:54:06Z</time>
      </trkpt>
      <trkpt lat="57.96298" lon="-5.13569">
        <ele>17.69</ele>
        <time>2021-03-21T00:54:11Z</time>
      </trkpt>
      <trkpt lat="57.96277" lon="-5.13584">
        <ele>15.89</ele>
        <time>2021-03-21T00:54:15Z</time>
      </trkpt>
      <trkpt lat="57.96242" lon="-5.13597">
        <ele>12.72</ele>
        <time>2021-03-21T00:54:20Z</time>
      </trkpt>
      <trkpt lat="57.96208" lon="-5.13595">
        <ele>12</ele>
        <time>2021-03-21T00:54:25Z</time>
      </trkpt>
      <trkpt lat="57.96164" lon="-5.13583">
        <ele>13.01</ele>
        <time>2021-03-21T00:54:29Z</time>
      </trkpt>
      <trkpt lat="57.95956" lon="-5.1346">
        <ele>23.95</ele>
        <time>2021-03-21T00:54:34Z</time>
      </trkpt>
      <trkpt lat="57.95915" lon="-5.13439">
        <ele>28.76</ele>
        <time>2021-03-21T00:54:39Z</time>
      </trkpt>
      <trkpt lat="57.95868" lon="-5.13424">
        <ele>32.76</ele>
        <time>2021-03-21T00:54:44Z</time>
      </trkpt>
      <trkpt lat="57.95812" lon="-5.13424">
        <ele>40.23</ele>
        <time>2021-03-21T00:54:48Z</time>
      </trkpt>
      <trkpt lat="57.9576" lon="-5.13436">
        <ele>49.24</ele>
        <time>2021-03-21T00:54:53Z</time>
      </trkpt>
      <trkpt lat="57.9573" lon="-5.13456">
        <ele>52.14</ele>
        <time>2021-03-21T00:54:58Z</time>
      </trkpt>
      <trkpt lat="57.95695" lon="-5.13498">
        <ele>53</ele>
        <time>2021-03-21T00:55:02Z</time>
      </trkpt>
      <trkpt lat="57.95454" lon="-5.13948">
        <ele>52.44</ele>
        <time>2021-03-21T00:55:07Z</time>
      </trkpt>
      <trkpt lat="57.95191" lon="-5.14391">
        <ele>62.85</ele>
        <time>2021-03-21T00:55:12Z</time>
      </trkpt>
      <trkpt lat="57.95065" lon="-5.1473">
        <ele>45.58</ele>
        <time>2021-03-21T00:55:17Z</time>
      </trkpt>
      <trkpt lat="57.94968" lon="-5.14977">
        <ele>49.58</ele>
        <time>2021-03-21T00:55:21Z</time>
      </trkpt>
      <trkpt lat="57.94942" lon="-5.15055">
        <ele>50.28</ele>
        <time>2021-03-21T00:55:26Z</time>
      </trkpt>
      <trkpt lat="57.94867" lon="-5.15348">
        <ele>37.76</ele>
        <time>2021-03-21T00:55:31Z</time>
      </trkpt>
      <trkpt lat="57.94745" lon="-5.15782">
        <ele>26.9</ele>
        <time>2021-03-21T00:55:35Z</time>
      </trkpt>
      <trkpt lat="57.94567" lon="-5.16316">
        <ele>24.23</ele>
        <time>2021-03-21T00:55:40Z</time>
      </trkpt>
      <trkpt lat="57.94485" lon="-5.16557">
        <ele>21.44</ele>
        <time>2021-03-21T00:55:45Z</time>
      </trkpt>
      <trkpt lat="57.94453" lon="-5.16627">
        <ele>19.48</ele>
        <time>2021-03-21T00:55:50Z</time>
      </trkpt>
      <trkpt lat="57.9442" lon="-5.16678">
        <ele>18.08</ele>
        <time>2021-03-21T00:55:54Z</time>
      </trkpt>
      <trkpt lat="57.94373" lon="-5.16742">
        <ele>16.87</ele>
        <time>2021-03-21T00:55:59Z</time>
      </trkpt>
      <trkpt lat="57.94269" lon="-5.16873">
        <ele>15.69</ele>
        <time>2021-03-21T00:56:04Z</time>
      </trkpt>
      <trkpt lat="57.94194" lon="-5.17018">
        <ele>15.45</ele>
        <time>2021-03-21T00:56:08Z</time>
      </trkpt>
      <trkpt lat="57.94171" lon="-5.17072">
        <ele>16.67</ele>
        <time>2021-03-21T00:56:13Z</time>
      </trkpt>
      <trkpt lat="57.94159" lon="-5.17122">
        <ele>17.91</ele>
        <time>2021-03-21T00:56:18Z</time>
      </trkpt>
      <trkpt lat="57.94134" lon="-5.17209">
        <ele>23.18</ele>
        <time>2021-03-21T00:56:23Z</time>
      </trkpt>
      <trkpt lat="57.94114" lon="-5.17291">
        <ele>26.24</ele>
        <time>2021-03-21T00:56:27Z</time>
      </trkpt>
      <trkpt lat="57.94098" lon="-5.17377">
        <ele>27.78</ele>
        <time>2021-03-21T00:56:32Z</time>
      </trkpt>
      <trkpt lat="57.94075" lon="-5.17537">
        <ele>32.79</ele>
        <time>2021-03-21T00:56:37Z</time>
      </trkpt>
      <trkpt lat="57.9404" lon="-5.17716">
        <ele>38.47</ele>
        <time>2021-03-21T00:56:41Z</time>
      </trkpt>
      <trkpt lat="57.94023" lon="-5.17774">
        <ele>39.88</ele>
        <time>2021-03-21T00:56:46Z</time>
      </trkpt>
      <trkpt lat="57.9401" lon="-5.17838">
        <ele>41.62</ele>
        <time>2021-03-21T00:56:51Z</time>
      </trkpt>
      <trkpt lat="57.93994" lon="-5.17947">
        <ele>45.01</ele>
        <time>2021-03-21T00:56:56Z</time>
      </trkpt>
      <trkpt lat="57.93981" lon="-5.18008">
        <ele>46.35</ele>
        <time>2021-03-21T00:57:00Z</time>
      </trkpt>
      <trkpt lat="57.93945" lon="-5.18116">
        <ele>46.79</ele>
        <time>2021-03-21T00:57:05Z</time>
      </trkpt>
      <trkpt lat="57.93855" lon="-5.18365">
        <ele>31.16</ele>
        <time>2021-03-21T00:57:10Z</time>
      </trkpt>
      <trkpt lat="57.93819" lon="-5.18408">
        <ele>22.05</ele>
        <time>2021-03-21T00:57:14Z</time>
      </trkpt>
      <trkpt lat="57.93784" lon="-5.18422">
        <ele>18.66</ele>
        <time>2021-03-21T00:57:19Z</time>
      </trkpt>
      <trkpt lat="57.93746" lon="-5.18441">
        <ele>18.05</ele>
        <time>2021-03-21T00:57:24Z</time>
      </trkpt>
      <trkpt lat="57.93719" lon="-5.18466">
        <ele>19.83</ele>
        <time>2021-03-21T00:57:29Z</time>
      </trkpt>
      <trkpt lat="57.93699" lon="-5.185">
        <ele>22.38</ele>
        <time>2021-03-21T00:57:33Z</time>
      </trkpt>
      <trkpt lat="57.93671" lon="-5.18577">
        <ele>25.17</ele>
        <time>2021-03-21T00:57:38Z</time>
      </trkpt>
      <trkpt lat="57.93641" lon="-5.18679">
        <ele>21.83</ele>
        <time>2021-03-21T00:57:43Z</time>
      </trkpt>
      <trkpt lat="57.93627" lon="-5.1875">
        <ele>19.78</ele>
        <time>2021-03-21T00:57:47Z</time>
      </trkpt>
      <trkpt lat="57.93615" lon="-5.18827">
        <ele>16.26</ele>
        <time>2021-03-21T00:57:52Z</time>
      </trkpt>
      <trkpt lat="57.93606" lon="-5.18868">
        <ele>20.62</ele>
        <time>2021-03-21T00:57:57Z</time>
      </trkpt>
      <trkpt lat="57.93584" lon="-5.18926">
        <ele>21.69</ele>
        <time>2021-03-21T00:58:02Z</time>
      </trkpt>
      <trkpt lat="57.9351" lon="-5.19211">
        <ele>6.32</ele>
        <time>2021-03-21T00:58:06Z</time>
      </trkpt>
      <trkpt lat="57.93496" lon="-5.19273">
        <ele>6.28</ele>
        <time>2021-03-21T00:58:11Z</time>
      </trkpt>
      <trkpt lat="57.93424" lon="-5.19546">
        <ele>5</ele>
        <time>2021-03-21T00:58:16Z</time>
      </trkpt>
      <trkpt lat="57.93414" lon="-5.19577">
        <ele>5</ele>
        <time>2021-03-21T00:58:20Z</time>
      </trkpt>
      <trkpt lat="57.93403" lon="-5.19603">
        <ele>5</ele>
        <time>2021-03-21T00:58:25Z</time>
      </trkpt>
      <trkpt lat="57.93393" lon="-5.19618">
        <ele>5</ele>
        <time>2021-03-21T00:58:30Z</time>
      </trkpt>
      <trkpt lat="57.93384" lon="-5.19629">
        <ele>4.89</ele>
        <time>2021-03-21T00:58:35Z</time>
      </trkpt>
      <trkpt lat="57.93369" lon="-5.19637">
        <ele>4.34</ele>
        <time>2021-03-21T00:58:39Z</time>
      </trkpt>
      <trkpt lat="57.93346" lon="-5.19641">
        <ele>4</ele>
        <time>2021-03-21T00:58:44Z</time>
      </trkpt>
      <trkpt lat="57.93326" lon="-5.19639">
        <ele>4.01</ele>
        <time>2021-03-21T00:58:49Z</time>
      </trkpt>
      <trkpt lat="57.93271" lon="-5.19622">
        <ele>4.61</ele>
        <time>2021-03-21T00:58:53Z</time>
      </trkpt>
      <trkpt lat="57.93252" lon="-5.19621">
        <ele>4.65</ele>
        <time>2021-03-21T00:58:58Z</time>
      </trkpt>
      <trkpt lat="57.93203" lon="-5.19623">
        <ele>5.58</ele>
        <time>2021-03-21T00:59:03Z</time>
      </trkpt>
      <trkpt lat="57.93125" lon="-5.19637">
        <ele>6.6</ele>
        <time>2021-03-21T00:59:08Z</time>
      </trkpt>
      <trkpt lat="57.93089" lon="-5.19652">
        <ele>6.18</ele>
        <time>2021-03-21T00:59:12Z</time>
      </trkpt>
      <trkpt lat="57.93033" lon="-5.19682">
        <ele>6.93</ele>
        <time>2021-03-21T00:59:17Z</time>
      </trkpt>
      <trkpt lat="57.93" lon="-5.19707">
        <ele>7.66</ele>
        <time>2021-03-21T00:59:22Z</time>
      </trkpt>
      <trkpt lat="57.92939" lon="-5.1976">
        <ele>11.21</ele>
        <time>2021-03-21T00:59:26Z</time>
      </trkpt>
      <trkpt lat="57.92914" lon="-5.19771">
        <ele>14.91</ele>
        <time>2021-03-21T00:59:31Z</time>
      </trkpt>
      <trkpt lat="57.92902" lon="-5.19772">
        <ele>16.45</ele>
        <time>2021-03-21T00:59:36Z</time>
      </trkpt>
      <trkpt lat="57.92889" lon="-5.19767">
        <ele>18.37</ele>
        <time>2021-03-21T00:59:41Z</time>
      </trkpt>
      <trkpt lat="57.92872" lon="-5.19758">
        <ele>20.56</ele>
        <time>2021-03-21T00:59:45Z</time>
      </trkpt>
      <trkpt lat="57.92856" lon="-5.1974">
        <ele>22.93</ele>
        <time>2021-03-21T00:59:50Z</time>
      </trkpt>
      <trkpt lat="57.92844" lon="-5.19721">
        <ele>24.91</ele>
        <time>2021-03-21T00:59:55Z</time>
      </trkpt>
      <trkpt lat="57.92823" lon="-5.19677">
        <ele>28.7</ele>
        <time>2021-03-21T00:59:59Z</time>
      </trkpt>
      <trkpt lat="57.92755" lon="-5.19505">
        <ele>35.97</ele>
        <time>2021-03-21T01:00:04Z</time>
      </trkpt>
      <trkpt lat="57.92742" lon="-5.19481">
        <ele>37.53</ele>
        <time>2021-03-21T01:00:09Z</time>
      </trkpt>
      <trkpt lat="57.92727" lon="-5.19462">
        <ele>39.92</ele>
        <time>2021-03-21T01:00:14Z</time>
      </trkpt>
      <trkpt lat="57.92712" lon="-5.1945">
        <ele>42.17</ele>
        <time>2021-03-21T01:00:18Z</time>
      </trkpt>
      <trkpt lat="57.92515" lon="-5.19378">
        <ele>57.47</ele>
        <time>2021-03-21T01:00:23Z</time>
      </trkpt>
      <trkpt lat="57.92496" lon="-5.19368">
        <ele>58.04</ele>
        <time>2021-03-21T01:00:28Z</time>
      </trkpt>
      <trkpt lat="57.92472" lon="-5.19352">
        <ele>57.67</ele>
        <time>2021-03-21T01:00:32Z</time>
      </trkpt>
      <trkpt lat="57.92444" lon="-5.1932">
        <ele>56.98</ele>
        <time>2021-03-21T01:00:37Z</time>
      </trkpt>
      <trkpt lat="57.92291" lon="-5.19117">
        <ele>50.03</ele>
        <time>2021-03-21T01:00:42Z</time>
      </trkpt>
      <trkpt lat="57.92277" lon="-5.19102">
        <ele>48.95</ele>
        <time>2021-03-21T01:00:47Z</time>
      </trkpt>
      <trkpt lat="57.92249" lon="-5.19082">
        <ele>46.79</ele>
        <time>2021-03-21T01:00:51Z</time>
      </trkpt>
      <trkpt lat="57.92227" lon="-5.19073">
        <ele>44.94</ele>
        <time>2021-03-21T01:00:56Z</time>
      </trkpt>
      <trkpt lat="57.92175" lon="-5.19068">
        <ele>40.28</ele>
        <time>2021-03-21T01:01:01Z</time>
      </trkpt>
      <trkpt lat="57.92102" lon="-5.19069">
        <ele>35.15</ele>
        <time>2021-03-21T01:01:05Z</time>
      </trkpt>
      <trkpt lat="57.92085" lon="-5.19072">
        <ele>34.66</ele>
        <time>2021-03-21T01:01:10Z</time>
      </trkpt>
      <trkpt lat="57.92068" lon="-5.19082">
        <ele>34.95</ele>
        <time>2021-03-21T01:01:15Z</time>
      </trkpt>
      <trkpt lat="57.92048" lon="-5.19097">
        <ele>34.71</ele>
        <time>2021-03-21T01:01:20Z</time>
      </trkpt>
      <trkpt lat="57.92018" lon="-5.19131">
        <ele>33.74</ele>
        <time>2021-03-21T01:01:24Z</time>
      </trkpt>
      <trkpt lat="57.91935" lon="-5.19248">
        <ele>28.67</ele>
        <time>2021-03-21T01:01:29Z</time>
      </trkpt>
      <trkpt lat="57.91907" lon="-5.19275">
        <ele>30</ele>
        <time>2021-03-21T01:01:34Z</time>
      </trkpt>
      <trkpt lat="57.91886" lon="-5.19287">
        <ele>30.22</ele>
        <time>2021-03-21T01:01:38Z</time>
      </trkpt>
      <trkpt lat="57.9187" lon="-5.1929">
        <ele>31.67</ele>
        <time>2021-03-21T01:01:43Z</time>
      </trkpt>
      <trkpt lat="57.91846" lon="-5.19286">
        <ele>34.58</ele>
        <time>2021-03-21T01:01:48Z</time>
      </trkpt>
      <trkpt lat="57.91836" lon="-5.1928">
        <ele>35.76</ele>
        <time>2021-03-21T01:01:53Z</time>
      </trkpt>
      <trkpt lat="57.91821" lon="-5.19266">
        <ele>38.05</ele>
        <time>2021-03-21T01:01:57Z</time>
      </trkpt>
      <trkpt lat="57.91802" lon="-5.19237">
        <ele>39.35</ele>
        <time>2021-03-21T01:02:02Z</time>
      </trkpt>
      <trkpt lat="57.91791" lon="-5.19215">
        <ele>40.08</ele>
        <time>2021-03-21T01:02:07Z</time>
      </trkpt>
      <trkpt lat="57.91771" lon="-5.19162">
        <ele>42.44</ele>
        <time>2021-03-21T01:02:11Z</time>
      </trkpt>
      <trkpt lat="57.91637" lon="-5.18707">
        <ele>71.14</ele>
        <time>2021-03-21T01:02:16Z</time>
      </trkpt>
      <trkpt lat="57.91595" lon="-5.18589">
        <ele>77.87</ele>
        <time>2021-03-21T01:02:21Z</time>
      </trkpt>
      <trkpt lat="57.91564" lon="-5.18506">
        <ele>82.18</ele>
        <time>2021-03-21T01:02:26Z</time>
      </trkpt>
      <trkpt lat="57.91552" lon="-5.18483">
        <ele>84.54</ele>
        <time>2021-03-21T01:02:30Z</time>
      </trkpt>
      <trkpt lat="57.91539" lon="-5.18463">
        <ele>86.2</ele>
        <time>2021-03-21T01:02:35Z</time>
      </trkpt>
      <trkpt lat="57.91513" lon="-5.18443">
        <ele>89.04</ele>
        <time>2021-03-21T01:02:40Z</time>
      </trkpt>
      <trkpt lat="57.91495" lon="-5.18439">
        <ele>90.04</ele>
        <time>2021-03-21T01:02:44Z</time>
      </trkpt>
      <trkpt lat="57.91478" lon="-5.18438">
        <ele>90.18</ele>
        <time>2021-03-21T01:02:49Z</time>
      </trkpt>
      <trkpt lat="57.91456" lon="-5.18444">
        <ele>90.6</ele>
        <time>2021-03-21T01:02:54Z</time>
      </trkpt>
      <trkpt lat="57.91412" lon="-5.18462">
        <ele>91.16</ele>
        <time>2021-03-21T01:02:59Z</time>
      </trkpt>
      <trkpt lat="57.91397" lon="-5.18465">
        <ele>91.71</ele>
        <time>2021-03-21T01:03:03Z</time>
      </trkpt>
      <trkpt lat="57.91373" lon="-5.18464">
        <ele>91.61</ele>
        <time>2021-03-21T01:03:08Z</time>
      </trkpt>
      <trkpt lat="57.91349" lon="-5.18452">
        <ele>89.99</ele>
        <time>2021-03-21T01:03:13Z</time>
      </trkpt>
      <trkpt lat="57.91334" lon="-5.18439">
        <ele>88.25</ele>
        <time>2021-03-21T01:03:17Z</time>
      </trkpt>
      <trkpt lat="57.91322" lon="-5.18425">
        <ele>86.64</ele>
        <time>2021-03-21T01:03:22Z</time>
      </trkpt>
      <trkpt lat="57.91266" lon="-5.18343">
        <ele>81.35</ele>
        <time>2021-03-21T01:03:27Z</time>
      </trkpt>
      <trkpt lat="57.91087" lon="-5.1806">
        <ele>61.59</ele>
        <time>2021-03-21T01:03:32Z</time>
      </trkpt>
      <trkpt lat="57.90863" lon="-5.17639">
        <ele>41.51</ele>
        <time>2021-03-21T01:03:36Z</time>
      </trkpt>
      <trkpt lat="57.90816" lon="-5.17539">
        <ele>42.08</ele>
        <time>2021-03-21T01:03:41Z</time>
      </trkpt>
      <trkpt lat="57.90806" lon="-5.1751">
        <ele>41.65</ele>
        <time>2021-03-21T01:03:46Z</time>
      </trkpt>
      <trkpt lat="57.90797" lon="-5.17477">
        <ele>42.1</ele>
        <time>2021-03-21T01:03:50Z</time>
      </trkpt>
      <trkpt lat="57.90782" lon="-5.1741">
        <ele>42.23</ele>
        <time>2021-03-21T01:03:55Z</time>
      </trkpt>
      <trkpt lat="57.90775" lon="-5.17363">
        <ele>41.32</ele>
        <time>2021-03-21T01:04:00Z</time>
      </trkpt>
      <trkpt lat="57.90764" lon="-5.17258">
        <ele>39.4</ele>
        <time>2021-03-21T01:04:05Z</time>
      </trkpt>
      <trkpt lat="57.9076" lon="-5.17193">
        <ele>37.38</ele>
        <time>2021-03-21T01:04:09Z</time>
      </trkpt>
      <trkpt lat="57.90761" lon="-5.17074">
        <ele>37.04</ele>
        <time>2021-03-21T01:04:14Z</time>
      </trkpt>
      <trkpt lat="57.9076" lon="-5.17041">
        <ele>36.47</ele>
        <time>2021-03-21T01:04:19Z</time>
      </trkpt>
      <trkpt lat="57.90755" lon="-5.17001">
        <ele>35.08</ele>
        <time>2021-03-21T01:04:23Z</time>
      </trkpt>
      <trkpt lat="57.90749" lon="-5.16977">
        <ele>34.67</ele>
        <time>2021-03-21T01:04:28Z</time>
      </trkpt>
      <trkpt lat="57.90712" lon="-5.16858">
        <ele>30.27</ele>
        <time>2021-03-21T01:04:33Z</time>
      </trkpt>
      <trkpt lat="57.90673" lon="-5.16724">
        <ele>27.33</ele>
        <time>2021-03-21T01:04:38Z</time>
      </trkpt>
      <trkpt lat="57.90613" lon="-5.16507">
        <ele>23.07</ele>
        <time>2021-03-21T01:04:42Z</time>
      </trkpt>
      <trkpt lat="57.90478" lon="-5.16009">
        <ele>23.45</ele>
        <time>2021-03-21T01:04:47Z</time>
      </trkpt>
      <trkpt lat="57.90461" lon="-5.1596">
        <ele>24.22</ele>
        <time>2021-03-21T01:04:52Z</time>
      </trkpt>
      <trkpt lat="57.90447" lon="-5.1593">
        <ele>25.55</ele>
        <time>2021-03-21T01:04:56Z</time>
      </trkpt>
      <trkpt lat="57.90416" lon="-5.15886">
        <ele>26.12</ele>
        <time>2021-03-21T01:05:01Z</time>
      </trkpt>
      <trkpt lat="57.90395" lon="-5.15868">
        <ele>26.77</ele>
        <time>2021-03-21T01:05:06Z</time>
      </trkpt>
      <trkpt lat="57.90359" lon="-5.15853">
        <ele>27.44</ele>
        <time>2021-03-21T01:05:11Z</time>
      </trkpt>
      <trkpt lat="57.90297" lon="-5.15844">
        <ele>25.63</ele>
        <time>2021-03-21T01:05:15Z</time>
      </trkpt>
      <trkpt lat="57.90272" lon="-5.15832">
        <ele>25.89</ele>
        <time>2021-03-21T01:05:20Z</time>
      </trkpt>
      <trkpt lat="57.90171" lon="-5.15755">
        <ele>21.23</ele>
        <time>2021-03-21T01:05:25Z</time>
      </trkpt>
      <trkpt lat="57.90138" lon="-5.15738">
        <ele>21.42</ele>
        <time>2021-03-21T01:05:29Z</time>
      </trkpt>
      <trkpt lat="57.90073" lon="-5.15724">
        <ele>20</ele>
        <time>2021-03-21T01:05:34Z</time>
      </trkpt>
      <trkpt lat="57.8998" lon="-5.1572">
        <ele>18.27</ele>
        <time>2021-03-21T01:05:39Z</time>
      </trkpt>
      <trkpt lat="57.89938" lon="-5.15712">
        <ele>16.76</ele>
        <time>2021-03-21T01:05:44Z</time>
      </trkpt>
      <trkpt lat="57.89879" lon="-5.15668">
        <ele>16.37</ele>
        <time>2021-03-21T01:05:48Z</time>
      </trkpt>
      <trkpt lat="57.89754" lon="-5.15559">
        <ele>14.14</ele>
        <time>2021-03-21T01:05:53Z</time>
      </trkpt>
      <trkpt lat="57.8968" lon="-5.15503">
        <ele>10.59</ele>
        <time>2021-03-21T01:05:58Z</time>
      </trkpt>
      <trkpt lat="57.89668" lon="-5.15491">
        <ele>9.12</ele>
        <time>2021-03-21T01:06:02Z</time>
      </trkpt>
      <trkpt lat="57.89664" lon="-5.15478">
        <ele>8.77</ele>
        <time>2021-03-21T01:06:07Z</time>
      </trkpt>
      <trkpt lat="57.8963" lon="-5.15651">
        <ele>7.61</ele>
        <time>2021-03-21T01:06:20Z</time>
      </trkpt>
    </trkseg>
  </trk>
</gpx>